<?xml version="1.0" encoding="UTF-8" standalone="no" ?>
<gpx xmlns="http://www.topografix.com/GPX/1/1" xmlns:xsi="http://www.w3.org/2001/XMLSchema-instance" xsi:schemaLocation="http://www.topografix.com/GPX/1/1 http://www.topografix.com/GPX/1/1/gpx.xsd" version="1.1" creator="VisuGPX - https://www.visugpx.com">
  <metadata>
    <name>23km - Gare de Thomery</name>
    <desc><![CDATA[23 km boucle depuis la gare de Thomery, en passant par Moret Sur Loing.]]></desc>
  </metadata>
  <trk>
    <name><![CDATA[13-JUIN-21 04:44:21 PM]]></name>
    <trkseg>
      <trkpt lat="48.39456" lon="2.76368">
        <ele>88.7</ele>
        <time>2021-06-13T08:00:17Z</time>
      </trkpt>
      <trkpt lat="48.39457" lon="2.76368">
        <ele>88.6</ele>
        <time>2021-06-13T08:00:27Z</time>
      </trkpt>
      <trkpt lat="48.39458" lon="2.76368">
        <ele>88.6</ele>
        <time>2021-06-13T08:00:37Z</time>
      </trkpt>
      <trkpt lat="48.3946" lon="2.76367">
        <ele>88.5</ele>
        <time>2021-06-13T08:00:50Z</time>
      </trkpt>
      <trkpt lat="48.39461" lon="2.76368">
        <ele>88.5</ele>
        <time>2021-06-13T08:01:02Z</time>
      </trkpt>
      <trkpt lat="48.3946" lon="2.76368">
        <ele>88.5</ele>
        <time>2021-06-13T08:01:11Z</time>
      </trkpt>
      <trkpt lat="48.39462" lon="2.76367">
        <ele>88.5</ele>
        <time>2021-06-13T08:01:22Z</time>
      </trkpt>
      <trkpt lat="48.39463" lon="2.76366">
        <ele>88.4</ele>
        <time>2021-06-13T08:01:32Z</time>
      </trkpt>
      <trkpt lat="48.39465" lon="2.76364">
        <ele>88.4</ele>
        <time>2021-06-13T08:01:48Z</time>
      </trkpt>
      <trkpt lat="48.39466" lon="2.76364">
        <ele>88.3</ele>
        <time>2021-06-13T08:01:56Z</time>
      </trkpt>
      <trkpt lat="48.39464" lon="2.76364">
        <ele>88.4</ele>
        <time>2021-06-13T08:02:02Z</time>
      </trkpt>
      <trkpt lat="48.39463" lon="2.76366">
        <ele>88.4</ele>
        <time>2021-06-13T08:02:09Z</time>
      </trkpt>
      <trkpt lat="48.39462" lon="2.76366">
        <ele>88.5</ele>
        <time>2021-06-13T08:02:21Z</time>
      </trkpt>
      <trkpt lat="48.39462" lon="2.76366">
        <ele>88.5</ele>
        <time>2021-06-13T08:02:29Z</time>
      </trkpt>
      <trkpt lat="48.39461" lon="2.76367">
        <ele>88.5</ele>
        <time>2021-06-13T08:02:36Z</time>
      </trkpt>
      <trkpt lat="48.3946" lon="2.76373">
        <ele>88.5</ele>
        <time>2021-06-13T08:02:43Z</time>
      </trkpt>
      <trkpt lat="48.39458" lon="2.76381">
        <ele>88.4</ele>
        <time>2021-06-13T08:02:51Z</time>
      </trkpt>
      <trkpt lat="48.39456" lon="2.76384">
        <ele>88.5</ele>
        <time>2021-06-13T08:02:57Z</time>
      </trkpt>
      <trkpt lat="48.39454" lon="2.76385">
        <ele>88.5</ele>
        <time>2021-06-13T08:03:04Z</time>
      </trkpt>
      <trkpt lat="48.39453" lon="2.76384">
        <ele>88.6</ele>
        <time>2021-06-13T08:03:13Z</time>
      </trkpt>
      <trkpt lat="48.39423" lon="2.76382">
        <ele>89.6</ele>
        <time>2021-06-13T08:03:40Z</time>
      </trkpt>
      <trkpt lat="48.39426" lon="2.76382">
        <ele>89.5</ele>
        <time>2021-06-13T08:03:42Z</time>
      </trkpt>
      <trkpt lat="48.39428" lon="2.76388">
        <ele>89.3</ele>
        <time>2021-06-13T08:03:48Z</time>
      </trkpt>
      <trkpt lat="48.39427" lon="2.76392">
        <ele>89.3</ele>
        <time>2021-06-13T08:03:56Z</time>
      </trkpt>
      <trkpt lat="48.3942" lon="2.76399">
        <ele>89.3</ele>
        <time>2021-06-13T08:04:04Z</time>
      </trkpt>
      <trkpt lat="48.39414" lon="2.76402">
        <ele>89.5</ele>
        <time>2021-06-13T08:04:11Z</time>
      </trkpt>
      <trkpt lat="48.39408" lon="2.76402">
        <ele>89.8</ele>
        <time>2021-06-13T08:04:18Z</time>
      </trkpt>
      <trkpt lat="48.39401" lon="2.76405">
        <ele>90.1</ele>
        <time>2021-06-13T08:04:26Z</time>
      </trkpt>
      <trkpt lat="48.39396" lon="2.76407">
        <ele>90.4</ele>
        <time>2021-06-13T08:04:32Z</time>
      </trkpt>
      <trkpt lat="48.39387" lon="2.76409">
        <ele>90.8</ele>
        <time>2021-06-13T08:04:39Z</time>
      </trkpt>
      <trkpt lat="48.39385" lon="2.76409">
        <ele>91</ele>
        <time>2021-06-13T08:04:41Z</time>
      </trkpt>
      <trkpt lat="48.39379" lon="2.7641">
        <ele>91.3</ele>
        <time>2021-06-13T08:04:47Z</time>
      </trkpt>
      <trkpt lat="48.39376" lon="2.76409">
        <ele>91.5</ele>
        <time>2021-06-13T08:04:53Z</time>
      </trkpt>
      <trkpt lat="48.39371" lon="2.76409">
        <ele>91.8</ele>
        <time>2021-06-13T08:04:58Z</time>
      </trkpt>
      <trkpt lat="48.39364" lon="2.76409">
        <ele>92.2</ele>
        <time>2021-06-13T08:05:05Z</time>
      </trkpt>
      <trkpt lat="48.39358" lon="2.7641">
        <ele>92.5</ele>
        <time>2021-06-13T08:05:11Z</time>
      </trkpt>
      <trkpt lat="48.3935" lon="2.76409">
        <ele>93</ele>
        <time>2021-06-13T08:05:19Z</time>
      </trkpt>
      <trkpt lat="48.39345" lon="2.7641">
        <ele>93.2</ele>
        <time>2021-06-13T08:05:23Z</time>
      </trkpt>
      <trkpt lat="48.39342" lon="2.76409">
        <ele>93.4</ele>
        <time>2021-06-13T08:05:28Z</time>
      </trkpt>
      <trkpt lat="48.39336" lon="2.76411">
        <ele>93.8</ele>
        <time>2021-06-13T08:05:33Z</time>
      </trkpt>
      <trkpt lat="48.39329" lon="2.76412">
        <ele>94.1</ele>
        <time>2021-06-13T08:05:40Z</time>
      </trkpt>
      <trkpt lat="48.39324" lon="2.76414">
        <ele>94.3</ele>
        <time>2021-06-13T08:05:47Z</time>
      </trkpt>
      <trkpt lat="48.39322" lon="2.76413">
        <ele>94.3</ele>
        <time>2021-06-13T08:05:50Z</time>
      </trkpt>
      <trkpt lat="48.39313" lon="2.76415">
        <ele>94.7</ele>
        <time>2021-06-13T08:05:57Z</time>
      </trkpt>
      <trkpt lat="48.39304" lon="2.76414">
        <ele>95</ele>
        <time>2021-06-13T08:06:04Z</time>
      </trkpt>
      <trkpt lat="48.39295" lon="2.76413">
        <ele>95.3</ele>
        <time>2021-06-13T08:06:11Z</time>
      </trkpt>
      <trkpt lat="48.39288" lon="2.76413">
        <ele>95.5</ele>
        <time>2021-06-13T08:06:18Z</time>
      </trkpt>
      <trkpt lat="48.39287" lon="2.76413">
        <ele>95.6</ele>
        <time>2021-06-13T08:06:19Z</time>
      </trkpt>
      <trkpt lat="48.39279" lon="2.76416">
        <ele>95.9</ele>
        <time>2021-06-13T08:06:23Z</time>
      </trkpt>
      <trkpt lat="48.39267" lon="2.76417">
        <ele>96.4</ele>
        <time>2021-06-13T08:06:32Z</time>
      </trkpt>
      <trkpt lat="48.39263" lon="2.76416">
        <ele>96.5</ele>
        <time>2021-06-13T08:06:38Z</time>
      </trkpt>
      <trkpt lat="48.39257" lon="2.76415">
        <ele>96.7</ele>
        <time>2021-06-13T08:06:44Z</time>
      </trkpt>
      <trkpt lat="48.3925" lon="2.76414">
        <ele>96.9</ele>
        <time>2021-06-13T08:06:49Z</time>
      </trkpt>
      <trkpt lat="48.39244" lon="2.7641">
        <ele>96.6</ele>
        <time>2021-06-13T08:06:55Z</time>
      </trkpt>
      <trkpt lat="48.39238" lon="2.76409">
        <ele>96.4</ele>
        <time>2021-06-13T08:07:00Z</time>
      </trkpt>
      <trkpt lat="48.39235" lon="2.76408">
        <ele>96.3</ele>
        <time>2021-06-13T08:07:02Z</time>
      </trkpt>
      <trkpt lat="48.39225" lon="2.76408">
        <ele>96.1</ele>
        <time>2021-06-13T08:07:07Z</time>
      </trkpt>
      <trkpt lat="48.39219" lon="2.76411">
        <ele>96</ele>
        <time>2021-06-13T08:07:14Z</time>
      </trkpt>
      <trkpt lat="48.39213" lon="2.76411">
        <ele>95.9</ele>
        <time>2021-06-13T08:07:21Z</time>
      </trkpt>
      <trkpt lat="48.39206" lon="2.76413">
        <ele>95.9</ele>
        <time>2021-06-13T08:07:27Z</time>
      </trkpt>
      <trkpt lat="48.39205" lon="2.76414">
        <ele>95.8</ele>
        <time>2021-06-13T08:07:28Z</time>
      </trkpt>
      <trkpt lat="48.39199" lon="2.76414">
        <ele>95.7</ele>
        <time>2021-06-13T08:07:32Z</time>
      </trkpt>
      <trkpt lat="48.39188" lon="2.76416">
        <ele>95.5</ele>
        <time>2021-06-13T08:07:39Z</time>
      </trkpt>
      <trkpt lat="48.39177" lon="2.76416">
        <ele>95.2</ele>
        <time>2021-06-13T08:07:48Z</time>
      </trkpt>
      <trkpt lat="48.39166" lon="2.76416">
        <ele>95</ele>
        <time>2021-06-13T08:07:56Z</time>
      </trkpt>
      <trkpt lat="48.39157" lon="2.76418">
        <ele>95.5</ele>
        <time>2021-06-13T08:08:03Z</time>
      </trkpt>
      <trkpt lat="48.3915" lon="2.76419">
        <ele>95.9</ele>
        <time>2021-06-13T08:08:10Z</time>
      </trkpt>
      <trkpt lat="48.39141" lon="2.76421">
        <ele>96.4</ele>
        <time>2021-06-13T08:08:16Z</time>
      </trkpt>
      <trkpt lat="48.39133" lon="2.7642">
        <ele>96.7</ele>
        <time>2021-06-13T08:08:23Z</time>
      </trkpt>
      <trkpt lat="48.39126" lon="2.7642">
        <ele>97.1</ele>
        <time>2021-06-13T08:08:30Z</time>
      </trkpt>
      <trkpt lat="48.39117" lon="2.7642">
        <ele>97.5</ele>
        <time>2021-06-13T08:08:37Z</time>
      </trkpt>
      <trkpt lat="48.39111" lon="2.76416">
        <ele>97.7</ele>
        <time>2021-06-13T08:08:44Z</time>
      </trkpt>
      <trkpt lat="48.39105" lon="2.76417">
        <ele>98</ele>
        <time>2021-06-13T08:08:51Z</time>
      </trkpt>
      <trkpt lat="48.39101" lon="2.76418">
        <ele>98.2</ele>
        <time>2021-06-13T08:08:58Z</time>
      </trkpt>
      <trkpt lat="48.39095" lon="2.76419">
        <ele>98.5</ele>
        <time>2021-06-13T08:09:06Z</time>
      </trkpt>
      <trkpt lat="48.39092" lon="2.76419">
        <ele>98.6</ele>
        <time>2021-06-13T08:09:10Z</time>
      </trkpt>
      <trkpt lat="48.39084" lon="2.76419">
        <ele>99</ele>
        <time>2021-06-13T08:09:14Z</time>
      </trkpt>
      <trkpt lat="48.39082" lon="2.76415">
        <ele>99</ele>
        <time>2021-06-13T08:09:20Z</time>
      </trkpt>
      <trkpt lat="48.39083" lon="2.76403">
        <ele>99</ele>
        <time>2021-06-13T08:09:28Z</time>
      </trkpt>
      <trkpt lat="48.39084" lon="2.76401">
        <ele>99</ele>
        <time>2021-06-13T08:09:29Z</time>
      </trkpt>
      <trkpt lat="48.39084" lon="2.76396">
        <ele>98.9</ele>
        <time>2021-06-13T08:09:32Z</time>
      </trkpt>
      <trkpt lat="48.39082" lon="2.7639">
        <ele>99</ele>
        <time>2021-06-13T08:09:37Z</time>
      </trkpt>
      <trkpt lat="48.39082" lon="2.76389">
        <ele>99</ele>
        <time>2021-06-13T08:09:38Z</time>
      </trkpt>
      <trkpt lat="48.39076" lon="2.76376">
        <ele>98.9</ele>
        <time>2021-06-13T08:09:45Z</time>
      </trkpt>
      <trkpt lat="48.39075" lon="2.76372">
        <ele>98.9</ele>
        <time>2021-06-13T08:09:48Z</time>
      </trkpt>
      <trkpt lat="48.39076" lon="2.76366">
        <ele>98.9</ele>
        <time>2021-06-13T08:09:51Z</time>
      </trkpt>
      <trkpt lat="48.39079" lon="2.76364">
        <ele>98.9</ele>
        <time>2021-06-13T08:09:53Z</time>
      </trkpt>
      <trkpt lat="48.39083" lon="2.76361">
        <ele>99</ele>
        <time>2021-06-13T08:09:56Z</time>
      </trkpt>
      <trkpt lat="48.39084" lon="2.76348">
        <ele>98.9</ele>
        <time>2021-06-13T08:10:02Z</time>
      </trkpt>
      <trkpt lat="48.39082" lon="2.76335">
        <ele>99</ele>
        <time>2021-06-13T08:10:08Z</time>
      </trkpt>
      <trkpt lat="48.39077" lon="2.76324">
        <ele>98.9</ele>
        <time>2021-06-13T08:10:11Z</time>
      </trkpt>
      <trkpt lat="48.39073" lon="2.76313">
        <ele>98.9</ele>
        <time>2021-06-13T08:10:17Z</time>
      </trkpt>
      <trkpt lat="48.39065" lon="2.76303">
        <ele>98.9</ele>
        <time>2021-06-13T08:10:23Z</time>
      </trkpt>
      <trkpt lat="48.39065" lon="2.76293">
        <ele>98.9</ele>
        <time>2021-06-13T08:10:28Z</time>
      </trkpt>
      <trkpt lat="48.39061" lon="2.76281">
        <ele>98.9</ele>
        <time>2021-06-13T08:10:34Z</time>
      </trkpt>
      <trkpt lat="48.3906" lon="2.76279">
        <ele>98.9</ele>
        <time>2021-06-13T08:10:35Z</time>
      </trkpt>
      <trkpt lat="48.39057" lon="2.7627">
        <ele>98.9</ele>
        <time>2021-06-13T08:10:39Z</time>
      </trkpt>
      <trkpt lat="48.39053" lon="2.76265">
        <ele>98.9</ele>
        <time>2021-06-13T08:10:45Z</time>
      </trkpt>
      <trkpt lat="48.39057" lon="2.76255">
        <ele>99</ele>
        <time>2021-06-13T08:10:52Z</time>
      </trkpt>
      <trkpt lat="48.39056" lon="2.76246">
        <ele>99</ele>
        <time>2021-06-13T08:10:59Z</time>
      </trkpt>
      <trkpt lat="48.39055" lon="2.76239">
        <ele>99</ele>
        <time>2021-06-13T08:11:05Z</time>
      </trkpt>
      <trkpt lat="48.39055" lon="2.76226">
        <ele>99.1</ele>
        <time>2021-06-13T08:11:11Z</time>
      </trkpt>
      <trkpt lat="48.39055" lon="2.76215">
        <ele>99.1</ele>
        <time>2021-06-13T08:11:17Z</time>
      </trkpt>
      <trkpt lat="48.39055" lon="2.76211">
        <ele>99.2</ele>
        <time>2021-06-13T08:11:19Z</time>
      </trkpt>
      <trkpt lat="48.39055" lon="2.76191">
        <ele>99.2</ele>
        <time>2021-06-13T08:11:27Z</time>
      </trkpt>
      <trkpt lat="48.39053" lon="2.76182">
        <ele>99.3</ele>
        <time>2021-06-13T08:11:30Z</time>
      </trkpt>
      <trkpt lat="48.39051" lon="2.76172">
        <ele>99.4</ele>
        <time>2021-06-13T08:11:36Z</time>
      </trkpt>
      <trkpt lat="48.39051" lon="2.76163">
        <ele>99.3</ele>
        <time>2021-06-13T08:11:41Z</time>
      </trkpt>
      <trkpt lat="48.39053" lon="2.76152">
        <ele>98.9</ele>
        <time>2021-06-13T08:11:48Z</time>
      </trkpt>
      <trkpt lat="48.39051" lon="2.76139">
        <ele>98.6</ele>
        <time>2021-06-13T08:11:55Z</time>
      </trkpt>
      <trkpt lat="48.39051" lon="2.76128">
        <ele>98.3</ele>
        <time>2021-06-13T08:12:01Z</time>
      </trkpt>
      <trkpt lat="48.3905" lon="2.76118">
        <ele>98</ele>
        <time>2021-06-13T08:12:07Z</time>
      </trkpt>
      <trkpt lat="48.39052" lon="2.76112">
        <ele>97.8</ele>
        <time>2021-06-13T08:12:11Z</time>
      </trkpt>
      <trkpt lat="48.39052" lon="2.76101">
        <ele>97.5</ele>
        <time>2021-06-13T08:12:16Z</time>
      </trkpt>
      <trkpt lat="48.39051" lon="2.7609">
        <ele>97.2</ele>
        <time>2021-06-13T08:12:23Z</time>
      </trkpt>
      <trkpt lat="48.39051" lon="2.76089">
        <ele>97.2</ele>
        <time>2021-06-13T08:12:24Z</time>
      </trkpt>
      <trkpt lat="48.3905" lon="2.76081">
        <ele>97</ele>
        <time>2021-06-13T08:12:29Z</time>
      </trkpt>
      <trkpt lat="48.39049" lon="2.76069">
        <ele>97.1</ele>
        <time>2021-06-13T08:12:36Z</time>
      </trkpt>
      <trkpt lat="48.39049" lon="2.76064">
        <ele>97.1</ele>
        <time>2021-06-13T08:12:38Z</time>
      </trkpt>
      <trkpt lat="48.39048" lon="2.76058">
        <ele>97.2</ele>
        <time>2021-06-13T08:12:42Z</time>
      </trkpt>
      <trkpt lat="48.39048" lon="2.76052">
        <ele>97.2</ele>
        <time>2021-06-13T08:12:45Z</time>
      </trkpt>
      <trkpt lat="48.3905" lon="2.76038">
        <ele>97.3</ele>
        <time>2021-06-13T08:12:53Z</time>
      </trkpt>
      <trkpt lat="48.3905" lon="2.76033">
        <ele>97.4</ele>
        <time>2021-06-13T08:12:55Z</time>
      </trkpt>
      <trkpt lat="48.3905" lon="2.76021">
        <ele>97.4</ele>
        <time>2021-06-13T08:13:02Z</time>
      </trkpt>
      <trkpt lat="48.39049" lon="2.76013">
        <ele>97.5</ele>
        <time>2021-06-13T08:13:06Z</time>
      </trkpt>
      <trkpt lat="48.39048" lon="2.76">
        <ele>97.6</ele>
        <time>2021-06-13T08:13:11Z</time>
      </trkpt>
      <trkpt lat="48.39046" lon="2.7599">
        <ele>97.6</ele>
        <time>2021-06-13T08:13:18Z</time>
      </trkpt>
      <trkpt lat="48.3905" lon="2.75975">
        <ele>97.7</ele>
        <time>2021-06-13T08:13:26Z</time>
      </trkpt>
      <trkpt lat="48.3905" lon="2.75966">
        <ele>97.8</ele>
        <time>2021-06-13T08:13:30Z</time>
      </trkpt>
      <trkpt lat="48.39047" lon="2.75955">
        <ele>97.8</ele>
        <time>2021-06-13T08:13:37Z</time>
      </trkpt>
      <trkpt lat="48.39047" lon="2.75942">
        <ele>97.9</ele>
        <time>2021-06-13T08:13:43Z</time>
      </trkpt>
      <trkpt lat="48.39047" lon="2.75938">
        <ele>97.9</ele>
        <time>2021-06-13T08:13:45Z</time>
      </trkpt>
      <trkpt lat="48.39046" lon="2.75933">
        <ele>97.9</ele>
        <time>2021-06-13T08:13:47Z</time>
      </trkpt>
      <trkpt lat="48.39047" lon="2.75922">
        <ele>98</ele>
        <time>2021-06-13T08:13:52Z</time>
      </trkpt>
      <trkpt lat="48.39046" lon="2.75908">
        <ele>97.8</ele>
        <time>2021-06-13T08:13:59Z</time>
      </trkpt>
      <trkpt lat="48.39046" lon="2.75901">
        <ele>97.6</ele>
        <time>2021-06-13T08:14:05Z</time>
      </trkpt>
      <trkpt lat="48.39044" lon="2.7589">
        <ele>97.4</ele>
        <time>2021-06-13T08:14:11Z</time>
      </trkpt>
      <trkpt lat="48.39043" lon="2.75877">
        <ele>97</ele>
        <time>2021-06-13T08:14:18Z</time>
      </trkpt>
      <trkpt lat="48.39042" lon="2.75873">
        <ele>96.9</ele>
        <time>2021-06-13T08:14:21Z</time>
      </trkpt>
      <trkpt lat="48.39043" lon="2.75861">
        <ele>96.7</ele>
        <time>2021-06-13T08:14:28Z</time>
      </trkpt>
      <trkpt lat="48.39043" lon="2.75846">
        <ele>96.3</ele>
        <time>2021-06-13T08:14:34Z</time>
      </trkpt>
      <trkpt lat="48.39043" lon="2.75844">
        <ele>96.3</ele>
        <time>2021-06-13T08:14:36Z</time>
      </trkpt>
      <trkpt lat="48.39041" lon="2.75834">
        <ele>96</ele>
        <time>2021-06-13T08:14:43Z</time>
      </trkpt>
      <trkpt lat="48.3904" lon="2.75829">
        <ele>95.8</ele>
        <time>2021-06-13T08:14:46Z</time>
      </trkpt>
      <trkpt lat="48.3904" lon="2.75823">
        <ele>95.6</ele>
        <time>2021-06-13T08:14:49Z</time>
      </trkpt>
      <trkpt lat="48.3904" lon="2.75804">
        <ele>94.8</ele>
        <time>2021-06-13T08:14:58Z</time>
      </trkpt>
      <trkpt lat="48.39042" lon="2.75799">
        <ele>94.5</ele>
        <time>2021-06-13T08:15:01Z</time>
      </trkpt>
      <trkpt lat="48.39042" lon="2.75784">
        <ele>93.9</ele>
        <time>2021-06-13T08:15:08Z</time>
      </trkpt>
      <trkpt lat="48.39041" lon="2.75777">
        <ele>93.6</ele>
        <time>2021-06-13T08:15:12Z</time>
      </trkpt>
      <trkpt lat="48.3904" lon="2.7576">
        <ele>92.9</ele>
        <time>2021-06-13T08:15:21Z</time>
      </trkpt>
      <trkpt lat="48.39043" lon="2.75746">
        <ele>92.4</ele>
        <time>2021-06-13T08:15:28Z</time>
      </trkpt>
      <trkpt lat="48.39042" lon="2.75733">
        <ele>92</ele>
        <time>2021-06-13T08:15:34Z</time>
      </trkpt>
      <trkpt lat="48.39043" lon="2.7572">
        <ele>91.6</ele>
        <time>2021-06-13T08:15:40Z</time>
      </trkpt>
      <trkpt lat="48.39043" lon="2.7571">
        <ele>91.3</ele>
        <time>2021-06-13T08:15:46Z</time>
      </trkpt>
      <trkpt lat="48.39042" lon="2.75708">
        <ele>91.2</ele>
        <time>2021-06-13T08:15:48Z</time>
      </trkpt>
      <trkpt lat="48.39037" lon="2.75695">
        <ele>90.8</ele>
        <time>2021-06-13T08:15:56Z</time>
      </trkpt>
      <trkpt lat="48.39036" lon="2.75687">
        <ele>90.5</ele>
        <time>2021-06-13T08:16:00Z</time>
      </trkpt>
      <trkpt lat="48.39036" lon="2.75673">
        <ele>90</ele>
        <time>2021-06-13T08:16:07Z</time>
      </trkpt>
      <trkpt lat="48.39037" lon="2.75664">
        <ele>89.9</ele>
        <time>2021-06-13T08:16:11Z</time>
      </trkpt>
      <trkpt lat="48.39038" lon="2.75649">
        <ele>89.9</ele>
        <time>2021-06-13T08:16:19Z</time>
      </trkpt>
      <trkpt lat="48.39038" lon="2.75638">
        <ele>89.9</ele>
        <time>2021-06-13T08:16:25Z</time>
      </trkpt>
      <trkpt lat="48.39037" lon="2.75633">
        <ele>89.9</ele>
        <time>2021-06-13T08:16:27Z</time>
      </trkpt>
      <trkpt lat="48.39032" lon="2.75622">
        <ele>89.9</ele>
        <time>2021-06-13T08:16:34Z</time>
      </trkpt>
      <trkpt lat="48.39033" lon="2.75611">
        <ele>89.9</ele>
        <time>2021-06-13T08:16:39Z</time>
      </trkpt>
      <trkpt lat="48.39034" lon="2.75599">
        <ele>90</ele>
        <time>2021-06-13T08:16:46Z</time>
      </trkpt>
      <trkpt lat="48.39035" lon="2.75589">
        <ele>90</ele>
        <time>2021-06-13T08:16:53Z</time>
      </trkpt>
      <trkpt lat="48.39035" lon="2.7557">
        <ele>89.7</ele>
        <time>2021-06-13T08:17:02Z</time>
      </trkpt>
      <trkpt lat="48.39036" lon="2.75555">
        <ele>89.3</ele>
        <time>2021-06-13T08:17:11Z</time>
      </trkpt>
      <trkpt lat="48.39034" lon="2.7555">
        <ele>89.2</ele>
        <time>2021-06-13T08:17:18Z</time>
      </trkpt>
      <trkpt lat="48.39034" lon="2.75547">
        <ele>89.1</ele>
        <time>2021-06-13T08:17:27Z</time>
      </trkpt>
      <trkpt lat="48.39033" lon="2.75545">
        <ele>89.1</ele>
        <time>2021-06-13T08:17:38Z</time>
      </trkpt>
      <trkpt lat="48.39031" lon="2.75545">
        <ele>89.1</ele>
        <time>2021-06-13T08:17:42Z</time>
      </trkpt>
      <trkpt lat="48.39026" lon="2.75542">
        <ele>89</ele>
        <time>2021-06-13T08:17:48Z</time>
      </trkpt>
      <trkpt lat="48.39018" lon="2.75537">
        <ele>88.9</ele>
        <time>2021-06-13T08:17:54Z</time>
      </trkpt>
      <trkpt lat="48.39016" lon="2.75534">
        <ele>88.8</ele>
        <time>2021-06-13T08:17:58Z</time>
      </trkpt>
      <trkpt lat="48.39012" lon="2.75532">
        <ele>88.8</ele>
        <time>2021-06-13T08:18:01Z</time>
      </trkpt>
      <trkpt lat="48.39006" lon="2.75524">
        <ele>88.6</ele>
        <time>2021-06-13T08:18:06Z</time>
      </trkpt>
      <trkpt lat="48.39006" lon="2.75522">
        <ele>88.5</ele>
        <time>2021-06-13T08:18:07Z</time>
      </trkpt>
      <trkpt lat="48.39003" lon="2.7552">
        <ele>88.5</ele>
        <time>2021-06-13T08:18:10Z</time>
      </trkpt>
      <trkpt lat="48.39006" lon="2.75516">
        <ele>88.4</ele>
        <time>2021-06-13T08:18:13Z</time>
      </trkpt>
      <trkpt lat="48.39002" lon="2.75507">
        <ele>88.2</ele>
        <time>2021-06-13T08:18:18Z</time>
      </trkpt>
      <trkpt lat="48.38998" lon="2.75499">
        <ele>88.2</ele>
        <time>2021-06-13T08:18:23Z</time>
      </trkpt>
      <trkpt lat="48.38998" lon="2.75494">
        <ele>88.4</ele>
        <time>2021-06-13T08:18:26Z</time>
      </trkpt>
      <trkpt lat="48.38994" lon="2.75488">
        <ele>88.9</ele>
        <time>2021-06-13T08:18:32Z</time>
      </trkpt>
      <trkpt lat="48.38988" lon="2.75482">
        <ele>89.6</ele>
        <time>2021-06-13T08:18:37Z</time>
      </trkpt>
      <trkpt lat="48.38981" lon="2.75484">
        <ele>90.4</ele>
        <time>2021-06-13T08:18:44Z</time>
      </trkpt>
      <trkpt lat="48.38979" lon="2.75485">
        <ele>90.6</ele>
        <time>2021-06-13T08:18:46Z</time>
      </trkpt>
      <trkpt lat="48.38976" lon="2.75483">
        <ele>90.9</ele>
        <time>2021-06-13T08:18:50Z</time>
      </trkpt>
      <trkpt lat="48.38971" lon="2.75482">
        <ele>91.5</ele>
        <time>2021-06-13T08:18:56Z</time>
      </trkpt>
      <trkpt lat="48.38964" lon="2.75483">
        <ele>92.2</ele>
        <time>2021-06-13T08:19:03Z</time>
      </trkpt>
      <trkpt lat="48.38961" lon="2.75484">
        <ele>92.5</ele>
        <time>2021-06-13T08:19:09Z</time>
      </trkpt>
      <trkpt lat="48.38955" lon="2.75485">
        <ele>93.2</ele>
        <time>2021-06-13T08:19:15Z</time>
      </trkpt>
      <trkpt lat="48.38947" lon="2.75484">
        <ele>94</ele>
        <time>2021-06-13T08:19:21Z</time>
      </trkpt>
      <trkpt lat="48.3894" lon="2.75481">
        <ele>94.6</ele>
        <time>2021-06-13T08:19:28Z</time>
      </trkpt>
      <trkpt lat="48.38933" lon="2.75482">
        <ele>95.5</ele>
        <time>2021-06-13T08:19:36Z</time>
      </trkpt>
      <trkpt lat="48.38924" lon="2.75482">
        <ele>96.4</ele>
        <time>2021-06-13T08:19:43Z</time>
      </trkpt>
      <trkpt lat="48.38917" lon="2.75484">
        <ele>97.1</ele>
        <time>2021-06-13T08:19:50Z</time>
      </trkpt>
      <trkpt lat="48.3891" lon="2.75484">
        <ele>96.9</ele>
        <time>2021-06-13T08:19:57Z</time>
      </trkpt>
      <trkpt lat="48.38906" lon="2.75484">
        <ele>96.8</ele>
        <time>2021-06-13T08:20:00Z</time>
      </trkpt>
      <trkpt lat="48.38903" lon="2.75485">
        <ele>96.7</ele>
        <time>2021-06-13T08:20:02Z</time>
      </trkpt>
      <trkpt lat="48.38894" lon="2.75484">
        <ele>96.3</ele>
        <time>2021-06-13T08:20:09Z</time>
      </trkpt>
      <trkpt lat="48.38885" lon="2.7548">
        <ele>95.8</ele>
        <time>2021-06-13T08:20:16Z</time>
      </trkpt>
      <trkpt lat="48.38876" lon="2.75479">
        <ele>95.4</ele>
        <time>2021-06-13T08:20:23Z</time>
      </trkpt>
      <trkpt lat="48.38869" lon="2.75476">
        <ele>95</ele>
        <time>2021-06-13T08:20:29Z</time>
      </trkpt>
      <trkpt lat="48.38862" lon="2.75476">
        <ele>94.8</ele>
        <time>2021-06-13T08:20:36Z</time>
      </trkpt>
      <trkpt lat="48.38853" lon="2.75475">
        <ele>94.4</ele>
        <time>2021-06-13T08:20:44Z</time>
      </trkpt>
      <trkpt lat="48.38849" lon="2.75475">
        <ele>94.3</ele>
        <time>2021-06-13T08:20:49Z</time>
      </trkpt>
      <trkpt lat="48.38843" lon="2.75473">
        <ele>94</ele>
        <time>2021-06-13T08:20:55Z</time>
      </trkpt>
      <trkpt lat="48.38835" lon="2.75475">
        <ele>93.8</ele>
        <time>2021-06-13T08:21:01Z</time>
      </trkpt>
      <trkpt lat="48.38825" lon="2.75474">
        <ele>93.5</ele>
        <time>2021-06-13T08:21:08Z</time>
      </trkpt>
      <trkpt lat="48.3882" lon="2.75472">
        <ele>93.4</ele>
        <time>2021-06-13T08:21:13Z</time>
      </trkpt>
      <trkpt lat="48.38809" lon="2.7547">
        <ele>93.1</ele>
        <time>2021-06-13T08:21:21Z</time>
      </trkpt>
      <trkpt lat="48.38802" lon="2.7547">
        <ele>93</ele>
        <time>2021-06-13T08:21:24Z</time>
      </trkpt>
      <trkpt lat="48.38792" lon="2.75469">
        <ele>92.8</ele>
        <time>2021-06-13T08:21:31Z</time>
      </trkpt>
      <trkpt lat="48.38786" lon="2.75469">
        <ele>92.7</ele>
        <time>2021-06-13T08:21:36Z</time>
      </trkpt>
      <trkpt lat="48.38778" lon="2.75471">
        <ele>92.5</ele>
        <time>2021-06-13T08:21:43Z</time>
      </trkpt>
      <trkpt lat="48.38778" lon="2.7547">
        <ele>92.5</ele>
        <time>2021-06-13T08:21:45Z</time>
      </trkpt>
      <trkpt lat="48.3877" lon="2.75473">
        <ele>92.4</ele>
        <time>2021-06-13T08:21:53Z</time>
      </trkpt>
      <trkpt lat="48.38759" lon="2.75467">
        <ele>92</ele>
        <time>2021-06-13T08:22:00Z</time>
      </trkpt>
      <trkpt lat="48.38755" lon="2.75466">
        <ele>91.9</ele>
        <time>2021-06-13T08:22:03Z</time>
      </trkpt>
      <trkpt lat="48.38745" lon="2.75462">
        <ele>91.7</ele>
        <time>2021-06-13T08:22:11Z</time>
      </trkpt>
      <trkpt lat="48.3874" lon="2.75463">
        <ele>91.9</ele>
        <time>2021-06-13T08:22:14Z</time>
      </trkpt>
      <trkpt lat="48.3873" lon="2.75462">
        <ele>92</ele>
        <time>2021-06-13T08:22:21Z</time>
      </trkpt>
      <trkpt lat="48.38728" lon="2.75462">
        <ele>92</ele>
        <time>2021-06-13T08:22:23Z</time>
      </trkpt>
      <trkpt lat="48.38721" lon="2.75461">
        <ele>92.1</ele>
        <time>2021-06-13T08:22:27Z</time>
      </trkpt>
      <trkpt lat="48.38707" lon="2.75459">
        <ele>92.3</ele>
        <time>2021-06-13T08:22:36Z</time>
      </trkpt>
      <trkpt lat="48.38704" lon="2.75458">
        <ele>92.3</ele>
        <time>2021-06-13T08:22:38Z</time>
      </trkpt>
      <trkpt lat="48.38693" lon="2.75458">
        <ele>92.5</ele>
        <time>2021-06-13T08:22:46Z</time>
      </trkpt>
      <trkpt lat="48.3869" lon="2.75458">
        <ele>92.6</ele>
        <time>2021-06-13T08:22:48Z</time>
      </trkpt>
      <trkpt lat="48.38687" lon="2.75458">
        <ele>92.6</ele>
        <time>2021-06-13T08:22:50Z</time>
      </trkpt>
      <trkpt lat="48.38681" lon="2.7546">
        <ele>92.8</ele>
        <time>2021-06-13T08:22:54Z</time>
      </trkpt>
      <trkpt lat="48.38672" lon="2.75457">
        <ele>92.9</ele>
        <time>2021-06-13T08:23:01Z</time>
      </trkpt>
      <trkpt lat="48.38668" lon="2.75457">
        <ele>92.9</ele>
        <time>2021-06-13T08:23:04Z</time>
      </trkpt>
      <trkpt lat="48.38661" lon="2.75455">
        <ele>93.4</ele>
        <time>2021-06-13T08:23:09Z</time>
      </trkpt>
      <trkpt lat="48.38657" lon="2.75454">
        <ele>93.7</ele>
        <time>2021-06-13T08:23:17Z</time>
      </trkpt>
      <trkpt lat="48.38653" lon="2.75453">
        <ele>94</ele>
        <time>2021-06-13T08:23:31Z</time>
      </trkpt>
      <trkpt lat="48.38651" lon="2.75453">
        <ele>94.2</ele>
        <time>2021-06-13T08:23:42Z</time>
      </trkpt>
      <trkpt lat="48.38649" lon="2.75452">
        <ele>94.3</ele>
        <time>2021-06-13T08:23:45Z</time>
      </trkpt>
      <trkpt lat="48.38642" lon="2.75453">
        <ele>95</ele>
        <time>2021-06-13T08:23:54Z</time>
      </trkpt>
      <trkpt lat="48.38636" lon="2.75454">
        <ele>95.5</ele>
        <time>2021-06-13T08:24:01Z</time>
      </trkpt>
      <trkpt lat="48.3863" lon="2.75455">
        <ele>96</ele>
        <time>2021-06-13T08:24:07Z</time>
      </trkpt>
      <trkpt lat="48.38623" lon="2.75453">
        <ele>96.6</ele>
        <time>2021-06-13T08:24:14Z</time>
      </trkpt>
      <trkpt lat="48.38618" lon="2.75454">
        <ele>97</ele>
        <time>2021-06-13T08:24:21Z</time>
      </trkpt>
      <trkpt lat="48.38616" lon="2.75454">
        <ele>97.2</ele>
        <time>2021-06-13T08:24:24Z</time>
      </trkpt>
      <trkpt lat="48.3861" lon="2.75451">
        <ele>97.6</ele>
        <time>2021-06-13T08:24:30Z</time>
      </trkpt>
      <trkpt lat="48.38603" lon="2.75451">
        <ele>98.1</ele>
        <time>2021-06-13T08:24:35Z</time>
      </trkpt>
      <trkpt lat="48.38594" lon="2.7545">
        <ele>98.9</ele>
        <time>2021-06-13T08:24:42Z</time>
      </trkpt>
      <trkpt lat="48.38583" lon="2.75448">
        <ele>99.7</ele>
        <time>2021-06-13T08:24:49Z</time>
      </trkpt>
      <trkpt lat="48.38577" lon="2.75447">
        <ele>99.9</ele>
        <time>2021-06-13T08:24:53Z</time>
      </trkpt>
      <trkpt lat="48.38568" lon="2.75446">
        <ele>100</ele>
        <time>2021-06-13T08:24:59Z</time>
      </trkpt>
      <trkpt lat="48.38562" lon="2.75444">
        <ele>100.1</ele>
        <time>2021-06-13T08:25:05Z</time>
      </trkpt>
      <trkpt lat="48.38554" lon="2.75442">
        <ele>100.2</ele>
        <time>2021-06-13T08:25:13Z</time>
      </trkpt>
      <trkpt lat="48.38551" lon="2.75441">
        <ele>100.2</ele>
        <time>2021-06-13T08:25:16Z</time>
      </trkpt>
      <trkpt lat="48.38548" lon="2.75441">
        <ele>100.3</ele>
        <time>2021-06-13T08:25:19Z</time>
      </trkpt>
      <trkpt lat="48.38542" lon="2.75442">
        <ele>100.5</ele>
        <time>2021-06-13T08:25:24Z</time>
      </trkpt>
      <trkpt lat="48.38532" lon="2.7544">
        <ele>100.6</ele>
        <time>2021-06-13T08:25:31Z</time>
      </trkpt>
      <trkpt lat="48.38527" lon="2.75441">
        <ele>100.7</ele>
        <time>2021-06-13T08:25:36Z</time>
      </trkpt>
      <trkpt lat="48.3852" lon="2.75438">
        <ele>100.8</ele>
        <time>2021-06-13T08:25:42Z</time>
      </trkpt>
      <trkpt lat="48.38507" lon="2.75434">
        <ele>101</ele>
        <time>2021-06-13T08:25:50Z</time>
      </trkpt>
      <trkpt lat="48.38495" lon="2.75432">
        <ele>101.2</ele>
        <time>2021-06-13T08:25:57Z</time>
      </trkpt>
      <trkpt lat="48.38492" lon="2.75431">
        <ele>101.2</ele>
        <time>2021-06-13T08:25:59Z</time>
      </trkpt>
      <trkpt lat="48.38487" lon="2.75427">
        <ele>101.3</ele>
        <time>2021-06-13T08:26:05Z</time>
      </trkpt>
      <trkpt lat="48.38475" lon="2.75427">
        <ele>101.4</ele>
        <time>2021-06-13T08:26:13Z</time>
      </trkpt>
      <trkpt lat="48.38467" lon="2.75425">
        <ele>101.5</ele>
        <time>2021-06-13T08:26:19Z</time>
      </trkpt>
      <trkpt lat="48.38464" lon="2.75425">
        <ele>101.5</ele>
        <time>2021-06-13T08:26:21Z</time>
      </trkpt>
      <trkpt lat="48.38452" lon="2.75422">
        <ele>101.6</ele>
        <time>2021-06-13T08:26:29Z</time>
      </trkpt>
      <trkpt lat="48.38443" lon="2.75416">
        <ele>101.7</ele>
        <time>2021-06-13T08:26:36Z</time>
      </trkpt>
      <trkpt lat="48.38432" lon="2.75417">
        <ele>101.8</ele>
        <time>2021-06-13T08:26:45Z</time>
      </trkpt>
      <trkpt lat="48.38424" lon="2.75417">
        <ele>101.9</ele>
        <time>2021-06-13T08:26:51Z</time>
      </trkpt>
      <trkpt lat="48.38421" lon="2.75417">
        <ele>101.9</ele>
        <time>2021-06-13T08:26:54Z</time>
      </trkpt>
      <trkpt lat="48.38416" lon="2.7542">
        <ele>102</ele>
        <time>2021-06-13T08:26:58Z</time>
      </trkpt>
      <trkpt lat="48.38404" lon="2.75415">
        <ele>102.2</ele>
        <time>2021-06-13T08:27:07Z</time>
      </trkpt>
      <trkpt lat="48.38399" lon="2.75413">
        <ele>102.2</ele>
        <time>2021-06-13T08:27:11Z</time>
      </trkpt>
      <trkpt lat="48.38394" lon="2.7541">
        <ele>102.3</ele>
        <time>2021-06-13T08:27:15Z</time>
      </trkpt>
      <trkpt lat="48.38387" lon="2.75402">
        <ele>102.5</ele>
        <time>2021-06-13T08:27:23Z</time>
      </trkpt>
      <trkpt lat="48.38386" lon="2.75403">
        <ele>102.5</ele>
        <time>2021-06-13T08:27:24Z</time>
      </trkpt>
      <trkpt lat="48.38382" lon="2.75403">
        <ele>102.5</ele>
        <time>2021-06-13T08:27:29Z</time>
      </trkpt>
      <trkpt lat="48.38379" lon="2.75404">
        <ele>102.5</ele>
        <time>2021-06-13T08:27:32Z</time>
      </trkpt>
      <trkpt lat="48.38372" lon="2.75405">
        <ele>102.6</ele>
        <time>2021-06-13T08:27:39Z</time>
      </trkpt>
      <trkpt lat="48.3837" lon="2.75404">
        <ele>102.6</ele>
        <time>2021-06-13T08:27:41Z</time>
      </trkpt>
      <trkpt lat="48.38361" lon="2.75401">
        <ele>102.7</ele>
        <time>2021-06-13T08:27:48Z</time>
      </trkpt>
      <trkpt lat="48.38355" lon="2.75399">
        <ele>102.8</ele>
        <time>2021-06-13T08:27:54Z</time>
      </trkpt>
      <trkpt lat="48.38351" lon="2.75398">
        <ele>102.8</ele>
        <time>2021-06-13T08:27:57Z</time>
      </trkpt>
      <trkpt lat="48.38345" lon="2.75399">
        <ele>102.9</ele>
        <time>2021-06-13T08:28:02Z</time>
      </trkpt>
      <trkpt lat="48.38339" lon="2.75393">
        <ele>103</ele>
        <time>2021-06-13T08:28:10Z</time>
      </trkpt>
      <trkpt lat="48.3834" lon="2.75389">
        <ele>102.9</ele>
        <time>2021-06-13T08:28:21Z</time>
      </trkpt>
      <trkpt lat="48.3834" lon="2.75383">
        <ele>103</ele>
        <time>2021-06-13T08:28:32Z</time>
      </trkpt>
      <trkpt lat="48.38339" lon="2.75385">
        <ele>103</ele>
        <time>2021-06-13T08:28:38Z</time>
      </trkpt>
      <trkpt lat="48.38337" lon="2.75386">
        <ele>103</ele>
        <time>2021-06-13T08:28:42Z</time>
      </trkpt>
      <trkpt lat="48.38328" lon="2.75391">
        <ele>103</ele>
        <time>2021-06-13T08:28:49Z</time>
      </trkpt>
      <trkpt lat="48.38325" lon="2.75391">
        <ele>103</ele>
        <time>2021-06-13T08:28:52Z</time>
      </trkpt>
      <trkpt lat="48.38321" lon="2.75391">
        <ele>103</ele>
        <time>2021-06-13T08:28:55Z</time>
      </trkpt>
      <trkpt lat="48.38311" lon="2.75392">
        <ele>103</ele>
        <time>2021-06-13T08:29:04Z</time>
      </trkpt>
      <trkpt lat="48.38305" lon="2.7539">
        <ele>103</ele>
        <time>2021-06-13T08:29:10Z</time>
      </trkpt>
      <trkpt lat="48.38296" lon="2.75389">
        <ele>103</ele>
        <time>2021-06-13T08:29:20Z</time>
      </trkpt>
      <trkpt lat="48.38291" lon="2.75386">
        <ele>103</ele>
        <time>2021-06-13T08:29:26Z</time>
      </trkpt>
      <trkpt lat="48.38284" lon="2.75386">
        <ele>103</ele>
        <time>2021-06-13T08:29:33Z</time>
      </trkpt>
      <trkpt lat="48.38275" lon="2.75385">
        <ele>103</ele>
        <time>2021-06-13T08:29:41Z</time>
      </trkpt>
      <trkpt lat="48.38268" lon="2.75381">
        <ele>103</ele>
        <time>2021-06-13T08:29:48Z</time>
      </trkpt>
      <trkpt lat="48.38262" lon="2.75381">
        <ele>103</ele>
        <time>2021-06-13T08:29:54Z</time>
      </trkpt>
      <trkpt lat="48.38251" lon="2.75375">
        <ele>103</ele>
        <time>2021-06-13T08:30:02Z</time>
      </trkpt>
      <trkpt lat="48.38242" lon="2.75377">
        <ele>103</ele>
        <time>2021-06-13T08:30:08Z</time>
      </trkpt>
      <trkpt lat="48.38235" lon="2.75371">
        <ele>102.9</ele>
        <time>2021-06-13T08:30:13Z</time>
      </trkpt>
      <trkpt lat="48.3823" lon="2.75374">
        <ele>102.9</ele>
        <time>2021-06-13T08:30:17Z</time>
      </trkpt>
      <trkpt lat="48.38221" lon="2.75371">
        <ele>102.8</ele>
        <time>2021-06-13T08:30:24Z</time>
      </trkpt>
      <trkpt lat="48.38215" lon="2.7537">
        <ele>102.8</ele>
        <time>2021-06-13T08:30:29Z</time>
      </trkpt>
      <trkpt lat="48.38203" lon="2.75366">
        <ele>102.7</ele>
        <time>2021-06-13T08:30:37Z</time>
      </trkpt>
      <trkpt lat="48.38197" lon="2.75365">
        <ele>102.6</ele>
        <time>2021-06-13T08:30:41Z</time>
      </trkpt>
      <trkpt lat="48.38187" lon="2.75367">
        <ele>102.6</ele>
        <time>2021-06-13T08:30:48Z</time>
      </trkpt>
      <trkpt lat="48.38179" lon="2.75366">
        <ele>102.5</ele>
        <time>2021-06-13T08:30:55Z</time>
      </trkpt>
      <trkpt lat="48.38176" lon="2.75366">
        <ele>102.5</ele>
        <time>2021-06-13T08:30:57Z</time>
      </trkpt>
      <trkpt lat="48.38168" lon="2.7536">
        <ele>102.3</ele>
        <time>2021-06-13T08:31:02Z</time>
      </trkpt>
      <trkpt lat="48.38157" lon="2.75358">
        <ele>101.9</ele>
        <time>2021-06-13T08:31:11Z</time>
      </trkpt>
      <trkpt lat="48.38148" lon="2.75354">
        <ele>101.5</ele>
        <time>2021-06-13T08:31:18Z</time>
      </trkpt>
      <trkpt lat="48.38139" lon="2.75352">
        <ele>101.1</ele>
        <time>2021-06-13T08:31:27Z</time>
      </trkpt>
      <trkpt lat="48.38132" lon="2.75351">
        <ele>100.9</ele>
        <time>2021-06-13T08:31:35Z</time>
      </trkpt>
      <trkpt lat="48.38128" lon="2.7535">
        <ele>100.7</ele>
        <time>2021-06-13T08:31:40Z</time>
      </trkpt>
      <trkpt lat="48.38122" lon="2.75348">
        <ele>100.5</ele>
        <time>2021-06-13T08:31:45Z</time>
      </trkpt>
      <trkpt lat="48.38115" lon="2.75348">
        <ele>100.2</ele>
        <time>2021-06-13T08:31:51Z</time>
      </trkpt>
      <trkpt lat="48.38102" lon="2.75345">
        <ele>99.7</ele>
        <time>2021-06-13T08:31:58Z</time>
      </trkpt>
      <trkpt lat="48.3809" lon="2.75341">
        <ele>99.3</ele>
        <time>2021-06-13T08:32:06Z</time>
      </trkpt>
      <trkpt lat="48.38081" lon="2.75336">
        <ele>98.9</ele>
        <time>2021-06-13T08:32:14Z</time>
      </trkpt>
      <trkpt lat="48.38075" lon="2.75337">
        <ele>98.8</ele>
        <time>2021-06-13T08:32:20Z</time>
      </trkpt>
      <trkpt lat="48.38067" lon="2.75338">
        <ele>98.6</ele>
        <time>2021-06-13T08:32:27Z</time>
      </trkpt>
      <trkpt lat="48.38057" lon="2.75336">
        <ele>98.4</ele>
        <time>2021-06-13T08:32:34Z</time>
      </trkpt>
      <trkpt lat="48.3805" lon="2.75333">
        <ele>98.2</ele>
        <time>2021-06-13T08:32:41Z</time>
      </trkpt>
      <trkpt lat="48.38041" lon="2.75331">
        <ele>98</ele>
        <time>2021-06-13T08:32:48Z</time>
      </trkpt>
      <trkpt lat="48.38039" lon="2.7533">
        <ele>97.9</ele>
        <time>2021-06-13T08:32:50Z</time>
      </trkpt>
      <trkpt lat="48.3803" lon="2.75328">
        <ele>97.7</ele>
        <time>2021-06-13T08:32:58Z</time>
      </trkpt>
      <trkpt lat="48.38024" lon="2.75327">
        <ele>97.5</ele>
        <time>2021-06-13T08:33:03Z</time>
      </trkpt>
      <trkpt lat="48.38014" lon="2.75323">
        <ele>97.3</ele>
        <time>2021-06-13T08:33:12Z</time>
      </trkpt>
      <trkpt lat="48.38009" lon="2.75322">
        <ele>97.2</ele>
        <time>2021-06-13T08:33:21Z</time>
      </trkpt>
      <trkpt lat="48.38005" lon="2.75315">
        <ele>97.1</ele>
        <time>2021-06-13T08:33:28Z</time>
      </trkpt>
      <trkpt lat="48.38003" lon="2.75313">
        <ele>97.1</ele>
        <time>2021-06-13T08:33:30Z</time>
      </trkpt>
      <trkpt lat="48.37998" lon="2.75314">
        <ele>97</ele>
        <time>2021-06-13T08:33:37Z</time>
      </trkpt>
      <trkpt lat="48.3799" lon="2.75312">
        <ele>97.1</ele>
        <time>2021-06-13T08:33:44Z</time>
      </trkpt>
      <trkpt lat="48.37985" lon="2.75311">
        <ele>97.2</ele>
        <time>2021-06-13T08:33:50Z</time>
      </trkpt>
      <trkpt lat="48.37983" lon="2.7531">
        <ele>97.2</ele>
        <time>2021-06-13T08:33:52Z</time>
      </trkpt>
      <trkpt lat="48.37973" lon="2.75308">
        <ele>97.3</ele>
        <time>2021-06-13T08:34:00Z</time>
      </trkpt>
      <trkpt lat="48.37965" lon="2.75308">
        <ele>97.4</ele>
        <time>2021-06-13T08:34:07Z</time>
      </trkpt>
      <trkpt lat="48.37955" lon="2.75304">
        <ele>97.5</ele>
        <time>2021-06-13T08:34:14Z</time>
      </trkpt>
      <trkpt lat="48.37949" lon="2.75304">
        <ele>97.6</ele>
        <time>2021-06-13T08:34:17Z</time>
      </trkpt>
      <trkpt lat="48.37937" lon="2.75299">
        <ele>97.8</ele>
        <time>2021-06-13T08:34:25Z</time>
      </trkpt>
      <trkpt lat="48.37935" lon="2.753">
        <ele>97.8</ele>
        <time>2021-06-13T08:34:28Z</time>
      </trkpt>
      <trkpt lat="48.37928" lon="2.75306">
        <ele>97.9</ele>
        <time>2021-06-13T08:34:37Z</time>
      </trkpt>
      <trkpt lat="48.37925" lon="2.75311">
        <ele>97.9</ele>
        <time>2021-06-13T08:34:43Z</time>
      </trkpt>
      <trkpt lat="48.37922" lon="2.75318">
        <ele>97.9</ele>
        <time>2021-06-13T08:34:50Z</time>
      </trkpt>
      <trkpt lat="48.37917" lon="2.75326">
        <ele>98</ele>
        <time>2021-06-13T08:34:56Z</time>
      </trkpt>
      <trkpt lat="48.37912" lon="2.75335">
        <ele>98.1</ele>
        <time>2021-06-13T08:35:04Z</time>
      </trkpt>
      <trkpt lat="48.37902" lon="2.75343">
        <ele>98.3</ele>
        <time>2021-06-13T08:35:13Z</time>
      </trkpt>
      <trkpt lat="48.37899" lon="2.75344">
        <ele>98.4</ele>
        <time>2021-06-13T08:35:17Z</time>
      </trkpt>
      <trkpt lat="48.37893" lon="2.75345">
        <ele>98.4</ele>
        <time>2021-06-13T08:35:24Z</time>
      </trkpt>
      <trkpt lat="48.37888" lon="2.75347">
        <ele>98.5</ele>
        <time>2021-06-13T08:35:30Z</time>
      </trkpt>
      <trkpt lat="48.37884" lon="2.75348">
        <ele>98.5</ele>
        <time>2021-06-13T08:35:32Z</time>
      </trkpt>
      <trkpt lat="48.3787" lon="2.75345">
        <ele>98.6</ele>
        <time>2021-06-13T08:35:40Z</time>
      </trkpt>
      <trkpt lat="48.37858" lon="2.75342">
        <ele>98.7</ele>
        <time>2021-06-13T08:35:48Z</time>
      </trkpt>
      <trkpt lat="48.37853" lon="2.75342">
        <ele>98.7</ele>
        <time>2021-06-13T08:35:53Z</time>
      </trkpt>
      <trkpt lat="48.37847" lon="2.75348">
        <ele>98.7</ele>
        <time>2021-06-13T08:35:59Z</time>
      </trkpt>
      <trkpt lat="48.37845" lon="2.75348">
        <ele>98.8</ele>
        <time>2021-06-13T08:36:00Z</time>
      </trkpt>
      <trkpt lat="48.37828" lon="2.75342">
        <ele>98.9</ele>
        <time>2021-06-13T08:36:09Z</time>
      </trkpt>
      <trkpt lat="48.37821" lon="2.75342">
        <ele>98.9</ele>
        <time>2021-06-13T08:36:16Z</time>
      </trkpt>
      <trkpt lat="48.37814" lon="2.75345">
        <ele>98.9</ele>
        <time>2021-06-13T08:36:24Z</time>
      </trkpt>
      <trkpt lat="48.37813" lon="2.75345">
        <ele>98.9</ele>
        <time>2021-06-13T08:36:33Z</time>
      </trkpt>
      <trkpt lat="48.3781" lon="2.75347">
        <ele>98.9</ele>
        <time>2021-06-13T08:36:41Z</time>
      </trkpt>
      <trkpt lat="48.37807" lon="2.75348">
        <ele>98.9</ele>
        <time>2021-06-13T08:36:44Z</time>
      </trkpt>
      <trkpt lat="48.37802" lon="2.75351">
        <ele>98.9</ele>
        <time>2021-06-13T08:36:48Z</time>
      </trkpt>
      <trkpt lat="48.37798" lon="2.75353">
        <ele>99</ele>
        <time>2021-06-13T08:36:51Z</time>
      </trkpt>
      <trkpt lat="48.37794" lon="2.75353">
        <ele>99</ele>
        <time>2021-06-13T08:36:54Z</time>
      </trkpt>
      <trkpt lat="48.37787" lon="2.75354">
        <ele>99</ele>
        <time>2021-06-13T08:37:00Z</time>
      </trkpt>
      <trkpt lat="48.37775" lon="2.75357">
        <ele>99.1</ele>
        <time>2021-06-13T08:37:09Z</time>
      </trkpt>
      <trkpt lat="48.3777" lon="2.7536">
        <ele>99.2</ele>
        <time>2021-06-13T08:37:14Z</time>
      </trkpt>
      <trkpt lat="48.37765" lon="2.7536">
        <ele>99.2</ele>
        <time>2021-06-13T08:37:22Z</time>
      </trkpt>
      <trkpt lat="48.37766" lon="2.75359">
        <ele>99.2</ele>
        <time>2021-06-13T08:37:29Z</time>
      </trkpt>
      <trkpt lat="48.37766" lon="2.75357">
        <ele>99.2</ele>
        <time>2021-06-13T08:37:34Z</time>
      </trkpt>
      <trkpt lat="48.37764" lon="2.75352">
        <ele>99.2</ele>
        <time>2021-06-13T08:37:40Z</time>
      </trkpt>
      <trkpt lat="48.37764" lon="2.75352">
        <ele>99.2</ele>
        <time>2021-06-13T08:37:41Z</time>
      </trkpt>
      <trkpt lat="48.37762" lon="2.75348">
        <ele>99.1</ele>
        <time>2021-06-13T08:37:47Z</time>
      </trkpt>
      <trkpt lat="48.37758" lon="2.75344">
        <ele>99.1</ele>
        <time>2021-06-13T08:37:54Z</time>
      </trkpt>
      <trkpt lat="48.37754" lon="2.75337">
        <ele>99</ele>
        <time>2021-06-13T08:37:59Z</time>
      </trkpt>
      <trkpt lat="48.37747" lon="2.7533">
        <ele>99</ele>
        <time>2021-06-13T08:38:05Z</time>
      </trkpt>
      <trkpt lat="48.37747" lon="2.7533">
        <ele>99</ele>
        <time>2021-06-13T08:38:06Z</time>
      </trkpt>
      <trkpt lat="48.37729" lon="2.75321">
        <ele>98.8</ele>
        <time>2021-06-13T08:38:13Z</time>
      </trkpt>
      <trkpt lat="48.37724" lon="2.75313">
        <ele>98.7</ele>
        <time>2021-06-13T08:38:17Z</time>
      </trkpt>
      <trkpt lat="48.37713" lon="2.75308">
        <ele>98.6</ele>
        <time>2021-06-13T08:38:23Z</time>
      </trkpt>
      <trkpt lat="48.37702" lon="2.75295">
        <ele>98.3</ele>
        <time>2021-06-13T08:38:31Z</time>
      </trkpt>
      <trkpt lat="48.37691" lon="2.75291">
        <ele>98.1</ele>
        <time>2021-06-13T08:38:39Z</time>
      </trkpt>
      <trkpt lat="48.37689" lon="2.75288">
        <ele>98.1</ele>
        <time>2021-06-13T08:38:43Z</time>
      </trkpt>
      <trkpt lat="48.37683" lon="2.75283">
        <ele>97.9</ele>
        <time>2021-06-13T08:38:47Z</time>
      </trkpt>
      <trkpt lat="48.37673" lon="2.75275">
        <ele>97.7</ele>
        <time>2021-06-13T08:38:54Z</time>
      </trkpt>
      <trkpt lat="48.37662" lon="2.75268">
        <ele>97.5</ele>
        <time>2021-06-13T08:39:00Z</time>
      </trkpt>
      <trkpt lat="48.37651" lon="2.7526">
        <ele>97.4</ele>
        <time>2021-06-13T08:39:06Z</time>
      </trkpt>
      <trkpt lat="48.37648" lon="2.75255">
        <ele>97.3</ele>
        <time>2021-06-13T08:39:12Z</time>
      </trkpt>
      <trkpt lat="48.37645" lon="2.75247">
        <ele>97.1</ele>
        <time>2021-06-13T08:39:18Z</time>
      </trkpt>
      <trkpt lat="48.37644" lon="2.75246">
        <ele>97.1</ele>
        <time>2021-06-13T08:39:24Z</time>
      </trkpt>
      <trkpt lat="48.37644" lon="2.75242">
        <ele>97</ele>
        <time>2021-06-13T08:39:30Z</time>
      </trkpt>
      <trkpt lat="48.37642" lon="2.75236">
        <ele>96.8</ele>
        <time>2021-06-13T08:39:36Z</time>
      </trkpt>
      <trkpt lat="48.37638" lon="2.75231">
        <ele>96.6</ele>
        <time>2021-06-13T08:39:41Z</time>
      </trkpt>
      <trkpt lat="48.37634" lon="2.75228">
        <ele>96.5</ele>
        <time>2021-06-13T08:39:44Z</time>
      </trkpt>
      <trkpt lat="48.37624" lon="2.7522">
        <ele>96.1</ele>
        <time>2021-06-13T08:39:51Z</time>
      </trkpt>
      <trkpt lat="48.37621" lon="2.75218">
        <ele>96</ele>
        <time>2021-06-13T08:39:52Z</time>
      </trkpt>
      <trkpt lat="48.37609" lon="2.75209">
        <ele>95.3</ele>
        <time>2021-06-13T08:39:59Z</time>
      </trkpt>
      <trkpt lat="48.37599" lon="2.75199">
        <ele>94.6</ele>
        <time>2021-06-13T08:40:05Z</time>
      </trkpt>
      <trkpt lat="48.37592" lon="2.75195">
        <ele>94.2</ele>
        <time>2021-06-13T08:40:12Z</time>
      </trkpt>
      <trkpt lat="48.37584" lon="2.75189">
        <ele>93.7</ele>
        <time>2021-06-13T08:40:18Z</time>
      </trkpt>
      <trkpt lat="48.37577" lon="2.75182">
        <ele>92.9</ele>
        <time>2021-06-13T08:40:25Z</time>
      </trkpt>
      <trkpt lat="48.3757" lon="2.75176">
        <ele>92.2</ele>
        <time>2021-06-13T08:40:30Z</time>
      </trkpt>
      <trkpt lat="48.37561" lon="2.75169">
        <ele>91.3</ele>
        <time>2021-06-13T08:40:38Z</time>
      </trkpt>
      <trkpt lat="48.37558" lon="2.75165">
        <ele>91.1</ele>
        <time>2021-06-13T08:40:44Z</time>
      </trkpt>
      <trkpt lat="48.37546" lon="2.75156">
        <ele>90.5</ele>
        <time>2021-06-13T08:40:50Z</time>
      </trkpt>
      <trkpt lat="48.37529" lon="2.75145">
        <ele>89.8</ele>
        <time>2021-06-13T08:40:58Z</time>
      </trkpt>
      <trkpt lat="48.37524" lon="2.75141">
        <ele>89.6</ele>
        <time>2021-06-13T08:41:15Z</time>
      </trkpt>
      <trkpt lat="48.37523" lon="2.7514">
        <ele>89.5</ele>
        <time>2021-06-13T08:41:24Z</time>
      </trkpt>
      <trkpt lat="48.37521" lon="2.75137">
        <ele>89.4</ele>
        <time>2021-06-13T08:41:28Z</time>
      </trkpt>
      <trkpt lat="48.37511" lon="2.75133">
        <ele>89</ele>
        <time>2021-06-13T08:41:36Z</time>
      </trkpt>
      <trkpt lat="48.37503" lon="2.75124">
        <ele>88.6</ele>
        <time>2021-06-13T08:41:45Z</time>
      </trkpt>
      <trkpt lat="48.37498" lon="2.7512">
        <ele>88.4</ele>
        <time>2021-06-13T08:41:52Z</time>
      </trkpt>
      <trkpt lat="48.37496" lon="2.75116">
        <ele>88.4</ele>
        <time>2021-06-13T08:41:59Z</time>
      </trkpt>
      <trkpt lat="48.37493" lon="2.75111">
        <ele>88.3</ele>
        <time>2021-06-13T08:42:04Z</time>
      </trkpt>
      <trkpt lat="48.37488" lon="2.75104">
        <ele>88.2</ele>
        <time>2021-06-13T08:42:10Z</time>
      </trkpt>
      <trkpt lat="48.37486" lon="2.751">
        <ele>88.2</ele>
        <time>2021-06-13T08:42:15Z</time>
      </trkpt>
      <trkpt lat="48.37483" lon="2.75097">
        <ele>88.1</ele>
        <time>2021-06-13T08:42:20Z</time>
      </trkpt>
      <trkpt lat="48.3748" lon="2.7509">
        <ele>88.1</ele>
        <time>2021-06-13T08:42:26Z</time>
      </trkpt>
      <trkpt lat="48.37478" lon="2.75089">
        <ele>88.1</ele>
        <time>2021-06-13T08:42:27Z</time>
      </trkpt>
      <trkpt lat="48.37466" lon="2.75083">
        <ele>88</ele>
        <time>2021-06-13T08:42:32Z</time>
      </trkpt>
      <trkpt lat="48.37462" lon="2.7508">
        <ele>88.1</ele>
        <time>2021-06-13T08:42:35Z</time>
      </trkpt>
      <trkpt lat="48.37453" lon="2.75075">
        <ele>88.2</ele>
        <time>2021-06-13T08:42:41Z</time>
      </trkpt>
      <trkpt lat="48.37446" lon="2.75069">
        <ele>88.3</ele>
        <time>2021-06-13T08:42:45Z</time>
      </trkpt>
      <trkpt lat="48.37431" lon="2.75057">
        <ele>88.6</ele>
        <time>2021-06-13T08:42:52Z</time>
      </trkpt>
      <trkpt lat="48.37427" lon="2.75054">
        <ele>88.7</ele>
        <time>2021-06-13T08:42:59Z</time>
      </trkpt>
      <trkpt lat="48.37421" lon="2.75048">
        <ele>88.8</ele>
        <time>2021-06-13T08:43:05Z</time>
      </trkpt>
      <trkpt lat="48.37418" lon="2.75046">
        <ele>88.9</ele>
        <time>2021-06-13T08:43:09Z</time>
      </trkpt>
      <trkpt lat="48.37407" lon="2.75039">
        <ele>89</ele>
        <time>2021-06-13T08:43:16Z</time>
      </trkpt>
      <trkpt lat="48.37405" lon="2.75037">
        <ele>89</ele>
        <time>2021-06-13T08:43:18Z</time>
      </trkpt>
      <trkpt lat="48.37393" lon="2.7503">
        <ele>89.1</ele>
        <time>2021-06-13T08:43:24Z</time>
      </trkpt>
      <trkpt lat="48.3739" lon="2.75026">
        <ele>89.1</ele>
        <time>2021-06-13T08:43:28Z</time>
      </trkpt>
      <trkpt lat="48.37382" lon="2.75021">
        <ele>89.2</ele>
        <time>2021-06-13T08:43:34Z</time>
      </trkpt>
      <trkpt lat="48.37375" lon="2.75014">
        <ele>89.2</ele>
        <time>2021-06-13T08:43:42Z</time>
      </trkpt>
      <trkpt lat="48.37375" lon="2.75014">
        <ele>89.3</ele>
        <time>2021-06-13T08:43:43Z</time>
      </trkpt>
      <trkpt lat="48.37353" lon="2.75003">
        <ele>89.2</ele>
        <time>2021-06-13T08:43:50Z</time>
      </trkpt>
      <trkpt lat="48.37346" lon="2.74998">
        <ele>89.2</ele>
        <time>2021-06-13T08:43:57Z</time>
      </trkpt>
      <trkpt lat="48.37343" lon="2.74995">
        <ele>89.2</ele>
        <time>2021-06-13T08:44:03Z</time>
      </trkpt>
      <trkpt lat="48.37334" lon="2.74987">
        <ele>89.3</ele>
        <time>2021-06-13T08:44:10Z</time>
      </trkpt>
      <trkpt lat="48.37328" lon="2.74979">
        <ele>89.9</ele>
        <time>2021-06-13T08:44:15Z</time>
      </trkpt>
      <trkpt lat="48.37322" lon="2.74976">
        <ele>90.4</ele>
        <time>2021-06-13T08:44:19Z</time>
      </trkpt>
      <trkpt lat="48.37318" lon="2.74975">
        <ele>90.7</ele>
        <time>2021-06-13T08:44:23Z</time>
      </trkpt>
      <trkpt lat="48.37316" lon="2.74972">
        <ele>90.9</ele>
        <time>2021-06-13T08:44:25Z</time>
      </trkpt>
      <trkpt lat="48.37313" lon="2.74966">
        <ele>91.3</ele>
        <time>2021-06-13T08:44:28Z</time>
      </trkpt>
      <trkpt lat="48.37304" lon="2.74957">
        <ele>92.2</ele>
        <time>2021-06-13T08:44:35Z</time>
      </trkpt>
      <trkpt lat="48.37296" lon="2.74947">
        <ele>93</ele>
        <time>2021-06-13T08:44:43Z</time>
      </trkpt>
      <trkpt lat="48.37289" lon="2.74941">
        <ele>93.6</ele>
        <time>2021-06-13T08:44:50Z</time>
      </trkpt>
      <trkpt lat="48.37284" lon="2.74935">
        <ele>94.1</ele>
        <time>2021-06-13T08:44:57Z</time>
      </trkpt>
      <trkpt lat="48.37278" lon="2.7493">
        <ele>94.7</ele>
        <time>2021-06-13T08:45:05Z</time>
      </trkpt>
      <trkpt lat="48.37276" lon="2.74929">
        <ele>94.8</ele>
        <time>2021-06-13T08:45:25Z</time>
      </trkpt>
      <trkpt lat="48.37275" lon="2.74928">
        <ele>94.9</ele>
        <time>2021-06-13T08:45:36Z</time>
      </trkpt>
      <trkpt lat="48.37275" lon="2.74924">
        <ele>95</ele>
        <time>2021-06-13T08:45:42Z</time>
      </trkpt>
      <trkpt lat="48.37278" lon="2.74911">
        <ele>95</ele>
        <time>2021-06-13T08:45:51Z</time>
      </trkpt>
      <trkpt lat="48.37278" lon="2.74893">
        <ele>95.1</ele>
        <time>2021-06-13T08:46:00Z</time>
      </trkpt>
      <trkpt lat="48.37279" lon="2.74884">
        <ele>95</ele>
        <time>2021-06-13T08:46:06Z</time>
      </trkpt>
      <trkpt lat="48.37279" lon="2.7488">
        <ele>95</ele>
        <time>2021-06-13T08:46:08Z</time>
      </trkpt>
      <trkpt lat="48.37281" lon="2.74865">
        <ele>94.9</ele>
        <time>2021-06-13T08:46:16Z</time>
      </trkpt>
      <trkpt lat="48.3728" lon="2.74858">
        <ele>95</ele>
        <time>2021-06-13T08:46:24Z</time>
      </trkpt>
      <trkpt lat="48.3728" lon="2.74859">
        <ele>95</ele>
        <time>2021-06-13T08:46:39Z</time>
      </trkpt>
      <trkpt lat="48.37281" lon="2.74859">
        <ele>95</ele>
        <time>2021-06-13T08:46:47Z</time>
      </trkpt>
      <trkpt lat="48.37282" lon="2.74852">
        <ele>94.9</ele>
        <time>2021-06-13T08:46:51Z</time>
      </trkpt>
      <trkpt lat="48.37281" lon="2.74845">
        <ele>95</ele>
        <time>2021-06-13T08:46:55Z</time>
      </trkpt>
      <trkpt lat="48.37283" lon="2.74827">
        <ele>94.7</ele>
        <time>2021-06-13T08:47:01Z</time>
      </trkpt>
      <trkpt lat="48.37283" lon="2.74819">
        <ele>94.6</ele>
        <time>2021-06-13T08:47:04Z</time>
      </trkpt>
      <trkpt lat="48.37281" lon="2.74814">
        <ele>94.8</ele>
        <time>2021-06-13T08:47:07Z</time>
      </trkpt>
      <trkpt lat="48.37282" lon="2.74798">
        <ele>94.4</ele>
        <time>2021-06-13T08:47:14Z</time>
      </trkpt>
      <trkpt lat="48.37283" lon="2.74781">
        <ele>94.1</ele>
        <time>2021-06-13T08:47:23Z</time>
      </trkpt>
      <trkpt lat="48.37283" lon="2.74779">
        <ele>94.1</ele>
        <time>2021-06-13T08:47:31Z</time>
      </trkpt>
      <trkpt lat="48.37283" lon="2.74772">
        <ele>93.9</ele>
        <time>2021-06-13T08:47:39Z</time>
      </trkpt>
      <trkpt lat="48.37284" lon="2.74769">
        <ele>93.9</ele>
        <time>2021-06-13T08:47:43Z</time>
      </trkpt>
      <trkpt lat="48.37285" lon="2.74757">
        <ele>93.6</ele>
        <time>2021-06-13T08:47:50Z</time>
      </trkpt>
      <trkpt lat="48.37285" lon="2.74755">
        <ele>93.5</ele>
        <time>2021-06-13T08:47:51Z</time>
      </trkpt>
      <trkpt lat="48.37286" lon="2.7474">
        <ele>93.3</ele>
        <time>2021-06-13T08:47:59Z</time>
      </trkpt>
      <trkpt lat="48.37287" lon="2.74731">
        <ele>93.2</ele>
        <time>2021-06-13T08:48:04Z</time>
      </trkpt>
      <trkpt lat="48.37286" lon="2.74717">
        <ele>93.1</ele>
        <time>2021-06-13T08:48:12Z</time>
      </trkpt>
      <trkpt lat="48.37288" lon="2.74698">
        <ele>92.8</ele>
        <time>2021-06-13T08:48:21Z</time>
      </trkpt>
      <trkpt lat="48.37287" lon="2.74689">
        <ele>92.8</ele>
        <time>2021-06-13T08:48:26Z</time>
      </trkpt>
      <trkpt lat="48.37287" lon="2.74687">
        <ele>92.8</ele>
        <time>2021-06-13T08:48:27Z</time>
      </trkpt>
      <trkpt lat="48.37287" lon="2.74681">
        <ele>92.7</ele>
        <time>2021-06-13T08:48:30Z</time>
      </trkpt>
      <trkpt lat="48.37288" lon="2.74668">
        <ele>92.6</ele>
        <time>2021-06-13T08:48:38Z</time>
      </trkpt>
      <trkpt lat="48.37288" lon="2.74656">
        <ele>92.6</ele>
        <time>2021-06-13T08:48:45Z</time>
      </trkpt>
      <trkpt lat="48.3729" lon="2.74643">
        <ele>92.7</ele>
        <time>2021-06-13T08:48:51Z</time>
      </trkpt>
      <trkpt lat="48.37288" lon="2.74624">
        <ele>92.8</ele>
        <time>2021-06-13T08:49:00Z</time>
      </trkpt>
      <trkpt lat="48.37288" lon="2.74612">
        <ele>92.8</ele>
        <time>2021-06-13T08:49:06Z</time>
      </trkpt>
      <trkpt lat="48.37287" lon="2.74607">
        <ele>92.9</ele>
        <time>2021-06-13T08:49:09Z</time>
      </trkpt>
      <trkpt lat="48.37287" lon="2.74603">
        <ele>92.9</ele>
        <time>2021-06-13T08:49:11Z</time>
      </trkpt>
      <trkpt lat="48.37289" lon="2.74583">
        <ele>93</ele>
        <time>2021-06-13T08:49:20Z</time>
      </trkpt>
      <trkpt lat="48.37289" lon="2.74577">
        <ele>93.1</ele>
        <time>2021-06-13T08:49:24Z</time>
      </trkpt>
      <trkpt lat="48.3729" lon="2.74554">
        <ele>93.4</ele>
        <time>2021-06-13T08:49:33Z</time>
      </trkpt>
      <trkpt lat="48.3729" lon="2.7454">
        <ele>93.5</ele>
        <time>2021-06-13T08:49:39Z</time>
      </trkpt>
      <trkpt lat="48.37288" lon="2.74527">
        <ele>93.7</ele>
        <time>2021-06-13T08:49:46Z</time>
      </trkpt>
      <trkpt lat="48.3729" lon="2.74508">
        <ele>93.9</ele>
        <time>2021-06-13T08:49:54Z</time>
      </trkpt>
      <trkpt lat="48.37292" lon="2.74496">
        <ele>94.1</ele>
        <time>2021-06-13T08:50:00Z</time>
      </trkpt>
      <trkpt lat="48.37291" lon="2.74479">
        <ele>94.5</ele>
        <time>2021-06-13T08:50:08Z</time>
      </trkpt>
      <trkpt lat="48.37292" lon="2.74463">
        <ele>94.9</ele>
        <time>2021-06-13T08:50:16Z</time>
      </trkpt>
      <trkpt lat="48.37295" lon="2.74447">
        <ele>95.2</ele>
        <time>2021-06-13T08:50:24Z</time>
      </trkpt>
      <trkpt lat="48.37296" lon="2.74427">
        <ele>95.7</ele>
        <time>2021-06-13T08:50:32Z</time>
      </trkpt>
      <trkpt lat="48.37295" lon="2.74411">
        <ele>95.9</ele>
        <time>2021-06-13T08:50:38Z</time>
      </trkpt>
      <trkpt lat="48.37296" lon="2.74405">
        <ele>95.8</ele>
        <time>2021-06-13T08:50:41Z</time>
      </trkpt>
      <trkpt lat="48.37296" lon="2.74387">
        <ele>95.7</ele>
        <time>2021-06-13T08:50:50Z</time>
      </trkpt>
      <trkpt lat="48.37297" lon="2.74374">
        <ele>95.7</ele>
        <time>2021-06-13T08:50:57Z</time>
      </trkpt>
      <trkpt lat="48.37296" lon="2.74371">
        <ele>95.7</ele>
        <time>2021-06-13T08:50:59Z</time>
      </trkpt>
      <trkpt lat="48.37299" lon="2.74354">
        <ele>95.5</ele>
        <time>2021-06-13T08:51:06Z</time>
      </trkpt>
      <trkpt lat="48.37301" lon="2.74339">
        <ele>95.4</ele>
        <time>2021-06-13T08:51:14Z</time>
      </trkpt>
      <trkpt lat="48.37302" lon="2.7432">
        <ele>94.9</ele>
        <time>2021-06-13T08:51:23Z</time>
      </trkpt>
      <trkpt lat="48.37303" lon="2.74302">
        <ele>94.1</ele>
        <time>2021-06-13T08:51:32Z</time>
      </trkpt>
      <trkpt lat="48.37304" lon="2.74288">
        <ele>93.5</ele>
        <time>2021-06-13T08:51:39Z</time>
      </trkpt>
      <trkpt lat="48.37304" lon="2.7427">
        <ele>92.9</ele>
        <time>2021-06-13T08:51:48Z</time>
      </trkpt>
      <trkpt lat="48.37304" lon="2.74255">
        <ele>92.2</ele>
        <time>2021-06-13T08:51:56Z</time>
      </trkpt>
      <trkpt lat="48.37304" lon="2.74249">
        <ele>92</ele>
        <time>2021-06-13T08:51:59Z</time>
      </trkpt>
      <trkpt lat="48.37305" lon="2.74242">
        <ele>91.9</ele>
        <time>2021-06-13T08:52:03Z</time>
      </trkpt>
      <trkpt lat="48.37306" lon="2.74226">
        <ele>91.7</ele>
        <time>2021-06-13T08:52:11Z</time>
      </trkpt>
      <trkpt lat="48.37306" lon="2.74211">
        <ele>91.5</ele>
        <time>2021-06-13T08:52:18Z</time>
      </trkpt>
      <trkpt lat="48.37303" lon="2.74195">
        <ele>91.4</ele>
        <time>2021-06-13T08:52:26Z</time>
      </trkpt>
      <trkpt lat="48.373" lon="2.7418">
        <ele>91.4</ele>
        <time>2021-06-13T08:52:34Z</time>
      </trkpt>
      <trkpt lat="48.37296" lon="2.74163">
        <ele>91.4</ele>
        <time>2021-06-13T08:52:43Z</time>
      </trkpt>
      <trkpt lat="48.37292" lon="2.74152">
        <ele>91.9</ele>
        <time>2021-06-13T08:52:50Z</time>
      </trkpt>
      <trkpt lat="48.37287" lon="2.74137">
        <ele>92.6</ele>
        <time>2021-06-13T08:52:59Z</time>
      </trkpt>
      <trkpt lat="48.37287" lon="2.74128">
        <ele>92.9</ele>
        <time>2021-06-13T08:53:04Z</time>
      </trkpt>
      <trkpt lat="48.37285" lon="2.74116">
        <ele>93.3</ele>
        <time>2021-06-13T08:53:12Z</time>
      </trkpt>
      <trkpt lat="48.37284" lon="2.74111">
        <ele>93.5</ele>
        <time>2021-06-13T08:53:14Z</time>
      </trkpt>
      <trkpt lat="48.3728" lon="2.74099">
        <ele>94.1</ele>
        <time>2021-06-13T08:53:22Z</time>
      </trkpt>
      <trkpt lat="48.37279" lon="2.74092">
        <ele>94.3</ele>
        <time>2021-06-13T08:53:26Z</time>
      </trkpt>
      <trkpt lat="48.37274" lon="2.74079">
        <ele>95.1</ele>
        <time>2021-06-13T08:53:33Z</time>
      </trkpt>
      <trkpt lat="48.37271" lon="2.7407">
        <ele>95.8</ele>
        <time>2021-06-13T08:53:38Z</time>
      </trkpt>
      <trkpt lat="48.3727" lon="2.74066">
        <ele>96.1</ele>
        <time>2021-06-13T08:53:40Z</time>
      </trkpt>
      <trkpt lat="48.37267" lon="2.74056">
        <ele>97</ele>
        <time>2021-06-13T08:53:47Z</time>
      </trkpt>
      <trkpt lat="48.37262" lon="2.74046">
        <ele>97.9</ele>
        <time>2021-06-13T08:53:55Z</time>
      </trkpt>
      <trkpt lat="48.37259" lon="2.74036">
        <ele>98.8</ele>
        <time>2021-06-13T08:54:00Z</time>
      </trkpt>
      <trkpt lat="48.37256" lon="2.74027">
        <ele>99.6</ele>
        <time>2021-06-13T08:54:06Z</time>
      </trkpt>
      <trkpt lat="48.37254" lon="2.74019">
        <ele>100.3</ele>
        <time>2021-06-13T08:54:12Z</time>
      </trkpt>
      <trkpt lat="48.37254" lon="2.7401">
        <ele>100.9</ele>
        <time>2021-06-13T08:54:18Z</time>
      </trkpt>
      <trkpt lat="48.37252" lon="2.74002">
        <ele>101.7</ele>
        <time>2021-06-13T08:54:26Z</time>
      </trkpt>
      <trkpt lat="48.37251" lon="2.74001">
        <ele>101.8</ele>
        <time>2021-06-13T08:54:27Z</time>
      </trkpt>
      <trkpt lat="48.37248" lon="2.7399">
        <ele>101.9</ele>
        <time>2021-06-13T08:54:33Z</time>
      </trkpt>
      <trkpt lat="48.37244" lon="2.73979">
        <ele>101.9</ele>
        <time>2021-06-13T08:54:41Z</time>
      </trkpt>
      <trkpt lat="48.37241" lon="2.73963">
        <ele>101.7</ele>
        <time>2021-06-13T08:54:49Z</time>
      </trkpt>
      <trkpt lat="48.37237" lon="2.73948">
        <ele>101.6</ele>
        <time>2021-06-13T08:54:59Z</time>
      </trkpt>
      <trkpt lat="48.37234" lon="2.73927">
        <ele>101.3</ele>
        <time>2021-06-13T08:55:08Z</time>
      </trkpt>
      <trkpt lat="48.37231" lon="2.73913">
        <ele>101.2</ele>
        <time>2021-06-13T08:55:16Z</time>
      </trkpt>
      <trkpt lat="48.37229" lon="2.73911">
        <ele>101.2</ele>
        <time>2021-06-13T08:55:18Z</time>
      </trkpt>
      <trkpt lat="48.37223" lon="2.73895">
        <ele>101.1</ele>
        <time>2021-06-13T08:55:27Z</time>
      </trkpt>
      <trkpt lat="48.3722" lon="2.73886">
        <ele>101</ele>
        <time>2021-06-13T08:55:31Z</time>
      </trkpt>
      <trkpt lat="48.37219" lon="2.73878">
        <ele>100.9</ele>
        <time>2021-06-13T08:55:37Z</time>
      </trkpt>
      <trkpt lat="48.37213" lon="2.73861">
        <ele>100.8</ele>
        <time>2021-06-13T08:55:45Z</time>
      </trkpt>
      <trkpt lat="48.37212" lon="2.73856">
        <ele>100.7</ele>
        <time>2021-06-13T08:55:48Z</time>
      </trkpt>
      <trkpt lat="48.37208" lon="2.73843">
        <ele>100.6</ele>
        <time>2021-06-13T08:55:56Z</time>
      </trkpt>
      <trkpt lat="48.37205" lon="2.73832">
        <ele>100.6</ele>
        <time>2021-06-13T08:56:02Z</time>
      </trkpt>
      <trkpt lat="48.37203" lon="2.73825">
        <ele>100.6</ele>
        <time>2021-06-13T08:56:08Z</time>
      </trkpt>
      <trkpt lat="48.37203" lon="2.73824">
        <ele>100.7</ele>
        <time>2021-06-13T08:56:09Z</time>
      </trkpt>
      <trkpt lat="48.37199" lon="2.73811">
        <ele>100.8</ele>
        <time>2021-06-13T08:56:17Z</time>
      </trkpt>
      <trkpt lat="48.372" lon="2.7381">
        <ele>100.8</ele>
        <time>2021-06-13T08:56:18Z</time>
      </trkpt>
      <trkpt lat="48.37199" lon="2.73795">
        <ele>101</ele>
        <time>2021-06-13T08:56:26Z</time>
      </trkpt>
      <trkpt lat="48.37197" lon="2.7379">
        <ele>101</ele>
        <time>2021-06-13T08:56:30Z</time>
      </trkpt>
      <trkpt lat="48.37196" lon="2.73785">
        <ele>101.1</ele>
        <time>2021-06-13T08:56:32Z</time>
      </trkpt>
      <trkpt lat="48.37192" lon="2.7377">
        <ele>101.2</ele>
        <time>2021-06-13T08:56:40Z</time>
      </trkpt>
      <trkpt lat="48.37187" lon="2.7376">
        <ele>101.2</ele>
        <time>2021-06-13T08:56:46Z</time>
      </trkpt>
      <trkpt lat="48.37185" lon="2.73755">
        <ele>101.2</ele>
        <time>2021-06-13T08:56:49Z</time>
      </trkpt>
      <trkpt lat="48.37184" lon="2.7374">
        <ele>100.9</ele>
        <time>2021-06-13T08:56:57Z</time>
      </trkpt>
      <trkpt lat="48.37179" lon="2.7373">
        <ele>100.6</ele>
        <time>2021-06-13T08:57:04Z</time>
      </trkpt>
      <trkpt lat="48.37176" lon="2.7372">
        <ele>100.3</ele>
        <time>2021-06-13T08:57:10Z</time>
      </trkpt>
      <trkpt lat="48.37172" lon="2.73706">
        <ele>100</ele>
        <time>2021-06-13T08:57:16Z</time>
      </trkpt>
      <trkpt lat="48.37167" lon="2.73697">
        <ele>99.7</ele>
        <time>2021-06-13T08:57:21Z</time>
      </trkpt>
      <trkpt lat="48.37166" lon="2.73686">
        <ele>99.5</ele>
        <time>2021-06-13T08:57:27Z</time>
      </trkpt>
      <trkpt lat="48.37166" lon="2.73681">
        <ele>99.4</ele>
        <time>2021-06-13T08:57:31Z</time>
      </trkpt>
      <trkpt lat="48.37161" lon="2.73673">
        <ele>99.4</ele>
        <time>2021-06-13T08:57:37Z</time>
      </trkpt>
      <trkpt lat="48.37152" lon="2.73662">
        <ele>99.5</ele>
        <time>2021-06-13T08:57:45Z</time>
      </trkpt>
      <trkpt lat="48.37149" lon="2.7365">
        <ele>99.4</ele>
        <time>2021-06-13T08:57:51Z</time>
      </trkpt>
      <trkpt lat="48.37148" lon="2.73638">
        <ele>99.3</ele>
        <time>2021-06-13T08:57:57Z</time>
      </trkpt>
      <trkpt lat="48.37147" lon="2.73636">
        <ele>99.3</ele>
        <time>2021-06-13T08:57:59Z</time>
      </trkpt>
      <trkpt lat="48.37147" lon="2.73629">
        <ele>99.2</ele>
        <time>2021-06-13T08:58:02Z</time>
      </trkpt>
      <trkpt lat="48.37146" lon="2.73618">
        <ele>99</ele>
        <time>2021-06-13T08:58:07Z</time>
      </trkpt>
      <trkpt lat="48.37141" lon="2.73609">
        <ele>99</ele>
        <time>2021-06-13T08:58:14Z</time>
      </trkpt>
      <trkpt lat="48.37142" lon="2.73602">
        <ele>98.9</ele>
        <time>2021-06-13T08:58:17Z</time>
      </trkpt>
      <trkpt lat="48.37137" lon="2.73588">
        <ele>98.8</ele>
        <time>2021-06-13T08:58:24Z</time>
      </trkpt>
      <trkpt lat="48.37136" lon="2.73584">
        <ele>98.8</ele>
        <time>2021-06-13T08:58:26Z</time>
      </trkpt>
      <trkpt lat="48.37131" lon="2.73569">
        <ele>98.6</ele>
        <time>2021-06-13T08:58:34Z</time>
      </trkpt>
      <trkpt lat="48.37131" lon="2.73567">
        <ele>98.6</ele>
        <time>2021-06-13T08:58:35Z</time>
      </trkpt>
      <trkpt lat="48.3713" lon="2.73564">
        <ele>98.6</ele>
        <time>2021-06-13T08:58:37Z</time>
      </trkpt>
      <trkpt lat="48.37129" lon="2.73552">
        <ele>98.4</ele>
        <time>2021-06-13T08:58:43Z</time>
      </trkpt>
      <trkpt lat="48.37128" lon="2.73548">
        <ele>98.3</ele>
        <time>2021-06-13T08:58:45Z</time>
      </trkpt>
      <trkpt lat="48.37121" lon="2.73534">
        <ele>98.1</ele>
        <time>2021-06-13T08:58:54Z</time>
      </trkpt>
      <trkpt lat="48.37118" lon="2.73525">
        <ele>97.9</ele>
        <time>2021-06-13T08:59:01Z</time>
      </trkpt>
      <trkpt lat="48.37114" lon="2.73513">
        <ele>97.7</ele>
        <time>2021-06-13T08:59:09Z</time>
      </trkpt>
      <trkpt lat="48.37111" lon="2.73505">
        <ele>97.5</ele>
        <time>2021-06-13T08:59:13Z</time>
      </trkpt>
      <trkpt lat="48.3711" lon="2.73492">
        <ele>97.2</ele>
        <time>2021-06-13T08:59:21Z</time>
      </trkpt>
      <trkpt lat="48.37109" lon="2.73487">
        <ele>97.1</ele>
        <time>2021-06-13T08:59:24Z</time>
      </trkpt>
      <trkpt lat="48.37108" lon="2.73474">
        <ele>97</ele>
        <time>2021-06-13T08:59:32Z</time>
      </trkpt>
      <trkpt lat="48.37102" lon="2.7346">
        <ele>96.6</ele>
        <time>2021-06-13T08:59:39Z</time>
      </trkpt>
      <trkpt lat="48.37099" lon="2.73447">
        <ele>96.3</ele>
        <time>2021-06-13T08:59:45Z</time>
      </trkpt>
      <trkpt lat="48.37096" lon="2.73439">
        <ele>96</ele>
        <time>2021-06-13T08:59:49Z</time>
      </trkpt>
      <trkpt lat="48.37093" lon="2.73422">
        <ele>95.6</ele>
        <time>2021-06-13T08:59:58Z</time>
      </trkpt>
      <trkpt lat="48.37092" lon="2.73413">
        <ele>95.4</ele>
        <time>2021-06-13T09:00:03Z</time>
      </trkpt>
      <trkpt lat="48.37089" lon="2.73405">
        <ele>95</ele>
        <time>2021-06-13T09:00:09Z</time>
      </trkpt>
      <trkpt lat="48.37085" lon="2.73394">
        <ele>94.5</ele>
        <time>2021-06-13T09:00:15Z</time>
      </trkpt>
      <trkpt lat="48.37082" lon="2.73378">
        <ele>94.1</ele>
        <time>2021-06-13T09:00:23Z</time>
      </trkpt>
      <trkpt lat="48.37083" lon="2.73369">
        <ele>93.9</ele>
        <time>2021-06-13T09:00:29Z</time>
      </trkpt>
      <trkpt lat="48.37079" lon="2.73363">
        <ele>93.9</ele>
        <time>2021-06-13T09:00:32Z</time>
      </trkpt>
      <trkpt lat="48.37076" lon="2.73355">
        <ele>93.8</ele>
        <time>2021-06-13T09:00:36Z</time>
      </trkpt>
      <trkpt lat="48.3707" lon="2.73342">
        <ele>93.7</ele>
        <time>2021-06-13T09:00:45Z</time>
      </trkpt>
      <trkpt lat="48.37067" lon="2.73334">
        <ele>93.6</ele>
        <time>2021-06-13T09:00:51Z</time>
      </trkpt>
      <trkpt lat="48.37067" lon="2.7333">
        <ele>93.5</ele>
        <time>2021-06-13T09:00:53Z</time>
      </trkpt>
      <trkpt lat="48.37062" lon="2.73312">
        <ele>93.4</ele>
        <time>2021-06-13T09:01:02Z</time>
      </trkpt>
      <trkpt lat="48.37061" lon="2.73302">
        <ele>93.3</ele>
        <time>2021-06-13T09:01:08Z</time>
      </trkpt>
      <trkpt lat="48.37061" lon="2.733">
        <ele>93.3</ele>
        <time>2021-06-13T09:01:10Z</time>
      </trkpt>
      <trkpt lat="48.37059" lon="2.73296">
        <ele>93.3</ele>
        <time>2021-06-13T09:01:12Z</time>
      </trkpt>
      <trkpt lat="48.37059" lon="2.73285">
        <ele>93.1</ele>
        <time>2021-06-13T09:01:19Z</time>
      </trkpt>
      <trkpt lat="48.3706" lon="2.73283">
        <ele>93.1</ele>
        <time>2021-06-13T09:01:31Z</time>
      </trkpt>
      <trkpt lat="48.3706" lon="2.73281">
        <ele>93</ele>
        <time>2021-06-13T09:01:42Z</time>
      </trkpt>
      <trkpt lat="48.37061" lon="2.73282">
        <ele>93</ele>
        <time>2021-06-13T09:01:54Z</time>
      </trkpt>
      <trkpt lat="48.37062" lon="2.73282">
        <ele>93</ele>
        <time>2021-06-13T09:02:05Z</time>
      </trkpt>
      <trkpt lat="48.37062" lon="2.73281">
        <ele>93</ele>
        <time>2021-06-13T09:02:22Z</time>
      </trkpt>
      <trkpt lat="48.3706" lon="2.73281">
        <ele>93</ele>
        <time>2021-06-13T09:02:41Z</time>
      </trkpt>
      <trkpt lat="48.3706" lon="2.73281">
        <ele>93</ele>
        <time>2021-06-13T09:02:57Z</time>
      </trkpt>
      <trkpt lat="48.37059" lon="2.73281">
        <ele>93.1</ele>
        <time>2021-06-13T09:03:08Z</time>
      </trkpt>
      <trkpt lat="48.3706" lon="2.73281">
        <ele>93</ele>
        <time>2021-06-13T09:03:20Z</time>
      </trkpt>
      <trkpt lat="48.37059" lon="2.73279">
        <ele>93</ele>
        <time>2021-06-13T09:03:33Z</time>
      </trkpt>
      <trkpt lat="48.37059" lon="2.73279">
        <ele>93</ele>
        <time>2021-06-13T09:03:44Z</time>
      </trkpt>
      <trkpt lat="48.37059" lon="2.73279">
        <ele>93</ele>
        <time>2021-06-13T09:03:53Z</time>
      </trkpt>
      <trkpt lat="48.37059" lon="2.7328">
        <ele>93</ele>
        <time>2021-06-13T09:04:09Z</time>
      </trkpt>
      <trkpt lat="48.37059" lon="2.7328">
        <ele>93.1</ele>
        <time>2021-06-13T09:04:18Z</time>
      </trkpt>
      <trkpt lat="48.37057" lon="2.73279">
        <ele>93.1</ele>
        <time>2021-06-13T09:04:25Z</time>
      </trkpt>
      <trkpt lat="48.37054" lon="2.73275">
        <ele>93.1</ele>
        <time>2021-06-13T09:04:31Z</time>
      </trkpt>
      <trkpt lat="48.37049" lon="2.73267">
        <ele>93.1</ele>
        <time>2021-06-13T09:04:36Z</time>
      </trkpt>
      <trkpt lat="48.37041" lon="2.73259">
        <ele>93.2</ele>
        <time>2021-06-13T09:04:43Z</time>
      </trkpt>
      <trkpt lat="48.37035" lon="2.73255">
        <ele>93.2</ele>
        <time>2021-06-13T09:04:47Z</time>
      </trkpt>
      <trkpt lat="48.37033" lon="2.73252">
        <ele>93.2</ele>
        <time>2021-06-13T09:04:49Z</time>
      </trkpt>
      <trkpt lat="48.37026" lon="2.73245">
        <ele>93.3</ele>
        <time>2021-06-13T09:04:57Z</time>
      </trkpt>
      <trkpt lat="48.37019" lon="2.7324">
        <ele>93.2</ele>
        <time>2021-06-13T09:05:04Z</time>
      </trkpt>
      <trkpt lat="48.37017" lon="2.73238">
        <ele>93.2</ele>
        <time>2021-06-13T09:05:06Z</time>
      </trkpt>
      <trkpt lat="48.37007" lon="2.7323">
        <ele>93.2</ele>
        <time>2021-06-13T09:05:14Z</time>
      </trkpt>
      <trkpt lat="48.37" lon="2.73222">
        <ele>93</ele>
        <time>2021-06-13T09:05:21Z</time>
      </trkpt>
      <trkpt lat="48.36997" lon="2.73219">
        <ele>93</ele>
        <time>2021-06-13T09:05:24Z</time>
      </trkpt>
      <trkpt lat="48.36994" lon="2.73215">
        <ele>93</ele>
        <time>2021-06-13T09:05:27Z</time>
      </trkpt>
      <trkpt lat="48.36985" lon="2.73207">
        <ele>93.1</ele>
        <time>2021-06-13T09:05:35Z</time>
      </trkpt>
      <trkpt lat="48.36983" lon="2.73205">
        <ele>93.1</ele>
        <time>2021-06-13T09:05:37Z</time>
      </trkpt>
      <trkpt lat="48.36972" lon="2.73199">
        <ele>93.3</ele>
        <time>2021-06-13T09:05:45Z</time>
      </trkpt>
      <trkpt lat="48.36969" lon="2.73197">
        <ele>93.3</ele>
        <time>2021-06-13T09:05:47Z</time>
      </trkpt>
      <trkpt lat="48.36963" lon="2.73191">
        <ele>93.3</ele>
        <time>2021-06-13T09:05:55Z</time>
      </trkpt>
      <trkpt lat="48.36962" lon="2.7319">
        <ele>93.4</ele>
        <time>2021-06-13T09:05:56Z</time>
      </trkpt>
      <trkpt lat="48.3696" lon="2.73187">
        <ele>93.3</ele>
        <time>2021-06-13T09:05:59Z</time>
      </trkpt>
      <trkpt lat="48.36949" lon="2.73178">
        <ele>93.3</ele>
        <time>2021-06-13T09:06:08Z</time>
      </trkpt>
      <trkpt lat="48.3694" lon="2.73171">
        <ele>93.4</ele>
        <time>2021-06-13T09:06:15Z</time>
      </trkpt>
      <trkpt lat="48.36937" lon="2.73169">
        <ele>93.4</ele>
        <time>2021-06-13T09:06:17Z</time>
      </trkpt>
      <trkpt lat="48.36936" lon="2.73167">
        <ele>93.3</ele>
        <time>2021-06-13T09:06:19Z</time>
      </trkpt>
      <trkpt lat="48.3693" lon="2.73162">
        <ele>93.2</ele>
        <time>2021-06-13T09:06:25Z</time>
      </trkpt>
      <trkpt lat="48.36924" lon="2.73151">
        <ele>92.7</ele>
        <time>2021-06-13T09:06:33Z</time>
      </trkpt>
      <trkpt lat="48.36918" lon="2.73145">
        <ele>92.4</ele>
        <time>2021-06-13T09:06:39Z</time>
      </trkpt>
      <trkpt lat="48.36909" lon="2.73137">
        <ele>92.3</ele>
        <time>2021-06-13T09:06:46Z</time>
      </trkpt>
      <trkpt lat="48.36908" lon="2.73137">
        <ele>92.3</ele>
        <time>2021-06-13T09:06:47Z</time>
      </trkpt>
      <trkpt lat="48.36906" lon="2.73135">
        <ele>92.3</ele>
        <time>2021-06-13T09:06:50Z</time>
      </trkpt>
      <trkpt lat="48.36898" lon="2.73124">
        <ele>92.1</ele>
        <time>2021-06-13T09:06:59Z</time>
      </trkpt>
      <trkpt lat="48.36891" lon="2.73117">
        <ele>92.1</ele>
        <time>2021-06-13T09:07:06Z</time>
      </trkpt>
      <trkpt lat="48.36888" lon="2.73114">
        <ele>92.1</ele>
        <time>2021-06-13T09:07:09Z</time>
      </trkpt>
      <trkpt lat="48.36879" lon="2.73101">
        <ele>92</ele>
        <time>2021-06-13T09:07:19Z</time>
      </trkpt>
      <trkpt lat="48.36878" lon="2.73099">
        <ele>92</ele>
        <time>2021-06-13T09:07:21Z</time>
      </trkpt>
      <trkpt lat="48.36874" lon="2.73094">
        <ele>92.1</ele>
        <time>2021-06-13T09:07:26Z</time>
      </trkpt>
      <trkpt lat="48.36872" lon="2.73089">
        <ele>92</ele>
        <time>2021-06-13T09:07:29Z</time>
      </trkpt>
      <trkpt lat="48.36862" lon="2.73077">
        <ele>92.3</ele>
        <time>2021-06-13T09:07:39Z</time>
      </trkpt>
      <trkpt lat="48.36854" lon="2.7307">
        <ele>92.7</ele>
        <time>2021-06-13T09:07:46Z</time>
      </trkpt>
      <trkpt lat="48.36849" lon="2.73062">
        <ele>92.7</ele>
        <time>2021-06-13T09:07:54Z</time>
      </trkpt>
      <trkpt lat="48.36838" lon="2.73055">
        <ele>93.2</ele>
        <time>2021-06-13T09:08:02Z</time>
      </trkpt>
      <trkpt lat="48.36835" lon="2.73052">
        <ele>93.4</ele>
        <time>2021-06-13T09:08:05Z</time>
      </trkpt>
      <trkpt lat="48.36827" lon="2.73044">
        <ele>93.4</ele>
        <time>2021-06-13T09:08:12Z</time>
      </trkpt>
      <trkpt lat="48.36821" lon="2.73037">
        <ele>93.4</ele>
        <time>2021-06-13T09:08:19Z</time>
      </trkpt>
      <trkpt lat="48.36815" lon="2.73033">
        <ele>93.5</ele>
        <time>2021-06-13T09:08:25Z</time>
      </trkpt>
      <trkpt lat="48.36807" lon="2.73023">
        <ele>93.5</ele>
        <time>2021-06-13T09:08:32Z</time>
      </trkpt>
      <trkpt lat="48.36802" lon="2.73014">
        <ele>93.5</ele>
        <time>2021-06-13T09:08:40Z</time>
      </trkpt>
      <trkpt lat="48.36794" lon="2.73004">
        <ele>93.5</ele>
        <time>2021-06-13T09:08:47Z</time>
      </trkpt>
      <trkpt lat="48.3679" lon="2.72997">
        <ele>93.6</ele>
        <time>2021-06-13T09:08:54Z</time>
      </trkpt>
      <trkpt lat="48.36781" lon="2.7299">
        <ele>94.1</ele>
        <time>2021-06-13T09:09:03Z</time>
      </trkpt>
      <trkpt lat="48.36778" lon="2.72985">
        <ele>94.2</ele>
        <time>2021-06-13T09:09:09Z</time>
      </trkpt>
      <trkpt lat="48.36776" lon="2.72986">
        <ele>94.4</ele>
        <time>2021-06-13T09:09:17Z</time>
      </trkpt>
      <trkpt lat="48.36775" lon="2.72985">
        <ele>94.4</ele>
        <time>2021-06-13T09:09:23Z</time>
      </trkpt>
      <trkpt lat="48.36775" lon="2.72985">
        <ele>94.4</ele>
        <time>2021-06-13T09:09:24Z</time>
      </trkpt>
      <trkpt lat="48.36773" lon="2.72984">
        <ele>94.5</ele>
        <time>2021-06-13T09:09:29Z</time>
      </trkpt>
      <trkpt lat="48.36763" lon="2.72988">
        <ele>95.1</ele>
        <time>2021-06-13T09:09:38Z</time>
      </trkpt>
      <trkpt lat="48.3676" lon="2.72988">
        <ele>95.3</ele>
        <time>2021-06-13T09:09:41Z</time>
      </trkpt>
      <trkpt lat="48.36754" lon="2.7299">
        <ele>95.6</ele>
        <time>2021-06-13T09:09:48Z</time>
      </trkpt>
      <trkpt lat="48.36751" lon="2.72992">
        <ele>95.8</ele>
        <time>2021-06-13T09:09:51Z</time>
      </trkpt>
      <trkpt lat="48.36746" lon="2.72996">
        <ele>96</ele>
        <time>2021-06-13T09:09:58Z</time>
      </trkpt>
      <trkpt lat="48.36743" lon="2.72996">
        <ele>96</ele>
        <time>2021-06-13T09:10:03Z</time>
      </trkpt>
      <trkpt lat="48.36735" lon="2.72998">
        <ele>96.2</ele>
        <time>2021-06-13T09:10:12Z</time>
      </trkpt>
      <trkpt lat="48.3673" lon="2.72999">
        <ele>96.2</ele>
        <time>2021-06-13T09:10:18Z</time>
      </trkpt>
      <trkpt lat="48.36714" lon="2.73005">
        <ele>96.5</ele>
        <time>2021-06-13T09:10:26Z</time>
      </trkpt>
      <trkpt lat="48.36704" lon="2.7301">
        <ele>96.7</ele>
        <time>2021-06-13T09:10:32Z</time>
      </trkpt>
      <trkpt lat="48.36694" lon="2.73013">
        <ele>96.8</ele>
        <time>2021-06-13T09:10:39Z</time>
      </trkpt>
      <trkpt lat="48.3669" lon="2.73016">
        <ele>96.8</ele>
        <time>2021-06-13T09:10:45Z</time>
      </trkpt>
      <trkpt lat="48.36688" lon="2.73021">
        <ele>96.9</ele>
        <time>2021-06-13T09:10:55Z</time>
      </trkpt>
      <trkpt lat="48.3669" lon="2.73023">
        <ele>96.9</ele>
        <time>2021-06-13T09:11:06Z</time>
      </trkpt>
      <trkpt lat="48.36688" lon="2.73023">
        <ele>96.9</ele>
        <time>2021-06-13T09:11:13Z</time>
      </trkpt>
      <trkpt lat="48.36685" lon="2.73026">
        <ele>96.9</ele>
        <time>2021-06-13T09:11:16Z</time>
      </trkpt>
      <trkpt lat="48.36672" lon="2.73029">
        <ele>97</ele>
        <time>2021-06-13T09:11:26Z</time>
      </trkpt>
      <trkpt lat="48.36664" lon="2.73031">
        <ele>97</ele>
        <time>2021-06-13T09:11:33Z</time>
      </trkpt>
      <trkpt lat="48.36654" lon="2.73037">
        <ele>96.8</ele>
        <time>2021-06-13T09:11:41Z</time>
      </trkpt>
      <trkpt lat="48.36646" lon="2.7304">
        <ele>96.6</ele>
        <time>2021-06-13T09:11:47Z</time>
      </trkpt>
      <trkpt lat="48.36642" lon="2.73042">
        <ele>96.6</ele>
        <time>2021-06-13T09:11:53Z</time>
      </trkpt>
      <trkpt lat="48.36629" lon="2.73048">
        <ele>96.3</ele>
        <time>2021-06-13T09:12:01Z</time>
      </trkpt>
      <trkpt lat="48.36619" lon="2.73053">
        <ele>96.2</ele>
        <time>2021-06-13T09:12:09Z</time>
      </trkpt>
      <trkpt lat="48.36611" lon="2.73058">
        <ele>96.1</ele>
        <time>2021-06-13T09:12:16Z</time>
      </trkpt>
      <trkpt lat="48.3661" lon="2.73061">
        <ele>96.1</ele>
        <time>2021-06-13T09:12:19Z</time>
      </trkpt>
      <trkpt lat="48.36599" lon="2.73065">
        <ele>96</ele>
        <time>2021-06-13T09:12:28Z</time>
      </trkpt>
      <trkpt lat="48.36591" lon="2.73068">
        <ele>95.9</ele>
        <time>2021-06-13T09:12:34Z</time>
      </trkpt>
      <trkpt lat="48.3658" lon="2.73072">
        <ele>95.9</ele>
        <time>2021-06-13T09:12:43Z</time>
      </trkpt>
      <trkpt lat="48.36568" lon="2.73077">
        <ele>96.1</ele>
        <time>2021-06-13T09:12:52Z</time>
      </trkpt>
      <trkpt lat="48.3656" lon="2.73081">
        <ele>96.2</ele>
        <time>2021-06-13T09:12:59Z</time>
      </trkpt>
      <trkpt lat="48.36554" lon="2.73084">
        <ele>96.4</ele>
        <time>2021-06-13T09:13:06Z</time>
      </trkpt>
      <trkpt lat="48.36546" lon="2.73085">
        <ele>96.5</ele>
        <time>2021-06-13T09:13:14Z</time>
      </trkpt>
      <trkpt lat="48.36546" lon="2.73085">
        <ele>96.5</ele>
        <time>2021-06-13T09:13:15Z</time>
      </trkpt>
      <trkpt lat="48.36538" lon="2.73086">
        <ele>96.6</ele>
        <time>2021-06-13T09:13:23Z</time>
      </trkpt>
      <trkpt lat="48.36524" lon="2.73093">
        <ele>96.7</ele>
        <time>2021-06-13T09:13:32Z</time>
      </trkpt>
      <trkpt lat="48.36517" lon="2.731">
        <ele>96.8</ele>
        <time>2021-06-13T09:13:39Z</time>
      </trkpt>
      <trkpt lat="48.36507" lon="2.73105">
        <ele>96.9</ele>
        <time>2021-06-13T09:13:47Z</time>
      </trkpt>
      <trkpt lat="48.36506" lon="2.73106">
        <ele>96.9</ele>
        <time>2021-06-13T09:13:48Z</time>
      </trkpt>
      <trkpt lat="48.36498" lon="2.73107">
        <ele>96.9</ele>
        <time>2021-06-13T09:13:55Z</time>
      </trkpt>
      <trkpt lat="48.36492" lon="2.73108">
        <ele>96.6</ele>
        <time>2021-06-13T09:13:59Z</time>
      </trkpt>
      <trkpt lat="48.36484" lon="2.73114">
        <ele>96.3</ele>
        <time>2021-06-13T09:14:05Z</time>
      </trkpt>
      <trkpt lat="48.36475" lon="2.73117">
        <ele>95.9</ele>
        <time>2021-06-13T09:14:13Z</time>
      </trkpt>
      <trkpt lat="48.36467" lon="2.73119">
        <ele>95.6</ele>
        <time>2021-06-13T09:14:19Z</time>
      </trkpt>
      <trkpt lat="48.36462" lon="2.73122">
        <ele>95.4</ele>
        <time>2021-06-13T09:14:23Z</time>
      </trkpt>
      <trkpt lat="48.36457" lon="2.73126">
        <ele>95.2</ele>
        <time>2021-06-13T09:14:27Z</time>
      </trkpt>
      <trkpt lat="48.36445" lon="2.7313">
        <ele>94.7</ele>
        <time>2021-06-13T09:14:36Z</time>
      </trkpt>
      <trkpt lat="48.36435" lon="2.73139">
        <ele>94.4</ele>
        <time>2021-06-13T09:14:45Z</time>
      </trkpt>
      <trkpt lat="48.36424" lon="2.73144">
        <ele>94</ele>
        <time>2021-06-13T09:14:53Z</time>
      </trkpt>
      <trkpt lat="48.36416" lon="2.73148">
        <ele>93.8</ele>
        <time>2021-06-13T09:15:00Z</time>
      </trkpt>
      <trkpt lat="48.36406" lon="2.73152">
        <ele>93.6</ele>
        <time>2021-06-13T09:15:07Z</time>
      </trkpt>
      <trkpt lat="48.36396" lon="2.73157">
        <ele>93.4</ele>
        <time>2021-06-13T09:15:15Z</time>
      </trkpt>
      <trkpt lat="48.36392" lon="2.73161">
        <ele>93.4</ele>
        <time>2021-06-13T09:15:20Z</time>
      </trkpt>
      <trkpt lat="48.36387" lon="2.73168">
        <ele>93.3</ele>
        <time>2021-06-13T09:15:29Z</time>
      </trkpt>
      <trkpt lat="48.36387" lon="2.73171">
        <ele>93.3</ele>
        <time>2021-06-13T09:15:37Z</time>
      </trkpt>
      <trkpt lat="48.36387" lon="2.73171">
        <ele>93.3</ele>
        <time>2021-06-13T09:15:48Z</time>
      </trkpt>
      <trkpt lat="48.36386" lon="2.73171">
        <ele>93.3</ele>
        <time>2021-06-13T09:16:00Z</time>
      </trkpt>
      <trkpt lat="48.36385" lon="2.7317">
        <ele>93.3</ele>
        <time>2021-06-13T09:16:08Z</time>
      </trkpt>
      <trkpt lat="48.36378" lon="2.73161">
        <ele>93</ele>
        <time>2021-06-13T09:16:16Z</time>
      </trkpt>
      <trkpt lat="48.36376" lon="2.73158">
        <ele>93</ele>
        <time>2021-06-13T09:16:18Z</time>
      </trkpt>
      <trkpt lat="48.36373" lon="2.73155">
        <ele>92.9</ele>
        <time>2021-06-13T09:16:22Z</time>
      </trkpt>
      <trkpt lat="48.3637" lon="2.73152">
        <ele>92.8</ele>
        <time>2021-06-13T09:16:24Z</time>
      </trkpt>
      <trkpt lat="48.36361" lon="2.73146">
        <ele>92.6</ele>
        <time>2021-06-13T09:16:31Z</time>
      </trkpt>
      <trkpt lat="48.36359" lon="2.73142">
        <ele>92.5</ele>
        <time>2021-06-13T09:16:34Z</time>
      </trkpt>
      <trkpt lat="48.36355" lon="2.73139">
        <ele>92.4</ele>
        <time>2021-06-13T09:16:38Z</time>
      </trkpt>
      <trkpt lat="48.36346" lon="2.73129">
        <ele>92.2</ele>
        <time>2021-06-13T09:16:47Z</time>
      </trkpt>
      <trkpt lat="48.36342" lon="2.73127">
        <ele>92.2</ele>
        <time>2021-06-13T09:16:50Z</time>
      </trkpt>
      <trkpt lat="48.36334" lon="2.73116">
        <ele>92</ele>
        <time>2021-06-13T09:16:59Z</time>
      </trkpt>
      <trkpt lat="48.36331" lon="2.73115">
        <ele>92</ele>
        <time>2021-06-13T09:17:01Z</time>
      </trkpt>
      <trkpt lat="48.36329" lon="2.73113">
        <ele>92</ele>
        <time>2021-06-13T09:17:03Z</time>
      </trkpt>
      <trkpt lat="48.36324" lon="2.73109">
        <ele>91.9</ele>
        <time>2021-06-13T09:17:10Z</time>
      </trkpt>
      <trkpt lat="48.36315" lon="2.73101">
        <ele>91.7</ele>
        <time>2021-06-13T09:17:18Z</time>
      </trkpt>
      <trkpt lat="48.36309" lon="2.73096">
        <ele>91.6</ele>
        <time>2021-06-13T09:17:25Z</time>
      </trkpt>
      <trkpt lat="48.36308" lon="2.73094">
        <ele>91.5</ele>
        <time>2021-06-13T09:17:27Z</time>
      </trkpt>
      <trkpt lat="48.36298" lon="2.73088">
        <ele>91.2</ele>
        <time>2021-06-13T09:17:35Z</time>
      </trkpt>
      <trkpt lat="48.36293" lon="2.73083">
        <ele>91</ele>
        <time>2021-06-13T09:17:41Z</time>
      </trkpt>
      <trkpt lat="48.36285" lon="2.73074">
        <ele>90.8</ele>
        <time>2021-06-13T09:17:48Z</time>
      </trkpt>
      <trkpt lat="48.36276" lon="2.73065">
        <ele>90.6</ele>
        <time>2021-06-13T09:17:55Z</time>
      </trkpt>
      <trkpt lat="48.36271" lon="2.73061">
        <ele>90.5</ele>
        <time>2021-06-13T09:17:59Z</time>
      </trkpt>
      <trkpt lat="48.3627" lon="2.73058">
        <ele>90.5</ele>
        <time>2021-06-13T09:18:01Z</time>
      </trkpt>
      <trkpt lat="48.36264" lon="2.73051">
        <ele>90.3</ele>
        <time>2021-06-13T09:18:10Z</time>
      </trkpt>
      <trkpt lat="48.36263" lon="2.7305">
        <ele>90.3</ele>
        <time>2021-06-13T09:18:11Z</time>
      </trkpt>
      <trkpt lat="48.36252" lon="2.73041">
        <ele>90</ele>
        <time>2021-06-13T09:18:21Z</time>
      </trkpt>
      <trkpt lat="48.36249" lon="2.73041">
        <ele>90</ele>
        <time>2021-06-13T09:18:23Z</time>
      </trkpt>
      <trkpt lat="48.36245" lon="2.7304">
        <ele>90.1</ele>
        <time>2021-06-13T09:18:27Z</time>
      </trkpt>
      <trkpt lat="48.36238" lon="2.73031">
        <ele>90.1</ele>
        <time>2021-06-13T09:18:35Z</time>
      </trkpt>
      <trkpt lat="48.36236" lon="2.73029">
        <ele>90.2</ele>
        <time>2021-06-13T09:18:37Z</time>
      </trkpt>
      <trkpt lat="48.36228" lon="2.7302">
        <ele>90.3</ele>
        <time>2021-06-13T09:18:45Z</time>
      </trkpt>
      <trkpt lat="48.36227" lon="2.73019">
        <ele>90.3</ele>
        <time>2021-06-13T09:18:46Z</time>
      </trkpt>
      <trkpt lat="48.36219" lon="2.73012">
        <ele>90.4</ele>
        <time>2021-06-13T09:18:53Z</time>
      </trkpt>
      <trkpt lat="48.36216" lon="2.7301">
        <ele>90.4</ele>
        <time>2021-06-13T09:18:57Z</time>
      </trkpt>
      <trkpt lat="48.36212" lon="2.73009">
        <ele>90.5</ele>
        <time>2021-06-13T09:19:00Z</time>
      </trkpt>
      <trkpt lat="48.3621" lon="2.73006">
        <ele>90.5</ele>
        <time>2021-06-13T09:19:02Z</time>
      </trkpt>
      <trkpt lat="48.36203" lon="2.72997">
        <ele>90.5</ele>
        <time>2021-06-13T09:19:08Z</time>
      </trkpt>
      <trkpt lat="48.36201" lon="2.72993">
        <ele>90.5</ele>
        <time>2021-06-13T09:19:11Z</time>
      </trkpt>
      <trkpt lat="48.36197" lon="2.72989">
        <ele>90.6</ele>
        <time>2021-06-13T09:19:15Z</time>
      </trkpt>
      <trkpt lat="48.36191" lon="2.72985">
        <ele>90.6</ele>
        <time>2021-06-13T09:19:21Z</time>
      </trkpt>
      <trkpt lat="48.36182" lon="2.72975">
        <ele>90.6</ele>
        <time>2021-06-13T09:19:30Z</time>
      </trkpt>
      <trkpt lat="48.36178" lon="2.72969">
        <ele>90.5</ele>
        <time>2021-06-13T09:19:34Z</time>
      </trkpt>
      <trkpt lat="48.36173" lon="2.72969">
        <ele>90.6</ele>
        <time>2021-06-13T09:19:37Z</time>
      </trkpt>
      <trkpt lat="48.36166" lon="2.72964">
        <ele>90.6</ele>
        <time>2021-06-13T09:19:43Z</time>
      </trkpt>
      <trkpt lat="48.36157" lon="2.72954">
        <ele>90.4</ele>
        <time>2021-06-13T09:19:51Z</time>
      </trkpt>
      <trkpt lat="48.3615" lon="2.72948">
        <ele>90.4</ele>
        <time>2021-06-13T09:19:58Z</time>
      </trkpt>
      <trkpt lat="48.36144" lon="2.72944">
        <ele>90.3</ele>
        <time>2021-06-13T09:20:05Z</time>
      </trkpt>
      <trkpt lat="48.36143" lon="2.72938">
        <ele>90.3</ele>
        <time>2021-06-13T09:20:13Z</time>
      </trkpt>
      <trkpt lat="48.36143" lon="2.72936">
        <ele>90.2</ele>
        <time>2021-06-13T09:20:21Z</time>
      </trkpt>
      <trkpt lat="48.36143" lon="2.72936">
        <ele>90.2</ele>
        <time>2021-06-13T09:20:32Z</time>
      </trkpt>
      <trkpt lat="48.36144" lon="2.72934">
        <ele>90.2</ele>
        <time>2021-06-13T09:20:41Z</time>
      </trkpt>
      <trkpt lat="48.36143" lon="2.72934">
        <ele>90.2</ele>
        <time>2021-06-13T09:20:43Z</time>
      </trkpt>
      <trkpt lat="48.36138" lon="2.72932">
        <ele>90.2</ele>
        <time>2021-06-13T09:20:50Z</time>
      </trkpt>
      <trkpt lat="48.36133" lon="2.72929">
        <ele>90.2</ele>
        <time>2021-06-13T09:20:55Z</time>
      </trkpt>
      <trkpt lat="48.3612" lon="2.72926">
        <ele>90.1</ele>
        <time>2021-06-13T09:21:05Z</time>
      </trkpt>
      <trkpt lat="48.36119" lon="2.72925">
        <ele>90.1</ele>
        <time>2021-06-13T09:21:06Z</time>
      </trkpt>
      <trkpt lat="48.36109" lon="2.72913">
        <ele>90</ele>
        <time>2021-06-13T09:21:15Z</time>
      </trkpt>
      <trkpt lat="48.36108" lon="2.72911">
        <ele>90</ele>
        <time>2021-06-13T09:21:16Z</time>
      </trkpt>
      <trkpt lat="48.36099" lon="2.729">
        <ele>90.2</ele>
        <time>2021-06-13T09:21:24Z</time>
      </trkpt>
      <trkpt lat="48.36094" lon="2.72894">
        <ele>90.2</ele>
        <time>2021-06-13T09:21:30Z</time>
      </trkpt>
      <trkpt lat="48.3609" lon="2.72892">
        <ele>90.3</ele>
        <time>2021-06-13T09:21:33Z</time>
      </trkpt>
      <trkpt lat="48.36085" lon="2.72882">
        <ele>90.4</ele>
        <time>2021-06-13T09:21:40Z</time>
      </trkpt>
      <trkpt lat="48.36082" lon="2.72879">
        <ele>90.5</ele>
        <time>2021-06-13T09:21:43Z</time>
      </trkpt>
      <trkpt lat="48.36077" lon="2.72874">
        <ele>90.7</ele>
        <time>2021-06-13T09:21:49Z</time>
      </trkpt>
      <trkpt lat="48.36074" lon="2.72871">
        <ele>90.8</ele>
        <time>2021-06-13T09:21:52Z</time>
      </trkpt>
      <trkpt lat="48.36068" lon="2.72863">
        <ele>91</ele>
        <time>2021-06-13T09:21:57Z</time>
      </trkpt>
      <trkpt lat="48.3606" lon="2.72857">
        <ele>91.2</ele>
        <time>2021-06-13T09:22:05Z</time>
      </trkpt>
      <trkpt lat="48.36051" lon="2.72852">
        <ele>91.4</ele>
        <time>2021-06-13T09:22:13Z</time>
      </trkpt>
      <trkpt lat="48.36043" lon="2.72846">
        <ele>91.6</ele>
        <time>2021-06-13T09:22:20Z</time>
      </trkpt>
      <trkpt lat="48.36035" lon="2.72838">
        <ele>91.6</ele>
        <time>2021-06-13T09:22:28Z</time>
      </trkpt>
      <trkpt lat="48.36028" lon="2.72833">
        <ele>91.7</ele>
        <time>2021-06-13T09:22:36Z</time>
      </trkpt>
      <trkpt lat="48.36027" lon="2.72832">
        <ele>91.7</ele>
        <time>2021-06-13T09:22:37Z</time>
      </trkpt>
      <trkpt lat="48.36019" lon="2.72831">
        <ele>91.7</ele>
        <time>2021-06-13T09:22:43Z</time>
      </trkpt>
      <trkpt lat="48.36015" lon="2.72826">
        <ele>91.7</ele>
        <time>2021-06-13T09:22:48Z</time>
      </trkpt>
      <trkpt lat="48.36013" lon="2.72821">
        <ele>91.6</ele>
        <time>2021-06-13T09:22:51Z</time>
      </trkpt>
      <trkpt lat="48.36003" lon="2.72812">
        <ele>91.5</ele>
        <time>2021-06-13T09:23:00Z</time>
      </trkpt>
      <trkpt lat="48.36002" lon="2.72811">
        <ele>91.5</ele>
        <time>2021-06-13T09:23:01Z</time>
      </trkpt>
      <trkpt lat="48.35999" lon="2.72805">
        <ele>91.4</ele>
        <time>2021-06-13T09:23:04Z</time>
      </trkpt>
      <trkpt lat="48.35997" lon="2.72801">
        <ele>91.4</ele>
        <time>2021-06-13T09:23:06Z</time>
      </trkpt>
      <trkpt lat="48.35988" lon="2.72793">
        <ele>91.5</ele>
        <time>2021-06-13T09:23:14Z</time>
      </trkpt>
      <trkpt lat="48.35977" lon="2.72783">
        <ele>91.8</ele>
        <time>2021-06-13T09:23:23Z</time>
      </trkpt>
      <trkpt lat="48.35971" lon="2.72777">
        <ele>91.9</ele>
        <time>2021-06-13T09:23:30Z</time>
      </trkpt>
      <trkpt lat="48.35966" lon="2.72772">
        <ele>92</ele>
        <time>2021-06-13T09:23:37Z</time>
      </trkpt>
      <trkpt lat="48.35962" lon="2.7277">
        <ele>92.2</ele>
        <time>2021-06-13T09:23:42Z</time>
      </trkpt>
      <trkpt lat="48.35952" lon="2.7276">
        <ele>92.4</ele>
        <time>2021-06-13T09:23:49Z</time>
      </trkpt>
      <trkpt lat="48.35947" lon="2.72753">
        <ele>92.6</ele>
        <time>2021-06-13T09:23:56Z</time>
      </trkpt>
      <trkpt lat="48.35946" lon="2.72752">
        <ele>92.6</ele>
        <time>2021-06-13T09:23:57Z</time>
      </trkpt>
      <trkpt lat="48.35936" lon="2.72744">
        <ele>93.1</ele>
        <time>2021-06-13T09:24:06Z</time>
      </trkpt>
      <trkpt lat="48.3593" lon="2.72735">
        <ele>93.4</ele>
        <time>2021-06-13T09:24:13Z</time>
      </trkpt>
      <trkpt lat="48.35921" lon="2.72726">
        <ele>93.8</ele>
        <time>2021-06-13T09:24:21Z</time>
      </trkpt>
      <trkpt lat="48.35911" lon="2.72723">
        <ele>94</ele>
        <time>2021-06-13T09:24:28Z</time>
      </trkpt>
      <trkpt lat="48.35901" lon="2.7272">
        <ele>94.1</ele>
        <time>2021-06-13T09:24:36Z</time>
      </trkpt>
      <trkpt lat="48.35895" lon="2.72716">
        <ele>94.1</ele>
        <time>2021-06-13T09:24:40Z</time>
      </trkpt>
      <trkpt lat="48.35889" lon="2.72707">
        <ele>94.2</ele>
        <time>2021-06-13T09:24:48Z</time>
      </trkpt>
      <trkpt lat="48.35879" lon="2.72699">
        <ele>94.3</ele>
        <time>2021-06-13T09:24:57Z</time>
      </trkpt>
      <trkpt lat="48.35871" lon="2.7269">
        <ele>94.4</ele>
        <time>2021-06-13T09:25:05Z</time>
      </trkpt>
      <trkpt lat="48.35864" lon="2.72682">
        <ele>94.5</ele>
        <time>2021-06-13T09:25:12Z</time>
      </trkpt>
      <trkpt lat="48.35856" lon="2.72674">
        <ele>94.7</ele>
        <time>2021-06-13T09:25:19Z</time>
      </trkpt>
      <trkpt lat="48.35849" lon="2.72666">
        <ele>94.8</ele>
        <time>2021-06-13T09:25:26Z</time>
      </trkpt>
      <trkpt lat="48.35842" lon="2.72662">
        <ele>94.9</ele>
        <time>2021-06-13T09:25:33Z</time>
      </trkpt>
      <trkpt lat="48.35838" lon="2.72659">
        <ele>94.9</ele>
        <time>2021-06-13T09:25:39Z</time>
      </trkpt>
      <trkpt lat="48.35832" lon="2.72651">
        <ele>95.1</ele>
        <time>2021-06-13T09:25:44Z</time>
      </trkpt>
      <trkpt lat="48.35825" lon="2.72645">
        <ele>95.7</ele>
        <time>2021-06-13T09:25:52Z</time>
      </trkpt>
      <trkpt lat="48.35823" lon="2.72645">
        <ele>96</ele>
        <time>2021-06-13T09:25:58Z</time>
      </trkpt>
      <trkpt lat="48.35822" lon="2.72642">
        <ele>96</ele>
        <time>2021-06-13T09:26:08Z</time>
      </trkpt>
      <trkpt lat="48.35822" lon="2.72643">
        <ele>96</ele>
        <time>2021-06-13T09:26:16Z</time>
      </trkpt>
      <trkpt lat="48.35822" lon="2.72643">
        <ele>96</ele>
        <time>2021-06-13T09:26:23Z</time>
      </trkpt>
      <trkpt lat="48.3582" lon="2.72641">
        <ele>96.2</ele>
        <time>2021-06-13T09:26:29Z</time>
      </trkpt>
      <trkpt lat="48.35815" lon="2.72639">
        <ele>96.6</ele>
        <time>2021-06-13T09:26:37Z</time>
      </trkpt>
      <trkpt lat="48.35815" lon="2.72639">
        <ele>96.6</ele>
        <time>2021-06-13T09:26:40Z</time>
      </trkpt>
      <trkpt lat="48.35813" lon="2.7264">
        <ele>96.8</ele>
        <time>2021-06-13T09:26:42Z</time>
      </trkpt>
      <trkpt lat="48.35804" lon="2.72637">
        <ele>97.5</ele>
        <time>2021-06-13T09:26:49Z</time>
      </trkpt>
      <trkpt lat="48.35793" lon="2.72632">
        <ele>98.5</ele>
        <time>2021-06-13T09:26:57Z</time>
      </trkpt>
      <trkpt lat="48.35786" lon="2.72627">
        <ele>99</ele>
        <time>2021-06-13T09:27:03Z</time>
      </trkpt>
      <trkpt lat="48.35776" lon="2.72622">
        <ele>99.8</ele>
        <time>2021-06-13T09:27:10Z</time>
      </trkpt>
      <trkpt lat="48.35767" lon="2.7262">
        <ele>100.5</ele>
        <time>2021-06-13T09:27:18Z</time>
      </trkpt>
      <trkpt lat="48.3576" lon="2.72618">
        <ele>101</ele>
        <time>2021-06-13T09:27:24Z</time>
      </trkpt>
      <trkpt lat="48.3575" lon="2.72612">
        <ele>101.7</ele>
        <time>2021-06-13T09:27:33Z</time>
      </trkpt>
      <trkpt lat="48.35741" lon="2.72607">
        <ele>102.4</ele>
        <time>2021-06-13T09:27:41Z</time>
      </trkpt>
      <trkpt lat="48.35734" lon="2.72604">
        <ele>102.9</ele>
        <time>2021-06-13T09:27:47Z</time>
      </trkpt>
      <trkpt lat="48.35728" lon="2.72604">
        <ele>103.5</ele>
        <time>2021-06-13T09:27:52Z</time>
      </trkpt>
      <trkpt lat="48.35723" lon="2.72604">
        <ele>103.9</ele>
        <time>2021-06-13T09:27:56Z</time>
      </trkpt>
      <trkpt lat="48.35715" lon="2.726">
        <ele>104.4</ele>
        <time>2021-06-13T09:28:04Z</time>
      </trkpt>
      <trkpt lat="48.35706" lon="2.72594">
        <ele>104.8</ele>
        <time>2021-06-13T09:28:12Z</time>
      </trkpt>
      <trkpt lat="48.35697" lon="2.72593">
        <ele>105.5</ele>
        <time>2021-06-13T09:28:20Z</time>
      </trkpt>
      <trkpt lat="48.35695" lon="2.72592">
        <ele>105.6</ele>
        <time>2021-06-13T09:28:21Z</time>
      </trkpt>
      <trkpt lat="48.35686" lon="2.72592">
        <ele>106.3</ele>
        <time>2021-06-13T09:28:30Z</time>
      </trkpt>
      <trkpt lat="48.35685" lon="2.72592">
        <ele>106.4</ele>
        <time>2021-06-13T09:28:36Z</time>
      </trkpt>
      <trkpt lat="48.35683" lon="2.72592">
        <ele>106.5</ele>
        <time>2021-06-13T09:28:43Z</time>
      </trkpt>
      <trkpt lat="48.35681" lon="2.72593">
        <ele>106.8</ele>
        <time>2021-06-13T09:28:48Z</time>
      </trkpt>
      <trkpt lat="48.35678" lon="2.72593">
        <ele>107.1</ele>
        <time>2021-06-13T09:28:54Z</time>
      </trkpt>
      <trkpt lat="48.35672" lon="2.72597">
        <ele>107.9</ele>
        <time>2021-06-13T09:29:01Z</time>
      </trkpt>
      <trkpt lat="48.35667" lon="2.726">
        <ele>108.6</ele>
        <time>2021-06-13T09:29:07Z</time>
      </trkpt>
      <trkpt lat="48.35664" lon="2.72603">
        <ele>109</ele>
        <time>2021-06-13T09:29:14Z</time>
      </trkpt>
      <trkpt lat="48.35659" lon="2.72605">
        <ele>109.3</ele>
        <time>2021-06-13T09:29:22Z</time>
      </trkpt>
      <trkpt lat="48.35658" lon="2.72605">
        <ele>109.3</ele>
        <time>2021-06-13T09:29:23Z</time>
      </trkpt>
      <trkpt lat="48.35649" lon="2.72607">
        <ele>109.7</ele>
        <time>2021-06-13T09:29:30Z</time>
      </trkpt>
      <trkpt lat="48.35644" lon="2.72607">
        <ele>109.8</ele>
        <time>2021-06-13T09:29:36Z</time>
      </trkpt>
      <trkpt lat="48.35642" lon="2.72608">
        <ele>109.9</ele>
        <time>2021-06-13T09:29:42Z</time>
      </trkpt>
      <trkpt lat="48.35635" lon="2.72607">
        <ele>110</ele>
        <time>2021-06-13T09:29:49Z</time>
      </trkpt>
      <trkpt lat="48.35628" lon="2.72609">
        <ele>110.3</ele>
        <time>2021-06-13T09:29:56Z</time>
      </trkpt>
      <trkpt lat="48.35622" lon="2.7261">
        <ele>110.5</ele>
        <time>2021-06-13T09:30:03Z</time>
      </trkpt>
      <trkpt lat="48.35613" lon="2.72616">
        <ele>110.9</ele>
        <time>2021-06-13T09:30:12Z</time>
      </trkpt>
      <trkpt lat="48.35605" lon="2.72614">
        <ele>111</ele>
        <time>2021-06-13T09:30:19Z</time>
      </trkpt>
      <trkpt lat="48.35604" lon="2.72614">
        <ele>111</ele>
        <time>2021-06-13T09:30:21Z</time>
      </trkpt>
      <trkpt lat="48.35599" lon="2.72614">
        <ele>111.1</ele>
        <time>2021-06-13T09:30:25Z</time>
      </trkpt>
      <trkpt lat="48.35592" lon="2.72614">
        <ele>111.2</ele>
        <time>2021-06-13T09:30:33Z</time>
      </trkpt>
      <trkpt lat="48.35588" lon="2.72616">
        <ele>111.3</ele>
        <time>2021-06-13T09:30:37Z</time>
      </trkpt>
      <trkpt lat="48.35588" lon="2.72624">
        <ele>111.5</ele>
        <time>2021-06-13T09:30:44Z</time>
      </trkpt>
      <trkpt lat="48.35584" lon="2.72627">
        <ele>111.5</ele>
        <time>2021-06-13T09:30:51Z</time>
      </trkpt>
      <trkpt lat="48.35582" lon="2.72628">
        <ele>111.3</ele>
        <time>2021-06-13T09:30:53Z</time>
      </trkpt>
      <trkpt lat="48.35578" lon="2.72629">
        <ele>110.9</ele>
        <time>2021-06-13T09:30:59Z</time>
      </trkpt>
      <trkpt lat="48.35576" lon="2.72634">
        <ele>110.7</ele>
        <time>2021-06-13T09:31:04Z</time>
      </trkpt>
      <trkpt lat="48.35573" lon="2.7264">
        <ele>110.4</ele>
        <time>2021-06-13T09:31:11Z</time>
      </trkpt>
      <trkpt lat="48.35572" lon="2.72641">
        <ele>110.3</ele>
        <time>2021-06-13T09:31:12Z</time>
      </trkpt>
      <trkpt lat="48.3557" lon="2.72641">
        <ele>110.1</ele>
        <time>2021-06-13T09:31:14Z</time>
      </trkpt>
      <trkpt lat="48.35562" lon="2.72648">
        <ele>109.2</ele>
        <time>2021-06-13T09:31:21Z</time>
      </trkpt>
      <trkpt lat="48.35559" lon="2.72651">
        <ele>108.8</ele>
        <time>2021-06-13T09:31:27Z</time>
      </trkpt>
      <trkpt lat="48.35558" lon="2.72653">
        <ele>108.7</ele>
        <time>2021-06-13T09:31:34Z</time>
      </trkpt>
      <trkpt lat="48.35558" lon="2.72656">
        <ele>108.7</ele>
        <time>2021-06-13T09:31:41Z</time>
      </trkpt>
      <trkpt lat="48.35558" lon="2.72658">
        <ele>108.7</ele>
        <time>2021-06-13T09:31:49Z</time>
      </trkpt>
      <trkpt lat="48.35556" lon="2.72662">
        <ele>108.5</ele>
        <time>2021-06-13T09:31:54Z</time>
      </trkpt>
      <trkpt lat="48.35552" lon="2.72667">
        <ele>107.8</ele>
        <time>2021-06-13T09:32:01Z</time>
      </trkpt>
      <trkpt lat="48.35549" lon="2.7267">
        <ele>107.6</ele>
        <time>2021-06-13T09:32:08Z</time>
      </trkpt>
      <trkpt lat="48.35544" lon="2.72679">
        <ele>107.3</ele>
        <time>2021-06-13T09:32:16Z</time>
      </trkpt>
      <trkpt lat="48.35543" lon="2.72682">
        <ele>107.3</ele>
        <time>2021-06-13T09:32:22Z</time>
      </trkpt>
      <trkpt lat="48.35539" lon="2.72693">
        <ele>107.2</ele>
        <time>2021-06-13T09:32:28Z</time>
      </trkpt>
      <trkpt lat="48.35537" lon="2.72697">
        <ele>107</ele>
        <time>2021-06-13T09:32:31Z</time>
      </trkpt>
      <trkpt lat="48.35531" lon="2.72699">
        <ele>106</ele>
        <time>2021-06-13T09:32:38Z</time>
      </trkpt>
      <trkpt lat="48.3553" lon="2.72701">
        <ele>105.8</ele>
        <time>2021-06-13T09:32:39Z</time>
      </trkpt>
      <trkpt lat="48.35526" lon="2.72713">
        <ele>105.4</ele>
        <time>2021-06-13T09:32:47Z</time>
      </trkpt>
      <trkpt lat="48.35521" lon="2.72722">
        <ele>104.6</ele>
        <time>2021-06-13T09:32:56Z</time>
      </trkpt>
      <trkpt lat="48.3552" lon="2.72732">
        <ele>104.5</ele>
        <time>2021-06-13T09:33:03Z</time>
      </trkpt>
      <trkpt lat="48.35517" lon="2.72742">
        <ele>103.9</ele>
        <time>2021-06-13T09:33:10Z</time>
      </trkpt>
      <trkpt lat="48.35515" lon="2.7275">
        <ele>103.5</ele>
        <time>2021-06-13T09:33:16Z</time>
      </trkpt>
      <trkpt lat="48.35515" lon="2.72756">
        <ele>103.6</ele>
        <time>2021-06-13T09:33:19Z</time>
      </trkpt>
      <trkpt lat="48.35514" lon="2.7277">
        <ele>103.6</ele>
        <time>2021-06-13T09:33:28Z</time>
      </trkpt>
      <trkpt lat="48.35515" lon="2.72774">
        <ele>103.9</ele>
        <time>2021-06-13T09:33:33Z</time>
      </trkpt>
      <trkpt lat="48.35513" lon="2.72789">
        <ele>103.7</ele>
        <time>2021-06-13T09:33:42Z</time>
      </trkpt>
      <trkpt lat="48.35514" lon="2.72801">
        <ele>104</ele>
        <time>2021-06-13T09:33:48Z</time>
      </trkpt>
      <trkpt lat="48.35512" lon="2.72805">
        <ele>103.7</ele>
        <time>2021-06-13T09:33:51Z</time>
      </trkpt>
      <trkpt lat="48.35508" lon="2.72814">
        <ele>102.8</ele>
        <time>2021-06-13T09:33:58Z</time>
      </trkpt>
      <trkpt lat="48.35508" lon="2.72815">
        <ele>102.7</ele>
        <time>2021-06-13T09:33:59Z</time>
      </trkpt>
      <trkpt lat="48.35505" lon="2.72828">
        <ele>102.2</ele>
        <time>2021-06-13T09:34:06Z</time>
      </trkpt>
      <trkpt lat="48.35506" lon="2.72843">
        <ele>102.5</ele>
        <time>2021-06-13T09:34:12Z</time>
      </trkpt>
      <trkpt lat="48.35506" lon="2.72845">
        <ele>102.4</ele>
        <time>2021-06-13T09:34:13Z</time>
      </trkpt>
      <trkpt lat="48.35508" lon="2.7286">
        <ele>102.6</ele>
        <time>2021-06-13T09:34:22Z</time>
      </trkpt>
      <trkpt lat="48.35509" lon="2.72868">
        <ele>102.7</ele>
        <time>2021-06-13T09:34:29Z</time>
      </trkpt>
      <trkpt lat="48.35507" lon="2.72872">
        <ele>102.1</ele>
        <time>2021-06-13T09:34:33Z</time>
      </trkpt>
      <trkpt lat="48.35504" lon="2.72879">
        <ele>101.4</ele>
        <time>2021-06-13T09:34:37Z</time>
      </trkpt>
      <trkpt lat="48.35505" lon="2.72895">
        <ele>101.4</ele>
        <time>2021-06-13T09:34:46Z</time>
      </trkpt>
      <trkpt lat="48.35503" lon="2.72906">
        <ele>100.8</ele>
        <time>2021-06-13T09:34:55Z</time>
      </trkpt>
      <trkpt lat="48.35501" lon="2.72907">
        <ele>100.4</ele>
        <time>2021-06-13T09:35:04Z</time>
      </trkpt>
      <trkpt lat="48.35498" lon="2.72913">
        <ele>99.9</ele>
        <time>2021-06-13T09:35:08Z</time>
      </trkpt>
      <trkpt lat="48.35491" lon="2.72917">
        <ele>99.6</ele>
        <time>2021-06-13T09:35:17Z</time>
      </trkpt>
      <trkpt lat="48.35487" lon="2.72922">
        <ele>99.4</ele>
        <time>2021-06-13T09:35:32Z</time>
      </trkpt>
      <trkpt lat="48.35486" lon="2.72923">
        <ele>99.4</ele>
        <time>2021-06-13T09:35:45Z</time>
      </trkpt>
      <trkpt lat="48.35486" lon="2.72924">
        <ele>99.4</ele>
        <time>2021-06-13T09:35:57Z</time>
      </trkpt>
      <trkpt lat="48.35485" lon="2.72924">
        <ele>99.4</ele>
        <time>2021-06-13T09:36:03Z</time>
      </trkpt>
      <trkpt lat="48.35485" lon="2.72922">
        <ele>99.4</ele>
        <time>2021-06-13T09:36:13Z</time>
      </trkpt>
      <trkpt lat="48.35484" lon="2.72922">
        <ele>99.3</ele>
        <time>2021-06-13T09:36:16Z</time>
      </trkpt>
      <trkpt lat="48.35482" lon="2.72928">
        <ele>99.3</ele>
        <time>2021-06-13T09:36:23Z</time>
      </trkpt>
      <trkpt lat="48.3548" lon="2.72932">
        <ele>99.3</ele>
        <time>2021-06-13T09:36:28Z</time>
      </trkpt>
      <trkpt lat="48.35478" lon="2.72937">
        <ele>99.3</ele>
        <time>2021-06-13T09:36:32Z</time>
      </trkpt>
      <trkpt lat="48.35471" lon="2.72948">
        <ele>99.1</ele>
        <time>2021-06-13T09:36:39Z</time>
      </trkpt>
      <trkpt lat="48.35463" lon="2.72954">
        <ele>98.9</ele>
        <time>2021-06-13T09:36:46Z</time>
      </trkpt>
      <trkpt lat="48.35456" lon="2.72956">
        <ele>98.6</ele>
        <time>2021-06-13T09:36:52Z</time>
      </trkpt>
      <trkpt lat="48.35454" lon="2.7296">
        <ele>98.6</ele>
        <time>2021-06-13T09:36:55Z</time>
      </trkpt>
      <trkpt lat="48.35446" lon="2.72969">
        <ele>98.5</ele>
        <time>2021-06-13T09:37:01Z</time>
      </trkpt>
      <trkpt lat="48.35439" lon="2.72979">
        <ele>98.4</ele>
        <time>2021-06-13T09:37:10Z</time>
      </trkpt>
      <trkpt lat="48.3543" lon="2.72988">
        <ele>98.2</ele>
        <time>2021-06-13T09:37:18Z</time>
      </trkpt>
      <trkpt lat="48.35424" lon="2.72993">
        <ele>98.1</ele>
        <time>2021-06-13T09:37:25Z</time>
      </trkpt>
      <trkpt lat="48.35416" lon="2.73001">
        <ele>98.1</ele>
        <time>2021-06-13T09:37:33Z</time>
      </trkpt>
      <trkpt lat="48.35413" lon="2.73008">
        <ele>98.4</ele>
        <time>2021-06-13T09:37:40Z</time>
      </trkpt>
      <trkpt lat="48.35412" lon="2.7301">
        <ele>98.5</ele>
        <time>2021-06-13T09:37:47Z</time>
      </trkpt>
      <trkpt lat="48.35409" lon="2.73012">
        <ele>98.8</ele>
        <time>2021-06-13T09:37:55Z</time>
      </trkpt>
      <trkpt lat="48.35404" lon="2.73016">
        <ele>99.2</ele>
        <time>2021-06-13T09:38:02Z</time>
      </trkpt>
      <trkpt lat="48.35403" lon="2.73021">
        <ele>99.4</ele>
        <time>2021-06-13T09:38:05Z</time>
      </trkpt>
      <trkpt lat="48.35397" lon="2.73029">
        <ele>100</ele>
        <time>2021-06-13T09:38:14Z</time>
      </trkpt>
      <trkpt lat="48.35386" lon="2.73037">
        <ele>101</ele>
        <time>2021-06-13T09:38:21Z</time>
      </trkpt>
      <trkpt lat="48.3538" lon="2.7304">
        <ele>101.6</ele>
        <time>2021-06-13T09:38:28Z</time>
      </trkpt>
      <trkpt lat="48.35376" lon="2.73038">
        <ele>101.8</ele>
        <time>2021-06-13T09:38:36Z</time>
      </trkpt>
      <trkpt lat="48.35375" lon="2.73038">
        <ele>101.9</ele>
        <time>2021-06-13T09:38:44Z</time>
      </trkpt>
      <trkpt lat="48.35374" lon="2.73039">
        <ele>102</ele>
        <time>2021-06-13T09:38:51Z</time>
      </trkpt>
      <trkpt lat="48.35373" lon="2.73038">
        <ele>102</ele>
        <time>2021-06-13T09:38:56Z</time>
      </trkpt>
      <trkpt lat="48.35371" lon="2.73037">
        <ele>102.1</ele>
        <time>2021-06-13T09:39:01Z</time>
      </trkpt>
      <trkpt lat="48.35369" lon="2.73035">
        <ele>102.2</ele>
        <time>2021-06-13T09:39:07Z</time>
      </trkpt>
      <trkpt lat="48.35368" lon="2.73035">
        <ele>102.3</ele>
        <time>2021-06-13T09:39:08Z</time>
      </trkpt>
      <trkpt lat="48.35364" lon="2.73032">
        <ele>102.4</ele>
        <time>2021-06-13T09:39:12Z</time>
      </trkpt>
      <trkpt lat="48.35361" lon="2.73029">
        <ele>102.5</ele>
        <time>2021-06-13T09:39:19Z</time>
      </trkpt>
      <trkpt lat="48.3536" lon="2.7303">
        <ele>102.6</ele>
        <time>2021-06-13T09:39:26Z</time>
      </trkpt>
      <trkpt lat="48.35355" lon="2.7303">
        <ele>103</ele>
        <time>2021-06-13T09:39:32Z</time>
      </trkpt>
      <trkpt lat="48.35351" lon="2.73029">
        <ele>103.2</ele>
        <time>2021-06-13T09:39:37Z</time>
      </trkpt>
      <trkpt lat="48.35348" lon="2.73024">
        <ele>103.2</ele>
        <time>2021-06-13T09:39:43Z</time>
      </trkpt>
      <trkpt lat="48.35346" lon="2.73024">
        <ele>103.3</ele>
        <time>2021-06-13T09:39:48Z</time>
      </trkpt>
      <trkpt lat="48.35344" lon="2.73023">
        <ele>103.4</ele>
        <time>2021-06-13T09:39:54Z</time>
      </trkpt>
      <trkpt lat="48.35344" lon="2.73024">
        <ele>103.5</ele>
        <time>2021-06-13T09:39:59Z</time>
      </trkpt>
      <trkpt lat="48.35343" lon="2.73029">
        <ele>103.7</ele>
        <time>2021-06-13T09:40:05Z</time>
      </trkpt>
      <trkpt lat="48.35342" lon="2.73036">
        <ele>104.1</ele>
        <time>2021-06-13T09:40:12Z</time>
      </trkpt>
      <trkpt lat="48.35342" lon="2.73037">
        <ele>104.2</ele>
        <time>2021-06-13T09:40:20Z</time>
      </trkpt>
      <trkpt lat="48.35341" lon="2.73042">
        <ele>104.5</ele>
        <time>2021-06-13T09:40:26Z</time>
      </trkpt>
      <trkpt lat="48.35343" lon="2.73055">
        <ele>104.9</ele>
        <time>2021-06-13T09:40:33Z</time>
      </trkpt>
      <trkpt lat="48.35343" lon="2.73064">
        <ele>105.3</ele>
        <time>2021-06-13T09:40:39Z</time>
      </trkpt>
      <trkpt lat="48.35344" lon="2.73073">
        <ele>105.7</ele>
        <time>2021-06-13T09:40:46Z</time>
      </trkpt>
      <trkpt lat="48.35345" lon="2.73078">
        <ele>105.8</ele>
        <time>2021-06-13T09:40:53Z</time>
      </trkpt>
      <trkpt lat="48.35348" lon="2.73081">
        <ele>105.6</ele>
        <time>2021-06-13T09:40:57Z</time>
      </trkpt>
      <trkpt lat="48.3535" lon="2.73089">
        <ele>106</ele>
        <time>2021-06-13T09:41:05Z</time>
      </trkpt>
      <trkpt lat="48.35349" lon="2.73097">
        <ele>106.6</ele>
        <time>2021-06-13T09:41:09Z</time>
      </trkpt>
      <trkpt lat="48.35348" lon="2.73108">
        <ele>107.4</ele>
        <time>2021-06-13T09:41:17Z</time>
      </trkpt>
      <trkpt lat="48.35348" lon="2.73116">
        <ele>107.9</ele>
        <time>2021-06-13T09:41:23Z</time>
      </trkpt>
      <trkpt lat="48.35348" lon="2.73118">
        <ele>108</ele>
        <time>2021-06-13T09:41:30Z</time>
      </trkpt>
      <trkpt lat="48.35348" lon="2.73124">
        <ele>108.5</ele>
        <time>2021-06-13T09:41:36Z</time>
      </trkpt>
      <trkpt lat="48.35351" lon="2.73132">
        <ele>108.7</ele>
        <time>2021-06-13T09:41:43Z</time>
      </trkpt>
      <trkpt lat="48.35351" lon="2.73137">
        <ele>109</ele>
        <time>2021-06-13T09:41:48Z</time>
      </trkpt>
      <trkpt lat="48.35348" lon="2.73148">
        <ele>110.1</ele>
        <time>2021-06-13T09:41:55Z</time>
      </trkpt>
      <trkpt lat="48.35348" lon="2.7316">
        <ele>110.8</ele>
        <time>2021-06-13T09:42:02Z</time>
      </trkpt>
      <trkpt lat="48.35346" lon="2.7317">
        <ele>111.7</ele>
        <time>2021-06-13T09:42:09Z</time>
      </trkpt>
      <trkpt lat="48.35342" lon="2.73175">
        <ele>112.3</ele>
        <time>2021-06-13T09:42:14Z</time>
      </trkpt>
      <trkpt lat="48.35339" lon="2.73184">
        <ele>112.9</ele>
        <time>2021-06-13T09:42:21Z</time>
      </trkpt>
      <trkpt lat="48.35338" lon="2.73188">
        <ele>113.2</ele>
        <time>2021-06-13T09:42:24Z</time>
      </trkpt>
      <trkpt lat="48.35338" lon="2.73196">
        <ele>113.5</ele>
        <time>2021-06-13T09:42:31Z</time>
      </trkpt>
      <trkpt lat="48.3534" lon="2.73201">
        <ele>113.5</ele>
        <time>2021-06-13T09:42:39Z</time>
      </trkpt>
      <trkpt lat="48.3534" lon="2.73202">
        <ele>113.6</ele>
        <time>2021-06-13T09:42:40Z</time>
      </trkpt>
      <trkpt lat="48.35342" lon="2.73214">
        <ele>113.8</ele>
        <time>2021-06-13T09:42:48Z</time>
      </trkpt>
      <trkpt lat="48.35342" lon="2.7322">
        <ele>114.1</ele>
        <time>2021-06-13T09:42:54Z</time>
      </trkpt>
      <trkpt lat="48.35341" lon="2.73221">
        <ele>114.2</ele>
        <time>2021-06-13T09:42:57Z</time>
      </trkpt>
      <trkpt lat="48.35337" lon="2.73224">
        <ele>114.8</ele>
        <time>2021-06-13T09:43:03Z</time>
      </trkpt>
      <trkpt lat="48.35334" lon="2.73236">
        <ele>115.5</ele>
        <time>2021-06-13T09:43:11Z</time>
      </trkpt>
      <trkpt lat="48.35333" lon="2.7324">
        <ele>115.6</ele>
        <time>2021-06-13T09:43:13Z</time>
      </trkpt>
      <trkpt lat="48.3533" lon="2.73249">
        <ele>115.8</ele>
        <time>2021-06-13T09:43:20Z</time>
      </trkpt>
      <trkpt lat="48.35326" lon="2.73252">
        <ele>115.8</ele>
        <time>2021-06-13T09:43:28Z</time>
      </trkpt>
      <trkpt lat="48.35324" lon="2.73255">
        <ele>115.8</ele>
        <time>2021-06-13T09:43:34Z</time>
      </trkpt>
      <trkpt lat="48.35323" lon="2.73261">
        <ele>116.1</ele>
        <time>2021-06-13T09:43:40Z</time>
      </trkpt>
      <trkpt lat="48.35322" lon="2.73267">
        <ele>116.3</ele>
        <time>2021-06-13T09:43:47Z</time>
      </trkpt>
      <trkpt lat="48.35318" lon="2.73276">
        <ele>116.5</ele>
        <time>2021-06-13T09:43:54Z</time>
      </trkpt>
      <trkpt lat="48.35315" lon="2.73275">
        <ele>116.4</ele>
        <time>2021-06-13T09:44:01Z</time>
      </trkpt>
      <trkpt lat="48.35307" lon="2.73275">
        <ele>116.2</ele>
        <time>2021-06-13T09:44:08Z</time>
      </trkpt>
      <trkpt lat="48.35305" lon="2.73276">
        <ele>116.1</ele>
        <time>2021-06-13T09:44:10Z</time>
      </trkpt>
      <trkpt lat="48.35298" lon="2.73281">
        <ele>116.2</ele>
        <time>2021-06-13T09:44:18Z</time>
      </trkpt>
      <trkpt lat="48.35292" lon="2.73287">
        <ele>116.3</ele>
        <time>2021-06-13T09:44:26Z</time>
      </trkpt>
      <trkpt lat="48.35288" lon="2.73296">
        <ele>116.6</ele>
        <time>2021-06-13T09:44:34Z</time>
      </trkpt>
      <trkpt lat="48.35286" lon="2.73303">
        <ele>116.9</ele>
        <time>2021-06-13T09:44:41Z</time>
      </trkpt>
      <trkpt lat="48.35288" lon="2.73309">
        <ele>117.3</ele>
        <time>2021-06-13T09:44:47Z</time>
      </trkpt>
      <trkpt lat="48.35288" lon="2.73319">
        <ele>117.7</ele>
        <time>2021-06-13T09:44:55Z</time>
      </trkpt>
      <trkpt lat="48.35289" lon="2.73329">
        <ele>118.3</ele>
        <time>2021-06-13T09:45:02Z</time>
      </trkpt>
      <trkpt lat="48.35291" lon="2.73336">
        <ele>118.7</ele>
        <time>2021-06-13T09:45:09Z</time>
      </trkpt>
      <trkpt lat="48.35291" lon="2.73344">
        <ele>119.2</ele>
        <time>2021-06-13T09:45:16Z</time>
      </trkpt>
      <trkpt lat="48.35291" lon="2.73345">
        <ele>119.3</ele>
        <time>2021-06-13T09:45:17Z</time>
      </trkpt>
      <trkpt lat="48.35285" lon="2.73358">
        <ele>120.2</ele>
        <time>2021-06-13T09:45:25Z</time>
      </trkpt>
      <trkpt lat="48.3529" lon="2.73376">
        <ele>121.5</ele>
        <time>2021-06-13T09:45:30Z</time>
      </trkpt>
      <trkpt lat="48.35287" lon="2.73379">
        <ele>121.7</ele>
        <time>2021-06-13T09:45:37Z</time>
      </trkpt>
      <trkpt lat="48.35286" lon="2.7338">
        <ele>121.8</ele>
        <time>2021-06-13T09:45:44Z</time>
      </trkpt>
      <trkpt lat="48.35287" lon="2.73384">
        <ele>122.1</ele>
        <time>2021-06-13T09:45:51Z</time>
      </trkpt>
      <trkpt lat="48.35288" lon="2.73393">
        <ele>122.7</ele>
        <time>2021-06-13T09:45:57Z</time>
      </trkpt>
      <trkpt lat="48.35286" lon="2.734">
        <ele>123.2</ele>
        <time>2021-06-13T09:46:04Z</time>
      </trkpt>
      <trkpt lat="48.35283" lon="2.73404">
        <ele>123.5</ele>
        <time>2021-06-13T09:46:11Z</time>
      </trkpt>
      <trkpt lat="48.35285" lon="2.73406">
        <ele>123.6</ele>
        <time>2021-06-13T09:46:15Z</time>
      </trkpt>
      <trkpt lat="48.3529" lon="2.73406">
        <ele>123.7</ele>
        <time>2021-06-13T09:46:20Z</time>
      </trkpt>
      <trkpt lat="48.35293" lon="2.73412">
        <ele>124.2</ele>
        <time>2021-06-13T09:46:27Z</time>
      </trkpt>
      <trkpt lat="48.35297" lon="2.73417">
        <ele>124.6</ele>
        <time>2021-06-13T09:46:34Z</time>
      </trkpt>
      <trkpt lat="48.353" lon="2.73422">
        <ele>124.9</ele>
        <time>2021-06-13T09:46:40Z</time>
      </trkpt>
      <trkpt lat="48.35306" lon="2.73427">
        <ele>125.3</ele>
        <time>2021-06-13T09:46:47Z</time>
      </trkpt>
      <trkpt lat="48.35311" lon="2.73434">
        <ele>125.8</ele>
        <time>2021-06-13T09:46:55Z</time>
      </trkpt>
      <trkpt lat="48.35315" lon="2.7344">
        <ele>126.2</ele>
        <time>2021-06-13T09:47:03Z</time>
      </trkpt>
      <trkpt lat="48.35315" lon="2.73448">
        <ele>126.6</ele>
        <time>2021-06-13T09:47:09Z</time>
      </trkpt>
      <trkpt lat="48.35316" lon="2.73449">
        <ele>126.8</ele>
        <time>2021-06-13T09:47:11Z</time>
      </trkpt>
      <trkpt lat="48.35318" lon="2.7346">
        <ele>127.4</ele>
        <time>2021-06-13T09:47:19Z</time>
      </trkpt>
      <trkpt lat="48.35321" lon="2.73462">
        <ele>127.6</ele>
        <time>2021-06-13T09:47:25Z</time>
      </trkpt>
      <trkpt lat="48.35323" lon="2.73469">
        <ele>128</ele>
        <time>2021-06-13T09:47:30Z</time>
      </trkpt>
      <trkpt lat="48.35326" lon="2.73474">
        <ele>128.4</ele>
        <time>2021-06-13T09:47:35Z</time>
      </trkpt>
      <trkpt lat="48.35328" lon="2.73479">
        <ele>128.7</ele>
        <time>2021-06-13T09:47:43Z</time>
      </trkpt>
      <trkpt lat="48.35334" lon="2.73484">
        <ele>129</ele>
        <time>2021-06-13T09:47:52Z</time>
      </trkpt>
      <trkpt lat="48.35334" lon="2.73484">
        <ele>129</ele>
        <time>2021-06-13T09:47:53Z</time>
      </trkpt>
      <trkpt lat="48.3534" lon="2.73493">
        <ele>129.7</ele>
        <time>2021-06-13T09:48:00Z</time>
      </trkpt>
      <trkpt lat="48.3534" lon="2.735">
        <ele>130.1</ele>
        <time>2021-06-13T09:48:04Z</time>
      </trkpt>
      <trkpt lat="48.35341" lon="2.73512">
        <ele>130.2</ele>
        <time>2021-06-13T09:48:11Z</time>
      </trkpt>
      <trkpt lat="48.35341" lon="2.73515">
        <ele>130.2</ele>
        <time>2021-06-13T09:48:15Z</time>
      </trkpt>
      <trkpt lat="48.35342" lon="2.73522">
        <ele>130.3</ele>
        <time>2021-06-13T09:48:20Z</time>
      </trkpt>
      <trkpt lat="48.35341" lon="2.73531">
        <ele>130.2</ele>
        <time>2021-06-13T09:48:27Z</time>
      </trkpt>
      <trkpt lat="48.35341" lon="2.73538">
        <ele>130.3</ele>
        <time>2021-06-13T09:48:34Z</time>
      </trkpt>
      <trkpt lat="48.35341" lon="2.73542">
        <ele>130.3</ele>
        <time>2021-06-13T09:48:39Z</time>
      </trkpt>
      <trkpt lat="48.35342" lon="2.73543">
        <ele>130.3</ele>
        <time>2021-06-13T09:48:41Z</time>
      </trkpt>
      <trkpt lat="48.35347" lon="2.73545">
        <ele>130.5</ele>
        <time>2021-06-13T09:48:49Z</time>
      </trkpt>
      <trkpt lat="48.3535" lon="2.73553">
        <ele>130.7</ele>
        <time>2021-06-13T09:48:57Z</time>
      </trkpt>
      <trkpt lat="48.35351" lon="2.7356">
        <ele>130.7</ele>
        <time>2021-06-13T09:49:03Z</time>
      </trkpt>
      <trkpt lat="48.35352" lon="2.73563">
        <ele>130.8</ele>
        <time>2021-06-13T09:49:09Z</time>
      </trkpt>
      <trkpt lat="48.35359" lon="2.73569">
        <ele>131.1</ele>
        <time>2021-06-13T09:49:17Z</time>
      </trkpt>
      <trkpt lat="48.35364" lon="2.73574">
        <ele>131.4</ele>
        <time>2021-06-13T09:49:25Z</time>
      </trkpt>
      <trkpt lat="48.35369" lon="2.73574">
        <ele>131.6</ele>
        <time>2021-06-13T09:49:34Z</time>
      </trkpt>
      <trkpt lat="48.3537" lon="2.73576">
        <ele>131.7</ele>
        <time>2021-06-13T09:49:37Z</time>
      </trkpt>
      <trkpt lat="48.35371" lon="2.73576">
        <ele>131.7</ele>
        <time>2021-06-13T09:49:43Z</time>
      </trkpt>
      <trkpt lat="48.35372" lon="2.73576">
        <ele>131.8</ele>
        <time>2021-06-13T09:49:50Z</time>
      </trkpt>
      <trkpt lat="48.35371" lon="2.73575">
        <ele>131.7</ele>
        <time>2021-06-13T09:49:56Z</time>
      </trkpt>
      <trkpt lat="48.35373" lon="2.73573">
        <ele>131.8</ele>
        <time>2021-06-13T09:49:59Z</time>
      </trkpt>
      <trkpt lat="48.35375" lon="2.73571">
        <ele>131.8</ele>
        <time>2021-06-13T09:50:04Z</time>
      </trkpt>
      <trkpt lat="48.35379" lon="2.73567">
        <ele>132</ele>
        <time>2021-06-13T09:50:10Z</time>
      </trkpt>
      <trkpt lat="48.35382" lon="2.73562">
        <ele>132</ele>
        <time>2021-06-13T09:50:16Z</time>
      </trkpt>
      <trkpt lat="48.35384" lon="2.73554">
        <ele>132</ele>
        <time>2021-06-13T09:50:23Z</time>
      </trkpt>
      <trkpt lat="48.35388" lon="2.73544">
        <ele>132</ele>
        <time>2021-06-13T09:50:30Z</time>
      </trkpt>
      <trkpt lat="48.35389" lon="2.73543">
        <ele>132</ele>
        <time>2021-06-13T09:50:31Z</time>
      </trkpt>
      <trkpt lat="48.35391" lon="2.73535">
        <ele>131.9</ele>
        <time>2021-06-13T09:50:37Z</time>
      </trkpt>
      <trkpt lat="48.3539" lon="2.73533">
        <ele>131.9</ele>
        <time>2021-06-13T09:50:38Z</time>
      </trkpt>
      <trkpt lat="48.35392" lon="2.73525">
        <ele>131.8</ele>
        <time>2021-06-13T09:50:42Z</time>
      </trkpt>
      <trkpt lat="48.35396" lon="2.73511">
        <ele>131.7</ele>
        <time>2021-06-13T09:50:50Z</time>
      </trkpt>
      <trkpt lat="48.35393" lon="2.73501">
        <ele>131.5</ele>
        <time>2021-06-13T09:50:58Z</time>
      </trkpt>
      <trkpt lat="48.35394" lon="2.73495">
        <ele>131.1</ele>
        <time>2021-06-13T09:51:04Z</time>
      </trkpt>
      <trkpt lat="48.35395" lon="2.73489">
        <ele>130.5</ele>
        <time>2021-06-13T09:51:10Z</time>
      </trkpt>
      <trkpt lat="48.35395" lon="2.73478">
        <ele>129.6</ele>
        <time>2021-06-13T09:51:17Z</time>
      </trkpt>
      <trkpt lat="48.35397" lon="2.73476">
        <ele>129.4</ele>
        <time>2021-06-13T09:51:24Z</time>
      </trkpt>
      <trkpt lat="48.35398" lon="2.73474">
        <ele>129.3</ele>
        <time>2021-06-13T09:51:27Z</time>
      </trkpt>
      <trkpt lat="48.35404" lon="2.73463">
        <ele>128.4</ele>
        <time>2021-06-13T09:51:35Z</time>
      </trkpt>
      <trkpt lat="48.35403" lon="2.73453">
        <ele>127.4</ele>
        <time>2021-06-13T09:51:42Z</time>
      </trkpt>
      <trkpt lat="48.35403" lon="2.73451">
        <ele>127.2</ele>
        <time>2021-06-13T09:51:48Z</time>
      </trkpt>
      <trkpt lat="48.35404" lon="2.73451">
        <ele>127.3</ele>
        <time>2021-06-13T09:51:56Z</time>
      </trkpt>
      <trkpt lat="48.35406" lon="2.73453">
        <ele>127.4</ele>
        <time>2021-06-13T09:52:03Z</time>
      </trkpt>
      <trkpt lat="48.35406" lon="2.73459">
        <ele>128</ele>
        <time>2021-06-13T09:52:10Z</time>
      </trkpt>
      <trkpt lat="48.35406" lon="2.7346">
        <ele>128.1</ele>
        <time>2021-06-13T09:52:17Z</time>
      </trkpt>
      <trkpt lat="48.35405" lon="2.73459">
        <ele>128</ele>
        <time>2021-06-13T09:52:20Z</time>
      </trkpt>
      <trkpt lat="48.3541" lon="2.7346">
        <ele>128.1</ele>
        <time>2021-06-13T09:52:26Z</time>
      </trkpt>
      <trkpt lat="48.35413" lon="2.73461">
        <ele>128.2</ele>
        <time>2021-06-13T09:52:29Z</time>
      </trkpt>
      <trkpt lat="48.3542" lon="2.73459">
        <ele>128.1</ele>
        <time>2021-06-13T09:52:37Z</time>
      </trkpt>
      <trkpt lat="48.35422" lon="2.7346">
        <ele>128.2</ele>
        <time>2021-06-13T09:52:45Z</time>
      </trkpt>
      <trkpt lat="48.35422" lon="2.73461">
        <ele>128.3</ele>
        <time>2021-06-13T09:52:56Z</time>
      </trkpt>
      <trkpt lat="48.35421" lon="2.73462">
        <ele>128.4</ele>
        <time>2021-06-13T09:53:12Z</time>
      </trkpt>
      <trkpt lat="48.35421" lon="2.73461">
        <ele>128.3</ele>
        <time>2021-06-13T09:53:24Z</time>
      </trkpt>
      <trkpt lat="48.35425" lon="2.73469">
        <ele>129.1</ele>
        <time>2021-06-13T09:53:31Z</time>
      </trkpt>
      <trkpt lat="48.35427" lon="2.73475">
        <ele>129.5</ele>
        <time>2021-06-13T09:53:34Z</time>
      </trkpt>
      <trkpt lat="48.35429" lon="2.73483">
        <ele>130.2</ele>
        <time>2021-06-13T09:53:41Z</time>
      </trkpt>
      <trkpt lat="48.35432" lon="2.73487">
        <ele>130.5</ele>
        <time>2021-06-13T09:53:48Z</time>
      </trkpt>
      <trkpt lat="48.35435" lon="2.735">
        <ele>131.6</ele>
        <time>2021-06-13T09:53:55Z</time>
      </trkpt>
      <trkpt lat="48.35435" lon="2.73503">
        <ele>131.6</ele>
        <time>2021-06-13T09:53:57Z</time>
      </trkpt>
      <trkpt lat="48.35435" lon="2.73506">
        <ele>131.7</ele>
        <time>2021-06-13T09:53:59Z</time>
      </trkpt>
      <trkpt lat="48.35439" lon="2.73519">
        <ele>132.1</ele>
        <time>2021-06-13T09:54:06Z</time>
      </trkpt>
      <trkpt lat="48.35443" lon="2.73529">
        <ele>132.4</ele>
        <time>2021-06-13T09:54:14Z</time>
      </trkpt>
      <trkpt lat="48.35443" lon="2.73531">
        <ele>132.5</ele>
        <time>2021-06-13T09:54:20Z</time>
      </trkpt>
      <trkpt lat="48.35445" lon="2.73532">
        <ele>132.5</ele>
        <time>2021-06-13T09:54:22Z</time>
      </trkpt>
      <trkpt lat="48.35452" lon="2.73537">
        <ele>132.6</ele>
        <time>2021-06-13T09:54:28Z</time>
      </trkpt>
      <trkpt lat="48.35461" lon="2.73542">
        <ele>132.7</ele>
        <time>2021-06-13T09:54:35Z</time>
      </trkpt>
      <trkpt lat="48.35467" lon="2.73541">
        <ele>132.7</ele>
        <time>2021-06-13T09:54:39Z</time>
      </trkpt>
      <trkpt lat="48.35474" lon="2.73537">
        <ele>132.4</ele>
        <time>2021-06-13T09:54:48Z</time>
      </trkpt>
      <trkpt lat="48.35478" lon="2.73534">
        <ele>132.3</ele>
        <time>2021-06-13T09:54:55Z</time>
      </trkpt>
      <trkpt lat="48.35483" lon="2.73536">
        <ele>132.3</ele>
        <time>2021-06-13T09:55:01Z</time>
      </trkpt>
      <trkpt lat="48.35487" lon="2.73539">
        <ele>132.4</ele>
        <time>2021-06-13T09:55:08Z</time>
      </trkpt>
      <trkpt lat="48.35488" lon="2.73539">
        <ele>132.4</ele>
        <time>2021-06-13T09:55:12Z</time>
      </trkpt>
      <trkpt lat="48.35492" lon="2.73536">
        <ele>132.2</ele>
        <time>2021-06-13T09:55:18Z</time>
      </trkpt>
      <trkpt lat="48.35495" lon="2.73533">
        <ele>132</ele>
        <time>2021-06-13T09:55:25Z</time>
      </trkpt>
      <trkpt lat="48.35495" lon="2.73531">
        <ele>131.9</ele>
        <time>2021-06-13T09:55:31Z</time>
      </trkpt>
      <trkpt lat="48.35493" lon="2.73528">
        <ele>131.8</ele>
        <time>2021-06-13T09:55:38Z</time>
      </trkpt>
      <trkpt lat="48.35493" lon="2.73523">
        <ele>131.5</ele>
        <time>2021-06-13T09:55:45Z</time>
      </trkpt>
      <trkpt lat="48.35493" lon="2.73516">
        <ele>131.1</ele>
        <time>2021-06-13T09:55:51Z</time>
      </trkpt>
      <trkpt lat="48.35497" lon="2.73513">
        <ele>130.8</ele>
        <time>2021-06-13T09:55:58Z</time>
      </trkpt>
      <trkpt lat="48.35502" lon="2.73511">
        <ele>130.7</ele>
        <time>2021-06-13T09:56:04Z</time>
      </trkpt>
      <trkpt lat="48.35505" lon="2.73508">
        <ele>130.5</ele>
        <time>2021-06-13T09:56:09Z</time>
      </trkpt>
      <trkpt lat="48.35512" lon="2.73507">
        <ele>130.4</ele>
        <time>2021-06-13T09:56:16Z</time>
      </trkpt>
      <trkpt lat="48.35517" lon="2.73508">
        <ele>130.5</ele>
        <time>2021-06-13T09:56:21Z</time>
      </trkpt>
      <trkpt lat="48.35524" lon="2.735">
        <ele>130</ele>
        <time>2021-06-13T09:56:29Z</time>
      </trkpt>
      <trkpt lat="48.35526" lon="2.73499">
        <ele>130</ele>
        <time>2021-06-13T09:56:35Z</time>
      </trkpt>
      <trkpt lat="48.35529" lon="2.73496">
        <ele>130</ele>
        <time>2021-06-13T09:56:43Z</time>
      </trkpt>
      <trkpt lat="48.35531" lon="2.73495">
        <ele>130</ele>
        <time>2021-06-13T09:56:49Z</time>
      </trkpt>
      <trkpt lat="48.35533" lon="2.73491">
        <ele>130</ele>
        <time>2021-06-13T09:56:55Z</time>
      </trkpt>
      <trkpt lat="48.35537" lon="2.73487">
        <ele>130</ele>
        <time>2021-06-13T09:57:02Z</time>
      </trkpt>
      <trkpt lat="48.35538" lon="2.73484">
        <ele>130</ele>
        <time>2021-06-13T09:57:07Z</time>
      </trkpt>
      <trkpt lat="48.35538" lon="2.73484">
        <ele>130</ele>
        <time>2021-06-13T09:57:08Z</time>
      </trkpt>
      <trkpt lat="48.35545" lon="2.73475">
        <ele>130</ele>
        <time>2021-06-13T09:57:15Z</time>
      </trkpt>
      <trkpt lat="48.35549" lon="2.73471">
        <ele>130.1</ele>
        <time>2021-06-13T09:57:20Z</time>
      </trkpt>
      <trkpt lat="48.35552" lon="2.73461">
        <ele>130.2</ele>
        <time>2021-06-13T09:57:26Z</time>
      </trkpt>
      <trkpt lat="48.35557" lon="2.73456">
        <ele>130.4</ele>
        <time>2021-06-13T09:57:30Z</time>
      </trkpt>
      <trkpt lat="48.35562" lon="2.73453">
        <ele>130.5</ele>
        <time>2021-06-13T09:57:37Z</time>
      </trkpt>
      <trkpt lat="48.35566" lon="2.73449">
        <ele>130.7</ele>
        <time>2021-06-13T09:57:44Z</time>
      </trkpt>
      <trkpt lat="48.35574" lon="2.73445">
        <ele>131</ele>
        <time>2021-06-13T09:57:51Z</time>
      </trkpt>
      <trkpt lat="48.35578" lon="2.73442">
        <ele>131.2</ele>
        <time>2021-06-13T09:57:55Z</time>
      </trkpt>
      <trkpt lat="48.35585" lon="2.73431">
        <ele>131.7</ele>
        <time>2021-06-13T09:58:02Z</time>
      </trkpt>
      <trkpt lat="48.35594" lon="2.73422">
        <ele>132</ele>
        <time>2021-06-13T09:58:10Z</time>
      </trkpt>
      <trkpt lat="48.35598" lon="2.73418">
        <ele>132.1</ele>
        <time>2021-06-13T09:58:17Z</time>
      </trkpt>
      <trkpt lat="48.35598" lon="2.73416">
        <ele>132.2</ele>
        <time>2021-06-13T09:58:19Z</time>
      </trkpt>
      <trkpt lat="48.356" lon="2.73415">
        <ele>132.3</ele>
        <time>2021-06-13T09:58:25Z</time>
      </trkpt>
      <trkpt lat="48.35599" lon="2.73415">
        <ele>132.3</ele>
        <time>2021-06-13T09:58:32Z</time>
      </trkpt>
      <trkpt lat="48.35598" lon="2.73416">
        <ele>132.2</ele>
        <time>2021-06-13T09:58:35Z</time>
      </trkpt>
      <trkpt lat="48.35597" lon="2.73416">
        <ele>132.2</ele>
        <time>2021-06-13T09:58:39Z</time>
      </trkpt>
      <trkpt lat="48.35597" lon="2.73411">
        <ele>132.4</ele>
        <time>2021-06-13T09:58:45Z</time>
      </trkpt>
      <trkpt lat="48.35598" lon="2.73402">
        <ele>132.8</ele>
        <time>2021-06-13T09:58:52Z</time>
      </trkpt>
      <trkpt lat="48.35599" lon="2.73392">
        <ele>133.3</ele>
        <time>2021-06-13T09:58:59Z</time>
      </trkpt>
      <trkpt lat="48.356" lon="2.73384">
        <ele>133.6</ele>
        <time>2021-06-13T09:59:08Z</time>
      </trkpt>
      <trkpt lat="48.35597" lon="2.73385">
        <ele>133.6</ele>
        <time>2021-06-13T09:59:16Z</time>
      </trkpt>
      <trkpt lat="48.35597" lon="2.73385">
        <ele>133.6</ele>
        <time>2021-06-13T09:59:21Z</time>
      </trkpt>
      <trkpt lat="48.35597" lon="2.73385">
        <ele>133.6</ele>
        <time>2021-06-13T09:59:23Z</time>
      </trkpt>
      <trkpt lat="48.35593" lon="2.73389">
        <ele>133.4</ele>
        <time>2021-06-13T09:59:30Z</time>
      </trkpt>
      <trkpt lat="48.35588" lon="2.73387">
        <ele>133.5</ele>
        <time>2021-06-13T09:59:38Z</time>
      </trkpt>
      <trkpt lat="48.35586" lon="2.73387">
        <ele>133.4</ele>
        <time>2021-06-13T09:59:41Z</time>
      </trkpt>
      <trkpt lat="48.35578" lon="2.73387">
        <ele>133.1</ele>
        <time>2021-06-13T09:59:50Z</time>
      </trkpt>
      <trkpt lat="48.35575" lon="2.73387">
        <ele>132.8</ele>
        <time>2021-06-13T09:59:57Z</time>
      </trkpt>
      <trkpt lat="48.35571" lon="2.73384">
        <ele>132.6</ele>
        <time>2021-06-13T10:00:03Z</time>
      </trkpt>
      <trkpt lat="48.35566" lon="2.73383">
        <ele>132.2</ele>
        <time>2021-06-13T10:00:08Z</time>
      </trkpt>
      <trkpt lat="48.35562" lon="2.73381">
        <ele>132</ele>
        <time>2021-06-13T10:00:12Z</time>
      </trkpt>
      <trkpt lat="48.35558" lon="2.73379">
        <ele>131.8</ele>
        <time>2021-06-13T10:00:15Z</time>
      </trkpt>
      <trkpt lat="48.35554" lon="2.73375">
        <ele>131.5</ele>
        <time>2021-06-13T10:00:19Z</time>
      </trkpt>
      <trkpt lat="48.35547" lon="2.73371">
        <ele>131</ele>
        <time>2021-06-13T10:00:25Z</time>
      </trkpt>
      <trkpt lat="48.3554" lon="2.73359">
        <ele>130.5</ele>
        <time>2021-06-13T10:00:33Z</time>
      </trkpt>
      <trkpt lat="48.35537" lon="2.73346">
        <ele>130.4</ele>
        <time>2021-06-13T10:00:42Z</time>
      </trkpt>
      <trkpt lat="48.35539" lon="2.73337">
        <ele>130.6</ele>
        <time>2021-06-13T10:00:49Z</time>
      </trkpt>
      <trkpt lat="48.35541" lon="2.73336">
        <ele>130.9</ele>
        <time>2021-06-13T10:00:56Z</time>
      </trkpt>
      <trkpt lat="48.35543" lon="2.73334">
        <ele>131.1</ele>
        <time>2021-06-13T10:01:02Z</time>
      </trkpt>
      <trkpt lat="48.35543" lon="2.73333">
        <ele>131.1</ele>
        <time>2021-06-13T10:01:11Z</time>
      </trkpt>
      <trkpt lat="48.35543" lon="2.73333">
        <ele>131.2</ele>
        <time>2021-06-13T10:01:20Z</time>
      </trkpt>
      <trkpt lat="48.35544" lon="2.73333">
        <ele>131.2</ele>
        <time>2021-06-13T10:01:26Z</time>
      </trkpt>
      <trkpt lat="48.35544" lon="2.73333">
        <ele>131.3</ele>
        <time>2021-06-13T10:01:38Z</time>
      </trkpt>
      <trkpt lat="48.35545" lon="2.73333">
        <ele>131.4</ele>
        <time>2021-06-13T10:01:39Z</time>
      </trkpt>
      <trkpt lat="48.35554" lon="2.73329">
        <ele>132.5</ele>
        <time>2021-06-13T10:01:49Z</time>
      </trkpt>
      <trkpt lat="48.35559" lon="2.73323">
        <ele>133.1</ele>
        <time>2021-06-13T10:01:55Z</time>
      </trkpt>
      <trkpt lat="48.35559" lon="2.73317">
        <ele>133.1</ele>
        <time>2021-06-13T10:01:59Z</time>
      </trkpt>
      <trkpt lat="48.35558" lon="2.733">
        <ele>133.1</ele>
        <time>2021-06-13T10:02:08Z</time>
      </trkpt>
      <trkpt lat="48.35555" lon="2.73291">
        <ele>132.6</ele>
        <time>2021-06-13T10:02:14Z</time>
      </trkpt>
      <trkpt lat="48.35554" lon="2.73284">
        <ele>132.4</ele>
        <time>2021-06-13T10:02:20Z</time>
      </trkpt>
      <trkpt lat="48.35549" lon="2.73275">
        <ele>131.5</ele>
        <time>2021-06-13T10:02:29Z</time>
      </trkpt>
      <trkpt lat="48.35549" lon="2.73266">
        <ele>131.5</ele>
        <time>2021-06-13T10:02:36Z</time>
      </trkpt>
      <trkpt lat="48.3555" lon="2.73259">
        <ele>131.7</ele>
        <time>2021-06-13T10:02:42Z</time>
      </trkpt>
      <trkpt lat="48.35552" lon="2.73251">
        <ele>131.9</ele>
        <time>2021-06-13T10:02:49Z</time>
      </trkpt>
      <trkpt lat="48.35554" lon="2.73244">
        <ele>131.9</ele>
        <time>2021-06-13T10:02:55Z</time>
      </trkpt>
      <trkpt lat="48.35557" lon="2.73238">
        <ele>132.1</ele>
        <time>2021-06-13T10:03:01Z</time>
      </trkpt>
      <trkpt lat="48.35561" lon="2.73231">
        <ele>132.3</ele>
        <time>2021-06-13T10:03:09Z</time>
      </trkpt>
      <trkpt lat="48.35561" lon="2.7323">
        <ele>132.2</ele>
        <time>2021-06-13T10:03:16Z</time>
      </trkpt>
      <trkpt lat="48.35562" lon="2.7323">
        <ele>132.3</ele>
        <time>2021-06-13T10:03:24Z</time>
      </trkpt>
      <trkpt lat="48.35562" lon="2.73232">
        <ele>132.4</ele>
        <time>2021-06-13T10:03:33Z</time>
      </trkpt>
      <trkpt lat="48.35562" lon="2.7323">
        <ele>132.5</ele>
        <time>2021-06-13T10:03:38Z</time>
      </trkpt>
      <trkpt lat="48.35564" lon="2.7322">
        <ele>132.2</ele>
        <time>2021-06-13T10:03:46Z</time>
      </trkpt>
      <trkpt lat="48.35569" lon="2.73215">
        <ele>132.7</ele>
        <time>2021-06-13T10:03:51Z</time>
      </trkpt>
      <trkpt lat="48.35571" lon="2.73207">
        <ele>132.8</ele>
        <time>2021-06-13T10:03:59Z</time>
      </trkpt>
      <trkpt lat="48.35572" lon="2.73206">
        <ele>132.8</ele>
        <time>2021-06-13T10:04:07Z</time>
      </trkpt>
      <trkpt lat="48.35572" lon="2.73206">
        <ele>132.7</ele>
        <time>2021-06-13T10:04:17Z</time>
      </trkpt>
      <trkpt lat="48.35572" lon="2.73206">
        <ele>132.7</ele>
        <time>2021-06-13T10:04:24Z</time>
      </trkpt>
      <trkpt lat="48.35571" lon="2.73207">
        <ele>132.6</ele>
        <time>2021-06-13T10:04:36Z</time>
      </trkpt>
      <trkpt lat="48.3557" lon="2.73207">
        <ele>132.5</ele>
        <time>2021-06-13T10:04:46Z</time>
      </trkpt>
      <trkpt lat="48.3557" lon="2.73206">
        <ele>132.4</ele>
        <time>2021-06-13T10:05:02Z</time>
      </trkpt>
      <trkpt lat="48.3557" lon="2.73206">
        <ele>132.3</ele>
        <time>2021-06-13T10:05:14Z</time>
      </trkpt>
      <trkpt lat="48.35571" lon="2.73205">
        <ele>132.5</ele>
        <time>2021-06-13T10:05:28Z</time>
      </trkpt>
      <trkpt lat="48.35571" lon="2.73206">
        <ele>132.6</ele>
        <time>2021-06-13T10:05:42Z</time>
      </trkpt>
      <trkpt lat="48.35572" lon="2.73205">
        <ele>132.7</ele>
        <time>2021-06-13T10:05:59Z</time>
      </trkpt>
      <trkpt lat="48.35572" lon="2.73205">
        <ele>132.8</ele>
        <time>2021-06-13T10:06:19Z</time>
      </trkpt>
      <trkpt lat="48.35572" lon="2.73206">
        <ele>132.7</ele>
        <time>2021-06-13T10:06:37Z</time>
      </trkpt>
      <trkpt lat="48.35571" lon="2.73206">
        <ele>132.7</ele>
        <time>2021-06-13T10:06:56Z</time>
      </trkpt>
      <trkpt lat="48.35571" lon="2.73207">
        <ele>132.7</ele>
        <time>2021-06-13T10:07:12Z</time>
      </trkpt>
      <trkpt lat="48.35571" lon="2.73208">
        <ele>132.8</ele>
        <time>2021-06-13T10:07:30Z</time>
      </trkpt>
      <trkpt lat="48.3557" lon="2.73208">
        <ele>132.6</ele>
        <time>2021-06-13T10:07:48Z</time>
      </trkpt>
      <trkpt lat="48.3557" lon="2.73208">
        <ele>132.6</ele>
        <time>2021-06-13T10:08:05Z</time>
      </trkpt>
      <trkpt lat="48.35571" lon="2.73209">
        <ele>132.8</ele>
        <time>2021-06-13T10:08:26Z</time>
      </trkpt>
      <trkpt lat="48.35571" lon="2.7321">
        <ele>132.8</ele>
        <time>2021-06-13T10:08:43Z</time>
      </trkpt>
      <trkpt lat="48.3557" lon="2.7321">
        <ele>132.7</ele>
        <time>2021-06-13T10:09:02Z</time>
      </trkpt>
      <trkpt lat="48.35571" lon="2.7321">
        <ele>132.8</ele>
        <time>2021-06-13T10:09:20Z</time>
      </trkpt>
      <trkpt lat="48.35571" lon="2.7321">
        <ele>132.8</ele>
        <time>2021-06-13T10:09:36Z</time>
      </trkpt>
      <trkpt lat="48.35571" lon="2.73209">
        <ele>132.8</ele>
        <time>2021-06-13T10:09:56Z</time>
      </trkpt>
      <trkpt lat="48.35571" lon="2.73209">
        <ele>132.7</ele>
        <time>2021-06-13T10:10:15Z</time>
      </trkpt>
      <trkpt lat="48.35571" lon="2.7321">
        <ele>132.9</ele>
        <time>2021-06-13T10:10:32Z</time>
      </trkpt>
      <trkpt lat="48.35571" lon="2.7321">
        <ele>132.8</ele>
        <time>2021-06-13T10:10:51Z</time>
      </trkpt>
      <trkpt lat="48.35571" lon="2.7321">
        <ele>132.8</ele>
        <time>2021-06-13T10:11:07Z</time>
      </trkpt>
      <trkpt lat="48.35571" lon="2.7321">
        <ele>132.8</ele>
        <time>2021-06-13T10:11:26Z</time>
      </trkpt>
      <trkpt lat="48.35571" lon="2.7321">
        <ele>132.9</ele>
        <time>2021-06-13T10:11:44Z</time>
      </trkpt>
      <trkpt lat="48.35571" lon="2.7321">
        <ele>132.9</ele>
        <time>2021-06-13T10:12:01Z</time>
      </trkpt>
      <trkpt lat="48.35571" lon="2.73211">
        <ele>132.9</ele>
        <time>2021-06-13T10:12:16Z</time>
      </trkpt>
      <trkpt lat="48.35571" lon="2.7321">
        <ele>133</ele>
        <time>2021-06-13T10:12:35Z</time>
      </trkpt>
      <trkpt lat="48.35572" lon="2.73208">
        <ele>132.9</ele>
        <time>2021-06-13T10:12:55Z</time>
      </trkpt>
      <trkpt lat="48.35572" lon="2.73208">
        <ele>132.9</ele>
        <time>2021-06-13T10:13:17Z</time>
      </trkpt>
      <trkpt lat="48.35572" lon="2.73207">
        <ele>132.9</ele>
        <time>2021-06-13T10:13:36Z</time>
      </trkpt>
      <trkpt lat="48.35572" lon="2.73207">
        <ele>132.9</ele>
        <time>2021-06-13T10:13:50Z</time>
      </trkpt>
      <trkpt lat="48.35572" lon="2.73208">
        <ele>132.9</ele>
        <time>2021-06-13T10:14:10Z</time>
      </trkpt>
      <trkpt lat="48.35572" lon="2.73208">
        <ele>132.8</ele>
        <time>2021-06-13T10:14:27Z</time>
      </trkpt>
      <trkpt lat="48.35571" lon="2.73208">
        <ele>132.8</ele>
        <time>2021-06-13T10:14:46Z</time>
      </trkpt>
      <trkpt lat="48.35571" lon="2.73207">
        <ele>132.7</ele>
        <time>2021-06-13T10:15:04Z</time>
      </trkpt>
      <trkpt lat="48.35571" lon="2.73207">
        <ele>132.7</ele>
        <time>2021-06-13T10:15:23Z</time>
      </trkpt>
      <trkpt lat="48.35571" lon="2.73208">
        <ele>132.8</ele>
        <time>2021-06-13T10:15:41Z</time>
      </trkpt>
      <trkpt lat="48.35571" lon="2.73208">
        <ele>132.8</ele>
        <time>2021-06-13T10:15:58Z</time>
      </trkpt>
      <trkpt lat="48.35571" lon="2.73208">
        <ele>132.8</ele>
        <time>2021-06-13T10:16:19Z</time>
      </trkpt>
      <trkpt lat="48.35571" lon="2.73207">
        <ele>132.7</ele>
        <time>2021-06-13T10:16:38Z</time>
      </trkpt>
      <trkpt lat="48.35571" lon="2.73207">
        <ele>132.6</ele>
        <time>2021-06-13T10:16:57Z</time>
      </trkpt>
      <trkpt lat="48.35571" lon="2.73206">
        <ele>132.6</ele>
        <time>2021-06-13T10:17:16Z</time>
      </trkpt>
      <trkpt lat="48.35571" lon="2.73207">
        <ele>132.6</ele>
        <time>2021-06-13T10:17:37Z</time>
      </trkpt>
      <trkpt lat="48.35571" lon="2.73207">
        <ele>132.6</ele>
        <time>2021-06-13T10:17:55Z</time>
      </trkpt>
      <trkpt lat="48.35571" lon="2.73208">
        <ele>132.7</ele>
        <time>2021-06-13T10:18:13Z</time>
      </trkpt>
      <trkpt lat="48.3557" lon="2.73209">
        <ele>132.6</ele>
        <time>2021-06-13T10:18:34Z</time>
      </trkpt>
      <trkpt lat="48.3557" lon="2.73208">
        <ele>132.5</ele>
        <time>2021-06-13T10:18:51Z</time>
      </trkpt>
      <trkpt lat="48.35569" lon="2.73209">
        <ele>132.5</ele>
        <time>2021-06-13T10:19:11Z</time>
      </trkpt>
      <trkpt lat="48.3557" lon="2.73209">
        <ele>132.5</ele>
        <time>2021-06-13T10:19:30Z</time>
      </trkpt>
      <trkpt lat="48.3557" lon="2.73209">
        <ele>132.5</ele>
        <time>2021-06-13T10:19:49Z</time>
      </trkpt>
      <trkpt lat="48.35569" lon="2.73208">
        <ele>132.3</ele>
        <time>2021-06-13T10:20:08Z</time>
      </trkpt>
      <trkpt lat="48.35569" lon="2.73207">
        <ele>132.3</ele>
        <time>2021-06-13T10:20:29Z</time>
      </trkpt>
      <trkpt lat="48.35569" lon="2.73208">
        <ele>132.3</ele>
        <time>2021-06-13T10:20:47Z</time>
      </trkpt>
      <trkpt lat="48.35569" lon="2.73208">
        <ele>132.3</ele>
        <time>2021-06-13T10:21:08Z</time>
      </trkpt>
      <trkpt lat="48.35569" lon="2.73208">
        <ele>132.3</ele>
        <time>2021-06-13T10:21:24Z</time>
      </trkpt>
      <trkpt lat="48.35569" lon="2.73208">
        <ele>132.3</ele>
        <time>2021-06-13T10:21:40Z</time>
      </trkpt>
      <trkpt lat="48.35569" lon="2.73207">
        <ele>132.2</ele>
        <time>2021-06-13T10:22:00Z</time>
      </trkpt>
      <trkpt lat="48.35569" lon="2.73207">
        <ele>132.2</ele>
        <time>2021-06-13T10:22:18Z</time>
      </trkpt>
      <trkpt lat="48.35569" lon="2.73207">
        <ele>132.3</ele>
        <time>2021-06-13T10:22:34Z</time>
      </trkpt>
      <trkpt lat="48.35569" lon="2.73207">
        <ele>132.3</ele>
        <time>2021-06-13T10:22:55Z</time>
      </trkpt>
      <trkpt lat="48.35569" lon="2.73208">
        <ele>132.4</ele>
        <time>2021-06-13T10:23:14Z</time>
      </trkpt>
      <trkpt lat="48.35569" lon="2.73208">
        <ele>132.4</ele>
        <time>2021-06-13T10:23:35Z</time>
      </trkpt>
      <trkpt lat="48.35569" lon="2.73208">
        <ele>132.4</ele>
        <time>2021-06-13T10:23:53Z</time>
      </trkpt>
      <trkpt lat="48.35569" lon="2.73209">
        <ele>132.4</ele>
        <time>2021-06-13T10:24:11Z</time>
      </trkpt>
      <trkpt lat="48.3557" lon="2.7321">
        <ele>132.6</ele>
        <time>2021-06-13T10:24:30Z</time>
      </trkpt>
      <trkpt lat="48.3557" lon="2.7321">
        <ele>132.5</ele>
        <time>2021-06-13T10:24:44Z</time>
      </trkpt>
      <trkpt lat="48.3557" lon="2.73209">
        <ele>132.5</ele>
        <time>2021-06-13T10:25:02Z</time>
      </trkpt>
      <trkpt lat="48.3557" lon="2.73208">
        <ele>132.5</ele>
        <time>2021-06-13T10:25:23Z</time>
      </trkpt>
      <trkpt lat="48.3557" lon="2.73207">
        <ele>132.4</ele>
        <time>2021-06-13T10:25:37Z</time>
      </trkpt>
      <trkpt lat="48.3557" lon="2.73207">
        <ele>132.4</ele>
        <time>2021-06-13T10:25:50Z</time>
      </trkpt>
      <trkpt lat="48.35571" lon="2.73207">
        <ele>132.6</ele>
        <time>2021-06-13T10:26:07Z</time>
      </trkpt>
      <trkpt lat="48.35571" lon="2.73207">
        <ele>132.6</ele>
        <time>2021-06-13T10:26:28Z</time>
      </trkpt>
      <trkpt lat="48.35571" lon="2.73207">
        <ele>132.6</ele>
        <time>2021-06-13T10:26:44Z</time>
      </trkpt>
      <trkpt lat="48.35571" lon="2.73207">
        <ele>132.6</ele>
        <time>2021-06-13T10:26:59Z</time>
      </trkpt>
      <trkpt lat="48.35571" lon="2.73207">
        <ele>132.7</ele>
        <time>2021-06-13T10:27:12Z</time>
      </trkpt>
      <trkpt lat="48.35571" lon="2.73207">
        <ele>132.7</ele>
        <time>2021-06-13T10:27:29Z</time>
      </trkpt>
      <trkpt lat="48.35571" lon="2.73207">
        <ele>132.6</ele>
        <time>2021-06-13T10:27:45Z</time>
      </trkpt>
      <trkpt lat="48.35571" lon="2.73208">
        <ele>132.7</ele>
        <time>2021-06-13T10:28:05Z</time>
      </trkpt>
      <trkpt lat="48.35571" lon="2.73208">
        <ele>132.7</ele>
        <time>2021-06-13T10:28:27Z</time>
      </trkpt>
      <trkpt lat="48.35571" lon="2.73208">
        <ele>132.8</ele>
        <time>2021-06-13T10:28:47Z</time>
      </trkpt>
      <trkpt lat="48.35572" lon="2.73207">
        <ele>132.8</ele>
        <time>2021-06-13T10:29:03Z</time>
      </trkpt>
      <trkpt lat="48.35572" lon="2.73208">
        <ele>133</ele>
        <time>2021-06-13T10:29:20Z</time>
      </trkpt>
      <trkpt lat="48.35573" lon="2.73208">
        <ele>133.2</ele>
        <time>2021-06-13T10:29:39Z</time>
      </trkpt>
      <trkpt lat="48.35573" lon="2.73208">
        <ele>133.3</ele>
        <time>2021-06-13T10:29:52Z</time>
      </trkpt>
      <trkpt lat="48.35572" lon="2.73209">
        <ele>133.1</ele>
        <time>2021-06-13T10:30:08Z</time>
      </trkpt>
      <trkpt lat="48.35572" lon="2.7321">
        <ele>133.1</ele>
        <time>2021-06-13T10:30:23Z</time>
      </trkpt>
      <trkpt lat="48.35572" lon="2.7321">
        <ele>133.1</ele>
        <time>2021-06-13T10:30:37Z</time>
      </trkpt>
      <trkpt lat="48.35571" lon="2.7321">
        <ele>132.9</ele>
        <time>2021-06-13T10:30:52Z</time>
      </trkpt>
      <trkpt lat="48.35571" lon="2.73209">
        <ele>132.8</ele>
        <time>2021-06-13T10:31:06Z</time>
      </trkpt>
      <trkpt lat="48.35571" lon="2.73208">
        <ele>132.8</ele>
        <time>2021-06-13T10:31:25Z</time>
      </trkpt>
      <trkpt lat="48.35571" lon="2.73208">
        <ele>132.8</ele>
        <time>2021-06-13T10:31:45Z</time>
      </trkpt>
      <trkpt lat="48.35571" lon="2.73208">
        <ele>132.9</ele>
        <time>2021-06-13T10:32:02Z</time>
      </trkpt>
      <trkpt lat="48.35571" lon="2.73209">
        <ele>132.9</ele>
        <time>2021-06-13T10:32:19Z</time>
      </trkpt>
      <trkpt lat="48.35572" lon="2.73208">
        <ele>132.8</ele>
        <time>2021-06-13T10:32:37Z</time>
      </trkpt>
      <trkpt lat="48.35571" lon="2.73208">
        <ele>132.8</ele>
        <time>2021-06-13T10:32:53Z</time>
      </trkpt>
      <trkpt lat="48.35571" lon="2.73208">
        <ele>132.7</ele>
        <time>2021-06-13T10:33:09Z</time>
      </trkpt>
      <trkpt lat="48.35571" lon="2.73208">
        <ele>132.7</ele>
        <time>2021-06-13T10:33:27Z</time>
      </trkpt>
      <trkpt lat="48.35571" lon="2.73209">
        <ele>132.9</ele>
        <time>2021-06-13T10:33:50Z</time>
      </trkpt>
      <trkpt lat="48.35571" lon="2.7321">
        <ele>132.9</ele>
        <time>2021-06-13T10:34:09Z</time>
      </trkpt>
      <trkpt lat="48.35571" lon="2.7321">
        <ele>132.9</ele>
        <time>2021-06-13T10:34:11Z</time>
      </trkpt>
      <trkpt lat="48.35572" lon="2.73209">
        <ele>133</ele>
        <time>2021-06-13T10:34:16Z</time>
      </trkpt>
      <trkpt lat="48.35571" lon="2.73207">
        <ele>132.8</ele>
        <time>2021-06-13T10:34:23Z</time>
      </trkpt>
      <trkpt lat="48.35571" lon="2.73207">
        <ele>132.7</ele>
        <time>2021-06-13T10:34:32Z</time>
      </trkpt>
      <trkpt lat="48.35571" lon="2.73207">
        <ele>132.7</ele>
        <time>2021-06-13T10:34:44Z</time>
      </trkpt>
      <trkpt lat="48.35572" lon="2.73208">
        <ele>132.9</ele>
        <time>2021-06-13T10:34:58Z</time>
      </trkpt>
      <trkpt lat="48.35572" lon="2.73207">
        <ele>132.9</ele>
        <time>2021-06-13T10:35:12Z</time>
      </trkpt>
      <trkpt lat="48.35572" lon="2.73208">
        <ele>132.9</ele>
        <time>2021-06-13T10:35:23Z</time>
      </trkpt>
      <trkpt lat="48.35572" lon="2.73208">
        <ele>132.8</ele>
        <time>2021-06-13T10:35:32Z</time>
      </trkpt>
      <trkpt lat="48.35571" lon="2.73207">
        <ele>132.6</ele>
        <time>2021-06-13T10:35:37Z</time>
      </trkpt>
      <trkpt lat="48.3557" lon="2.73206">
        <ele>132.4</ele>
        <time>2021-06-13T10:35:47Z</time>
      </trkpt>
      <trkpt lat="48.35569" lon="2.73205">
        <ele>132.1</ele>
        <time>2021-06-13T10:36:02Z</time>
      </trkpt>
      <trkpt lat="48.35569" lon="2.73205">
        <ele>132.1</ele>
        <time>2021-06-13T10:36:10Z</time>
      </trkpt>
      <trkpt lat="48.35569" lon="2.73205">
        <ele>132</ele>
        <time>2021-06-13T10:36:17Z</time>
      </trkpt>
      <trkpt lat="48.35569" lon="2.73204">
        <ele>131.9</ele>
        <time>2021-06-13T10:36:26Z</time>
      </trkpt>
      <trkpt lat="48.35569" lon="2.73204">
        <ele>132</ele>
        <time>2021-06-13T10:36:35Z</time>
      </trkpt>
      <trkpt lat="48.35569" lon="2.73202">
        <ele>131.9</ele>
        <time>2021-06-13T10:36:42Z</time>
      </trkpt>
      <trkpt lat="48.3557" lon="2.73197">
        <ele>131.7</ele>
        <time>2021-06-13T10:36:46Z</time>
      </trkpt>
      <trkpt lat="48.35571" lon="2.73194">
        <ele>131.7</ele>
        <time>2021-06-13T10:36:48Z</time>
      </trkpt>
      <trkpt lat="48.35574" lon="2.73188">
        <ele>132.1</ele>
        <time>2021-06-13T10:36:54Z</time>
      </trkpt>
      <trkpt lat="48.35575" lon="2.73184">
        <ele>132</ele>
        <time>2021-06-13T10:36:57Z</time>
      </trkpt>
      <trkpt lat="48.35575" lon="2.73179">
        <ele>131.7</ele>
        <time>2021-06-13T10:37:00Z</time>
      </trkpt>
      <trkpt lat="48.35579" lon="2.7317">
        <ele>132.2</ele>
        <time>2021-06-13T10:37:09Z</time>
      </trkpt>
      <trkpt lat="48.35582" lon="2.73162">
        <ele>132.4</ele>
        <time>2021-06-13T10:37:16Z</time>
      </trkpt>
      <trkpt lat="48.35585" lon="2.73154">
        <ele>132.3</ele>
        <time>2021-06-13T10:37:24Z</time>
      </trkpt>
      <trkpt lat="48.35589" lon="2.7315">
        <ele>132.2</ele>
        <time>2021-06-13T10:37:31Z</time>
      </trkpt>
      <trkpt lat="48.35591" lon="2.73145">
        <ele>132</ele>
        <time>2021-06-13T10:37:40Z</time>
      </trkpt>
      <trkpt lat="48.35591" lon="2.73142">
        <ele>131.8</ele>
        <time>2021-06-13T10:37:44Z</time>
      </trkpt>
      <trkpt lat="48.3559" lon="2.73139">
        <ele>131.6</ele>
        <time>2021-06-13T10:37:46Z</time>
      </trkpt>
      <trkpt lat="48.35585" lon="2.73129">
        <ele>130.8</ele>
        <time>2021-06-13T10:37:55Z</time>
      </trkpt>
      <trkpt lat="48.35583" lon="2.73125">
        <ele>130.5</ele>
        <time>2021-06-13T10:37:59Z</time>
      </trkpt>
      <trkpt lat="48.3558" lon="2.73115">
        <ele>129.2</ele>
        <time>2021-06-13T10:38:07Z</time>
      </trkpt>
      <trkpt lat="48.35582" lon="2.73113">
        <ele>129.4</ele>
        <time>2021-06-13T10:38:16Z</time>
      </trkpt>
      <trkpt lat="48.35583" lon="2.73111">
        <ele>129.5</ele>
        <time>2021-06-13T10:38:30Z</time>
      </trkpt>
      <trkpt lat="48.35582" lon="2.7311">
        <ele>129.2</ele>
        <time>2021-06-13T10:38:35Z</time>
      </trkpt>
      <trkpt lat="48.35584" lon="2.73106">
        <ele>129.4</ele>
        <time>2021-06-13T10:38:42Z</time>
      </trkpt>
      <trkpt lat="48.35584" lon="2.73104">
        <ele>129.3</ele>
        <time>2021-06-13T10:38:49Z</time>
      </trkpt>
      <trkpt lat="48.35585" lon="2.73103">
        <ele>129.3</ele>
        <time>2021-06-13T10:38:56Z</time>
      </trkpt>
      <trkpt lat="48.35586" lon="2.73101">
        <ele>129.3</ele>
        <time>2021-06-13T10:39:10Z</time>
      </trkpt>
      <trkpt lat="48.3559" lon="2.73101">
        <ele>129.4</ele>
        <time>2021-06-13T10:39:16Z</time>
      </trkpt>
      <trkpt lat="48.35592" lon="2.73101">
        <ele>129.6</ele>
        <time>2021-06-13T10:39:19Z</time>
      </trkpt>
      <trkpt lat="48.35599" lon="2.731">
        <ele>130</ele>
        <time>2021-06-13T10:39:26Z</time>
      </trkpt>
      <trkpt lat="48.35604" lon="2.73098">
        <ele>130.2</ele>
        <time>2021-06-13T10:39:32Z</time>
      </trkpt>
      <trkpt lat="48.35607" lon="2.73101">
        <ele>130.5</ele>
        <time>2021-06-13T10:39:40Z</time>
      </trkpt>
      <trkpt lat="48.35612" lon="2.73102">
        <ele>130.9</ele>
        <time>2021-06-13T10:39:47Z</time>
      </trkpt>
      <trkpt lat="48.35613" lon="2.73103">
        <ele>131</ele>
        <time>2021-06-13T10:39:49Z</time>
      </trkpt>
      <trkpt lat="48.35621" lon="2.73106">
        <ele>131.6</ele>
        <time>2021-06-13T10:39:56Z</time>
      </trkpt>
      <trkpt lat="48.3563" lon="2.73106">
        <ele>132.1</ele>
        <time>2021-06-13T10:40:04Z</time>
      </trkpt>
      <trkpt lat="48.35636" lon="2.73103">
        <ele>132.3</ele>
        <time>2021-06-13T10:40:12Z</time>
      </trkpt>
      <trkpt lat="48.35638" lon="2.731">
        <ele>132.4</ele>
        <time>2021-06-13T10:40:15Z</time>
      </trkpt>
      <trkpt lat="48.35642" lon="2.73094">
        <ele>132.5</ele>
        <time>2021-06-13T10:40:20Z</time>
      </trkpt>
      <trkpt lat="48.35651" lon="2.73081">
        <ele>132.8</ele>
        <time>2021-06-13T10:40:30Z</time>
      </trkpt>
      <trkpt lat="48.35659" lon="2.7307">
        <ele>133.1</ele>
        <time>2021-06-13T10:40:38Z</time>
      </trkpt>
      <trkpt lat="48.35664" lon="2.73063">
        <ele>133.5</ele>
        <time>2021-06-13T10:40:46Z</time>
      </trkpt>
      <trkpt lat="48.3567" lon="2.73057">
        <ele>133</ele>
        <time>2021-06-13T10:40:53Z</time>
      </trkpt>
      <trkpt lat="48.35675" lon="2.73052">
        <ele>132.1</ele>
        <time>2021-06-13T10:40:59Z</time>
      </trkpt>
      <trkpt lat="48.35679" lon="2.73049">
        <ele>131.2</ele>
        <time>2021-06-13T10:41:04Z</time>
      </trkpt>
      <trkpt lat="48.3568" lon="2.73046">
        <ele>130.9</ele>
        <time>2021-06-13T10:41:06Z</time>
      </trkpt>
      <trkpt lat="48.35683" lon="2.73043">
        <ele>130.4</ele>
        <time>2021-06-13T10:41:09Z</time>
      </trkpt>
      <trkpt lat="48.35687" lon="2.73042">
        <ele>129.7</ele>
        <time>2021-06-13T10:41:12Z</time>
      </trkpt>
      <trkpt lat="48.35694" lon="2.73036">
        <ele>128.1</ele>
        <time>2021-06-13T10:41:21Z</time>
      </trkpt>
      <trkpt lat="48.35698" lon="2.73037">
        <ele>127.3</ele>
        <time>2021-06-13T10:41:28Z</time>
      </trkpt>
      <trkpt lat="48.35699" lon="2.73038">
        <ele>127.2</ele>
        <time>2021-06-13T10:41:30Z</time>
      </trkpt>
      <trkpt lat="48.35699" lon="2.73042">
        <ele>127.2</ele>
        <time>2021-06-13T10:41:36Z</time>
      </trkpt>
      <trkpt lat="48.35698" lon="2.73047">
        <ele>127.6</ele>
        <time>2021-06-13T10:41:43Z</time>
      </trkpt>
      <trkpt lat="48.35698" lon="2.73058">
        <ele>127.8</ele>
        <time>2021-06-13T10:41:50Z</time>
      </trkpt>
      <trkpt lat="48.35703" lon="2.73071">
        <ele>127.2</ele>
        <time>2021-06-13T10:41:57Z</time>
      </trkpt>
      <trkpt lat="48.35702" lon="2.73074">
        <ele>127.5</ele>
        <time>2021-06-13T10:42:00Z</time>
      </trkpt>
      <trkpt lat="48.35696" lon="2.73077">
        <ele>128.5</ele>
        <time>2021-06-13T10:42:06Z</time>
      </trkpt>
      <trkpt lat="48.35696" lon="2.73077">
        <ele>128.6</ele>
        <time>2021-06-13T10:42:07Z</time>
      </trkpt>
      <trkpt lat="48.35692" lon="2.73087">
        <ele>129.4</ele>
        <time>2021-06-13T10:42:15Z</time>
      </trkpt>
      <trkpt lat="48.35692" lon="2.73088">
        <ele>129.5</ele>
        <time>2021-06-13T10:42:16Z</time>
      </trkpt>
      <trkpt lat="48.35691" lon="2.73098">
        <ele>129.9</ele>
        <time>2021-06-13T10:42:24Z</time>
      </trkpt>
      <trkpt lat="48.35688" lon="2.73105">
        <ele>130.5</ele>
        <time>2021-06-13T10:42:29Z</time>
      </trkpt>
      <trkpt lat="48.35681" lon="2.73117">
        <ele>131.8</ele>
        <time>2021-06-13T10:42:37Z</time>
      </trkpt>
      <trkpt lat="48.35678" lon="2.73126">
        <ele>132.4</ele>
        <time>2021-06-13T10:42:44Z</time>
      </trkpt>
      <trkpt lat="48.35674" lon="2.73136">
        <ele>133.3</ele>
        <time>2021-06-13T10:42:52Z</time>
      </trkpt>
      <trkpt lat="48.35671" lon="2.73148">
        <ele>134</ele>
        <time>2021-06-13T10:43:01Z</time>
      </trkpt>
      <trkpt lat="48.35669" lon="2.73155">
        <ele>134.4</ele>
        <time>2021-06-13T10:43:08Z</time>
      </trkpt>
      <trkpt lat="48.3567" lon="2.73167">
        <ele>134.4</ele>
        <time>2021-06-13T10:43:17Z</time>
      </trkpt>
      <trkpt lat="48.35671" lon="2.73174">
        <ele>134.3</ele>
        <time>2021-06-13T10:43:21Z</time>
      </trkpt>
      <trkpt lat="48.35672" lon="2.73178">
        <ele>134.3</ele>
        <time>2021-06-13T10:43:23Z</time>
      </trkpt>
      <trkpt lat="48.35671" lon="2.73185">
        <ele>134.7</ele>
        <time>2021-06-13T10:43:29Z</time>
      </trkpt>
      <trkpt lat="48.3567" lon="2.73189">
        <ele>134.8</ele>
        <time>2021-06-13T10:43:33Z</time>
      </trkpt>
      <trkpt lat="48.35671" lon="2.73198">
        <ele>134.9</ele>
        <time>2021-06-13T10:43:40Z</time>
      </trkpt>
      <trkpt lat="48.35671" lon="2.73204">
        <ele>135.1</ele>
        <time>2021-06-13T10:43:47Z</time>
      </trkpt>
      <trkpt lat="48.35673" lon="2.7321">
        <ele>134.7</ele>
        <time>2021-06-13T10:43:52Z</time>
      </trkpt>
      <trkpt lat="48.35674" lon="2.73214">
        <ele>134.7</ele>
        <time>2021-06-13T10:43:54Z</time>
      </trkpt>
      <trkpt lat="48.35675" lon="2.73221">
        <ele>134.6</ele>
        <time>2021-06-13T10:43:57Z</time>
      </trkpt>
      <trkpt lat="48.35677" lon="2.73237">
        <ele>134.7</ele>
        <time>2021-06-13T10:44:06Z</time>
      </trkpt>
      <trkpt lat="48.35677" lon="2.73248">
        <ele>134.8</ele>
        <time>2021-06-13T10:44:14Z</time>
      </trkpt>
      <trkpt lat="48.35678" lon="2.73257">
        <ele>134.7</ele>
        <time>2021-06-13T10:44:19Z</time>
      </trkpt>
      <trkpt lat="48.3568" lon="2.73274">
        <ele>134</ele>
        <time>2021-06-13T10:44:29Z</time>
      </trkpt>
      <trkpt lat="48.35683" lon="2.73288">
        <ele>133.5</ele>
        <time>2021-06-13T10:44:37Z</time>
      </trkpt>
      <trkpt lat="48.35685" lon="2.73301">
        <ele>133.1</ele>
        <time>2021-06-13T10:44:44Z</time>
      </trkpt>
      <trkpt lat="48.35689" lon="2.73315">
        <ele>132.5</ele>
        <time>2021-06-13T10:44:52Z</time>
      </trkpt>
      <trkpt lat="48.35691" lon="2.73322">
        <ele>132.3</ele>
        <time>2021-06-13T10:44:57Z</time>
      </trkpt>
      <trkpt lat="48.35693" lon="2.73337">
        <ele>132.2</ele>
        <time>2021-06-13T10:45:05Z</time>
      </trkpt>
      <trkpt lat="48.35697" lon="2.73349">
        <ele>131.7</ele>
        <time>2021-06-13T10:45:12Z</time>
      </trkpt>
      <trkpt lat="48.35701" lon="2.73357">
        <ele>131.3</ele>
        <time>2021-06-13T10:45:18Z</time>
      </trkpt>
      <trkpt lat="48.35702" lon="2.73359">
        <ele>131.2</ele>
        <time>2021-06-13T10:45:20Z</time>
      </trkpt>
      <trkpt lat="48.35702" lon="2.73369">
        <ele>131.2</ele>
        <time>2021-06-13T10:45:26Z</time>
      </trkpt>
      <trkpt lat="48.35705" lon="2.73375">
        <ele>131</ele>
        <time>2021-06-13T10:45:30Z</time>
      </trkpt>
      <trkpt lat="48.35706" lon="2.73392">
        <ele>131</ele>
        <time>2021-06-13T10:45:38Z</time>
      </trkpt>
      <trkpt lat="48.35707" lon="2.734">
        <ele>131</ele>
        <time>2021-06-13T10:45:41Z</time>
      </trkpt>
      <trkpt lat="48.35709" lon="2.73408">
        <ele>130.9</ele>
        <time>2021-06-13T10:45:47Z</time>
      </trkpt>
      <trkpt lat="48.35711" lon="2.73425">
        <ele>130.8</ele>
        <time>2021-06-13T10:45:55Z</time>
      </trkpt>
      <trkpt lat="48.3571" lon="2.7344">
        <ele>130.8</ele>
        <time>2021-06-13T10:46:03Z</time>
      </trkpt>
      <trkpt lat="48.3571" lon="2.73442">
        <ele>130.8</ele>
        <time>2021-06-13T10:46:04Z</time>
      </trkpt>
      <trkpt lat="48.35711" lon="2.73457">
        <ele>130.7</ele>
        <time>2021-06-13T10:46:13Z</time>
      </trkpt>
      <trkpt lat="48.35712" lon="2.73473">
        <ele>130.6</ele>
        <time>2021-06-13T10:46:21Z</time>
      </trkpt>
      <trkpt lat="48.35714" lon="2.7349">
        <ele>130.5</ele>
        <time>2021-06-13T10:46:28Z</time>
      </trkpt>
      <trkpt lat="48.35718" lon="2.73501">
        <ele>130.4</ele>
        <time>2021-06-13T10:46:34Z</time>
      </trkpt>
      <trkpt lat="48.35716" lon="2.73507">
        <ele>130.4</ele>
        <time>2021-06-13T10:46:39Z</time>
      </trkpt>
      <trkpt lat="48.35719" lon="2.73521">
        <ele>130.4</ele>
        <time>2021-06-13T10:46:46Z</time>
      </trkpt>
      <trkpt lat="48.35718" lon="2.73527">
        <ele>130.4</ele>
        <time>2021-06-13T10:46:50Z</time>
      </trkpt>
      <trkpt lat="48.35719" lon="2.73539">
        <ele>130.4</ele>
        <time>2021-06-13T10:46:57Z</time>
      </trkpt>
      <trkpt lat="48.35719" lon="2.73541">
        <ele>130.4</ele>
        <time>2021-06-13T10:46:58Z</time>
      </trkpt>
      <trkpt lat="48.35718" lon="2.73544">
        <ele>130.5</ele>
        <time>2021-06-13T10:47:00Z</time>
      </trkpt>
      <trkpt lat="48.35718" lon="2.7355">
        <ele>130.5</ele>
        <time>2021-06-13T10:47:03Z</time>
      </trkpt>
      <trkpt lat="48.35717" lon="2.73565">
        <ele>130.6</ele>
        <time>2021-06-13T10:47:09Z</time>
      </trkpt>
      <trkpt lat="48.35716" lon="2.73575">
        <ele>130.6</ele>
        <time>2021-06-13T10:47:14Z</time>
      </trkpt>
      <trkpt lat="48.35715" lon="2.7358">
        <ele>130.7</ele>
        <time>2021-06-13T10:47:18Z</time>
      </trkpt>
      <trkpt lat="48.35711" lon="2.73591">
        <ele>130.9</ele>
        <time>2021-06-13T10:47:24Z</time>
      </trkpt>
      <trkpt lat="48.35708" lon="2.73607">
        <ele>131.2</ele>
        <time>2021-06-13T10:47:32Z</time>
      </trkpt>
      <trkpt lat="48.35703" lon="2.7362">
        <ele>131.6</ele>
        <time>2021-06-13T10:47:40Z</time>
      </trkpt>
      <trkpt lat="48.35702" lon="2.73626">
        <ele>131.8</ele>
        <time>2021-06-13T10:47:43Z</time>
      </trkpt>
      <trkpt lat="48.35695" lon="2.73634">
        <ele>132.4</ele>
        <time>2021-06-13T10:47:51Z</time>
      </trkpt>
      <trkpt lat="48.35692" lon="2.73642">
        <ele>132.8</ele>
        <time>2021-06-13T10:47:55Z</time>
      </trkpt>
      <trkpt lat="48.35689" lon="2.73659">
        <ele>133.4</ele>
        <time>2021-06-13T10:48:04Z</time>
      </trkpt>
      <trkpt lat="48.35685" lon="2.73666">
        <ele>134</ele>
        <time>2021-06-13T10:48:08Z</time>
      </trkpt>
      <trkpt lat="48.35684" lon="2.73674">
        <ele>134</ele>
        <time>2021-06-13T10:48:12Z</time>
      </trkpt>
      <trkpt lat="48.35685" lon="2.73679">
        <ele>133.8</ele>
        <time>2021-06-13T10:48:15Z</time>
      </trkpt>
      <trkpt lat="48.35686" lon="2.73691">
        <ele>133.5</ele>
        <time>2021-06-13T10:48:20Z</time>
      </trkpt>
      <trkpt lat="48.3568" lon="2.73701">
        <ele>134.1</ele>
        <time>2021-06-13T10:48:28Z</time>
      </trkpt>
      <trkpt lat="48.3568" lon="2.73706">
        <ele>133.9</ele>
        <time>2021-06-13T10:48:32Z</time>
      </trkpt>
      <trkpt lat="48.35678" lon="2.73709">
        <ele>134.2</ele>
        <time>2021-06-13T10:48:35Z</time>
      </trkpt>
      <trkpt lat="48.35676" lon="2.73712">
        <ele>134.4</ele>
        <time>2021-06-13T10:48:38Z</time>
      </trkpt>
      <trkpt lat="48.35673" lon="2.73716">
        <ele>134.6</ele>
        <time>2021-06-13T10:48:41Z</time>
      </trkpt>
      <trkpt lat="48.35666" lon="2.73728">
        <ele>135.3</ele>
        <time>2021-06-13T10:48:50Z</time>
      </trkpt>
      <trkpt lat="48.35662" lon="2.73738">
        <ele>135.3</ele>
        <time>2021-06-13T10:48:56Z</time>
      </trkpt>
      <trkpt lat="48.35658" lon="2.73743">
        <ele>135.3</ele>
        <time>2021-06-13T10:49:01Z</time>
      </trkpt>
      <trkpt lat="48.35655" lon="2.73746">
        <ele>135.3</ele>
        <time>2021-06-13T10:49:04Z</time>
      </trkpt>
      <trkpt lat="48.35651" lon="2.73749">
        <ele>135.4</ele>
        <time>2021-06-13T10:49:08Z</time>
      </trkpt>
      <trkpt lat="48.35643" lon="2.7376">
        <ele>135.5</ele>
        <time>2021-06-13T10:49:16Z</time>
      </trkpt>
      <trkpt lat="48.35638" lon="2.73771">
        <ele>135.6</ele>
        <time>2021-06-13T10:49:23Z</time>
      </trkpt>
      <trkpt lat="48.35633" lon="2.73779">
        <ele>135.8</ele>
        <time>2021-06-13T10:49:28Z</time>
      </trkpt>
      <trkpt lat="48.35632" lon="2.73782">
        <ele>135.8</ele>
        <time>2021-06-13T10:49:30Z</time>
      </trkpt>
      <trkpt lat="48.35627" lon="2.73793">
        <ele>135.9</ele>
        <time>2021-06-13T10:49:37Z</time>
      </trkpt>
      <trkpt lat="48.35622" lon="2.73802">
        <ele>136.1</ele>
        <time>2021-06-13T10:49:44Z</time>
      </trkpt>
      <trkpt lat="48.35618" lon="2.7381">
        <ele>136.3</ele>
        <time>2021-06-13T10:49:51Z</time>
      </trkpt>
      <trkpt lat="48.35615" lon="2.73814">
        <ele>136.4</ele>
        <time>2021-06-13T10:49:57Z</time>
      </trkpt>
      <trkpt lat="48.35612" lon="2.73815">
        <ele>136.5</ele>
        <time>2021-06-13T10:50:02Z</time>
      </trkpt>
      <trkpt lat="48.35612" lon="2.73817">
        <ele>136.6</ele>
        <time>2021-06-13T10:50:06Z</time>
      </trkpt>
      <trkpt lat="48.35611" lon="2.73821">
        <ele>136.6</ele>
        <time>2021-06-13T10:50:09Z</time>
      </trkpt>
      <trkpt lat="48.35607" lon="2.73834">
        <ele>136.8</ele>
        <time>2021-06-13T10:50:17Z</time>
      </trkpt>
      <trkpt lat="48.35607" lon="2.73836">
        <ele>136.8</ele>
        <time>2021-06-13T10:50:18Z</time>
      </trkpt>
      <trkpt lat="48.35605" lon="2.73844">
        <ele>136.7</ele>
        <time>2021-06-13T10:50:23Z</time>
      </trkpt>
      <trkpt lat="48.35602" lon="2.73852">
        <ele>136.8</ele>
        <time>2021-06-13T10:50:30Z</time>
      </trkpt>
      <trkpt lat="48.356" lon="2.73864">
        <ele>136.7</ele>
        <time>2021-06-13T10:50:37Z</time>
      </trkpt>
      <trkpt lat="48.35598" lon="2.73867">
        <ele>136.8</ele>
        <time>2021-06-13T10:50:44Z</time>
      </trkpt>
      <trkpt lat="48.35597" lon="2.73877">
        <ele>136.7</ele>
        <time>2021-06-13T10:50:51Z</time>
      </trkpt>
      <trkpt lat="48.35596" lon="2.73893">
        <ele>136.7</ele>
        <time>2021-06-13T10:50:59Z</time>
      </trkpt>
      <trkpt lat="48.3559" lon="2.73902">
        <ele>137.2</ele>
        <time>2021-06-13T10:51:05Z</time>
      </trkpt>
      <trkpt lat="48.3559" lon="2.73906">
        <ele>137.2</ele>
        <time>2021-06-13T10:51:07Z</time>
      </trkpt>
      <trkpt lat="48.35588" lon="2.73912">
        <ele>137.4</ele>
        <time>2021-06-13T10:51:11Z</time>
      </trkpt>
      <trkpt lat="48.35588" lon="2.73917">
        <ele>137.4</ele>
        <time>2021-06-13T10:51:14Z</time>
      </trkpt>
      <trkpt lat="48.35588" lon="2.73924">
        <ele>137.3</ele>
        <time>2021-06-13T10:51:17Z</time>
      </trkpt>
      <trkpt lat="48.35586" lon="2.73937">
        <ele>137.4</ele>
        <time>2021-06-13T10:51:22Z</time>
      </trkpt>
      <trkpt lat="48.35586" lon="2.73951">
        <ele>137.3</ele>
        <time>2021-06-13T10:51:30Z</time>
      </trkpt>
      <trkpt lat="48.3559" lon="2.73964">
        <ele>136.5</ele>
        <time>2021-06-13T10:51:37Z</time>
      </trkpt>
      <trkpt lat="48.35591" lon="2.73969">
        <ele>136.3</ele>
        <time>2021-06-13T10:51:40Z</time>
      </trkpt>
      <trkpt lat="48.35593" lon="2.73976">
        <ele>136</ele>
        <time>2021-06-13T10:51:44Z</time>
      </trkpt>
      <trkpt lat="48.35592" lon="2.7399">
        <ele>135.9</ele>
        <time>2021-06-13T10:51:50Z</time>
      </trkpt>
      <trkpt lat="48.35591" lon="2.74002">
        <ele>136</ele>
        <time>2021-06-13T10:51:57Z</time>
      </trkpt>
      <trkpt lat="48.3559" lon="2.74007">
        <ele>136</ele>
        <time>2021-06-13T10:52:00Z</time>
      </trkpt>
      <trkpt lat="48.35584" lon="2.74018">
        <ele>136.7</ele>
        <time>2021-06-13T10:52:07Z</time>
      </trkpt>
      <trkpt lat="48.35582" lon="2.74022">
        <ele>136.7</ele>
        <time>2021-06-13T10:52:10Z</time>
      </trkpt>
      <trkpt lat="48.35577" lon="2.74034">
        <ele>136.4</ele>
        <time>2021-06-13T10:52:16Z</time>
      </trkpt>
      <trkpt lat="48.35574" lon="2.74041">
        <ele>136.2</ele>
        <time>2021-06-13T10:52:19Z</time>
      </trkpt>
      <trkpt lat="48.35568" lon="2.74054">
        <ele>135.9</ele>
        <time>2021-06-13T10:52:27Z</time>
      </trkpt>
      <trkpt lat="48.35567" lon="2.74063">
        <ele>135.8</ele>
        <time>2021-06-13T10:52:33Z</time>
      </trkpt>
      <trkpt lat="48.35564" lon="2.74069">
        <ele>135.7</ele>
        <time>2021-06-13T10:52:37Z</time>
      </trkpt>
      <trkpt lat="48.35561" lon="2.7408">
        <ele>135.5</ele>
        <time>2021-06-13T10:52:45Z</time>
      </trkpt>
      <trkpt lat="48.35559" lon="2.74087">
        <ele>135.4</ele>
        <time>2021-06-13T10:52:49Z</time>
      </trkpt>
      <trkpt lat="48.35556" lon="2.74097">
        <ele>135.3</ele>
        <time>2021-06-13T10:52:54Z</time>
      </trkpt>
      <trkpt lat="48.3555" lon="2.74104">
        <ele>135.1</ele>
        <time>2021-06-13T10:52:59Z</time>
      </trkpt>
      <trkpt lat="48.35546" lon="2.74109">
        <ele>135</ele>
        <time>2021-06-13T10:53:04Z</time>
      </trkpt>
      <trkpt lat="48.35544" lon="2.74113">
        <ele>134.9</ele>
        <time>2021-06-13T10:53:06Z</time>
      </trkpt>
      <trkpt lat="48.3554" lon="2.74123">
        <ele>134.7</ele>
        <time>2021-06-13T10:53:11Z</time>
      </trkpt>
      <trkpt lat="48.35541" lon="2.74133">
        <ele>134.7</ele>
        <time>2021-06-13T10:53:17Z</time>
      </trkpt>
      <trkpt lat="48.35539" lon="2.74138">
        <ele>134.6</ele>
        <time>2021-06-13T10:53:20Z</time>
      </trkpt>
      <trkpt lat="48.35537" lon="2.74142">
        <ele>134.5</ele>
        <time>2021-06-13T10:53:23Z</time>
      </trkpt>
      <trkpt lat="48.35531" lon="2.74156">
        <ele>134.2</ele>
        <time>2021-06-13T10:53:32Z</time>
      </trkpt>
      <trkpt lat="48.3553" lon="2.7416">
        <ele>134.1</ele>
        <time>2021-06-13T10:53:35Z</time>
      </trkpt>
      <trkpt lat="48.35525" lon="2.74168">
        <ele>133.9</ele>
        <time>2021-06-13T10:53:41Z</time>
      </trkpt>
      <trkpt lat="48.35521" lon="2.74175">
        <ele>133.6</ele>
        <time>2021-06-13T10:53:45Z</time>
      </trkpt>
      <trkpt lat="48.35509" lon="2.74183">
        <ele>133.2</ele>
        <time>2021-06-13T10:53:52Z</time>
      </trkpt>
      <trkpt lat="48.35505" lon="2.74189">
        <ele>133.1</ele>
        <time>2021-06-13T10:53:59Z</time>
      </trkpt>
      <trkpt lat="48.35499" lon="2.74197">
        <ele>133</ele>
        <time>2021-06-13T10:54:06Z</time>
      </trkpt>
      <trkpt lat="48.35496" lon="2.74202">
        <ele>132.9</ele>
        <time>2021-06-13T10:54:12Z</time>
      </trkpt>
      <trkpt lat="48.35491" lon="2.74207">
        <ele>132.8</ele>
        <time>2021-06-13T10:54:21Z</time>
      </trkpt>
      <trkpt lat="48.35489" lon="2.7421">
        <ele>132.7</ele>
        <time>2021-06-13T10:54:26Z</time>
      </trkpt>
      <trkpt lat="48.35482" lon="2.74208">
        <ele>132.6</ele>
        <time>2021-06-13T10:54:34Z</time>
      </trkpt>
      <trkpt lat="48.35478" lon="2.74208">
        <ele>132.5</ele>
        <time>2021-06-13T10:54:38Z</time>
      </trkpt>
      <trkpt lat="48.35474" lon="2.74207">
        <ele>132.4</ele>
        <time>2021-06-13T10:54:42Z</time>
      </trkpt>
      <trkpt lat="48.35466" lon="2.74202">
        <ele>132.2</ele>
        <time>2021-06-13T10:54:51Z</time>
      </trkpt>
      <trkpt lat="48.35464" lon="2.74201">
        <ele>132.1</ele>
        <time>2021-06-13T10:54:52Z</time>
      </trkpt>
      <trkpt lat="48.3546" lon="2.742">
        <ele>132</ele>
        <time>2021-06-13T10:54:58Z</time>
      </trkpt>
      <trkpt lat="48.35458" lon="2.74199">
        <ele>132</ele>
        <time>2021-06-13T10:55:00Z</time>
      </trkpt>
      <trkpt lat="48.35448" lon="2.74198">
        <ele>131.8</ele>
        <time>2021-06-13T10:55:08Z</time>
      </trkpt>
      <trkpt lat="48.35444" lon="2.74196">
        <ele>131.7</ele>
        <time>2021-06-13T10:55:15Z</time>
      </trkpt>
      <trkpt lat="48.35441" lon="2.74198">
        <ele>131.6</ele>
        <time>2021-06-13T10:55:18Z</time>
      </trkpt>
      <trkpt lat="48.35433" lon="2.74206">
        <ele>131.4</ele>
        <time>2021-06-13T10:55:27Z</time>
      </trkpt>
      <trkpt lat="48.35427" lon="2.74214">
        <ele>131.2</ele>
        <time>2021-06-13T10:55:34Z</time>
      </trkpt>
      <trkpt lat="48.35426" lon="2.74215">
        <ele>131.2</ele>
        <time>2021-06-13T10:55:35Z</time>
      </trkpt>
      <trkpt lat="48.35419" lon="2.74221">
        <ele>131</ele>
        <time>2021-06-13T10:55:43Z</time>
      </trkpt>
      <trkpt lat="48.35413" lon="2.74222">
        <ele>131.1</ele>
        <time>2021-06-13T10:55:50Z</time>
      </trkpt>
      <trkpt lat="48.35414" lon="2.74232">
        <ele>131.1</ele>
        <time>2021-06-13T10:55:58Z</time>
      </trkpt>
      <trkpt lat="48.35413" lon="2.74235">
        <ele>131.1</ele>
        <time>2021-06-13T10:56:01Z</time>
      </trkpt>
      <trkpt lat="48.3541" lon="2.74245">
        <ele>131.1</ele>
        <time>2021-06-13T10:56:09Z</time>
      </trkpt>
      <trkpt lat="48.3541" lon="2.74249">
        <ele>131.1</ele>
        <time>2021-06-13T10:56:11Z</time>
      </trkpt>
      <trkpt lat="48.3541" lon="2.74254">
        <ele>131.1</ele>
        <time>2021-06-13T10:56:14Z</time>
      </trkpt>
      <trkpt lat="48.35407" lon="2.74266">
        <ele>131.2</ele>
        <time>2021-06-13T10:56:21Z</time>
      </trkpt>
      <trkpt lat="48.35405" lon="2.74276">
        <ele>131.2</ele>
        <time>2021-06-13T10:56:26Z</time>
      </trkpt>
      <trkpt lat="48.35401" lon="2.74287">
        <ele>131.2</ele>
        <time>2021-06-13T10:56:34Z</time>
      </trkpt>
      <trkpt lat="48.35399" lon="2.74291">
        <ele>131.2</ele>
        <time>2021-06-13T10:56:40Z</time>
      </trkpt>
      <trkpt lat="48.35395" lon="2.74297">
        <ele>131.1</ele>
        <time>2021-06-13T10:56:45Z</time>
      </trkpt>
      <trkpt lat="48.35394" lon="2.74307">
        <ele>131</ele>
        <time>2021-06-13T10:56:51Z</time>
      </trkpt>
      <trkpt lat="48.35393" lon="2.74308">
        <ele>131</ele>
        <time>2021-06-13T10:56:52Z</time>
      </trkpt>
      <trkpt lat="48.35384" lon="2.74316">
        <ele>130.6</ele>
        <time>2021-06-13T10:56:59Z</time>
      </trkpt>
      <trkpt lat="48.35383" lon="2.74317">
        <ele>130.6</ele>
        <time>2021-06-13T10:57:00Z</time>
      </trkpt>
      <trkpt lat="48.35375" lon="2.74331">
        <ele>130</ele>
        <time>2021-06-13T10:57:08Z</time>
      </trkpt>
      <trkpt lat="48.35372" lon="2.74337">
        <ele>129.8</ele>
        <time>2021-06-13T10:57:12Z</time>
      </trkpt>
      <trkpt lat="48.3537" lon="2.7436">
        <ele>129.6</ele>
        <time>2021-06-13T10:57:22Z</time>
      </trkpt>
      <trkpt lat="48.35371" lon="2.74368">
        <ele>129.6</ele>
        <time>2021-06-13T10:57:26Z</time>
      </trkpt>
      <trkpt lat="48.35369" lon="2.74374">
        <ele>129.4</ele>
        <time>2021-06-13T10:57:29Z</time>
      </trkpt>
      <trkpt lat="48.35369" lon="2.74383">
        <ele>129.4</ele>
        <time>2021-06-13T10:57:33Z</time>
      </trkpt>
      <trkpt lat="48.3537" lon="2.74397">
        <ele>129.3</ele>
        <time>2021-06-13T10:57:40Z</time>
      </trkpt>
      <trkpt lat="48.35371" lon="2.744">
        <ele>129.3</ele>
        <time>2021-06-13T10:57:42Z</time>
      </trkpt>
      <trkpt lat="48.35372" lon="2.7442">
        <ele>129.3</ele>
        <time>2021-06-13T10:57:51Z</time>
      </trkpt>
      <trkpt lat="48.35372" lon="2.74424">
        <ele>129.3</ele>
        <time>2021-06-13T10:57:53Z</time>
      </trkpt>
      <trkpt lat="48.35374" lon="2.7444">
        <ele>129.3</ele>
        <time>2021-06-13T10:58:00Z</time>
      </trkpt>
      <trkpt lat="48.35374" lon="2.74445">
        <ele>129.3</ele>
        <time>2021-06-13T10:58:02Z</time>
      </trkpt>
      <trkpt lat="48.35376" lon="2.74457">
        <ele>129.3</ele>
        <time>2021-06-13T10:58:10Z</time>
      </trkpt>
      <trkpt lat="48.35376" lon="2.74459">
        <ele>129.3</ele>
        <time>2021-06-13T10:58:11Z</time>
      </trkpt>
      <trkpt lat="48.3538" lon="2.74475">
        <ele>129.4</ele>
        <time>2021-06-13T10:58:19Z</time>
      </trkpt>
      <trkpt lat="48.35381" lon="2.74479">
        <ele>129.4</ele>
        <time>2021-06-13T10:58:21Z</time>
      </trkpt>
      <trkpt lat="48.35382" lon="2.74488">
        <ele>129.4</ele>
        <time>2021-06-13T10:58:25Z</time>
      </trkpt>
      <trkpt lat="48.35383" lon="2.74492">
        <ele>129.4</ele>
        <time>2021-06-13T10:58:27Z</time>
      </trkpt>
      <trkpt lat="48.35385" lon="2.74499">
        <ele>129.5</ele>
        <time>2021-06-13T10:58:32Z</time>
      </trkpt>
      <trkpt lat="48.35385" lon="2.74503">
        <ele>129.5</ele>
        <time>2021-06-13T10:58:34Z</time>
      </trkpt>
      <trkpt lat="48.35384" lon="2.74518">
        <ele>129.7</ele>
        <time>2021-06-13T10:58:41Z</time>
      </trkpt>
      <trkpt lat="48.35381" lon="2.74532">
        <ele>129.8</ele>
        <time>2021-06-13T10:58:48Z</time>
      </trkpt>
      <trkpt lat="48.3538" lon="2.74536">
        <ele>129.8</ele>
        <time>2021-06-13T10:58:50Z</time>
      </trkpt>
      <trkpt lat="48.3538" lon="2.74543">
        <ele>129.9</ele>
        <time>2021-06-13T10:58:54Z</time>
      </trkpt>
      <trkpt lat="48.3538" lon="2.74551">
        <ele>130</ele>
        <time>2021-06-13T10:58:58Z</time>
      </trkpt>
      <trkpt lat="48.3538" lon="2.74564">
        <ele>130.2</ele>
        <time>2021-06-13T10:59:05Z</time>
      </trkpt>
      <trkpt lat="48.35379" lon="2.74569">
        <ele>130.3</ele>
        <time>2021-06-13T10:59:08Z</time>
      </trkpt>
      <trkpt lat="48.35378" lon="2.74573">
        <ele>130.4</ele>
        <time>2021-06-13T10:59:10Z</time>
      </trkpt>
      <trkpt lat="48.35377" lon="2.74578">
        <ele>130.4</ele>
        <time>2021-06-13T10:59:13Z</time>
      </trkpt>
      <trkpt lat="48.35376" lon="2.74585">
        <ele>130.5</ele>
        <time>2021-06-13T10:59:18Z</time>
      </trkpt>
      <trkpt lat="48.35377" lon="2.74588">
        <ele>130.5</ele>
        <time>2021-06-13T10:59:20Z</time>
      </trkpt>
      <trkpt lat="48.35376" lon="2.74603">
        <ele>130.4</ele>
        <time>2021-06-13T10:59:28Z</time>
      </trkpt>
      <trkpt lat="48.35374" lon="2.74608">
        <ele>130.3</ele>
        <time>2021-06-13T10:59:33Z</time>
      </trkpt>
      <trkpt lat="48.35373" lon="2.74612">
        <ele>130.3</ele>
        <time>2021-06-13T10:59:36Z</time>
      </trkpt>
      <trkpt lat="48.35376" lon="2.74621">
        <ele>130.3</ele>
        <time>2021-06-13T10:59:40Z</time>
      </trkpt>
      <trkpt lat="48.35376" lon="2.74628">
        <ele>130.2</ele>
        <time>2021-06-13T10:59:43Z</time>
      </trkpt>
      <trkpt lat="48.35375" lon="2.74633">
        <ele>130.2</ele>
        <time>2021-06-13T10:59:46Z</time>
      </trkpt>
      <trkpt lat="48.35376" lon="2.74637">
        <ele>130.2</ele>
        <time>2021-06-13T10:59:48Z</time>
      </trkpt>
      <trkpt lat="48.35374" lon="2.74648">
        <ele>130.1</ele>
        <time>2021-06-13T10:59:55Z</time>
      </trkpt>
      <trkpt lat="48.35372" lon="2.74664">
        <ele>130</ele>
        <time>2021-06-13T11:00:02Z</time>
      </trkpt>
      <trkpt lat="48.35372" lon="2.74678">
        <ele>130.3</ele>
        <time>2021-06-13T11:00:09Z</time>
      </trkpt>
      <trkpt lat="48.35371" lon="2.74683">
        <ele>130.4</ele>
        <time>2021-06-13T11:00:12Z</time>
      </trkpt>
      <trkpt lat="48.35371" lon="2.74691">
        <ele>130.6</ele>
        <time>2021-06-13T11:00:16Z</time>
      </trkpt>
      <trkpt lat="48.35375" lon="2.74707">
        <ele>131</ele>
        <time>2021-06-13T11:00:24Z</time>
      </trkpt>
      <trkpt lat="48.35376" lon="2.74709">
        <ele>131</ele>
        <time>2021-06-13T11:00:25Z</time>
      </trkpt>
      <trkpt lat="48.35375" lon="2.74717">
        <ele>131.2</ele>
        <time>2021-06-13T11:00:29Z</time>
      </trkpt>
      <trkpt lat="48.35374" lon="2.74725">
        <ele>131.4</ele>
        <time>2021-06-13T11:00:33Z</time>
      </trkpt>
      <trkpt lat="48.35374" lon="2.74732">
        <ele>131.6</ele>
        <time>2021-06-13T11:00:36Z</time>
      </trkpt>
      <trkpt lat="48.35376" lon="2.74737">
        <ele>131.7</ele>
        <time>2021-06-13T11:00:38Z</time>
      </trkpt>
      <trkpt lat="48.35377" lon="2.7475">
        <ele>132</ele>
        <time>2021-06-13T11:00:47Z</time>
      </trkpt>
      <trkpt lat="48.35378" lon="2.74754">
        <ele>131.9</ele>
        <time>2021-06-13T11:00:50Z</time>
      </trkpt>
      <trkpt lat="48.35378" lon="2.74758">
        <ele>131.9</ele>
        <time>2021-06-13T11:00:52Z</time>
      </trkpt>
      <trkpt lat="48.35379" lon="2.74768">
        <ele>131.7</ele>
        <time>2021-06-13T11:00:59Z</time>
      </trkpt>
      <trkpt lat="48.35384" lon="2.74778">
        <ele>131.5</ele>
        <time>2021-06-13T11:01:04Z</time>
      </trkpt>
      <trkpt lat="48.35385" lon="2.74784">
        <ele>131.3</ele>
        <time>2021-06-13T11:01:11Z</time>
      </trkpt>
      <trkpt lat="48.35383" lon="2.74793">
        <ele>131.2</ele>
        <time>2021-06-13T11:01:18Z</time>
      </trkpt>
      <trkpt lat="48.35379" lon="2.748">
        <ele>131.1</ele>
        <time>2021-06-13T11:01:24Z</time>
      </trkpt>
      <trkpt lat="48.35375" lon="2.74805">
        <ele>131</ele>
        <time>2021-06-13T11:01:30Z</time>
      </trkpt>
      <trkpt lat="48.35374" lon="2.74815">
        <ele>130.8</ele>
        <time>2021-06-13T11:01:36Z</time>
      </trkpt>
      <trkpt lat="48.35374" lon="2.74816">
        <ele>130.8</ele>
        <time>2021-06-13T11:01:38Z</time>
      </trkpt>
      <trkpt lat="48.35373" lon="2.74826">
        <ele>130.7</ele>
        <time>2021-06-13T11:01:45Z</time>
      </trkpt>
      <trkpt lat="48.35371" lon="2.74835">
        <ele>130.4</ele>
        <time>2021-06-13T11:01:51Z</time>
      </trkpt>
      <trkpt lat="48.35368" lon="2.74846">
        <ele>129.8</ele>
        <time>2021-06-13T11:01:58Z</time>
      </trkpt>
      <trkpt lat="48.35364" lon="2.74855">
        <ele>129.3</ele>
        <time>2021-06-13T11:02:04Z</time>
      </trkpt>
      <trkpt lat="48.35365" lon="2.74858">
        <ele>129.1</ele>
        <time>2021-06-13T11:02:06Z</time>
      </trkpt>
      <trkpt lat="48.35368" lon="2.74863">
        <ele>128.7</ele>
        <time>2021-06-13T11:02:09Z</time>
      </trkpt>
      <trkpt lat="48.35369" lon="2.74874">
        <ele>128</ele>
        <time>2021-06-13T11:02:15Z</time>
      </trkpt>
      <trkpt lat="48.35371" lon="2.74883">
        <ele>127.4</ele>
        <time>2021-06-13T11:02:19Z</time>
      </trkpt>
      <trkpt lat="48.35372" lon="2.74888">
        <ele>127</ele>
        <time>2021-06-13T11:02:22Z</time>
      </trkpt>
      <trkpt lat="48.35369" lon="2.749">
        <ele>126.3</ele>
        <time>2021-06-13T11:02:28Z</time>
      </trkpt>
      <trkpt lat="48.35367" lon="2.7491">
        <ele>125.8</ele>
        <time>2021-06-13T11:02:34Z</time>
      </trkpt>
      <trkpt lat="48.35367" lon="2.74913">
        <ele>125.6</ele>
        <time>2021-06-13T11:02:35Z</time>
      </trkpt>
      <trkpt lat="48.35369" lon="2.74922">
        <ele>125</ele>
        <time>2021-06-13T11:02:40Z</time>
      </trkpt>
      <trkpt lat="48.35369" lon="2.74929">
        <ele>124.6</ele>
        <time>2021-06-13T11:02:44Z</time>
      </trkpt>
      <trkpt lat="48.35371" lon="2.74941">
        <ele>123.8</ele>
        <time>2021-06-13T11:02:50Z</time>
      </trkpt>
      <trkpt lat="48.35371" lon="2.74944">
        <ele>123.5</ele>
        <time>2021-06-13T11:02:52Z</time>
      </trkpt>
      <trkpt lat="48.35374" lon="2.74953">
        <ele>122.9</ele>
        <time>2021-06-13T11:02:57Z</time>
      </trkpt>
      <trkpt lat="48.35375" lon="2.74961">
        <ele>122.4</ele>
        <time>2021-06-13T11:03:01Z</time>
      </trkpt>
      <trkpt lat="48.35376" lon="2.74964">
        <ele>122.1</ele>
        <time>2021-06-13T11:03:03Z</time>
      </trkpt>
      <trkpt lat="48.3538" lon="2.74977">
        <ele>121.1</ele>
        <time>2021-06-13T11:03:10Z</time>
      </trkpt>
      <trkpt lat="48.35385" lon="2.74989">
        <ele>120.2</ele>
        <time>2021-06-13T11:03:16Z</time>
      </trkpt>
      <trkpt lat="48.35386" lon="2.74992">
        <ele>119.9</ele>
        <time>2021-06-13T11:03:18Z</time>
      </trkpt>
      <trkpt lat="48.3539" lon="2.75009">
        <ele>119</ele>
        <time>2021-06-13T11:03:26Z</time>
      </trkpt>
      <trkpt lat="48.3539" lon="2.7501">
        <ele>119</ele>
        <time>2021-06-13T11:03:27Z</time>
      </trkpt>
      <trkpt lat="48.35392" lon="2.75019">
        <ele>118.6</ele>
        <time>2021-06-13T11:03:31Z</time>
      </trkpt>
      <trkpt lat="48.35393" lon="2.75026">
        <ele>118.4</ele>
        <time>2021-06-13T11:03:36Z</time>
      </trkpt>
      <trkpt lat="48.35395" lon="2.75032">
        <ele>118.2</ele>
        <time>2021-06-13T11:03:39Z</time>
      </trkpt>
      <trkpt lat="48.35396" lon="2.75035">
        <ele>118.1</ele>
        <time>2021-06-13T11:03:41Z</time>
      </trkpt>
      <trkpt lat="48.35397" lon="2.75039">
        <ele>117.9</ele>
        <time>2021-06-13T11:03:43Z</time>
      </trkpt>
      <trkpt lat="48.35396" lon="2.75052">
        <ele>117.6</ele>
        <time>2021-06-13T11:03:50Z</time>
      </trkpt>
      <trkpt lat="48.35396" lon="2.75055">
        <ele>117.5</ele>
        <time>2021-06-13T11:03:51Z</time>
      </trkpt>
      <trkpt lat="48.35392" lon="2.75065">
        <ele>117.2</ele>
        <time>2021-06-13T11:03:59Z</time>
      </trkpt>
      <trkpt lat="48.35392" lon="2.75071">
        <ele>117.1</ele>
        <time>2021-06-13T11:04:03Z</time>
      </trkpt>
      <trkpt lat="48.3539" lon="2.75076">
        <ele>116.9</ele>
        <time>2021-06-13T11:04:06Z</time>
      </trkpt>
      <trkpt lat="48.35388" lon="2.7508">
        <ele>116.8</ele>
        <time>2021-06-13T11:04:09Z</time>
      </trkpt>
      <trkpt lat="48.35387" lon="2.75095">
        <ele>116.6</ele>
        <time>2021-06-13T11:04:17Z</time>
      </trkpt>
      <trkpt lat="48.35388" lon="2.75099">
        <ele>116.5</ele>
        <time>2021-06-13T11:04:19Z</time>
      </trkpt>
      <trkpt lat="48.35388" lon="2.75107">
        <ele>116.5</ele>
        <time>2021-06-13T11:04:23Z</time>
      </trkpt>
      <trkpt lat="48.35382" lon="2.75123">
        <ele>116.2</ele>
        <time>2021-06-13T11:04:31Z</time>
      </trkpt>
      <trkpt lat="48.35377" lon="2.75135">
        <ele>115.9</ele>
        <time>2021-06-13T11:04:38Z</time>
      </trkpt>
      <trkpt lat="48.35376" lon="2.75148">
        <ele>115.8</ele>
        <time>2021-06-13T11:04:44Z</time>
      </trkpt>
      <trkpt lat="48.35374" lon="2.75153">
        <ele>115.7</ele>
        <time>2021-06-13T11:04:46Z</time>
      </trkpt>
      <trkpt lat="48.35371" lon="2.75159">
        <ele>115.5</ele>
        <time>2021-06-13T11:04:51Z</time>
      </trkpt>
      <trkpt lat="48.35369" lon="2.75166">
        <ele>115.3</ele>
        <time>2021-06-13T11:04:58Z</time>
      </trkpt>
      <trkpt lat="48.35367" lon="2.75171">
        <ele>115.2</ele>
        <time>2021-06-13T11:05:01Z</time>
      </trkpt>
      <trkpt lat="48.35365" lon="2.75178">
        <ele>115.2</ele>
        <time>2021-06-13T11:05:05Z</time>
      </trkpt>
      <trkpt lat="48.35363" lon="2.75195">
        <ele>115.1</ele>
        <time>2021-06-13T11:05:13Z</time>
      </trkpt>
      <trkpt lat="48.35359" lon="2.75211">
        <ele>114.8</ele>
        <time>2021-06-13T11:05:20Z</time>
      </trkpt>
      <trkpt lat="48.35359" lon="2.75216">
        <ele>114.8</ele>
        <time>2021-06-13T11:05:23Z</time>
      </trkpt>
      <trkpt lat="48.35353" lon="2.75229">
        <ele>114.2</ele>
        <time>2021-06-13T11:05:30Z</time>
      </trkpt>
      <trkpt lat="48.35349" lon="2.75247">
        <ele>113.8</ele>
        <time>2021-06-13T11:05:39Z</time>
      </trkpt>
      <trkpt lat="48.35343" lon="2.75262">
        <ele>112.9</ele>
        <time>2021-06-13T11:05:47Z</time>
      </trkpt>
      <trkpt lat="48.35341" lon="2.75268">
        <ele>112.6</ele>
        <time>2021-06-13T11:05:50Z</time>
      </trkpt>
      <trkpt lat="48.35337" lon="2.75272">
        <ele>112.2</ele>
        <time>2021-06-13T11:05:53Z</time>
      </trkpt>
      <trkpt lat="48.35336" lon="2.75278">
        <ele>112</ele>
        <time>2021-06-13T11:05:56Z</time>
      </trkpt>
      <trkpt lat="48.35335" lon="2.7528">
        <ele>111.8</ele>
        <time>2021-06-13T11:05:58Z</time>
      </trkpt>
      <trkpt lat="48.35333" lon="2.75291">
        <ele>111.5</ele>
        <time>2021-06-13T11:06:03Z</time>
      </trkpt>
      <trkpt lat="48.35333" lon="2.75297">
        <ele>111.5</ele>
        <time>2021-06-13T11:06:06Z</time>
      </trkpt>
      <trkpt lat="48.35329" lon="2.75313">
        <ele>111.8</ele>
        <time>2021-06-13T11:06:15Z</time>
      </trkpt>
      <trkpt lat="48.35328" lon="2.75315">
        <ele>111.9</ele>
        <time>2021-06-13T11:06:16Z</time>
      </trkpt>
      <trkpt lat="48.35326" lon="2.75328">
        <ele>112</ele>
        <time>2021-06-13T11:06:23Z</time>
      </trkpt>
      <trkpt lat="48.35321" lon="2.75343">
        <ele>112.9</ele>
        <time>2021-06-13T11:06:31Z</time>
      </trkpt>
      <trkpt lat="48.35321" lon="2.75348">
        <ele>113.1</ele>
        <time>2021-06-13T11:06:34Z</time>
      </trkpt>
      <trkpt lat="48.35314" lon="2.75365">
        <ele>114.7</ele>
        <time>2021-06-13T11:06:43Z</time>
      </trkpt>
      <trkpt lat="48.35314" lon="2.75369">
        <ele>114.8</ele>
        <time>2021-06-13T11:06:45Z</time>
      </trkpt>
      <trkpt lat="48.35315" lon="2.75379">
        <ele>115.1</ele>
        <time>2021-06-13T11:06:50Z</time>
      </trkpt>
      <trkpt lat="48.35316" lon="2.75387">
        <ele>115.3</ele>
        <time>2021-06-13T11:06:54Z</time>
      </trkpt>
      <trkpt lat="48.35318" lon="2.7539">
        <ele>115.3</ele>
        <time>2021-06-13T11:06:56Z</time>
      </trkpt>
      <trkpt lat="48.35314" lon="2.75406">
        <ele>116.4</ele>
        <time>2021-06-13T11:07:04Z</time>
      </trkpt>
      <trkpt lat="48.35313" lon="2.75417">
        <ele>117</ele>
        <time>2021-06-13T11:07:10Z</time>
      </trkpt>
      <trkpt lat="48.35309" lon="2.75427">
        <ele>117.8</ele>
        <time>2021-06-13T11:07:16Z</time>
      </trkpt>
      <trkpt lat="48.35305" lon="2.75437">
        <ele>118.6</ele>
        <time>2021-06-13T11:07:21Z</time>
      </trkpt>
      <trkpt lat="48.35305" lon="2.75442">
        <ele>118.8</ele>
        <time>2021-06-13T11:07:23Z</time>
      </trkpt>
      <trkpt lat="48.35298" lon="2.75452">
        <ele>119.7</ele>
        <time>2021-06-13T11:07:30Z</time>
      </trkpt>
      <trkpt lat="48.35298" lon="2.75463">
        <ele>120.1</ele>
        <time>2021-06-13T11:07:36Z</time>
      </trkpt>
      <trkpt lat="48.35299" lon="2.75464">
        <ele>120.1</ele>
        <time>2021-06-13T11:07:37Z</time>
      </trkpt>
      <trkpt lat="48.35297" lon="2.75473">
        <ele>120.5</ele>
        <time>2021-06-13T11:07:43Z</time>
      </trkpt>
      <trkpt lat="48.35294" lon="2.75478">
        <ele>120.8</ele>
        <time>2021-06-13T11:07:46Z</time>
      </trkpt>
      <trkpt lat="48.35292" lon="2.7549">
        <ele>121.2</ele>
        <time>2021-06-13T11:07:52Z</time>
      </trkpt>
      <trkpt lat="48.3529" lon="2.75501">
        <ele>121.6</ele>
        <time>2021-06-13T11:07:58Z</time>
      </trkpt>
      <trkpt lat="48.35286" lon="2.7551">
        <ele>122</ele>
        <time>2021-06-13T11:08:02Z</time>
      </trkpt>
      <trkpt lat="48.35283" lon="2.75521">
        <ele>122.5</ele>
        <time>2021-06-13T11:08:09Z</time>
      </trkpt>
      <trkpt lat="48.35282" lon="2.75531">
        <ele>122.9</ele>
        <time>2021-06-13T11:08:16Z</time>
      </trkpt>
      <trkpt lat="48.3528" lon="2.75538">
        <ele>123.2</ele>
        <time>2021-06-13T11:08:21Z</time>
      </trkpt>
      <trkpt lat="48.35276" lon="2.75551">
        <ele>123.7</ele>
        <time>2021-06-13T11:08:28Z</time>
      </trkpt>
      <trkpt lat="48.35275" lon="2.75555">
        <ele>123.8</ele>
        <time>2021-06-13T11:08:30Z</time>
      </trkpt>
      <trkpt lat="48.35273" lon="2.75564">
        <ele>124.1</ele>
        <time>2021-06-13T11:08:34Z</time>
      </trkpt>
      <trkpt lat="48.3527" lon="2.7557">
        <ele>124.3</ele>
        <time>2021-06-13T11:08:37Z</time>
      </trkpt>
      <trkpt lat="48.35263" lon="2.75577">
        <ele>124.3</ele>
        <time>2021-06-13T11:08:43Z</time>
      </trkpt>
      <trkpt lat="48.35263" lon="2.75583">
        <ele>124.4</ele>
        <time>2021-06-13T11:08:46Z</time>
      </trkpt>
      <trkpt lat="48.35261" lon="2.756">
        <ele>124.6</ele>
        <time>2021-06-13T11:08:54Z</time>
      </trkpt>
      <trkpt lat="48.35259" lon="2.75608">
        <ele>124.6</ele>
        <time>2021-06-13T11:09:01Z</time>
      </trkpt>
      <trkpt lat="48.35257" lon="2.75615">
        <ele>124.6</ele>
        <time>2021-06-13T11:09:07Z</time>
      </trkpt>
      <trkpt lat="48.35255" lon="2.75623">
        <ele>124.7</ele>
        <time>2021-06-13T11:09:15Z</time>
      </trkpt>
      <trkpt lat="48.35255" lon="2.75627">
        <ele>124.7</ele>
        <time>2021-06-13T11:09:24Z</time>
      </trkpt>
      <trkpt lat="48.35254" lon="2.75642">
        <ele>124.8</ele>
        <time>2021-06-13T11:09:32Z</time>
      </trkpt>
      <trkpt lat="48.35253" lon="2.75647">
        <ele>124.9</ele>
        <time>2021-06-13T11:09:40Z</time>
      </trkpt>
      <trkpt lat="48.35253" lon="2.7565">
        <ele>124.9</ele>
        <time>2021-06-13T11:09:49Z</time>
      </trkpt>
      <trkpt lat="48.35254" lon="2.75654">
        <ele>125</ele>
        <time>2021-06-13T11:09:57Z</time>
      </trkpt>
      <trkpt lat="48.35254" lon="2.75658">
        <ele>125</ele>
        <time>2021-06-13T11:10:05Z</time>
      </trkpt>
      <trkpt lat="48.35249" lon="2.75675">
        <ele>125.1</ele>
        <time>2021-06-13T11:10:13Z</time>
      </trkpt>
      <trkpt lat="48.35249" lon="2.75691">
        <ele>125.1</ele>
        <time>2021-06-13T11:10:20Z</time>
      </trkpt>
      <trkpt lat="48.35247" lon="2.75709">
        <ele>125.3</ele>
        <time>2021-06-13T11:10:29Z</time>
      </trkpt>
      <trkpt lat="48.35247" lon="2.75715">
        <ele>125.4</ele>
        <time>2021-06-13T11:10:32Z</time>
      </trkpt>
      <trkpt lat="48.35247" lon="2.75725">
        <ele>125.4</ele>
        <time>2021-06-13T11:10:37Z</time>
      </trkpt>
      <trkpt lat="48.35245" lon="2.7574">
        <ele>125.6</ele>
        <time>2021-06-13T11:10:45Z</time>
      </trkpt>
      <trkpt lat="48.35246" lon="2.75748">
        <ele>125.5</ele>
        <time>2021-06-13T11:10:50Z</time>
      </trkpt>
      <trkpt lat="48.35245" lon="2.7575">
        <ele>125.6</ele>
        <time>2021-06-13T11:10:53Z</time>
      </trkpt>
      <trkpt lat="48.35245" lon="2.75759">
        <ele>125.9</ele>
        <time>2021-06-13T11:11:00Z</time>
      </trkpt>
      <trkpt lat="48.35243" lon="2.75762">
        <ele>126.2</ele>
        <time>2021-06-13T11:11:17Z</time>
      </trkpt>
      <trkpt lat="48.35242" lon="2.75763">
        <ele>126.3</ele>
        <time>2021-06-13T11:11:27Z</time>
      </trkpt>
      <trkpt lat="48.35242" lon="2.75767">
        <ele>126.4</ele>
        <time>2021-06-13T11:11:30Z</time>
      </trkpt>
      <trkpt lat="48.35241" lon="2.75777">
        <ele>126.7</ele>
        <time>2021-06-13T11:11:37Z</time>
      </trkpt>
      <trkpt lat="48.35239" lon="2.75788">
        <ele>127.1</ele>
        <time>2021-06-13T11:11:45Z</time>
      </trkpt>
      <trkpt lat="48.35239" lon="2.75791">
        <ele>127.3</ele>
        <time>2021-06-13T11:11:47Z</time>
      </trkpt>
      <trkpt lat="48.35232" lon="2.75797">
        <ele>128.1</ele>
        <time>2021-06-13T11:11:54Z</time>
      </trkpt>
      <trkpt lat="48.3523" lon="2.758">
        <ele>128.5</ele>
        <time>2021-06-13T11:11:58Z</time>
      </trkpt>
      <trkpt lat="48.35227" lon="2.75808">
        <ele>128.9</ele>
        <time>2021-06-13T11:12:04Z</time>
      </trkpt>
      <trkpt lat="48.35224" lon="2.75819">
        <ele>129.3</ele>
        <time>2021-06-13T11:12:11Z</time>
      </trkpt>
      <trkpt lat="48.35224" lon="2.75823">
        <ele>129.4</ele>
        <time>2021-06-13T11:12:13Z</time>
      </trkpt>
      <trkpt lat="48.35223" lon="2.75837">
        <ele>129.6</ele>
        <time>2021-06-13T11:12:21Z</time>
      </trkpt>
      <trkpt lat="48.35227" lon="2.7585">
        <ele>129.3</ele>
        <time>2021-06-13T11:12:25Z</time>
      </trkpt>
      <trkpt lat="48.35224" lon="2.7586">
        <ele>129.7</ele>
        <time>2021-06-13T11:12:32Z</time>
      </trkpt>
      <trkpt lat="48.35224" lon="2.75865">
        <ele>129.7</ele>
        <time>2021-06-13T11:12:34Z</time>
      </trkpt>
      <trkpt lat="48.35232" lon="2.75885">
        <ele>129.3</ele>
        <time>2021-06-13T11:12:41Z</time>
      </trkpt>
      <trkpt lat="48.35234" lon="2.7589">
        <ele>129.3</ele>
        <time>2021-06-13T11:12:43Z</time>
      </trkpt>
      <trkpt lat="48.35235" lon="2.75898">
        <ele>129.3</ele>
        <time>2021-06-13T11:12:46Z</time>
      </trkpt>
      <trkpt lat="48.35236" lon="2.75907">
        <ele>129.3</ele>
        <time>2021-06-13T11:12:50Z</time>
      </trkpt>
      <trkpt lat="48.35236" lon="2.75911">
        <ele>129.4</ele>
        <time>2021-06-13T11:12:52Z</time>
      </trkpt>
      <trkpt lat="48.3524" lon="2.75931">
        <ele>128.8</ele>
        <time>2021-06-13T11:13:01Z</time>
      </trkpt>
      <trkpt lat="48.35242" lon="2.75944">
        <ele>128.3</ele>
        <time>2021-06-13T11:13:07Z</time>
      </trkpt>
      <trkpt lat="48.35237" lon="2.75952">
        <ele>128.1</ele>
        <time>2021-06-13T11:13:12Z</time>
      </trkpt>
      <trkpt lat="48.35238" lon="2.7597">
        <ele>127.4</ele>
        <time>2021-06-13T11:13:19Z</time>
      </trkpt>
      <trkpt lat="48.35238" lon="2.75977">
        <ele>127.2</ele>
        <time>2021-06-13T11:13:23Z</time>
      </trkpt>
      <trkpt lat="48.35238" lon="2.75985">
        <ele>126.9</ele>
        <time>2021-06-13T11:13:27Z</time>
      </trkpt>
      <trkpt lat="48.35245" lon="2.75995">
        <ele>126.3</ele>
        <time>2021-06-13T11:13:32Z</time>
      </trkpt>
      <trkpt lat="48.35251" lon="2.76">
        <ele>125.9</ele>
        <time>2021-06-13T11:13:35Z</time>
      </trkpt>
      <trkpt lat="48.35254" lon="2.76011">
        <ele>125.1</ele>
        <time>2021-06-13T11:13:42Z</time>
      </trkpt>
      <trkpt lat="48.35258" lon="2.76019">
        <ele>124.4</ele>
        <time>2021-06-13T11:13:48Z</time>
      </trkpt>
      <trkpt lat="48.35262" lon="2.76025">
        <ele>123.8</ele>
        <time>2021-06-13T11:13:52Z</time>
      </trkpt>
      <trkpt lat="48.35261" lon="2.76026">
        <ele>123.8</ele>
        <time>2021-06-13T11:13:54Z</time>
      </trkpt>
      <trkpt lat="48.35264" lon="2.76032">
        <ele>123.2</ele>
        <time>2021-06-13T11:14:00Z</time>
      </trkpt>
      <trkpt lat="48.35265" lon="2.76037">
        <ele>122.9</ele>
        <time>2021-06-13T11:14:03Z</time>
      </trkpt>
      <trkpt lat="48.35266" lon="2.76044">
        <ele>122.5</ele>
        <time>2021-06-13T11:14:07Z</time>
      </trkpt>
      <trkpt lat="48.35269" lon="2.7605">
        <ele>121.9</ele>
        <time>2021-06-13T11:14:10Z</time>
      </trkpt>
      <trkpt lat="48.35271" lon="2.76059">
        <ele>121.2</ele>
        <time>2021-06-13T11:14:17Z</time>
      </trkpt>
      <trkpt lat="48.35272" lon="2.7606">
        <ele>121.1</ele>
        <time>2021-06-13T11:14:18Z</time>
      </trkpt>
      <trkpt lat="48.35273" lon="2.76064">
        <ele>120.7</ele>
        <time>2021-06-13T11:14:20Z</time>
      </trkpt>
      <trkpt lat="48.35277" lon="2.76066">
        <ele>120.3</ele>
        <time>2021-06-13T11:14:23Z</time>
      </trkpt>
      <trkpt lat="48.35284" lon="2.76067">
        <ele>119.6</ele>
        <time>2021-06-13T11:14:29Z</time>
      </trkpt>
      <trkpt lat="48.35288" lon="2.76072">
        <ele>118.9</ele>
        <time>2021-06-13T11:14:36Z</time>
      </trkpt>
      <trkpt lat="48.35289" lon="2.76073">
        <ele>118.8</ele>
        <time>2021-06-13T11:14:37Z</time>
      </trkpt>
      <trkpt lat="48.35293" lon="2.76075">
        <ele>118.3</ele>
        <time>2021-06-13T11:14:41Z</time>
      </trkpt>
      <trkpt lat="48.35298" lon="2.76077">
        <ele>117.8</ele>
        <time>2021-06-13T11:14:48Z</time>
      </trkpt>
      <trkpt lat="48.353" lon="2.76076">
        <ele>117.6</ele>
        <time>2021-06-13T11:14:50Z</time>
      </trkpt>
      <trkpt lat="48.35307" lon="2.76074">
        <ele>117.1</ele>
        <time>2021-06-13T11:14:57Z</time>
      </trkpt>
      <trkpt lat="48.35311" lon="2.76073">
        <ele>116.7</ele>
        <time>2021-06-13T11:15:00Z</time>
      </trkpt>
      <trkpt lat="48.35315" lon="2.76075">
        <ele>116.3</ele>
        <time>2021-06-13T11:15:04Z</time>
      </trkpt>
      <trkpt lat="48.35323" lon="2.76076">
        <ele>115.5</ele>
        <time>2021-06-13T11:15:11Z</time>
      </trkpt>
      <trkpt lat="48.35326" lon="2.76076">
        <ele>115.1</ele>
        <time>2021-06-13T11:15:14Z</time>
      </trkpt>
      <trkpt lat="48.35331" lon="2.76078">
        <ele>114.5</ele>
        <time>2021-06-13T11:15:19Z</time>
      </trkpt>
      <trkpt lat="48.35334" lon="2.76081">
        <ele>114</ele>
        <time>2021-06-13T11:15:22Z</time>
      </trkpt>
      <trkpt lat="48.35337" lon="2.76081">
        <ele>113.7</ele>
        <time>2021-06-13T11:15:24Z</time>
      </trkpt>
      <trkpt lat="48.35342" lon="2.76086">
        <ele>112.8</ele>
        <time>2021-06-13T11:15:29Z</time>
      </trkpt>
      <trkpt lat="48.35346" lon="2.76091">
        <ele>112.3</ele>
        <time>2021-06-13T11:15:34Z</time>
      </trkpt>
      <trkpt lat="48.3535" lon="2.76096">
        <ele>111.5</ele>
        <time>2021-06-13T11:15:41Z</time>
      </trkpt>
      <trkpt lat="48.35353" lon="2.76098">
        <ele>111.2</ele>
        <time>2021-06-13T11:15:43Z</time>
      </trkpt>
      <trkpt lat="48.35357" lon="2.76099">
        <ele>110.7</ele>
        <time>2021-06-13T11:15:46Z</time>
      </trkpt>
      <trkpt lat="48.3536" lon="2.76105">
        <ele>110.1</ele>
        <time>2021-06-13T11:15:50Z</time>
      </trkpt>
      <trkpt lat="48.35366" lon="2.76118">
        <ele>109</ele>
        <time>2021-06-13T11:15:57Z</time>
      </trkpt>
      <trkpt lat="48.35363" lon="2.76131">
        <ele>108.9</ele>
        <time>2021-06-13T11:16:05Z</time>
      </trkpt>
      <trkpt lat="48.35362" lon="2.76131">
        <ele>109</ele>
        <time>2021-06-13T11:16:06Z</time>
      </trkpt>
      <trkpt lat="48.35361" lon="2.76141">
        <ele>108.9</ele>
        <time>2021-06-13T11:16:13Z</time>
      </trkpt>
      <trkpt lat="48.3536" lon="2.7615">
        <ele>108.6</ele>
        <time>2021-06-13T11:16:19Z</time>
      </trkpt>
      <trkpt lat="48.3536" lon="2.76154">
        <ele>108.5</ele>
        <time>2021-06-13T11:16:22Z</time>
      </trkpt>
      <trkpt lat="48.3536" lon="2.76163">
        <ele>108.2</ele>
        <time>2021-06-13T11:16:29Z</time>
      </trkpt>
      <trkpt lat="48.35356" lon="2.76171">
        <ele>108.6</ele>
        <time>2021-06-13T11:16:36Z</time>
      </trkpt>
      <trkpt lat="48.35348" lon="2.76178">
        <ele>109.5</ele>
        <time>2021-06-13T11:16:42Z</time>
      </trkpt>
      <trkpt lat="48.3535" lon="2.76184">
        <ele>109.3</ele>
        <time>2021-06-13T11:16:45Z</time>
      </trkpt>
      <trkpt lat="48.35358" lon="2.76194">
        <ele>108.5</ele>
        <time>2021-06-13T11:16:53Z</time>
      </trkpt>
      <trkpt lat="48.3536" lon="2.76198">
        <ele>108.2</ele>
        <time>2021-06-13T11:16:55Z</time>
      </trkpt>
      <trkpt lat="48.35362" lon="2.76207">
        <ele>108.1</ele>
        <time>2021-06-13T11:17:02Z</time>
      </trkpt>
      <trkpt lat="48.3536" lon="2.7622">
        <ele>108.3</ele>
        <time>2021-06-13T11:17:11Z</time>
      </trkpt>
      <trkpt lat="48.35356" lon="2.76228">
        <ele>108.7</ele>
        <time>2021-06-13T11:17:19Z</time>
      </trkpt>
      <trkpt lat="48.35354" lon="2.76238">
        <ele>109</ele>
        <time>2021-06-13T11:17:26Z</time>
      </trkpt>
      <trkpt lat="48.35356" lon="2.76243">
        <ele>108.8</ele>
        <time>2021-06-13T11:17:33Z</time>
      </trkpt>
      <trkpt lat="48.35359" lon="2.76251">
        <ele>108.6</ele>
        <time>2021-06-13T11:17:40Z</time>
      </trkpt>
      <trkpt lat="48.35355" lon="2.76258">
        <ele>108.8</ele>
        <time>2021-06-13T11:17:47Z</time>
      </trkpt>
      <trkpt lat="48.35355" lon="2.76267">
        <ele>108.7</ele>
        <time>2021-06-13T11:17:53Z</time>
      </trkpt>
      <trkpt lat="48.35352" lon="2.76277">
        <ele>108.8</ele>
        <time>2021-06-13T11:18:01Z</time>
      </trkpt>
      <trkpt lat="48.35351" lon="2.76282">
        <ele>108.9</ele>
        <time>2021-06-13T11:18:04Z</time>
      </trkpt>
      <trkpt lat="48.35349" lon="2.76287">
        <ele>109.1</ele>
        <time>2021-06-13T11:18:10Z</time>
      </trkpt>
      <trkpt lat="48.35349" lon="2.7629">
        <ele>109</ele>
        <time>2021-06-13T11:18:17Z</time>
      </trkpt>
      <trkpt lat="48.35349" lon="2.7629">
        <ele>109</ele>
        <time>2021-06-13T11:18:19Z</time>
      </trkpt>
      <trkpt lat="48.35344" lon="2.76299">
        <ele>109.3</ele>
        <time>2021-06-13T11:18:26Z</time>
      </trkpt>
      <trkpt lat="48.35342" lon="2.76306">
        <ele>109.5</ele>
        <time>2021-06-13T11:18:33Z</time>
      </trkpt>
      <trkpt lat="48.35343" lon="2.76314">
        <ele>109.3</ele>
        <time>2021-06-13T11:18:39Z</time>
      </trkpt>
      <trkpt lat="48.35345" lon="2.76319">
        <ele>109</ele>
        <time>2021-06-13T11:18:46Z</time>
      </trkpt>
      <trkpt lat="48.35342" lon="2.76327">
        <ele>109.2</ele>
        <time>2021-06-13T11:18:53Z</time>
      </trkpt>
      <trkpt lat="48.35341" lon="2.76338">
        <ele>109.2</ele>
        <time>2021-06-13T11:18:59Z</time>
      </trkpt>
      <trkpt lat="48.3534" lon="2.7635">
        <ele>109.2</ele>
        <time>2021-06-13T11:19:07Z</time>
      </trkpt>
      <trkpt lat="48.3534" lon="2.76351">
        <ele>109.1</ele>
        <time>2021-06-13T11:19:08Z</time>
      </trkpt>
      <trkpt lat="48.3534" lon="2.76359">
        <ele>109</ele>
        <time>2021-06-13T11:19:15Z</time>
      </trkpt>
      <trkpt lat="48.35338" lon="2.76371">
        <ele>109.1</ele>
        <time>2021-06-13T11:19:21Z</time>
      </trkpt>
      <trkpt lat="48.35336" lon="2.76377">
        <ele>109.2</ele>
        <time>2021-06-13T11:19:28Z</time>
      </trkpt>
      <trkpt lat="48.35334" lon="2.76383">
        <ele>109.4</ele>
        <time>2021-06-13T11:19:34Z</time>
      </trkpt>
      <trkpt lat="48.35333" lon="2.76388">
        <ele>109.3</ele>
        <time>2021-06-13T11:19:37Z</time>
      </trkpt>
      <trkpt lat="48.35332" lon="2.76401">
        <ele>109.1</ele>
        <time>2021-06-13T11:19:46Z</time>
      </trkpt>
      <trkpt lat="48.35331" lon="2.7641">
        <ele>109</ele>
        <time>2021-06-13T11:19:53Z</time>
      </trkpt>
      <trkpt lat="48.35332" lon="2.76423">
        <ele>108.8</ele>
        <time>2021-06-13T11:20:00Z</time>
      </trkpt>
      <trkpt lat="48.35331" lon="2.76433">
        <ele>108.5</ele>
        <time>2021-06-13T11:20:07Z</time>
      </trkpt>
      <trkpt lat="48.35329" lon="2.7644">
        <ele>108.3</ele>
        <time>2021-06-13T11:20:13Z</time>
      </trkpt>
      <trkpt lat="48.35331" lon="2.76454">
        <ele>108</ele>
        <time>2021-06-13T11:20:22Z</time>
      </trkpt>
      <trkpt lat="48.35329" lon="2.76466">
        <ele>107.7</ele>
        <time>2021-06-13T11:20:30Z</time>
      </trkpt>
      <trkpt lat="48.35328" lon="2.76473">
        <ele>107.4</ele>
        <time>2021-06-13T11:20:37Z</time>
      </trkpt>
      <trkpt lat="48.35328" lon="2.76482">
        <ele>107.2</ele>
        <time>2021-06-13T11:20:43Z</time>
      </trkpt>
      <trkpt lat="48.35327" lon="2.76488">
        <ele>107.1</ele>
        <time>2021-06-13T11:20:49Z</time>
      </trkpt>
      <trkpt lat="48.35329" lon="2.76496">
        <ele>106.9</ele>
        <time>2021-06-13T11:20:55Z</time>
      </trkpt>
      <trkpt lat="48.35327" lon="2.76512">
        <ele>106.8</ele>
        <time>2021-06-13T11:21:00Z</time>
      </trkpt>
      <trkpt lat="48.35326" lon="2.76516">
        <ele>106.7</ele>
        <time>2021-06-13T11:21:06Z</time>
      </trkpt>
      <trkpt lat="48.35325" lon="2.76521">
        <ele>106.6</ele>
        <time>2021-06-13T11:21:13Z</time>
      </trkpt>
      <trkpt lat="48.35322" lon="2.76527">
        <ele>106.5</ele>
        <time>2021-06-13T11:21:20Z</time>
      </trkpt>
      <trkpt lat="48.3532" lon="2.76536">
        <ele>106.4</ele>
        <time>2021-06-13T11:21:27Z</time>
      </trkpt>
      <trkpt lat="48.35317" lon="2.76541">
        <ele>106.2</ele>
        <time>2021-06-13T11:21:33Z</time>
      </trkpt>
      <trkpt lat="48.35316" lon="2.76547">
        <ele>106.1</ele>
        <time>2021-06-13T11:21:40Z</time>
      </trkpt>
      <trkpt lat="48.35314" lon="2.76556">
        <ele>106</ele>
        <time>2021-06-13T11:21:47Z</time>
      </trkpt>
      <trkpt lat="48.3531" lon="2.76564">
        <ele>105.7</ele>
        <time>2021-06-13T11:21:54Z</time>
      </trkpt>
      <trkpt lat="48.35309" lon="2.7658">
        <ele>105.6</ele>
        <time>2021-06-13T11:21:59Z</time>
      </trkpt>
      <trkpt lat="48.35315" lon="2.76594">
        <ele>106.1</ele>
        <time>2021-06-13T11:22:07Z</time>
      </trkpt>
      <trkpt lat="48.35316" lon="2.76601">
        <ele>106.2</ele>
        <time>2021-06-13T11:22:16Z</time>
      </trkpt>
      <trkpt lat="48.35318" lon="2.76605">
        <ele>106.5</ele>
        <time>2021-06-13T11:22:19Z</time>
      </trkpt>
      <trkpt lat="48.35323" lon="2.76612">
        <ele>107</ele>
        <time>2021-06-13T11:22:27Z</time>
      </trkpt>
      <trkpt lat="48.35324" lon="2.76613">
        <ele>107</ele>
        <time>2021-06-13T11:22:28Z</time>
      </trkpt>
      <trkpt lat="48.35324" lon="2.76615">
        <ele>107.1</ele>
        <time>2021-06-13T11:22:30Z</time>
      </trkpt>
      <trkpt lat="48.35327" lon="2.7662">
        <ele>107.4</ele>
        <time>2021-06-13T11:22:33Z</time>
      </trkpt>
      <trkpt lat="48.3533" lon="2.7663">
        <ele>107.9</ele>
        <time>2021-06-13T11:22:38Z</time>
      </trkpt>
      <trkpt lat="48.35336" lon="2.76638">
        <ele>108</ele>
        <time>2021-06-13T11:22:45Z</time>
      </trkpt>
      <trkpt lat="48.35332" lon="2.76645">
        <ele>108.4</ele>
        <time>2021-06-13T11:22:52Z</time>
      </trkpt>
      <trkpt lat="48.35328" lon="2.76649">
        <ele>108.1</ele>
        <time>2021-06-13T11:22:58Z</time>
      </trkpt>
      <trkpt lat="48.35327" lon="2.76655">
        <ele>108.2</ele>
        <time>2021-06-13T11:23:05Z</time>
      </trkpt>
      <trkpt lat="48.3533" lon="2.76664">
        <ele>108.6</ele>
        <time>2021-06-13T11:23:11Z</time>
      </trkpt>
      <trkpt lat="48.35327" lon="2.76671">
        <ele>108.3</ele>
        <time>2021-06-13T11:23:18Z</time>
      </trkpt>
      <trkpt lat="48.35326" lon="2.76675">
        <ele>108</ele>
        <time>2021-06-13T11:23:27Z</time>
      </trkpt>
      <trkpt lat="48.35325" lon="2.76683">
        <ele>107.7</ele>
        <time>2021-06-13T11:23:33Z</time>
      </trkpt>
      <trkpt lat="48.35324" lon="2.76694">
        <ele>107.2</ele>
        <time>2021-06-13T11:23:40Z</time>
      </trkpt>
      <trkpt lat="48.35321" lon="2.76707">
        <ele>106.6</ele>
        <time>2021-06-13T11:23:47Z</time>
      </trkpt>
      <trkpt lat="48.3532" lon="2.76722">
        <ele>106</ele>
        <time>2021-06-13T11:23:55Z</time>
      </trkpt>
      <trkpt lat="48.35321" lon="2.76736">
        <ele>105.7</ele>
        <time>2021-06-13T11:24:02Z</time>
      </trkpt>
      <trkpt lat="48.35319" lon="2.76744">
        <ele>105.3</ele>
        <time>2021-06-13T11:24:09Z</time>
      </trkpt>
      <trkpt lat="48.35316" lon="2.76749">
        <ele>105</ele>
        <time>2021-06-13T11:24:15Z</time>
      </trkpt>
      <trkpt lat="48.35315" lon="2.76758">
        <ele>105</ele>
        <time>2021-06-13T11:24:21Z</time>
      </trkpt>
      <trkpt lat="48.35317" lon="2.76766">
        <ele>105.1</ele>
        <time>2021-06-13T11:24:28Z</time>
      </trkpt>
      <trkpt lat="48.35316" lon="2.76771">
        <ele>105.2</ele>
        <time>2021-06-13T11:24:33Z</time>
      </trkpt>
      <trkpt lat="48.35314" lon="2.76778">
        <ele>105.1</ele>
        <time>2021-06-13T11:24:38Z</time>
      </trkpt>
      <trkpt lat="48.35312" lon="2.76789">
        <ele>105.1</ele>
        <time>2021-06-13T11:24:45Z</time>
      </trkpt>
      <trkpt lat="48.35313" lon="2.76797">
        <ele>105.2</ele>
        <time>2021-06-13T11:24:51Z</time>
      </trkpt>
      <trkpt lat="48.35315" lon="2.76805">
        <ele>105.4</ele>
        <time>2021-06-13T11:24:58Z</time>
      </trkpt>
      <trkpt lat="48.35312" lon="2.76813">
        <ele>105.3</ele>
        <time>2021-06-13T11:25:04Z</time>
      </trkpt>
      <trkpt lat="48.35309" lon="2.76821">
        <ele>105.1</ele>
        <time>2021-06-13T11:25:10Z</time>
      </trkpt>
      <trkpt lat="48.3531" lon="2.76824">
        <ele>105.2</ele>
        <time>2021-06-13T11:25:12Z</time>
      </trkpt>
      <trkpt lat="48.35312" lon="2.76828">
        <ele>105.4</ele>
        <time>2021-06-13T11:25:14Z</time>
      </trkpt>
      <trkpt lat="48.35318" lon="2.76839">
        <ele>105.9</ele>
        <time>2021-06-13T11:25:21Z</time>
      </trkpt>
      <trkpt lat="48.3532" lon="2.76849">
        <ele>105.8</ele>
        <time>2021-06-13T11:25:27Z</time>
      </trkpt>
      <trkpt lat="48.3532" lon="2.76856">
        <ele>105.8</ele>
        <time>2021-06-13T11:25:33Z</time>
      </trkpt>
      <trkpt lat="48.35319" lon="2.76861">
        <ele>105.6</ele>
        <time>2021-06-13T11:25:40Z</time>
      </trkpt>
      <trkpt lat="48.35319" lon="2.76865">
        <ele>105.6</ele>
        <time>2021-06-13T11:25:49Z</time>
      </trkpt>
      <trkpt lat="48.35319" lon="2.76873">
        <ele>105.5</ele>
        <time>2021-06-13T11:25:55Z</time>
      </trkpt>
      <trkpt lat="48.35318" lon="2.76875">
        <ele>105.4</ele>
        <time>2021-06-13T11:25:59Z</time>
      </trkpt>
      <trkpt lat="48.35314" lon="2.76878">
        <ele>105.1</ele>
        <time>2021-06-13T11:26:06Z</time>
      </trkpt>
      <trkpt lat="48.35313" lon="2.7688">
        <ele>105</ele>
        <time>2021-06-13T11:26:10Z</time>
      </trkpt>
      <trkpt lat="48.35313" lon="2.76886">
        <ele>104.9</ele>
        <time>2021-06-13T11:26:15Z</time>
      </trkpt>
      <trkpt lat="48.35316" lon="2.76894">
        <ele>105.1</ele>
        <time>2021-06-13T11:26:23Z</time>
      </trkpt>
      <trkpt lat="48.35318" lon="2.76895">
        <ele>105.2</ele>
        <time>2021-06-13T11:26:25Z</time>
      </trkpt>
      <trkpt lat="48.3532" lon="2.76899">
        <ele>105.3</ele>
        <time>2021-06-13T11:26:32Z</time>
      </trkpt>
      <trkpt lat="48.35322" lon="2.76906">
        <ele>105.3</ele>
        <time>2021-06-13T11:26:39Z</time>
      </trkpt>
      <trkpt lat="48.35323" lon="2.7691">
        <ele>105.4</ele>
        <time>2021-06-13T11:26:45Z</time>
      </trkpt>
      <trkpt lat="48.35324" lon="2.76922">
        <ele>105.3</ele>
        <time>2021-06-13T11:26:54Z</time>
      </trkpt>
      <trkpt lat="48.35325" lon="2.7693">
        <ele>105.2</ele>
        <time>2021-06-13T11:27:00Z</time>
      </trkpt>
      <trkpt lat="48.35329" lon="2.76939">
        <ele>105.4</ele>
        <time>2021-06-13T11:27:06Z</time>
      </trkpt>
      <trkpt lat="48.35329" lon="2.76948">
        <ele>105.3</ele>
        <time>2021-06-13T11:27:13Z</time>
      </trkpt>
      <trkpt lat="48.3533" lon="2.76959">
        <ele>105.3</ele>
        <time>2021-06-13T11:27:19Z</time>
      </trkpt>
      <trkpt lat="48.35335" lon="2.76969">
        <ele>105.2</ele>
        <time>2021-06-13T11:27:26Z</time>
      </trkpt>
      <trkpt lat="48.35334" lon="2.76975">
        <ele>105.2</ele>
        <time>2021-06-13T11:27:31Z</time>
      </trkpt>
      <trkpt lat="48.35336" lon="2.76979">
        <ele>105</ele>
        <time>2021-06-13T11:27:33Z</time>
      </trkpt>
      <trkpt lat="48.35339" lon="2.76987">
        <ele>104.6</ele>
        <time>2021-06-13T11:27:39Z</time>
      </trkpt>
      <trkpt lat="48.35341" lon="2.7699">
        <ele>104.5</ele>
        <time>2021-06-13T11:27:46Z</time>
      </trkpt>
      <trkpt lat="48.35345" lon="2.77003">
        <ele>104</ele>
        <time>2021-06-13T11:27:53Z</time>
      </trkpt>
      <trkpt lat="48.35346" lon="2.77011">
        <ele>103.8</ele>
        <time>2021-06-13T11:27:59Z</time>
      </trkpt>
      <trkpt lat="48.35347" lon="2.77019">
        <ele>103.6</ele>
        <time>2021-06-13T11:28:05Z</time>
      </trkpt>
      <trkpt lat="48.35349" lon="2.77029">
        <ele>103.3</ele>
        <time>2021-06-13T11:28:12Z</time>
      </trkpt>
      <trkpt lat="48.35348" lon="2.77032">
        <ele>103.4</ele>
        <time>2021-06-13T11:28:15Z</time>
      </trkpt>
      <trkpt lat="48.35343" lon="2.77037">
        <ele>103.7</ele>
        <time>2021-06-13T11:28:21Z</time>
      </trkpt>
      <trkpt lat="48.35338" lon="2.77044">
        <ele>104</ele>
        <time>2021-06-13T11:28:29Z</time>
      </trkpt>
      <trkpt lat="48.35338" lon="2.77047">
        <ele>104.1</ele>
        <time>2021-06-13T11:28:33Z</time>
      </trkpt>
      <trkpt lat="48.35338" lon="2.77054">
        <ele>103.9</ele>
        <time>2021-06-13T11:28:39Z</time>
      </trkpt>
      <trkpt lat="48.35336" lon="2.77057">
        <ele>104.1</ele>
        <time>2021-06-13T11:28:44Z</time>
      </trkpt>
      <trkpt lat="48.35331" lon="2.77064">
        <ele>104</ele>
        <time>2021-06-13T11:28:51Z</time>
      </trkpt>
      <trkpt lat="48.3533" lon="2.77071">
        <ele>103.8</ele>
        <time>2021-06-13T11:28:59Z</time>
      </trkpt>
      <trkpt lat="48.35332" lon="2.7708">
        <ele>104</ele>
        <time>2021-06-13T11:29:09Z</time>
      </trkpt>
      <trkpt lat="48.35332" lon="2.77081">
        <ele>103.9</ele>
        <time>2021-06-13T11:29:19Z</time>
      </trkpt>
      <trkpt lat="48.35331" lon="2.77081">
        <ele>103.8</ele>
        <time>2021-06-13T11:29:36Z</time>
      </trkpt>
      <trkpt lat="48.3533" lon="2.77079">
        <ele>103.8</ele>
        <time>2021-06-13T11:29:49Z</time>
      </trkpt>
      <trkpt lat="48.35329" lon="2.77081">
        <ele>103.7</ele>
        <time>2021-06-13T11:30:00Z</time>
      </trkpt>
      <trkpt lat="48.35329" lon="2.77087">
        <ele>103.6</ele>
        <time>2021-06-13T11:30:07Z</time>
      </trkpt>
      <trkpt lat="48.35329" lon="2.77091">
        <ele>103.6</ele>
        <time>2021-06-13T11:30:13Z</time>
      </trkpt>
      <trkpt lat="48.35329" lon="2.77098">
        <ele>103.6</ele>
        <time>2021-06-13T11:30:19Z</time>
      </trkpt>
      <trkpt lat="48.35325" lon="2.77104">
        <ele>103.2</ele>
        <time>2021-06-13T11:30:26Z</time>
      </trkpt>
      <trkpt lat="48.35328" lon="2.77108">
        <ele>103.5</ele>
        <time>2021-06-13T11:30:33Z</time>
      </trkpt>
      <trkpt lat="48.3533" lon="2.77115">
        <ele>103.7</ele>
        <time>2021-06-13T11:30:39Z</time>
      </trkpt>
      <trkpt lat="48.35332" lon="2.77121">
        <ele>103.8</ele>
        <time>2021-06-13T11:30:46Z</time>
      </trkpt>
      <trkpt lat="48.35336" lon="2.77126">
        <ele>103.7</ele>
        <time>2021-06-13T11:30:52Z</time>
      </trkpt>
      <trkpt lat="48.35334" lon="2.7713">
        <ele>103.9</ele>
        <time>2021-06-13T11:30:57Z</time>
      </trkpt>
      <trkpt lat="48.35335" lon="2.77139">
        <ele>103.8</ele>
        <time>2021-06-13T11:31:03Z</time>
      </trkpt>
      <trkpt lat="48.35336" lon="2.77149">
        <ele>103.7</ele>
        <time>2021-06-13T11:31:10Z</time>
      </trkpt>
      <trkpt lat="48.35339" lon="2.77161">
        <ele>103.4</ele>
        <time>2021-06-13T11:31:16Z</time>
      </trkpt>
      <trkpt lat="48.35337" lon="2.77173">
        <ele>103.3</ele>
        <time>2021-06-13T11:31:23Z</time>
      </trkpt>
      <trkpt lat="48.35336" lon="2.77184">
        <ele>103.1</ele>
        <time>2021-06-13T11:31:30Z</time>
      </trkpt>
      <trkpt lat="48.35341" lon="2.77192">
        <ele>102.4</ele>
        <time>2021-06-13T11:31:38Z</time>
      </trkpt>
      <trkpt lat="48.3534" lon="2.77198">
        <ele>102.3</ele>
        <time>2021-06-13T11:31:44Z</time>
      </trkpt>
      <trkpt lat="48.35336" lon="2.77204">
        <ele>102.4</ele>
        <time>2021-06-13T11:31:50Z</time>
      </trkpt>
      <trkpt lat="48.35334" lon="2.77213">
        <ele>102.3</ele>
        <time>2021-06-13T11:31:55Z</time>
      </trkpt>
      <trkpt lat="48.35339" lon="2.7723">
        <ele>101.4</ele>
        <time>2021-06-13T11:32:03Z</time>
      </trkpt>
      <trkpt lat="48.35337" lon="2.77237">
        <ele>101.3</ele>
        <time>2021-06-13T11:32:11Z</time>
      </trkpt>
      <trkpt lat="48.35332" lon="2.77243">
        <ele>101.1</ele>
        <time>2021-06-13T11:32:18Z</time>
      </trkpt>
      <trkpt lat="48.35328" lon="2.77248">
        <ele>100.6</ele>
        <time>2021-06-13T11:32:22Z</time>
      </trkpt>
      <trkpt lat="48.35315" lon="2.77259">
        <ele>99.4</ele>
        <time>2021-06-13T11:32:29Z</time>
      </trkpt>
      <trkpt lat="48.35308" lon="2.77261">
        <ele>98.9</ele>
        <time>2021-06-13T11:32:35Z</time>
      </trkpt>
      <trkpt lat="48.35303" lon="2.77262">
        <ele>98.5</ele>
        <time>2021-06-13T11:32:39Z</time>
      </trkpt>
      <trkpt lat="48.35299" lon="2.77262">
        <ele>98.2</ele>
        <time>2021-06-13T11:32:43Z</time>
      </trkpt>
      <trkpt lat="48.35295" lon="2.7726">
        <ele>97.8</ele>
        <time>2021-06-13T11:32:49Z</time>
      </trkpt>
      <trkpt lat="48.35285" lon="2.77265">
        <ele>97.1</ele>
        <time>2021-06-13T11:32:57Z</time>
      </trkpt>
      <trkpt lat="48.35283" lon="2.77269">
        <ele>96.9</ele>
        <time>2021-06-13T11:33:02Z</time>
      </trkpt>
      <trkpt lat="48.35275" lon="2.77276">
        <ele>96.4</ele>
        <time>2021-06-13T11:33:09Z</time>
      </trkpt>
      <trkpt lat="48.35273" lon="2.77277">
        <ele>96.2</ele>
        <time>2021-06-13T11:33:11Z</time>
      </trkpt>
      <trkpt lat="48.35267" lon="2.77283">
        <ele>95.7</ele>
        <time>2021-06-13T11:33:18Z</time>
      </trkpt>
      <trkpt lat="48.35266" lon="2.77284">
        <ele>95.7</ele>
        <time>2021-06-13T11:33:19Z</time>
      </trkpt>
      <trkpt lat="48.35255" lon="2.77286">
        <ele>94.8</ele>
        <time>2021-06-13T11:33:26Z</time>
      </trkpt>
      <trkpt lat="48.35244" lon="2.77289">
        <ele>94.7</ele>
        <time>2021-06-13T11:33:33Z</time>
      </trkpt>
      <trkpt lat="48.35236" lon="2.77295">
        <ele>95</ele>
        <time>2021-06-13T11:33:39Z</time>
      </trkpt>
      <trkpt lat="48.35233" lon="2.77303">
        <ele>95.1</ele>
        <time>2021-06-13T11:33:44Z</time>
      </trkpt>
      <trkpt lat="48.35229" lon="2.77307">
        <ele>95.3</ele>
        <time>2021-06-13T11:33:51Z</time>
      </trkpt>
      <trkpt lat="48.35228" lon="2.77312">
        <ele>95.3</ele>
        <time>2021-06-13T11:34:00Z</time>
      </trkpt>
      <trkpt lat="48.35227" lon="2.77315">
        <ele>95.3</ele>
        <time>2021-06-13T11:34:15Z</time>
      </trkpt>
      <trkpt lat="48.35226" lon="2.77318">
        <ele>95.3</ele>
        <time>2021-06-13T11:34:25Z</time>
      </trkpt>
      <trkpt lat="48.3523" lon="2.77321">
        <ele>95.2</ele>
        <time>2021-06-13T11:34:31Z</time>
      </trkpt>
      <trkpt lat="48.3523" lon="2.77323">
        <ele>95.2</ele>
        <time>2021-06-13T11:34:42Z</time>
      </trkpt>
      <trkpt lat="48.35229" lon="2.77322">
        <ele>95.3</ele>
        <time>2021-06-13T11:34:55Z</time>
      </trkpt>
      <trkpt lat="48.35228" lon="2.77326">
        <ele>95.3</ele>
        <time>2021-06-13T11:35:03Z</time>
      </trkpt>
      <trkpt lat="48.35229" lon="2.77329">
        <ele>95.3</ele>
        <time>2021-06-13T11:35:17Z</time>
      </trkpt>
      <trkpt lat="48.35228" lon="2.77332">
        <ele>95.3</ele>
        <time>2021-06-13T11:35:29Z</time>
      </trkpt>
      <trkpt lat="48.35229" lon="2.77333">
        <ele>95.3</ele>
        <time>2021-06-13T11:35:41Z</time>
      </trkpt>
      <trkpt lat="48.35228" lon="2.77331">
        <ele>95.3</ele>
        <time>2021-06-13T11:35:49Z</time>
      </trkpt>
      <trkpt lat="48.35228" lon="2.77327">
        <ele>95.3</ele>
        <time>2021-06-13T11:35:56Z</time>
      </trkpt>
      <trkpt lat="48.35227" lon="2.77324">
        <ele>95.3</ele>
        <time>2021-06-13T11:36:12Z</time>
      </trkpt>
      <trkpt lat="48.35227" lon="2.77323">
        <ele>95.3</ele>
        <time>2021-06-13T11:36:26Z</time>
      </trkpt>
      <trkpt lat="48.35225" lon="2.77324">
        <ele>95.3</ele>
        <time>2021-06-13T11:36:34Z</time>
      </trkpt>
      <trkpt lat="48.35225" lon="2.77329">
        <ele>95.3</ele>
        <time>2021-06-13T11:36:42Z</time>
      </trkpt>
      <trkpt lat="48.35222" lon="2.77338">
        <ele>95.3</ele>
        <time>2021-06-13T11:36:49Z</time>
      </trkpt>
      <trkpt lat="48.3522" lon="2.77346">
        <ele>95.3</ele>
        <time>2021-06-13T11:36:55Z</time>
      </trkpt>
      <trkpt lat="48.35218" lon="2.77351">
        <ele>95.3</ele>
        <time>2021-06-13T11:37:01Z</time>
      </trkpt>
      <trkpt lat="48.35216" lon="2.77359">
        <ele>95.3</ele>
        <time>2021-06-13T11:37:08Z</time>
      </trkpt>
      <trkpt lat="48.35216" lon="2.77363">
        <ele>95.3</ele>
        <time>2021-06-13T11:37:10Z</time>
      </trkpt>
      <trkpt lat="48.35214" lon="2.77366">
        <ele>95.3</ele>
        <time>2021-06-13T11:37:13Z</time>
      </trkpt>
      <trkpt lat="48.3521" lon="2.77374">
        <ele>95.3</ele>
        <time>2021-06-13T11:37:21Z</time>
      </trkpt>
      <trkpt lat="48.35209" lon="2.77375">
        <ele>95.2</ele>
        <time>2021-06-13T11:37:22Z</time>
      </trkpt>
      <trkpt lat="48.3521" lon="2.77385">
        <ele>95.2</ele>
        <time>2021-06-13T11:37:25Z</time>
      </trkpt>
      <trkpt lat="48.3521" lon="2.7739">
        <ele>95.2</ele>
        <time>2021-06-13T11:37:31Z</time>
      </trkpt>
      <trkpt lat="48.3521" lon="2.7739">
        <ele>95.2</ele>
        <time>2021-06-13T11:37:32Z</time>
      </trkpt>
      <trkpt lat="48.3521" lon="2.77395">
        <ele>95.1</ele>
        <time>2021-06-13T11:37:35Z</time>
      </trkpt>
      <trkpt lat="48.35206" lon="2.77402">
        <ele>95.1</ele>
        <time>2021-06-13T11:37:39Z</time>
      </trkpt>
      <trkpt lat="48.35204" lon="2.77403">
        <ele>95.1</ele>
        <time>2021-06-13T11:37:41Z</time>
      </trkpt>
      <trkpt lat="48.35197" lon="2.77414">
        <ele>95</ele>
        <time>2021-06-13T11:37:49Z</time>
      </trkpt>
      <trkpt lat="48.35197" lon="2.77415">
        <ele>95</ele>
        <time>2021-06-13T11:37:50Z</time>
      </trkpt>
      <trkpt lat="48.35193" lon="2.77425">
        <ele>95</ele>
        <time>2021-06-13T11:37:54Z</time>
      </trkpt>
      <trkpt lat="48.35198" lon="2.77445">
        <ele>95.1</ele>
        <time>2021-06-13T11:38:01Z</time>
      </trkpt>
      <trkpt lat="48.35195" lon="2.77457">
        <ele>95.2</ele>
        <time>2021-06-13T11:38:09Z</time>
      </trkpt>
      <trkpt lat="48.35193" lon="2.7746">
        <ele>95.2</ele>
        <time>2021-06-13T11:38:12Z</time>
      </trkpt>
      <trkpt lat="48.35194" lon="2.77467">
        <ele>95.2</ele>
        <time>2021-06-13T11:38:15Z</time>
      </trkpt>
      <trkpt lat="48.35198" lon="2.77487">
        <ele>95.3</ele>
        <time>2021-06-13T11:38:22Z</time>
      </trkpt>
      <trkpt lat="48.35195" lon="2.77496">
        <ele>95.3</ele>
        <time>2021-06-13T11:38:28Z</time>
      </trkpt>
      <trkpt lat="48.35195" lon="2.77511">
        <ele>95.7</ele>
        <time>2021-06-13T11:38:36Z</time>
      </trkpt>
      <trkpt lat="48.35194" lon="2.77519">
        <ele>95.9</ele>
        <time>2021-06-13T11:38:41Z</time>
      </trkpt>
      <trkpt lat="48.3519" lon="2.77522">
        <ele>96</ele>
        <time>2021-06-13T11:38:45Z</time>
      </trkpt>
      <trkpt lat="48.35185" lon="2.77532">
        <ele>96.2</ele>
        <time>2021-06-13T11:38:53Z</time>
      </trkpt>
      <trkpt lat="48.35185" lon="2.77541">
        <ele>96.4</ele>
        <time>2021-06-13T11:38:58Z</time>
      </trkpt>
      <trkpt lat="48.35184" lon="2.77546">
        <ele>96.5</ele>
        <time>2021-06-13T11:39:01Z</time>
      </trkpt>
      <trkpt lat="48.35185" lon="2.7755">
        <ele>96.7</ele>
        <time>2021-06-13T11:39:03Z</time>
      </trkpt>
      <trkpt lat="48.35184" lon="2.77564">
        <ele>97.1</ele>
        <time>2021-06-13T11:39:11Z</time>
      </trkpt>
      <trkpt lat="48.3518" lon="2.7757">
        <ele>97.1</ele>
        <time>2021-06-13T11:39:18Z</time>
      </trkpt>
      <trkpt lat="48.35181" lon="2.77575">
        <ele>97.3</ele>
        <time>2021-06-13T11:39:20Z</time>
      </trkpt>
      <trkpt lat="48.35178" lon="2.77587">
        <ele>97.5</ele>
        <time>2021-06-13T11:39:27Z</time>
      </trkpt>
      <trkpt lat="48.3518" lon="2.77613">
        <ele>98.2</ele>
        <time>2021-06-13T11:39:35Z</time>
      </trkpt>
      <trkpt lat="48.35181" lon="2.77622">
        <ele>98.5</ele>
        <time>2021-06-13T11:39:38Z</time>
      </trkpt>
      <trkpt lat="48.35178" lon="2.77627">
        <ele>98.5</ele>
        <time>2021-06-13T11:39:44Z</time>
      </trkpt>
      <trkpt lat="48.35178" lon="2.77637">
        <ele>98.7</ele>
        <time>2021-06-13T11:39:49Z</time>
      </trkpt>
      <trkpt lat="48.35176" lon="2.77639">
        <ele>98.7</ele>
        <time>2021-06-13T11:39:51Z</time>
      </trkpt>
      <trkpt lat="48.35175" lon="2.77645">
        <ele>98.8</ele>
        <time>2021-06-13T11:39:56Z</time>
      </trkpt>
      <trkpt lat="48.35182" lon="2.77674">
        <ele>99.6</ele>
        <time>2021-06-13T11:40:04Z</time>
      </trkpt>
      <trkpt lat="48.3518" lon="2.7768">
        <ele>99.6</ele>
        <time>2021-06-13T11:40:09Z</time>
      </trkpt>
      <trkpt lat="48.35179" lon="2.77688">
        <ele>99.6</ele>
        <time>2021-06-13T11:40:14Z</time>
      </trkpt>
      <trkpt lat="48.35173" lon="2.77693">
        <ele>99.5</ele>
        <time>2021-06-13T11:40:21Z</time>
      </trkpt>
      <trkpt lat="48.3517" lon="2.77698">
        <ele>99.5</ele>
        <time>2021-06-13T11:40:26Z</time>
      </trkpt>
      <trkpt lat="48.3518" lon="2.77725">
        <ele>100.1</ele>
        <time>2021-06-13T11:40:34Z</time>
      </trkpt>
      <trkpt lat="48.35178" lon="2.77728">
        <ele>100.1</ele>
        <time>2021-06-13T11:40:36Z</time>
      </trkpt>
      <trkpt lat="48.35176" lon="2.77735">
        <ele>100</ele>
        <time>2021-06-13T11:40:40Z</time>
      </trkpt>
      <trkpt lat="48.3518" lon="2.77745">
        <ele>100.3</ele>
        <time>2021-06-13T11:40:44Z</time>
      </trkpt>
      <trkpt lat="48.3518" lon="2.77753">
        <ele>100.3</ele>
        <time>2021-06-13T11:40:48Z</time>
      </trkpt>
      <trkpt lat="48.35176" lon="2.7776">
        <ele>100.1</ele>
        <time>2021-06-13T11:40:52Z</time>
      </trkpt>
      <trkpt lat="48.35174" lon="2.77762">
        <ele>100</ele>
        <time>2021-06-13T11:40:54Z</time>
      </trkpt>
      <trkpt lat="48.35171" lon="2.77765">
        <ele>99.9</ele>
        <time>2021-06-13T11:40:57Z</time>
      </trkpt>
      <trkpt lat="48.35177" lon="2.77779">
        <ele>99.9</ele>
        <time>2021-06-13T11:40:59Z</time>
      </trkpt>
      <trkpt lat="48.35178" lon="2.77798">
        <ele>99.7</ele>
        <time>2021-06-13T11:41:07Z</time>
      </trkpt>
      <trkpt lat="48.35177" lon="2.778">
        <ele>99.6</ele>
        <time>2021-06-13T11:41:09Z</time>
      </trkpt>
      <trkpt lat="48.35176" lon="2.77802">
        <ele>99.6</ele>
        <time>2021-06-13T11:41:11Z</time>
      </trkpt>
      <trkpt lat="48.35175" lon="2.7781">
        <ele>99.5</ele>
        <time>2021-06-13T11:41:15Z</time>
      </trkpt>
      <trkpt lat="48.35169" lon="2.77825">
        <ele>99.2</ele>
        <time>2021-06-13T11:41:24Z</time>
      </trkpt>
      <trkpt lat="48.35177" lon="2.77854">
        <ele>99.2</ele>
        <time>2021-06-13T11:41:32Z</time>
      </trkpt>
      <trkpt lat="48.35176" lon="2.77857">
        <ele>99.2</ele>
        <time>2021-06-13T11:41:34Z</time>
      </trkpt>
      <trkpt lat="48.35177" lon="2.77865">
        <ele>99.3</ele>
        <time>2021-06-13T11:41:37Z</time>
      </trkpt>
      <trkpt lat="48.35175" lon="2.77869">
        <ele>99.2</ele>
        <time>2021-06-13T11:41:40Z</time>
      </trkpt>
      <trkpt lat="48.35182" lon="2.77895">
        <ele>99.4</ele>
        <time>2021-06-13T11:41:47Z</time>
      </trkpt>
      <trkpt lat="48.35183" lon="2.77904">
        <ele>99.4</ele>
        <time>2021-06-13T11:41:52Z</time>
      </trkpt>
      <trkpt lat="48.35183" lon="2.77906">
        <ele>99.4</ele>
        <time>2021-06-13T11:41:54Z</time>
      </trkpt>
      <trkpt lat="48.35183" lon="2.77909">
        <ele>99.4</ele>
        <time>2021-06-13T11:41:56Z</time>
      </trkpt>
      <trkpt lat="48.35178" lon="2.77917">
        <ele>99.3</ele>
        <time>2021-06-13T11:42:03Z</time>
      </trkpt>
      <trkpt lat="48.35177" lon="2.7792">
        <ele>99.2</ele>
        <time>2021-06-13T11:42:05Z</time>
      </trkpt>
      <trkpt lat="48.35173" lon="2.77926">
        <ele>99.1</ele>
        <time>2021-06-13T11:42:11Z</time>
      </trkpt>
      <trkpt lat="48.35171" lon="2.77929">
        <ele>99</ele>
        <time>2021-06-13T11:42:13Z</time>
      </trkpt>
      <trkpt lat="48.35167" lon="2.77937">
        <ele>98.8</ele>
        <time>2021-06-13T11:42:20Z</time>
      </trkpt>
      <trkpt lat="48.35166" lon="2.77939">
        <ele>98.7</ele>
        <time>2021-06-13T11:42:22Z</time>
      </trkpt>
      <trkpt lat="48.35162" lon="2.77951">
        <ele>98.4</ele>
        <time>2021-06-13T11:42:30Z</time>
      </trkpt>
      <trkpt lat="48.35161" lon="2.77965">
        <ele>98.2</ele>
        <time>2021-06-13T11:42:36Z</time>
      </trkpt>
      <trkpt lat="48.35161" lon="2.77976">
        <ele>98.1</ele>
        <time>2021-06-13T11:42:41Z</time>
      </trkpt>
      <trkpt lat="48.35161" lon="2.77986">
        <ele>98</ele>
        <time>2021-06-13T11:42:45Z</time>
      </trkpt>
      <trkpt lat="48.35155" lon="2.77998">
        <ele>97.6</ele>
        <time>2021-06-13T11:42:53Z</time>
      </trkpt>
      <trkpt lat="48.35154" lon="2.78">
        <ele>97.5</ele>
        <time>2021-06-13T11:42:55Z</time>
      </trkpt>
      <trkpt lat="48.35145" lon="2.78008">
        <ele>97</ele>
        <time>2021-06-13T11:43:03Z</time>
      </trkpt>
      <trkpt lat="48.35144" lon="2.78011">
        <ele>96.8</ele>
        <time>2021-06-13T11:43:05Z</time>
      </trkpt>
      <trkpt lat="48.35143" lon="2.78016">
        <ele>96.6</ele>
        <time>2021-06-13T11:43:08Z</time>
      </trkpt>
      <trkpt lat="48.35142" lon="2.78019">
        <ele>96.5</ele>
        <time>2021-06-13T11:43:10Z</time>
      </trkpt>
      <trkpt lat="48.35142" lon="2.78021">
        <ele>96.4</ele>
        <time>2021-06-13T11:43:11Z</time>
      </trkpt>
      <trkpt lat="48.35141" lon="2.78026">
        <ele>96.2</ele>
        <time>2021-06-13T11:43:13Z</time>
      </trkpt>
      <trkpt lat="48.35143" lon="2.78038">
        <ele>95.9</ele>
        <time>2021-06-13T11:43:17Z</time>
      </trkpt>
      <trkpt lat="48.35156" lon="2.78063">
        <ele>95.4</ele>
        <time>2021-06-13T11:43:25Z</time>
      </trkpt>
      <trkpt lat="48.35176" lon="2.78096">
        <ele>95.5</ele>
        <time>2021-06-13T11:43:37Z</time>
      </trkpt>
      <trkpt lat="48.35175" lon="2.78098">
        <ele>95.4</ele>
        <time>2021-06-13T11:43:39Z</time>
      </trkpt>
      <trkpt lat="48.35168" lon="2.78101">
        <ele>94.9</ele>
        <time>2021-06-13T11:43:44Z</time>
      </trkpt>
      <trkpt lat="48.35166" lon="2.78111">
        <ele>94.6</ele>
        <time>2021-06-13T11:43:49Z</time>
      </trkpt>
      <trkpt lat="48.35164" lon="2.78121">
        <ele>94.4</ele>
        <time>2021-06-13T11:43:57Z</time>
      </trkpt>
      <trkpt lat="48.3516" lon="2.78125">
        <ele>94.1</ele>
        <time>2021-06-13T11:44:03Z</time>
      </trkpt>
      <trkpt lat="48.35159" lon="2.78126">
        <ele>94</ele>
        <time>2021-06-13T11:44:05Z</time>
      </trkpt>
      <trkpt lat="48.35156" lon="2.78137">
        <ele>93.6</ele>
        <time>2021-06-13T11:44:13Z</time>
      </trkpt>
      <trkpt lat="48.35155" lon="2.78141">
        <ele>93.4</ele>
        <time>2021-06-13T11:44:17Z</time>
      </trkpt>
      <trkpt lat="48.35154" lon="2.78145">
        <ele>93.3</ele>
        <time>2021-06-13T11:44:21Z</time>
      </trkpt>
      <trkpt lat="48.35155" lon="2.78151">
        <ele>93.3</ele>
        <time>2021-06-13T11:44:24Z</time>
      </trkpt>
      <trkpt lat="48.35154" lon="2.7816">
        <ele>92.9</ele>
        <time>2021-06-13T11:44:29Z</time>
      </trkpt>
      <trkpt lat="48.35148" lon="2.78168">
        <ele>92.1</ele>
        <time>2021-06-13T11:44:37Z</time>
      </trkpt>
      <trkpt lat="48.35151" lon="2.78181">
        <ele>91.7</ele>
        <time>2021-06-13T11:44:49Z</time>
      </trkpt>
      <trkpt lat="48.35151" lon="2.78186">
        <ele>91.5</ele>
        <time>2021-06-13T11:44:57Z</time>
      </trkpt>
      <trkpt lat="48.3515" lon="2.78191">
        <ele>91</ele>
        <time>2021-06-13T11:45:15Z</time>
      </trkpt>
      <trkpt lat="48.3515" lon="2.78195">
        <ele>90.9</ele>
        <time>2021-06-13T11:45:21Z</time>
      </trkpt>
      <trkpt lat="48.3515" lon="2.78199">
        <ele>90.6</ele>
        <time>2021-06-13T11:45:25Z</time>
      </trkpt>
      <trkpt lat="48.35149" lon="2.78204">
        <ele>90.3</ele>
        <time>2021-06-13T11:45:31Z</time>
      </trkpt>
      <trkpt lat="48.35148" lon="2.78209">
        <ele>89.9</ele>
        <time>2021-06-13T11:45:37Z</time>
      </trkpt>
      <trkpt lat="48.35148" lon="2.78214">
        <ele>89.6</ele>
        <time>2021-06-13T11:45:44Z</time>
      </trkpt>
      <trkpt lat="48.35149" lon="2.78219">
        <ele>89.4</ele>
        <time>2021-06-13T11:45:49Z</time>
      </trkpt>
      <trkpt lat="48.3515" lon="2.78225">
        <ele>89.2</ele>
        <time>2021-06-13T11:45:55Z</time>
      </trkpt>
      <trkpt lat="48.35151" lon="2.78234">
        <ele>88.8</ele>
        <time>2021-06-13T11:46:02Z</time>
      </trkpt>
      <trkpt lat="48.35153" lon="2.78242">
        <ele>88.5</ele>
        <time>2021-06-13T11:46:09Z</time>
      </trkpt>
      <trkpt lat="48.35154" lon="2.78248">
        <ele>88.2</ele>
        <time>2021-06-13T11:46:15Z</time>
      </trkpt>
      <trkpt lat="48.35154" lon="2.78252">
        <ele>88</ele>
        <time>2021-06-13T11:46:21Z</time>
      </trkpt>
      <trkpt lat="48.35155" lon="2.78256">
        <ele>87.9</ele>
        <time>2021-06-13T11:46:25Z</time>
      </trkpt>
      <trkpt lat="48.35157" lon="2.78265">
        <ele>87.7</ele>
        <time>2021-06-13T11:46:30Z</time>
      </trkpt>
      <trkpt lat="48.35162" lon="2.78276">
        <ele>87.5</ele>
        <time>2021-06-13T11:46:37Z</time>
      </trkpt>
      <trkpt lat="48.35168" lon="2.78284">
        <ele>87.4</ele>
        <time>2021-06-13T11:46:43Z</time>
      </trkpt>
      <trkpt lat="48.35172" lon="2.78293">
        <ele>87.3</ele>
        <time>2021-06-13T11:46:51Z</time>
      </trkpt>
      <trkpt lat="48.35173" lon="2.78294">
        <ele>87.3</ele>
        <time>2021-06-13T11:46:52Z</time>
      </trkpt>
      <trkpt lat="48.35175" lon="2.78297">
        <ele>87.3</ele>
        <time>2021-06-13T11:46:53Z</time>
      </trkpt>
      <trkpt lat="48.35177" lon="2.78301">
        <ele>87.2</ele>
        <time>2021-06-13T11:46:55Z</time>
      </trkpt>
      <trkpt lat="48.35185" lon="2.78317">
        <ele>87</ele>
        <time>2021-06-13T11:47:01Z</time>
      </trkpt>
      <trkpt lat="48.3519" lon="2.78326">
        <ele>87</ele>
        <time>2021-06-13T11:47:07Z</time>
      </trkpt>
      <trkpt lat="48.35192" lon="2.7833">
        <ele>87</ele>
        <time>2021-06-13T11:47:09Z</time>
      </trkpt>
      <trkpt lat="48.35198" lon="2.78345">
        <ele>87</ele>
        <time>2021-06-13T11:47:16Z</time>
      </trkpt>
      <trkpt lat="48.352" lon="2.78351">
        <ele>87</ele>
        <time>2021-06-13T11:47:21Z</time>
      </trkpt>
      <trkpt lat="48.35205" lon="2.78355">
        <ele>87.2</ele>
        <time>2021-06-13T11:47:28Z</time>
      </trkpt>
      <trkpt lat="48.35206" lon="2.78357">
        <ele>87.3</ele>
        <time>2021-06-13T11:47:29Z</time>
      </trkpt>
      <trkpt lat="48.3521" lon="2.78363">
        <ele>87.4</ele>
        <time>2021-06-13T11:47:35Z</time>
      </trkpt>
      <trkpt lat="48.35218" lon="2.78375">
        <ele>87.7</ele>
        <time>2021-06-13T11:47:42Z</time>
      </trkpt>
      <trkpt lat="48.35223" lon="2.78382">
        <ele>87.9</ele>
        <time>2021-06-13T11:47:47Z</time>
      </trkpt>
      <trkpt lat="48.35228" lon="2.78393">
        <ele>88</ele>
        <time>2021-06-13T11:47:50Z</time>
      </trkpt>
      <trkpt lat="48.35234" lon="2.78405">
        <ele>88.1</ele>
        <time>2021-06-13T11:47:56Z</time>
      </trkpt>
      <trkpt lat="48.35236" lon="2.78408">
        <ele>88.2</ele>
        <time>2021-06-13T11:48:00Z</time>
      </trkpt>
      <trkpt lat="48.35241" lon="2.78418">
        <ele>88.3</ele>
        <time>2021-06-13T11:48:06Z</time>
      </trkpt>
      <trkpt lat="48.35243" lon="2.78421">
        <ele>88.3</ele>
        <time>2021-06-13T11:48:11Z</time>
      </trkpt>
      <trkpt lat="48.35243" lon="2.78423">
        <ele>88.2</ele>
        <time>2021-06-13T11:48:12Z</time>
      </trkpt>
      <trkpt lat="48.35249" lon="2.78436">
        <ele>88</ele>
        <time>2021-06-13T11:48:18Z</time>
      </trkpt>
      <trkpt lat="48.35253" lon="2.78446">
        <ele>87.7</ele>
        <time>2021-06-13T11:48:22Z</time>
      </trkpt>
      <trkpt lat="48.35255" lon="2.78451">
        <ele>87.5</ele>
        <time>2021-06-13T11:48:25Z</time>
      </trkpt>
      <trkpt lat="48.35258" lon="2.78455">
        <ele>87.4</ele>
        <time>2021-06-13T11:48:28Z</time>
      </trkpt>
      <trkpt lat="48.3526" lon="2.78461">
        <ele>87.2</ele>
        <time>2021-06-13T11:48:33Z</time>
      </trkpt>
      <trkpt lat="48.35263" lon="2.78465">
        <ele>87.1</ele>
        <time>2021-06-13T11:48:36Z</time>
      </trkpt>
      <trkpt lat="48.35268" lon="2.78474">
        <ele>86.9</ele>
        <time>2021-06-13T11:48:41Z</time>
      </trkpt>
      <trkpt lat="48.35271" lon="2.78483">
        <ele>86.7</ele>
        <time>2021-06-13T11:48:45Z</time>
      </trkpt>
      <trkpt lat="48.35275" lon="2.78494">
        <ele>86.4</ele>
        <time>2021-06-13T11:48:51Z</time>
      </trkpt>
      <trkpt lat="48.35276" lon="2.78496">
        <ele>86.4</ele>
        <time>2021-06-13T11:48:55Z</time>
      </trkpt>
      <trkpt lat="48.35278" lon="2.78498">
        <ele>86.4</ele>
        <time>2021-06-13T11:49:01Z</time>
      </trkpt>
      <trkpt lat="48.35279" lon="2.78499">
        <ele>86.4</ele>
        <time>2021-06-13T11:49:13Z</time>
      </trkpt>
      <trkpt lat="48.35279" lon="2.78499">
        <ele>86.4</ele>
        <time>2021-06-13T11:49:19Z</time>
      </trkpt>
      <trkpt lat="48.35279" lon="2.78498">
        <ele>86.4</ele>
        <time>2021-06-13T11:49:20Z</time>
      </trkpt>
      <trkpt lat="48.35282" lon="2.78505">
        <ele>86.4</ele>
        <time>2021-06-13T11:49:27Z</time>
      </trkpt>
      <trkpt lat="48.35285" lon="2.7851">
        <ele>86.5</ele>
        <time>2021-06-13T11:49:33Z</time>
      </trkpt>
      <trkpt lat="48.35292" lon="2.78524">
        <ele>86.6</ele>
        <time>2021-06-13T11:49:40Z</time>
      </trkpt>
      <trkpt lat="48.35304" lon="2.78549">
        <ele>86.8</ele>
        <time>2021-06-13T11:49:46Z</time>
      </trkpt>
      <trkpt lat="48.35308" lon="2.78552">
        <ele>86.9</ele>
        <time>2021-06-13T11:49:48Z</time>
      </trkpt>
      <trkpt lat="48.35311" lon="2.78555">
        <ele>87.1</ele>
        <time>2021-06-13T11:49:50Z</time>
      </trkpt>
      <trkpt lat="48.35322" lon="2.7857">
        <ele>87.5</ele>
        <time>2021-06-13T11:49:56Z</time>
      </trkpt>
      <trkpt lat="48.35326" lon="2.78575">
        <ele>87.7</ele>
        <time>2021-06-13T11:50:00Z</time>
      </trkpt>
      <trkpt lat="48.3533" lon="2.78578">
        <ele>87.8</ele>
        <time>2021-06-13T11:50:02Z</time>
      </trkpt>
      <trkpt lat="48.35338" lon="2.78585">
        <ele>88.2</ele>
        <time>2021-06-13T11:50:06Z</time>
      </trkpt>
      <trkpt lat="48.35343" lon="2.78587">
        <ele>88.4</ele>
        <time>2021-06-13T11:50:10Z</time>
      </trkpt>
      <trkpt lat="48.35352" lon="2.78598">
        <ele>88.6</ele>
        <time>2021-06-13T11:50:15Z</time>
      </trkpt>
      <trkpt lat="48.35354" lon="2.78603">
        <ele>88.5</ele>
        <time>2021-06-13T11:50:22Z</time>
      </trkpt>
      <trkpt lat="48.35357" lon="2.78608">
        <ele>88.5</ele>
        <time>2021-06-13T11:50:28Z</time>
      </trkpt>
      <trkpt lat="48.35359" lon="2.78613">
        <ele>88.5</ele>
        <time>2021-06-13T11:50:32Z</time>
      </trkpt>
      <trkpt lat="48.35364" lon="2.78624">
        <ele>88.4</ele>
        <time>2021-06-13T11:50:38Z</time>
      </trkpt>
      <trkpt lat="48.35365" lon="2.78628">
        <ele>88.3</ele>
        <time>2021-06-13T11:50:40Z</time>
      </trkpt>
      <trkpt lat="48.35373" lon="2.78644">
        <ele>88.2</ele>
        <time>2021-06-13T11:50:48Z</time>
      </trkpt>
      <trkpt lat="48.35375" lon="2.78647">
        <ele>88.2</ele>
        <time>2021-06-13T11:50:50Z</time>
      </trkpt>
      <trkpt lat="48.35379" lon="2.78651">
        <ele>88.3</ele>
        <time>2021-06-13T11:50:56Z</time>
      </trkpt>
      <trkpt lat="48.3538" lon="2.78655">
        <ele>88.2</ele>
        <time>2021-06-13T11:50:58Z</time>
      </trkpt>
      <trkpt lat="48.35383" lon="2.78663">
        <ele>88.1</ele>
        <time>2021-06-13T11:51:03Z</time>
      </trkpt>
      <trkpt lat="48.35392" lon="2.78679">
        <ele>88.1</ele>
        <time>2021-06-13T11:51:11Z</time>
      </trkpt>
      <trkpt lat="48.35393" lon="2.78682">
        <ele>88.1</ele>
        <time>2021-06-13T11:51:12Z</time>
      </trkpt>
      <trkpt lat="48.35399" lon="2.78694">
        <ele>87.9</ele>
        <time>2021-06-13T11:51:18Z</time>
      </trkpt>
      <trkpt lat="48.35402" lon="2.78702">
        <ele>87.7</ele>
        <time>2021-06-13T11:51:21Z</time>
      </trkpt>
      <trkpt lat="48.35408" lon="2.78715">
        <ele>87.4</ele>
        <time>2021-06-13T11:51:28Z</time>
      </trkpt>
      <trkpt lat="48.3541" lon="2.78718">
        <ele>87.3</ele>
        <time>2021-06-13T11:51:30Z</time>
      </trkpt>
      <trkpt lat="48.35415" lon="2.78727">
        <ele>87.1</ele>
        <time>2021-06-13T11:51:36Z</time>
      </trkpt>
      <trkpt lat="48.35421" lon="2.7874">
        <ele>86.9</ele>
        <time>2021-06-13T11:51:43Z</time>
      </trkpt>
      <trkpt lat="48.35424" lon="2.78745">
        <ele>86.8</ele>
        <time>2021-06-13T11:51:49Z</time>
      </trkpt>
      <trkpt lat="48.35425" lon="2.78747">
        <ele>86.8</ele>
        <time>2021-06-13T11:51:51Z</time>
      </trkpt>
      <trkpt lat="48.35429" lon="2.7876">
        <ele>86.5</ele>
        <time>2021-06-13T11:51:59Z</time>
      </trkpt>
      <trkpt lat="48.35431" lon="2.78764">
        <ele>86.5</ele>
        <time>2021-06-13T11:52:01Z</time>
      </trkpt>
      <trkpt lat="48.35438" lon="2.78776">
        <ele>86.4</ele>
        <time>2021-06-13T11:52:09Z</time>
      </trkpt>
      <trkpt lat="48.35442" lon="2.78783">
        <ele>86.4</ele>
        <time>2021-06-13T11:52:12Z</time>
      </trkpt>
      <trkpt lat="48.3545" lon="2.78798">
        <ele>86.3</ele>
        <time>2021-06-13T11:52:21Z</time>
      </trkpt>
      <trkpt lat="48.35458" lon="2.78815">
        <ele>86</ele>
        <time>2021-06-13T11:52:28Z</time>
      </trkpt>
      <trkpt lat="48.35459" lon="2.78819">
        <ele>85.8</ele>
        <time>2021-06-13T11:52:37Z</time>
      </trkpt>
      <trkpt lat="48.35459" lon="2.78821">
        <ele>85.7</ele>
        <time>2021-06-13T11:52:44Z</time>
      </trkpt>
      <trkpt lat="48.3546" lon="2.78823">
        <ele>85.7</ele>
        <time>2021-06-13T11:52:51Z</time>
      </trkpt>
      <trkpt lat="48.3546" lon="2.78825">
        <ele>85.6</ele>
        <time>2021-06-13T11:53:05Z</time>
      </trkpt>
      <trkpt lat="48.3546" lon="2.78825">
        <ele>85.6</ele>
        <time>2021-06-13T11:53:11Z</time>
      </trkpt>
      <trkpt lat="48.3546" lon="2.78825">
        <ele>85.6</ele>
        <time>2021-06-13T11:53:20Z</time>
      </trkpt>
      <trkpt lat="48.3546" lon="2.78825">
        <ele>85.5</ele>
        <time>2021-06-13T11:53:34Z</time>
      </trkpt>
      <trkpt lat="48.3546" lon="2.78826">
        <ele>85.5</ele>
        <time>2021-06-13T11:53:46Z</time>
      </trkpt>
      <trkpt lat="48.3546" lon="2.78826">
        <ele>85.5</ele>
        <time>2021-06-13T11:53:58Z</time>
      </trkpt>
      <trkpt lat="48.3546" lon="2.78825">
        <ele>85.6</ele>
        <time>2021-06-13T11:54:11Z</time>
      </trkpt>
      <trkpt lat="48.3546" lon="2.78824">
        <ele>85.6</ele>
        <time>2021-06-13T11:54:18Z</time>
      </trkpt>
      <trkpt lat="48.35461" lon="2.78825">
        <ele>85.6</ele>
        <time>2021-06-13T11:54:31Z</time>
      </trkpt>
      <trkpt lat="48.35461" lon="2.78825">
        <ele>85.6</ele>
        <time>2021-06-13T11:54:46Z</time>
      </trkpt>
      <trkpt lat="48.35461" lon="2.78825">
        <ele>85.6</ele>
        <time>2021-06-13T11:55:00Z</time>
      </trkpt>
      <trkpt lat="48.35461" lon="2.78826">
        <ele>85.6</ele>
        <time>2021-06-13T11:55:13Z</time>
      </trkpt>
      <trkpt lat="48.35461" lon="2.78825">
        <ele>85.7</ele>
        <time>2021-06-13T11:55:28Z</time>
      </trkpt>
      <trkpt lat="48.35462" lon="2.78824">
        <ele>85.8</ele>
        <time>2021-06-13T11:55:44Z</time>
      </trkpt>
      <trkpt lat="48.35462" lon="2.78825">
        <ele>85.8</ele>
        <time>2021-06-13T11:55:58Z</time>
      </trkpt>
      <trkpt lat="48.35463" lon="2.78824">
        <ele>85.9</ele>
        <time>2021-06-13T11:56:06Z</time>
      </trkpt>
      <trkpt lat="48.35463" lon="2.78823">
        <ele>85.9</ele>
        <time>2021-06-13T11:56:11Z</time>
      </trkpt>
      <trkpt lat="48.35463" lon="2.78823">
        <ele>85.9</ele>
        <time>2021-06-13T11:56:21Z</time>
      </trkpt>
      <trkpt lat="48.35464" lon="2.78826">
        <ele>85.8</ele>
        <time>2021-06-13T11:56:27Z</time>
      </trkpt>
      <trkpt lat="48.35465" lon="2.78829">
        <ele>85.8</ele>
        <time>2021-06-13T11:56:34Z</time>
      </trkpt>
      <trkpt lat="48.35467" lon="2.78832">
        <ele>85.7</ele>
        <time>2021-06-13T11:56:38Z</time>
      </trkpt>
      <trkpt lat="48.35472" lon="2.78844">
        <ele>85.6</ele>
        <time>2021-06-13T11:56:46Z</time>
      </trkpt>
      <trkpt lat="48.35476" lon="2.78853">
        <ele>85.5</ele>
        <time>2021-06-13T11:56:53Z</time>
      </trkpt>
      <trkpt lat="48.3548" lon="2.78861">
        <ele>85.4</ele>
        <time>2021-06-13T11:56:59Z</time>
      </trkpt>
      <trkpt lat="48.35484" lon="2.78871">
        <ele>85.2</ele>
        <time>2021-06-13T11:57:06Z</time>
      </trkpt>
      <trkpt lat="48.35486" lon="2.78875">
        <ele>85.2</ele>
        <time>2021-06-13T11:57:08Z</time>
      </trkpt>
      <trkpt lat="48.35492" lon="2.78886">
        <ele>85</ele>
        <time>2021-06-13T11:57:13Z</time>
      </trkpt>
      <trkpt lat="48.35494" lon="2.78889">
        <ele>85</ele>
        <time>2021-06-13T11:57:15Z</time>
      </trkpt>
      <trkpt lat="48.35498" lon="2.78899">
        <ele>84.8</ele>
        <time>2021-06-13T11:57:23Z</time>
      </trkpt>
      <trkpt lat="48.35504" lon="2.78911">
        <ele>84.6</ele>
        <time>2021-06-13T11:57:31Z</time>
      </trkpt>
      <trkpt lat="48.35505" lon="2.78913">
        <ele>84.6</ele>
        <time>2021-06-13T11:57:32Z</time>
      </trkpt>
      <trkpt lat="48.35507" lon="2.78916">
        <ele>84.6</ele>
        <time>2021-06-13T11:57:34Z</time>
      </trkpt>
      <trkpt lat="48.35511" lon="2.78927">
        <ele>84.4</ele>
        <time>2021-06-13T11:57:41Z</time>
      </trkpt>
      <trkpt lat="48.35516" lon="2.78936">
        <ele>84.4</ele>
        <time>2021-06-13T11:57:47Z</time>
      </trkpt>
      <trkpt lat="48.35516" lon="2.78938">
        <ele>84.4</ele>
        <time>2021-06-13T11:57:48Z</time>
      </trkpt>
      <trkpt lat="48.35522" lon="2.78948">
        <ele>84.3</ele>
        <time>2021-06-13T11:57:55Z</time>
      </trkpt>
      <trkpt lat="48.35527" lon="2.78959">
        <ele>84.2</ele>
        <time>2021-06-13T11:58:02Z</time>
      </trkpt>
      <trkpt lat="48.35531" lon="2.78971">
        <ele>84</ele>
        <time>2021-06-13T11:58:09Z</time>
      </trkpt>
      <trkpt lat="48.35538" lon="2.78983">
        <ele>84</ele>
        <time>2021-06-13T11:58:17Z</time>
      </trkpt>
      <trkpt lat="48.35541" lon="2.78992">
        <ele>83.9</ele>
        <time>2021-06-13T11:58:23Z</time>
      </trkpt>
      <trkpt lat="48.35546" lon="2.79002">
        <ele>83.8</ele>
        <time>2021-06-13T11:58:30Z</time>
      </trkpt>
      <trkpt lat="48.3555" lon="2.79011">
        <ele>84.1</ele>
        <time>2021-06-13T11:58:37Z</time>
      </trkpt>
      <trkpt lat="48.35554" lon="2.79022">
        <ele>84.3</ele>
        <time>2021-06-13T11:58:44Z</time>
      </trkpt>
      <trkpt lat="48.35558" lon="2.7903">
        <ele>84.5</ele>
        <time>2021-06-13T11:58:51Z</time>
      </trkpt>
      <trkpt lat="48.35559" lon="2.79031">
        <ele>84.6</ele>
        <time>2021-06-13T11:58:53Z</time>
      </trkpt>
      <trkpt lat="48.35561" lon="2.79035">
        <ele>84.6</ele>
        <time>2021-06-13T11:58:58Z</time>
      </trkpt>
      <trkpt lat="48.35561" lon="2.79037">
        <ele>84.6</ele>
        <time>2021-06-13T11:58:59Z</time>
      </trkpt>
      <trkpt lat="48.35568" lon="2.79054">
        <ele>84.8</ele>
        <time>2021-06-13T11:59:07Z</time>
      </trkpt>
      <trkpt lat="48.35569" lon="2.79058">
        <ele>84.8</ele>
        <time>2021-06-13T11:59:10Z</time>
      </trkpt>
      <trkpt lat="48.35577" lon="2.79073">
        <ele>84.9</ele>
        <time>2021-06-13T11:59:18Z</time>
      </trkpt>
      <trkpt lat="48.35582" lon="2.79082">
        <ele>85</ele>
        <time>2021-06-13T11:59:23Z</time>
      </trkpt>
      <trkpt lat="48.35591" lon="2.79099">
        <ele>84.7</ele>
        <time>2021-06-13T11:59:30Z</time>
      </trkpt>
      <trkpt lat="48.35599" lon="2.79116">
        <ele>84.5</ele>
        <time>2021-06-13T11:59:38Z</time>
      </trkpt>
      <trkpt lat="48.35606" lon="2.79128">
        <ele>84.3</ele>
        <time>2021-06-13T11:59:45Z</time>
      </trkpt>
      <trkpt lat="48.35612" lon="2.79143">
        <ele>84.1</ele>
        <time>2021-06-13T11:59:54Z</time>
      </trkpt>
      <trkpt lat="48.35618" lon="2.79154">
        <ele>84.1</ele>
        <time>2021-06-13T12:00:01Z</time>
      </trkpt>
      <trkpt lat="48.35623" lon="2.79164">
        <ele>84</ele>
        <time>2021-06-13T12:00:07Z</time>
      </trkpt>
      <trkpt lat="48.35627" lon="2.79176">
        <ele>83.8</ele>
        <time>2021-06-13T12:00:14Z</time>
      </trkpt>
      <trkpt lat="48.35629" lon="2.79183">
        <ele>83.7</ele>
        <time>2021-06-13T12:00:18Z</time>
      </trkpt>
      <trkpt lat="48.3563" lon="2.79187">
        <ele>83.6</ele>
        <time>2021-06-13T12:00:20Z</time>
      </trkpt>
      <trkpt lat="48.35631" lon="2.79202">
        <ele>83.3</ele>
        <time>2021-06-13T12:00:28Z</time>
      </trkpt>
      <trkpt lat="48.35631" lon="2.79204">
        <ele>83.2</ele>
        <time>2021-06-13T12:00:29Z</time>
      </trkpt>
      <trkpt lat="48.35632" lon="2.79209">
        <ele>83.1</ele>
        <time>2021-06-13T12:00:32Z</time>
      </trkpt>
      <trkpt lat="48.35633" lon="2.79216">
        <ele>82.9</ele>
        <time>2021-06-13T12:00:36Z</time>
      </trkpt>
      <trkpt lat="48.35634" lon="2.79227">
        <ele>82.7</ele>
        <time>2021-06-13T12:00:41Z</time>
      </trkpt>
      <trkpt lat="48.35634" lon="2.79236">
        <ele>82.5</ele>
        <time>2021-06-13T12:00:46Z</time>
      </trkpt>
      <trkpt lat="48.35636" lon="2.79241">
        <ele>82.4</ele>
        <time>2021-06-13T12:00:48Z</time>
      </trkpt>
      <trkpt lat="48.35636" lon="2.79255">
        <ele>82</ele>
        <time>2021-06-13T12:00:57Z</time>
      </trkpt>
      <trkpt lat="48.35636" lon="2.79261">
        <ele>81.9</ele>
        <time>2021-06-13T12:01:00Z</time>
      </trkpt>
      <trkpt lat="48.35637" lon="2.79267">
        <ele>81.7</ele>
        <time>2021-06-13T12:01:03Z</time>
      </trkpt>
      <trkpt lat="48.35639" lon="2.79283">
        <ele>81.3</ele>
        <time>2021-06-13T12:01:10Z</time>
      </trkpt>
      <trkpt lat="48.35641" lon="2.79292">
        <ele>81.1</ele>
        <time>2021-06-13T12:01:16Z</time>
      </trkpt>
      <trkpt lat="48.35642" lon="2.79294">
        <ele>81</ele>
        <time>2021-06-13T12:01:18Z</time>
      </trkpt>
      <trkpt lat="48.35648" lon="2.79306">
        <ele>80.8</ele>
        <time>2021-06-13T12:01:25Z</time>
      </trkpt>
      <trkpt lat="48.35653" lon="2.79318">
        <ele>80.5</ele>
        <time>2021-06-13T12:01:32Z</time>
      </trkpt>
      <trkpt lat="48.35658" lon="2.79329">
        <ele>80.1</ele>
        <time>2021-06-13T12:01:40Z</time>
      </trkpt>
      <trkpt lat="48.35663" lon="2.79339">
        <ele>79.8</ele>
        <time>2021-06-13T12:01:47Z</time>
      </trkpt>
      <trkpt lat="48.35664" lon="2.79343">
        <ele>79.6</ele>
        <time>2021-06-13T12:01:49Z</time>
      </trkpt>
      <trkpt lat="48.35672" lon="2.79359">
        <ele>79.1</ele>
        <time>2021-06-13T12:01:57Z</time>
      </trkpt>
      <trkpt lat="48.35675" lon="2.79361">
        <ele>79</ele>
        <time>2021-06-13T12:02:04Z</time>
      </trkpt>
      <trkpt lat="48.35675" lon="2.79362">
        <ele>79</ele>
        <time>2021-06-13T12:02:05Z</time>
      </trkpt>
      <trkpt lat="48.35677" lon="2.79368">
        <ele>78.8</ele>
        <time>2021-06-13T12:02:11Z</time>
      </trkpt>
      <trkpt lat="48.3568" lon="2.79374">
        <ele>78.5</ele>
        <time>2021-06-13T12:02:15Z</time>
      </trkpt>
      <trkpt lat="48.35685" lon="2.79382">
        <ele>78.2</ele>
        <time>2021-06-13T12:02:20Z</time>
      </trkpt>
      <trkpt lat="48.35689" lon="2.79392">
        <ele>77.8</ele>
        <time>2021-06-13T12:02:26Z</time>
      </trkpt>
      <trkpt lat="48.35697" lon="2.79406">
        <ele>77.1</ele>
        <time>2021-06-13T12:02:34Z</time>
      </trkpt>
      <trkpt lat="48.35702" lon="2.79417">
        <ele>76.6</ele>
        <time>2021-06-13T12:02:41Z</time>
      </trkpt>
      <trkpt lat="48.35706" lon="2.79424">
        <ele>76.5</ele>
        <time>2021-06-13T12:02:47Z</time>
      </trkpt>
      <trkpt lat="48.35708" lon="2.79427">
        <ele>76.5</ele>
        <time>2021-06-13T12:02:49Z</time>
      </trkpt>
      <trkpt lat="48.35715" lon="2.7944">
        <ele>76.3</ele>
        <time>2021-06-13T12:02:57Z</time>
      </trkpt>
      <trkpt lat="48.35722" lon="2.79452">
        <ele>76.1</ele>
        <time>2021-06-13T12:03:05Z</time>
      </trkpt>
      <trkpt lat="48.35722" lon="2.79454">
        <ele>76</ele>
        <time>2021-06-13T12:03:06Z</time>
      </trkpt>
      <trkpt lat="48.35726" lon="2.7946">
        <ele>75.8</ele>
        <time>2021-06-13T12:03:10Z</time>
      </trkpt>
      <trkpt lat="48.35728" lon="2.79466">
        <ele>75.7</ele>
        <time>2021-06-13T12:03:14Z</time>
      </trkpt>
      <trkpt lat="48.35733" lon="2.79477">
        <ele>75.3</ele>
        <time>2021-06-13T12:03:20Z</time>
      </trkpt>
      <trkpt lat="48.3574" lon="2.79487">
        <ele>74.9</ele>
        <time>2021-06-13T12:03:27Z</time>
      </trkpt>
      <trkpt lat="48.35746" lon="2.79501">
        <ele>74.2</ele>
        <time>2021-06-13T12:03:36Z</time>
      </trkpt>
      <trkpt lat="48.35748" lon="2.79504">
        <ele>74.2</ele>
        <time>2021-06-13T12:03:37Z</time>
      </trkpt>
      <trkpt lat="48.35755" lon="2.79517">
        <ele>74.5</ele>
        <time>2021-06-13T12:03:46Z</time>
      </trkpt>
      <trkpt lat="48.35763" lon="2.79532">
        <ele>74.9</ele>
        <time>2021-06-13T12:03:55Z</time>
      </trkpt>
      <trkpt lat="48.35769" lon="2.79544">
        <ele>75.1</ele>
        <time>2021-06-13T12:04:03Z</time>
      </trkpt>
      <trkpt lat="48.35775" lon="2.79553">
        <ele>75.3</ele>
        <time>2021-06-13T12:04:09Z</time>
      </trkpt>
      <trkpt lat="48.35779" lon="2.79563">
        <ele>75.4</ele>
        <time>2021-06-13T12:04:16Z</time>
      </trkpt>
      <trkpt lat="48.35785" lon="2.79572">
        <ele>75.5</ele>
        <time>2021-06-13T12:04:23Z</time>
      </trkpt>
      <trkpt lat="48.3579" lon="2.79582">
        <ele>75.5</ele>
        <time>2021-06-13T12:04:29Z</time>
      </trkpt>
      <trkpt lat="48.35797" lon="2.79596">
        <ele>74.9</ele>
        <time>2021-06-13T12:04:38Z</time>
      </trkpt>
      <trkpt lat="48.35805" lon="2.7961">
        <ele>74.4</ele>
        <time>2021-06-13T12:04:48Z</time>
      </trkpt>
      <trkpt lat="48.35808" lon="2.7962">
        <ele>74</ele>
        <time>2021-06-13T12:04:55Z</time>
      </trkpt>
      <trkpt lat="48.35812" lon="2.79631">
        <ele>73.7</ele>
        <time>2021-06-13T12:05:04Z</time>
      </trkpt>
      <trkpt lat="48.35811" lon="2.79633">
        <ele>73.6</ele>
        <time>2021-06-13T12:05:06Z</time>
      </trkpt>
      <trkpt lat="48.35809" lon="2.79636">
        <ele>73.5</ele>
        <time>2021-06-13T12:05:10Z</time>
      </trkpt>
      <trkpt lat="48.35804" lon="2.79639">
        <ele>73.3</ele>
        <time>2021-06-13T12:05:17Z</time>
      </trkpt>
      <trkpt lat="48.35799" lon="2.7964">
        <ele>73.2</ele>
        <time>2021-06-13T12:05:23Z</time>
      </trkpt>
      <trkpt lat="48.35793" lon="2.79643">
        <ele>73</ele>
        <time>2021-06-13T12:05:28Z</time>
      </trkpt>
      <trkpt lat="48.35785" lon="2.79649">
        <ele>72.6</ele>
        <time>2021-06-13T12:05:36Z</time>
      </trkpt>
      <trkpt lat="48.35784" lon="2.79649">
        <ele>72.6</ele>
        <time>2021-06-13T12:05:37Z</time>
      </trkpt>
      <trkpt lat="48.35781" lon="2.7965">
        <ele>72.5</ele>
        <time>2021-06-13T12:05:40Z</time>
      </trkpt>
      <trkpt lat="48.35777" lon="2.79652">
        <ele>72.3</ele>
        <time>2021-06-13T12:05:44Z</time>
      </trkpt>
      <trkpt lat="48.35774" lon="2.79654">
        <ele>72.2</ele>
        <time>2021-06-13T12:05:48Z</time>
      </trkpt>
      <trkpt lat="48.35764" lon="2.79659">
        <ele>71.8</ele>
        <time>2021-06-13T12:05:57Z</time>
      </trkpt>
      <trkpt lat="48.35761" lon="2.7966">
        <ele>71.6</ele>
        <time>2021-06-13T12:06:01Z</time>
      </trkpt>
      <trkpt lat="48.3575" lon="2.79665">
        <ele>71.1</ele>
        <time>2021-06-13T12:06:10Z</time>
      </trkpt>
      <trkpt lat="48.35745" lon="2.79668">
        <ele>71.1</ele>
        <time>2021-06-13T12:06:15Z</time>
      </trkpt>
      <trkpt lat="48.35742" lon="2.79669">
        <ele>71.1</ele>
        <time>2021-06-13T12:06:18Z</time>
      </trkpt>
      <trkpt lat="48.35734" lon="2.79674">
        <ele>71.1</ele>
        <time>2021-06-13T12:06:25Z</time>
      </trkpt>
      <trkpt lat="48.35728" lon="2.79678">
        <ele>71</ele>
        <time>2021-06-13T12:06:32Z</time>
      </trkpt>
      <trkpt lat="48.35715" lon="2.79678">
        <ele>71.4</ele>
        <time>2021-06-13T12:06:39Z</time>
      </trkpt>
      <trkpt lat="48.35712" lon="2.79682">
        <ele>71.2</ele>
        <time>2021-06-13T12:06:45Z</time>
      </trkpt>
      <trkpt lat="48.35709" lon="2.79682">
        <ele>71.3</ele>
        <time>2021-06-13T12:06:48Z</time>
      </trkpt>
      <trkpt lat="48.35703" lon="2.79684">
        <ele>71.3</ele>
        <time>2021-06-13T12:06:54Z</time>
      </trkpt>
      <trkpt lat="48.35697" lon="2.79692">
        <ele>70.8</ele>
        <time>2021-06-13T12:07:04Z</time>
      </trkpt>
      <trkpt lat="48.3569" lon="2.79702">
        <ele>70.1</ele>
        <time>2021-06-13T12:07:13Z</time>
      </trkpt>
      <trkpt lat="48.35687" lon="2.79708">
        <ele>69.7</ele>
        <time>2021-06-13T12:07:22Z</time>
      </trkpt>
      <trkpt lat="48.35686" lon="2.79709">
        <ele>69.6</ele>
        <time>2021-06-13T12:07:38Z</time>
      </trkpt>
      <trkpt lat="48.35684" lon="2.79707">
        <ele>69.8</ele>
        <time>2021-06-13T12:07:48Z</time>
      </trkpt>
      <trkpt lat="48.35683" lon="2.79711">
        <ele>69.5</ele>
        <time>2021-06-13T12:07:55Z</time>
      </trkpt>
      <trkpt lat="48.35681" lon="2.79714">
        <ele>69.3</ele>
        <time>2021-06-13T12:07:57Z</time>
      </trkpt>
      <trkpt lat="48.35682" lon="2.79723">
        <ele>68.4</ele>
        <time>2021-06-13T12:08:03Z</time>
      </trkpt>
      <trkpt lat="48.35682" lon="2.79731">
        <ele>67.7</ele>
        <time>2021-06-13T12:08:08Z</time>
      </trkpt>
      <trkpt lat="48.35686" lon="2.79754">
        <ele>65.8</ele>
        <time>2021-06-13T12:08:18Z</time>
      </trkpt>
      <trkpt lat="48.3569" lon="2.79775">
        <ele>64.9</ele>
        <time>2021-06-13T12:08:24Z</time>
      </trkpt>
      <trkpt lat="48.35693" lon="2.79784">
        <ele>64.5</ele>
        <time>2021-06-13T12:08:27Z</time>
      </trkpt>
      <trkpt lat="48.35703" lon="2.79807">
        <ele>63.6</ele>
        <time>2021-06-13T12:08:35Z</time>
      </trkpt>
      <trkpt lat="48.35707" lon="2.79818">
        <ele>63.1</ele>
        <time>2021-06-13T12:08:43Z</time>
      </trkpt>
      <trkpt lat="48.35709" lon="2.79823">
        <ele>62.9</ele>
        <time>2021-06-13T12:08:47Z</time>
      </trkpt>
      <trkpt lat="48.35712" lon="2.79832">
        <ele>62.6</ele>
        <time>2021-06-13T12:08:53Z</time>
      </trkpt>
      <trkpt lat="48.35714" lon="2.79835">
        <ele>62.5</ele>
        <time>2021-06-13T12:08:55Z</time>
      </trkpt>
      <trkpt lat="48.35718" lon="2.79847">
        <ele>62.2</ele>
        <time>2021-06-13T12:09:03Z</time>
      </trkpt>
      <trkpt lat="48.35723" lon="2.79859">
        <ele>62</ele>
        <time>2021-06-13T12:09:10Z</time>
      </trkpt>
      <trkpt lat="48.35723" lon="2.79861">
        <ele>61.9</ele>
        <time>2021-06-13T12:09:11Z</time>
      </trkpt>
      <trkpt lat="48.35724" lon="2.79867">
        <ele>61.7</ele>
        <time>2021-06-13T12:09:15Z</time>
      </trkpt>
      <trkpt lat="48.35724" lon="2.79871">
        <ele>61.7</ele>
        <time>2021-06-13T12:09:17Z</time>
      </trkpt>
      <trkpt lat="48.35719" lon="2.79872">
        <ele>61.5</ele>
        <time>2021-06-13T12:09:24Z</time>
      </trkpt>
      <trkpt lat="48.35712" lon="2.79866">
        <ele>61.6</ele>
        <time>2021-06-13T12:09:32Z</time>
      </trkpt>
      <trkpt lat="48.35707" lon="2.79857">
        <ele>61.8</ele>
        <time>2021-06-13T12:09:40Z</time>
      </trkpt>
      <trkpt lat="48.35706" lon="2.79856">
        <ele>61.8</ele>
        <time>2021-06-13T12:09:42Z</time>
      </trkpt>
      <trkpt lat="48.357" lon="2.79854">
        <ele>61.8</ele>
        <time>2021-06-13T12:09:49Z</time>
      </trkpt>
      <trkpt lat="48.35697" lon="2.79854">
        <ele>61.7</ele>
        <time>2021-06-13T12:09:53Z</time>
      </trkpt>
      <trkpt lat="48.35695" lon="2.79856">
        <ele>61.6</ele>
        <time>2021-06-13T12:09:55Z</time>
      </trkpt>
      <trkpt lat="48.35687" lon="2.79867">
        <ele>61.1</ele>
        <time>2021-06-13T12:10:05Z</time>
      </trkpt>
      <trkpt lat="48.35684" lon="2.79873">
        <ele>60.9</ele>
        <time>2021-06-13T12:10:10Z</time>
      </trkpt>
      <trkpt lat="48.3568" lon="2.7988">
        <ele>60.6</ele>
        <time>2021-06-13T12:10:15Z</time>
      </trkpt>
      <trkpt lat="48.35673" lon="2.79887">
        <ele>60.2</ele>
        <time>2021-06-13T12:10:22Z</time>
      </trkpt>
      <trkpt lat="48.35669" lon="2.79894">
        <ele>59.9</ele>
        <time>2021-06-13T12:10:29Z</time>
      </trkpt>
      <trkpt lat="48.35664" lon="2.79901">
        <ele>59.6</ele>
        <time>2021-06-13T12:10:38Z</time>
      </trkpt>
      <trkpt lat="48.35659" lon="2.7991">
        <ele>59.2</ele>
        <time>2021-06-13T12:10:45Z</time>
      </trkpt>
      <trkpt lat="48.35655" lon="2.79914">
        <ele>59.1</ele>
        <time>2021-06-13T12:10:50Z</time>
      </trkpt>
      <trkpt lat="48.35644" lon="2.7992">
        <ele>58.9</ele>
        <time>2021-06-13T12:10:57Z</time>
      </trkpt>
      <trkpt lat="48.35639" lon="2.79926">
        <ele>58.6</ele>
        <time>2021-06-13T12:11:05Z</time>
      </trkpt>
      <trkpt lat="48.35632" lon="2.79928">
        <ele>58.6</ele>
        <time>2021-06-13T12:11:17Z</time>
      </trkpt>
      <trkpt lat="48.3563" lon="2.79928">
        <ele>58.6</ele>
        <time>2021-06-13T12:11:30Z</time>
      </trkpt>
      <trkpt lat="48.35628" lon="2.79929">
        <ele>58.5</ele>
        <time>2021-06-13T12:11:38Z</time>
      </trkpt>
      <trkpt lat="48.35628" lon="2.7993">
        <ele>58.5</ele>
        <time>2021-06-13T12:11:53Z</time>
      </trkpt>
      <trkpt lat="48.35629" lon="2.7993">
        <ele>58.5</ele>
        <time>2021-06-13T12:12:01Z</time>
      </trkpt>
      <trkpt lat="48.35629" lon="2.79933">
        <ele>58.4</ele>
        <time>2021-06-13T12:12:10Z</time>
      </trkpt>
      <trkpt lat="48.35627" lon="2.79934">
        <ele>58.4</ele>
        <time>2021-06-13T12:12:18Z</time>
      </trkpt>
      <trkpt lat="48.35622" lon="2.79937">
        <ele>58.3</ele>
        <time>2021-06-13T12:12:26Z</time>
      </trkpt>
      <trkpt lat="48.35616" lon="2.7994">
        <ele>58.2</ele>
        <time>2021-06-13T12:12:32Z</time>
      </trkpt>
      <trkpt lat="48.35607" lon="2.79939">
        <ele>58.3</ele>
        <time>2021-06-13T12:12:40Z</time>
      </trkpt>
      <trkpt lat="48.35606" lon="2.79939">
        <ele>58.3</ele>
        <time>2021-06-13T12:12:41Z</time>
      </trkpt>
      <trkpt lat="48.356" lon="2.79937">
        <ele>58.4</ele>
        <time>2021-06-13T12:12:47Z</time>
      </trkpt>
      <trkpt lat="48.35597" lon="2.79938">
        <ele>58.4</ele>
        <time>2021-06-13T12:12:50Z</time>
      </trkpt>
      <trkpt lat="48.35588" lon="2.7994">
        <ele>58.4</ele>
        <time>2021-06-13T12:12:59Z</time>
      </trkpt>
      <trkpt lat="48.35584" lon="2.79941">
        <ele>58.4</ele>
        <time>2021-06-13T12:13:03Z</time>
      </trkpt>
      <trkpt lat="48.35579" lon="2.7994">
        <ele>58.5</ele>
        <time>2021-06-13T12:13:06Z</time>
      </trkpt>
      <trkpt lat="48.35568" lon="2.7994">
        <ele>58.7</ele>
        <time>2021-06-13T12:13:15Z</time>
      </trkpt>
      <trkpt lat="48.35566" lon="2.79939">
        <ele>58.8</ele>
        <time>2021-06-13T12:13:17Z</time>
      </trkpt>
      <trkpt lat="48.35552" lon="2.79939">
        <ele>59</ele>
        <time>2021-06-13T12:13:25Z</time>
      </trkpt>
      <trkpt lat="48.35545" lon="2.7994">
        <ele>59.2</ele>
        <time>2021-06-13T12:13:33Z</time>
      </trkpt>
      <trkpt lat="48.35538" lon="2.79939">
        <ele>59.3</ele>
        <time>2021-06-13T12:13:38Z</time>
      </trkpt>
      <trkpt lat="48.3553" lon="2.79937">
        <ele>59.5</ele>
        <time>2021-06-13T12:13:44Z</time>
      </trkpt>
      <trkpt lat="48.35525" lon="2.79939">
        <ele>59.5</ele>
        <time>2021-06-13T12:13:47Z</time>
      </trkpt>
      <trkpt lat="48.3551" lon="2.79939">
        <ele>59.8</ele>
        <time>2021-06-13T12:13:57Z</time>
      </trkpt>
      <trkpt lat="48.35501" lon="2.79939">
        <ele>60</ele>
        <time>2021-06-13T12:14:04Z</time>
      </trkpt>
      <trkpt lat="48.35492" lon="2.79937">
        <ele>59.7</ele>
        <time>2021-06-13T12:14:11Z</time>
      </trkpt>
      <trkpt lat="48.35487" lon="2.79937">
        <ele>59.4</ele>
        <time>2021-06-13T12:14:16Z</time>
      </trkpt>
      <trkpt lat="48.35486" lon="2.79936">
        <ele>59.4</ele>
        <time>2021-06-13T12:14:17Z</time>
      </trkpt>
      <trkpt lat="48.35475" lon="2.79933">
        <ele>58.9</ele>
        <time>2021-06-13T12:14:25Z</time>
      </trkpt>
      <trkpt lat="48.35467" lon="2.79932">
        <ele>58.5</ele>
        <time>2021-06-13T12:14:31Z</time>
      </trkpt>
      <trkpt lat="48.35458" lon="2.7993">
        <ele>58.1</ele>
        <time>2021-06-13T12:14:38Z</time>
      </trkpt>
      <trkpt lat="48.35451" lon="2.79928">
        <ele>57.7</ele>
        <time>2021-06-13T12:14:46Z</time>
      </trkpt>
      <trkpt lat="48.35446" lon="2.79926">
        <ele>57.5</ele>
        <time>2021-06-13T12:14:50Z</time>
      </trkpt>
      <trkpt lat="48.35433" lon="2.79924">
        <ele>56.9</ele>
        <time>2021-06-13T12:14:59Z</time>
      </trkpt>
      <trkpt lat="48.35424" lon="2.79924">
        <ele>56.4</ele>
        <time>2021-06-13T12:15:05Z</time>
      </trkpt>
      <trkpt lat="48.35417" lon="2.79924">
        <ele>56.1</ele>
        <time>2021-06-13T12:15:12Z</time>
      </trkpt>
      <trkpt lat="48.35408" lon="2.79923">
        <ele>56.2</ele>
        <time>2021-06-13T12:15:20Z</time>
      </trkpt>
      <trkpt lat="48.35401" lon="2.79923">
        <ele>56.3</ele>
        <time>2021-06-13T12:15:26Z</time>
      </trkpt>
      <trkpt lat="48.35399" lon="2.79922">
        <ele>56.3</ele>
        <time>2021-06-13T12:15:33Z</time>
      </trkpt>
      <trkpt lat="48.35393" lon="2.79922">
        <ele>56.3</ele>
        <time>2021-06-13T12:15:40Z</time>
      </trkpt>
      <trkpt lat="48.35387" lon="2.79921">
        <ele>56.4</ele>
        <time>2021-06-13T12:15:45Z</time>
      </trkpt>
      <trkpt lat="48.35377" lon="2.79921">
        <ele>56.5</ele>
        <time>2021-06-13T12:15:51Z</time>
      </trkpt>
      <trkpt lat="48.35366" lon="2.79919">
        <ele>56.6</ele>
        <time>2021-06-13T12:15:59Z</time>
      </trkpt>
      <trkpt lat="48.35357" lon="2.79921">
        <ele>56.7</ele>
        <time>2021-06-13T12:16:07Z</time>
      </trkpt>
      <trkpt lat="48.35345" lon="2.79921">
        <ele>56.9</ele>
        <time>2021-06-13T12:16:15Z</time>
      </trkpt>
      <trkpt lat="48.35339" lon="2.79924">
        <ele>56.9</ele>
        <time>2021-06-13T12:16:22Z</time>
      </trkpt>
      <trkpt lat="48.35335" lon="2.79928">
        <ele>57</ele>
        <time>2021-06-13T12:16:31Z</time>
      </trkpt>
      <trkpt lat="48.35327" lon="2.79931">
        <ele>57.2</ele>
        <time>2021-06-13T12:16:38Z</time>
      </trkpt>
      <trkpt lat="48.35324" lon="2.79932">
        <ele>57.3</ele>
        <time>2021-06-13T12:16:41Z</time>
      </trkpt>
      <trkpt lat="48.35313" lon="2.79937">
        <ele>57.5</ele>
        <time>2021-06-13T12:16:49Z</time>
      </trkpt>
      <trkpt lat="48.353" lon="2.79943">
        <ele>57.7</ele>
        <time>2021-06-13T12:16:58Z</time>
      </trkpt>
      <trkpt lat="48.3529" lon="2.7995">
        <ele>57.7</ele>
        <time>2021-06-13T12:17:07Z</time>
      </trkpt>
      <trkpt lat="48.35283" lon="2.7995">
        <ele>57.8</ele>
        <time>2021-06-13T12:17:14Z</time>
      </trkpt>
      <trkpt lat="48.35275" lon="2.79953">
        <ele>57.9</ele>
        <time>2021-06-13T12:17:20Z</time>
      </trkpt>
      <trkpt lat="48.35267" lon="2.79958">
        <ele>57.8</ele>
        <time>2021-06-13T12:17:27Z</time>
      </trkpt>
      <trkpt lat="48.35256" lon="2.7996">
        <ele>57.9</ele>
        <time>2021-06-13T12:17:36Z</time>
      </trkpt>
      <trkpt lat="48.3525" lon="2.79964">
        <ele>57.7</ele>
        <time>2021-06-13T12:17:43Z</time>
      </trkpt>
      <trkpt lat="48.35249" lon="2.79976">
        <ele>57.1</ele>
        <time>2021-06-13T12:17:51Z</time>
      </trkpt>
      <trkpt lat="48.35247" lon="2.79981">
        <ele>56.8</ele>
        <time>2021-06-13T12:17:59Z</time>
      </trkpt>
      <trkpt lat="48.35247" lon="2.79984">
        <ele>56.6</ele>
        <time>2021-06-13T12:18:05Z</time>
      </trkpt>
      <trkpt lat="48.35252" lon="2.7999">
        <ele>56.5</ele>
        <time>2021-06-13T12:18:12Z</time>
      </trkpt>
      <trkpt lat="48.35258" lon="2.79996">
        <ele>56.3</ele>
        <time>2021-06-13T12:18:18Z</time>
      </trkpt>
      <trkpt lat="48.35265" lon="2.8">
        <ele>56.2</ele>
        <time>2021-06-13T12:18:26Z</time>
      </trkpt>
      <trkpt lat="48.35272" lon="2.80005">
        <ele>56.2</ele>
        <time>2021-06-13T12:18:32Z</time>
      </trkpt>
      <trkpt lat="48.35277" lon="2.8001">
        <ele>56.2</ele>
        <time>2021-06-13T12:18:38Z</time>
      </trkpt>
      <trkpt lat="48.35285" lon="2.80018">
        <ele>56.3</ele>
        <time>2021-06-13T12:18:45Z</time>
      </trkpt>
      <trkpt lat="48.3529" lon="2.8002">
        <ele>56.3</ele>
        <time>2021-06-13T12:18:49Z</time>
      </trkpt>
      <trkpt lat="48.35293" lon="2.80027">
        <ele>56.4</ele>
        <time>2021-06-13T12:18:55Z</time>
      </trkpt>
      <trkpt lat="48.353" lon="2.80035">
        <ele>56.5</ele>
        <time>2021-06-13T12:19:03Z</time>
      </trkpt>
      <trkpt lat="48.35307" lon="2.80043">
        <ele>56.7</ele>
        <time>2021-06-13T12:19:12Z</time>
      </trkpt>
      <trkpt lat="48.35312" lon="2.8005">
        <ele>56.9</ele>
        <time>2021-06-13T12:19:18Z</time>
      </trkpt>
      <trkpt lat="48.35317" lon="2.80061">
        <ele>57.1</ele>
        <time>2021-06-13T12:19:23Z</time>
      </trkpt>
      <trkpt lat="48.35322" lon="2.80071">
        <ele>57.4</ele>
        <time>2021-06-13T12:19:31Z</time>
      </trkpt>
      <trkpt lat="48.35329" lon="2.8008">
        <ele>57.8</ele>
        <time>2021-06-13T12:19:37Z</time>
      </trkpt>
      <trkpt lat="48.35337" lon="2.80092">
        <ele>58</ele>
        <time>2021-06-13T12:19:44Z</time>
      </trkpt>
      <trkpt lat="48.3534" lon="2.80098">
        <ele>57.9</ele>
        <time>2021-06-13T12:19:51Z</time>
      </trkpt>
      <trkpt lat="48.35344" lon="2.80103">
        <ele>57.9</ele>
        <time>2021-06-13T12:19:55Z</time>
      </trkpt>
      <trkpt lat="48.35352" lon="2.80117">
        <ele>57.8</ele>
        <time>2021-06-13T12:20:03Z</time>
      </trkpt>
      <trkpt lat="48.35359" lon="2.80126">
        <ele>57.7</ele>
        <time>2021-06-13T12:20:11Z</time>
      </trkpt>
      <trkpt lat="48.35367" lon="2.80138">
        <ele>57.6</ele>
        <time>2021-06-13T12:20:18Z</time>
      </trkpt>
      <trkpt lat="48.35368" lon="2.80142">
        <ele>57.6</ele>
        <time>2021-06-13T12:20:20Z</time>
      </trkpt>
      <trkpt lat="48.35376" lon="2.80156">
        <ele>57.5</ele>
        <time>2021-06-13T12:20:28Z</time>
      </trkpt>
      <trkpt lat="48.35378" lon="2.80164">
        <ele>57.5</ele>
        <time>2021-06-13T12:20:34Z</time>
      </trkpt>
      <trkpt lat="48.35386" lon="2.80177">
        <ele>57.1</ele>
        <time>2021-06-13T12:20:42Z</time>
      </trkpt>
      <trkpt lat="48.35389" lon="2.80181">
        <ele>56.9</ele>
        <time>2021-06-13T12:20:44Z</time>
      </trkpt>
      <trkpt lat="48.35397" lon="2.80195">
        <ele>56.6</ele>
        <time>2021-06-13T12:20:51Z</time>
      </trkpt>
      <trkpt lat="48.35399" lon="2.80195">
        <ele>56.6</ele>
        <time>2021-06-13T12:20:53Z</time>
      </trkpt>
      <trkpt lat="48.35401" lon="2.80201">
        <ele>56.5</ele>
        <time>2021-06-13T12:20:56Z</time>
      </trkpt>
      <trkpt lat="48.35404" lon="2.80205">
        <ele>56.4</ele>
        <time>2021-06-13T12:21:02Z</time>
      </trkpt>
      <trkpt lat="48.35407" lon="2.80208">
        <ele>56.4</ele>
        <time>2021-06-13T12:21:08Z</time>
      </trkpt>
      <trkpt lat="48.35415" lon="2.80225">
        <ele>56.3</ele>
        <time>2021-06-13T12:21:15Z</time>
      </trkpt>
      <trkpt lat="48.35418" lon="2.8023">
        <ele>56.3</ele>
        <time>2021-06-13T12:21:21Z</time>
      </trkpt>
      <trkpt lat="48.35419" lon="2.80232">
        <ele>56.3</ele>
        <time>2021-06-13T12:21:23Z</time>
      </trkpt>
      <trkpt lat="48.35421" lon="2.80237">
        <ele>56.3</ele>
        <time>2021-06-13T12:21:29Z</time>
      </trkpt>
      <trkpt lat="48.35423" lon="2.80242">
        <ele>56.3</ele>
        <time>2021-06-13T12:21:33Z</time>
      </trkpt>
      <trkpt lat="48.35426" lon="2.80248">
        <ele>56.3</ele>
        <time>2021-06-13T12:21:39Z</time>
      </trkpt>
      <trkpt lat="48.3543" lon="2.80253">
        <ele>56.2</ele>
        <time>2021-06-13T12:21:43Z</time>
      </trkpt>
      <trkpt lat="48.35434" lon="2.80264">
        <ele>56</ele>
        <time>2021-06-13T12:21:51Z</time>
      </trkpt>
      <trkpt lat="48.35435" lon="2.80267">
        <ele>56</ele>
        <time>2021-06-13T12:21:57Z</time>
      </trkpt>
      <trkpt lat="48.35436" lon="2.80268">
        <ele>56</ele>
        <time>2021-06-13T12:21:58Z</time>
      </trkpt>
      <trkpt lat="48.3544" lon="2.80276">
        <ele>55.9</ele>
        <time>2021-06-13T12:22:04Z</time>
      </trkpt>
      <trkpt lat="48.35443" lon="2.80283">
        <ele>55.7</ele>
        <time>2021-06-13T12:22:08Z</time>
      </trkpt>
      <trkpt lat="48.3545" lon="2.80305">
        <ele>55.2</ele>
        <time>2021-06-13T12:22:17Z</time>
      </trkpt>
      <trkpt lat="48.35452" lon="2.80308">
        <ele>55.2</ele>
        <time>2021-06-13T12:22:18Z</time>
      </trkpt>
      <trkpt lat="48.35456" lon="2.80325">
        <ele>54.7</ele>
        <time>2021-06-13T12:22:24Z</time>
      </trkpt>
      <trkpt lat="48.3546" lon="2.80338">
        <ele>54.5</ele>
        <time>2021-06-13T12:22:30Z</time>
      </trkpt>
      <trkpt lat="48.35463" lon="2.80345">
        <ele>54.5</ele>
        <time>2021-06-13T12:22:32Z</time>
      </trkpt>
      <trkpt lat="48.35467" lon="2.80356">
        <ele>54.6</ele>
        <time>2021-06-13T12:22:39Z</time>
      </trkpt>
      <trkpt lat="48.35469" lon="2.80365">
        <ele>54.6</ele>
        <time>2021-06-13T12:22:46Z</time>
      </trkpt>
      <trkpt lat="48.35469" lon="2.80368">
        <ele>54.6</ele>
        <time>2021-06-13T12:22:48Z</time>
      </trkpt>
      <trkpt lat="48.35474" lon="2.80377">
        <ele>54.7</ele>
        <time>2021-06-13T12:22:56Z</time>
      </trkpt>
      <trkpt lat="48.35476" lon="2.80378">
        <ele>54.8</ele>
        <time>2021-06-13T12:22:59Z</time>
      </trkpt>
      <trkpt lat="48.35482" lon="2.80395">
        <ele>55</ele>
        <time>2021-06-13T12:23:08Z</time>
      </trkpt>
      <trkpt lat="48.35485" lon="2.80398">
        <ele>55.2</ele>
        <time>2021-06-13T12:23:13Z</time>
      </trkpt>
      <trkpt lat="48.35487" lon="2.80405">
        <ele>55.3</ele>
        <time>2021-06-13T12:23:20Z</time>
      </trkpt>
      <trkpt lat="48.35491" lon="2.80411">
        <ele>55.5</ele>
        <time>2021-06-13T12:23:25Z</time>
      </trkpt>
      <trkpt lat="48.35496" lon="2.80421">
        <ele>55.7</ele>
        <time>2021-06-13T12:23:31Z</time>
      </trkpt>
      <trkpt lat="48.35497" lon="2.80423">
        <ele>55.6</ele>
        <time>2021-06-13T12:23:32Z</time>
      </trkpt>
      <trkpt lat="48.35507" lon="2.80449">
        <ele>55.2</ele>
        <time>2021-06-13T12:23:38Z</time>
      </trkpt>
      <trkpt lat="48.35515" lon="2.80468">
        <ele>55</ele>
        <time>2021-06-13T12:23:43Z</time>
      </trkpt>
      <trkpt lat="48.35523" lon="2.8049">
        <ele>54.9</ele>
        <time>2021-06-13T12:23:48Z</time>
      </trkpt>
      <trkpt lat="48.35524" lon="2.80494">
        <ele>54.9</ele>
        <time>2021-06-13T12:23:50Z</time>
      </trkpt>
      <trkpt lat="48.35528" lon="2.80501">
        <ele>55</ele>
        <time>2021-06-13T12:23:57Z</time>
      </trkpt>
      <trkpt lat="48.35532" lon="2.8051">
        <ele>54.8</ele>
        <time>2021-06-13T12:24:12Z</time>
      </trkpt>
      <trkpt lat="48.35533" lon="2.80511">
        <ele>54.8</ele>
        <time>2021-06-13T12:24:18Z</time>
      </trkpt>
      <trkpt lat="48.35535" lon="2.80512">
        <ele>54.9</ele>
        <time>2021-06-13T12:24:24Z</time>
      </trkpt>
      <trkpt lat="48.35536" lon="2.80514">
        <ele>54.9</ele>
        <time>2021-06-13T12:24:31Z</time>
      </trkpt>
      <trkpt lat="48.35536" lon="2.80517">
        <ele>54.8</ele>
        <time>2021-06-13T12:24:48Z</time>
      </trkpt>
      <trkpt lat="48.35537" lon="2.80519">
        <ele>54.7</ele>
        <time>2021-06-13T12:24:57Z</time>
      </trkpt>
      <trkpt lat="48.35539" lon="2.80523">
        <ele>54.7</ele>
        <time>2021-06-13T12:25:10Z</time>
      </trkpt>
      <trkpt lat="48.3554" lon="2.80524">
        <ele>54.7</ele>
        <time>2021-06-13T12:25:21Z</time>
      </trkpt>
      <trkpt lat="48.35542" lon="2.80524">
        <ele>54.9</ele>
        <time>2021-06-13T12:25:33Z</time>
      </trkpt>
      <trkpt lat="48.35544" lon="2.80525">
        <ele>55</ele>
        <time>2021-06-13T12:25:39Z</time>
      </trkpt>
      <trkpt lat="48.35544" lon="2.80526">
        <ele>54.9</ele>
        <time>2021-06-13T12:25:43Z</time>
      </trkpt>
      <trkpt lat="48.35545" lon="2.8053">
        <ele>54.8</ele>
        <time>2021-06-13T12:25:49Z</time>
      </trkpt>
      <trkpt lat="48.35546" lon="2.80534">
        <ele>54.7</ele>
        <time>2021-06-13T12:25:52Z</time>
      </trkpt>
      <trkpt lat="48.35548" lon="2.80538">
        <ele>54.7</ele>
        <time>2021-06-13T12:25:58Z</time>
      </trkpt>
      <trkpt lat="48.35548" lon="2.80541">
        <ele>54.6</ele>
        <time>2021-06-13T12:26:00Z</time>
      </trkpt>
      <trkpt lat="48.3555" lon="2.80543">
        <ele>54.6</ele>
        <time>2021-06-13T12:26:02Z</time>
      </trkpt>
      <trkpt lat="48.35555" lon="2.80556">
        <ele>54.5</ele>
        <time>2021-06-13T12:26:10Z</time>
      </trkpt>
      <trkpt lat="48.35562" lon="2.80573">
        <ele>54.3</ele>
        <time>2021-06-13T12:26:18Z</time>
      </trkpt>
      <trkpt lat="48.35564" lon="2.80578">
        <ele>54.3</ele>
        <time>2021-06-13T12:26:21Z</time>
      </trkpt>
      <trkpt lat="48.35571" lon="2.8059">
        <ele>54.5</ele>
        <time>2021-06-13T12:26:29Z</time>
      </trkpt>
      <trkpt lat="48.35572" lon="2.80594">
        <ele>54.6</ele>
        <time>2021-06-13T12:26:31Z</time>
      </trkpt>
      <trkpt lat="48.35577" lon="2.80602">
        <ele>54.7</ele>
        <time>2021-06-13T12:26:36Z</time>
      </trkpt>
      <trkpt lat="48.35578" lon="2.80605">
        <ele>54.7</ele>
        <time>2021-06-13T12:26:41Z</time>
      </trkpt>
      <trkpt lat="48.35583" lon="2.80618">
        <ele>54.7</ele>
        <time>2021-06-13T12:26:49Z</time>
      </trkpt>
      <trkpt lat="48.35586" lon="2.80627">
        <ele>54.6</ele>
        <time>2021-06-13T12:26:54Z</time>
      </trkpt>
      <trkpt lat="48.35587" lon="2.80628">
        <ele>54.6</ele>
        <time>2021-06-13T12:26:55Z</time>
      </trkpt>
      <trkpt lat="48.35595" lon="2.80641">
        <ele>54.7</ele>
        <time>2021-06-13T12:27:03Z</time>
      </trkpt>
      <trkpt lat="48.35597" lon="2.80643">
        <ele>54.7</ele>
        <time>2021-06-13T12:27:08Z</time>
      </trkpt>
      <trkpt lat="48.356" lon="2.80654">
        <ele>54.5</ele>
        <time>2021-06-13T12:27:14Z</time>
      </trkpt>
      <trkpt lat="48.35601" lon="2.80656">
        <ele>54.5</ele>
        <time>2021-06-13T12:27:15Z</time>
      </trkpt>
      <trkpt lat="48.35606" lon="2.80664">
        <ele>54.5</ele>
        <time>2021-06-13T12:27:21Z</time>
      </trkpt>
      <trkpt lat="48.35612" lon="2.80676">
        <ele>54.7</ele>
        <time>2021-06-13T12:27:29Z</time>
      </trkpt>
      <trkpt lat="48.35615" lon="2.80682">
        <ele>54.8</ele>
        <time>2021-06-13T12:27:32Z</time>
      </trkpt>
      <trkpt lat="48.35624" lon="2.80702">
        <ele>55</ele>
        <time>2021-06-13T12:27:39Z</time>
      </trkpt>
      <trkpt lat="48.35627" lon="2.80707">
        <ele>55.1</ele>
        <time>2021-06-13T12:27:45Z</time>
      </trkpt>
      <trkpt lat="48.35631" lon="2.80716">
        <ele>55</ele>
        <time>2021-06-13T12:27:52Z</time>
      </trkpt>
      <trkpt lat="48.35638" lon="2.80729">
        <ele>54.8</ele>
        <time>2021-06-13T12:28:00Z</time>
      </trkpt>
      <trkpt lat="48.35639" lon="2.8073">
        <ele>54.8</ele>
        <time>2021-06-13T12:28:01Z</time>
      </trkpt>
      <trkpt lat="48.35644" lon="2.80738">
        <ele>54.6</ele>
        <time>2021-06-13T12:28:05Z</time>
      </trkpt>
      <trkpt lat="48.35651" lon="2.80749">
        <ele>54.2</ele>
        <time>2021-06-13T12:28:12Z</time>
      </trkpt>
      <trkpt lat="48.35656" lon="2.80759">
        <ele>53.7</ele>
        <time>2021-06-13T12:28:20Z</time>
      </trkpt>
      <trkpt lat="48.3566" lon="2.80764">
        <ele>53.4</ele>
        <time>2021-06-13T12:28:24Z</time>
      </trkpt>
      <trkpt lat="48.35668" lon="2.80778">
        <ele>52.7</ele>
        <time>2021-06-13T12:28:32Z</time>
      </trkpt>
      <trkpt lat="48.35674" lon="2.80787">
        <ele>52.5</ele>
        <time>2021-06-13T12:28:38Z</time>
      </trkpt>
      <trkpt lat="48.35681" lon="2.80802">
        <ele>52.2</ele>
        <time>2021-06-13T12:28:44Z</time>
      </trkpt>
      <trkpt lat="48.3569" lon="2.80819">
        <ele>52.2</ele>
        <time>2021-06-13T12:28:53Z</time>
      </trkpt>
      <trkpt lat="48.35696" lon="2.8083">
        <ele>52.2</ele>
        <time>2021-06-13T12:29:00Z</time>
      </trkpt>
      <trkpt lat="48.35699" lon="2.80834">
        <ele>52.3</ele>
        <time>2021-06-13T12:29:03Z</time>
      </trkpt>
      <trkpt lat="48.35708" lon="2.80847">
        <ele>52.8</ele>
        <time>2021-06-13T12:29:13Z</time>
      </trkpt>
      <trkpt lat="48.35713" lon="2.80856">
        <ele>53.1</ele>
        <time>2021-06-13T12:29:18Z</time>
      </trkpt>
      <trkpt lat="48.35722" lon="2.80868">
        <ele>53.7</ele>
        <time>2021-06-13T12:29:27Z</time>
      </trkpt>
      <trkpt lat="48.35726" lon="2.80874">
        <ele>54</ele>
        <time>2021-06-13T12:29:33Z</time>
      </trkpt>
      <trkpt lat="48.35729" lon="2.8088">
        <ele>54.2</ele>
        <time>2021-06-13T12:29:38Z</time>
      </trkpt>
      <trkpt lat="48.35735" lon="2.80885">
        <ele>54.7</ele>
        <time>2021-06-13T12:29:43Z</time>
      </trkpt>
      <trkpt lat="48.3574" lon="2.80893">
        <ele>55.1</ele>
        <time>2021-06-13T12:29:51Z</time>
      </trkpt>
      <trkpt lat="48.35748" lon="2.80903">
        <ele>55.8</ele>
        <time>2021-06-13T12:29:59Z</time>
      </trkpt>
      <trkpt lat="48.35754" lon="2.80908">
        <ele>56.1</ele>
        <time>2021-06-13T12:30:06Z</time>
      </trkpt>
      <trkpt lat="48.35762" lon="2.80915">
        <ele>56.3</ele>
        <time>2021-06-13T12:30:14Z</time>
      </trkpt>
      <trkpt lat="48.35767" lon="2.80922">
        <ele>56.2</ele>
        <time>2021-06-13T12:30:20Z</time>
      </trkpt>
      <trkpt lat="48.35773" lon="2.8093">
        <ele>56.1</ele>
        <time>2021-06-13T12:30:25Z</time>
      </trkpt>
      <trkpt lat="48.35784" lon="2.80941">
        <ele>56</ele>
        <time>2021-06-13T12:30:32Z</time>
      </trkpt>
      <trkpt lat="48.35788" lon="2.80944">
        <ele>56.1</ele>
        <time>2021-06-13T12:30:35Z</time>
      </trkpt>
      <trkpt lat="48.35792" lon="2.80949">
        <ele>56</ele>
        <time>2021-06-13T12:30:40Z</time>
      </trkpt>
      <trkpt lat="48.35794" lon="2.8095">
        <ele>56.1</ele>
        <time>2021-06-13T12:30:41Z</time>
      </trkpt>
      <trkpt lat="48.35803" lon="2.8096">
        <ele>56</ele>
        <time>2021-06-13T12:30:50Z</time>
      </trkpt>
      <trkpt lat="48.35805" lon="2.80962">
        <ele>56</ele>
        <time>2021-06-13T12:30:52Z</time>
      </trkpt>
      <trkpt lat="48.3581" lon="2.80966">
        <ele>56.1</ele>
        <time>2021-06-13T12:30:56Z</time>
      </trkpt>
      <trkpt lat="48.35812" lon="2.80967">
        <ele>56.1</ele>
        <time>2021-06-13T12:30:58Z</time>
      </trkpt>
      <trkpt lat="48.35818" lon="2.80968">
        <ele>56.3</ele>
        <time>2021-06-13T12:31:05Z</time>
      </trkpt>
      <trkpt lat="48.35823" lon="2.80967">
        <ele>56.5</ele>
        <time>2021-06-13T12:31:09Z</time>
      </trkpt>
      <trkpt lat="48.35833" lon="2.80978">
        <ele>56.5</ele>
        <time>2021-06-13T12:31:17Z</time>
      </trkpt>
      <trkpt lat="48.35834" lon="2.80979">
        <ele>56.5</ele>
        <time>2021-06-13T12:31:18Z</time>
      </trkpt>
      <trkpt lat="48.35843" lon="2.8099">
        <ele>56.7</ele>
        <time>2021-06-13T12:31:26Z</time>
      </trkpt>
      <trkpt lat="48.35848" lon="2.80998">
        <ele>56.8</ele>
        <time>2021-06-13T12:31:32Z</time>
      </trkpt>
      <trkpt lat="48.35853" lon="2.81">
        <ele>56.9</ele>
        <time>2021-06-13T12:31:38Z</time>
      </trkpt>
      <trkpt lat="48.35857" lon="2.81006">
        <ele>57</ele>
        <time>2021-06-13T12:31:41Z</time>
      </trkpt>
      <trkpt lat="48.35863" lon="2.81013">
        <ele>57.2</ele>
        <time>2021-06-13T12:31:45Z</time>
      </trkpt>
      <trkpt lat="48.35868" lon="2.8102">
        <ele>57.4</ele>
        <time>2021-06-13T12:31:48Z</time>
      </trkpt>
      <trkpt lat="48.35874" lon="2.81029">
        <ele>57.6</ele>
        <time>2021-06-13T12:31:53Z</time>
      </trkpt>
      <trkpt lat="48.35879" lon="2.81038">
        <ele>57.8</ele>
        <time>2021-06-13T12:31:57Z</time>
      </trkpt>
      <trkpt lat="48.35881" lon="2.81042">
        <ele>57.8</ele>
        <time>2021-06-13T12:31:59Z</time>
      </trkpt>
      <trkpt lat="48.3589" lon="2.81053">
        <ele>58.3</ele>
        <time>2021-06-13T12:32:07Z</time>
      </trkpt>
      <trkpt lat="48.35894" lon="2.81053">
        <ele>58.6</ele>
        <time>2021-06-13T12:32:13Z</time>
      </trkpt>
      <trkpt lat="48.35895" lon="2.81054">
        <ele>58.6</ele>
        <time>2021-06-13T12:32:14Z</time>
      </trkpt>
      <trkpt lat="48.35903" lon="2.81066">
        <ele>59.1</ele>
        <time>2021-06-13T12:32:22Z</time>
      </trkpt>
      <trkpt lat="48.35904" lon="2.81067">
        <ele>59.1</ele>
        <time>2021-06-13T12:32:23Z</time>
      </trkpt>
      <trkpt lat="48.35916" lon="2.81082">
        <ele>60</ele>
        <time>2021-06-13T12:32:32Z</time>
      </trkpt>
      <trkpt lat="48.35922" lon="2.81084">
        <ele>60</ele>
        <time>2021-06-13T12:32:37Z</time>
      </trkpt>
      <trkpt lat="48.35926" lon="2.81083">
        <ele>60</ele>
        <time>2021-06-13T12:32:40Z</time>
      </trkpt>
      <trkpt lat="48.35934" lon="2.81086">
        <ele>59.9</ele>
        <time>2021-06-13T12:32:47Z</time>
      </trkpt>
      <trkpt lat="48.35937" lon="2.81086">
        <ele>59.9</ele>
        <time>2021-06-13T12:32:50Z</time>
      </trkpt>
      <trkpt lat="48.3595" lon="2.81096">
        <ele>59.5</ele>
        <time>2021-06-13T12:32:59Z</time>
      </trkpt>
      <trkpt lat="48.35958" lon="2.81102">
        <ele>59.2</ele>
        <time>2021-06-13T12:33:04Z</time>
      </trkpt>
      <trkpt lat="48.35961" lon="2.81107">
        <ele>59</ele>
        <time>2021-06-13T12:33:08Z</time>
      </trkpt>
      <trkpt lat="48.35966" lon="2.81112">
        <ele>58.7</ele>
        <time>2021-06-13T12:33:14Z</time>
      </trkpt>
      <trkpt lat="48.35969" lon="2.81114">
        <ele>58.6</ele>
        <time>2021-06-13T12:33:16Z</time>
      </trkpt>
      <trkpt lat="48.35978" lon="2.81119">
        <ele>58.2</ele>
        <time>2021-06-13T12:33:23Z</time>
      </trkpt>
      <trkpt lat="48.35982" lon="2.81123">
        <ele>57.9</ele>
        <time>2021-06-13T12:33:27Z</time>
      </trkpt>
      <trkpt lat="48.35987" lon="2.81129">
        <ele>57.5</ele>
        <time>2021-06-13T12:33:31Z</time>
      </trkpt>
      <trkpt lat="48.35997" lon="2.81136">
        <ele>56.9</ele>
        <time>2021-06-13T12:33:38Z</time>
      </trkpt>
      <trkpt lat="48.36001" lon="2.8114">
        <ele>56.7</ele>
        <time>2021-06-13T12:33:42Z</time>
      </trkpt>
      <trkpt lat="48.36009" lon="2.81145">
        <ele>56.6</ele>
        <time>2021-06-13T12:33:48Z</time>
      </trkpt>
      <trkpt lat="48.36012" lon="2.81146">
        <ele>56.6</ele>
        <time>2021-06-13T12:33:50Z</time>
      </trkpt>
      <trkpt lat="48.3602" lon="2.81152">
        <ele>56.7</ele>
        <time>2021-06-13T12:33:57Z</time>
      </trkpt>
      <trkpt lat="48.36031" lon="2.81165">
        <ele>56.6</ele>
        <time>2021-06-13T12:34:05Z</time>
      </trkpt>
      <trkpt lat="48.36035" lon="2.8117">
        <ele>56.6</ele>
        <time>2021-06-13T12:34:09Z</time>
      </trkpt>
      <trkpt lat="48.36044" lon="2.81178">
        <ele>56.8</ele>
        <time>2021-06-13T12:34:16Z</time>
      </trkpt>
      <trkpt lat="48.36046" lon="2.8118">
        <ele>56.8</ele>
        <time>2021-06-13T12:34:18Z</time>
      </trkpt>
      <trkpt lat="48.36056" lon="2.81196">
        <ele>56.9</ele>
        <time>2021-06-13T12:34:27Z</time>
      </trkpt>
      <trkpt lat="48.36057" lon="2.81196">
        <ele>56.9</ele>
        <time>2021-06-13T12:34:28Z</time>
      </trkpt>
      <trkpt lat="48.3606" lon="2.81201">
        <ele>57</ele>
        <time>2021-06-13T12:34:31Z</time>
      </trkpt>
      <trkpt lat="48.36068" lon="2.81213">
        <ele>57</ele>
        <time>2021-06-13T12:34:38Z</time>
      </trkpt>
      <trkpt lat="48.36073" lon="2.81221">
        <ele>57.1</ele>
        <time>2021-06-13T12:34:44Z</time>
      </trkpt>
      <trkpt lat="48.36078" lon="2.8123">
        <ele>57.2</ele>
        <time>2021-06-13T12:34:50Z</time>
      </trkpt>
      <trkpt lat="48.3608" lon="2.81232">
        <ele>57.2</ele>
        <time>2021-06-13T12:34:52Z</time>
      </trkpt>
      <trkpt lat="48.36083" lon="2.81238">
        <ele>57.3</ele>
        <time>2021-06-13T12:34:55Z</time>
      </trkpt>
      <trkpt lat="48.36091" lon="2.81247">
        <ele>56.6</ele>
        <time>2021-06-13T12:35:02Z</time>
      </trkpt>
      <trkpt lat="48.36091" lon="2.81247">
        <ele>56.6</ele>
        <time>2021-06-13T12:35:03Z</time>
      </trkpt>
      <trkpt lat="48.36098" lon="2.81261">
        <ele>55.7</ele>
        <time>2021-06-13T12:35:12Z</time>
      </trkpt>
      <trkpt lat="48.36101" lon="2.81266">
        <ele>55.4</ele>
        <time>2021-06-13T12:35:15Z</time>
      </trkpt>
      <trkpt lat="48.36109" lon="2.81277">
        <ele>54.8</ele>
        <time>2021-06-13T12:35:23Z</time>
      </trkpt>
      <trkpt lat="48.36116" lon="2.81284">
        <ele>54.4</ele>
        <time>2021-06-13T12:35:30Z</time>
      </trkpt>
      <trkpt lat="48.36124" lon="2.81295">
        <ele>54</ele>
        <time>2021-06-13T12:35:38Z</time>
      </trkpt>
      <trkpt lat="48.36129" lon="2.81308">
        <ele>53.8</ele>
        <time>2021-06-13T12:35:44Z</time>
      </trkpt>
      <trkpt lat="48.36135" lon="2.81321">
        <ele>53.7</ele>
        <time>2021-06-13T12:35:50Z</time>
      </trkpt>
      <trkpt lat="48.36142" lon="2.81327">
        <ele>53.7</ele>
        <time>2021-06-13T12:35:57Z</time>
      </trkpt>
      <trkpt lat="48.36145" lon="2.81331">
        <ele>53.7</ele>
        <time>2021-06-13T12:36:01Z</time>
      </trkpt>
      <trkpt lat="48.36151" lon="2.81342">
        <ele>53.6</ele>
        <time>2021-06-13T12:36:06Z</time>
      </trkpt>
      <trkpt lat="48.36156" lon="2.81348">
        <ele>53.5</ele>
        <time>2021-06-13T12:36:12Z</time>
      </trkpt>
      <trkpt lat="48.36158" lon="2.81356">
        <ele>53.3</ele>
        <time>2021-06-13T12:36:16Z</time>
      </trkpt>
      <trkpt lat="48.36169" lon="2.81378">
        <ele>53.1</ele>
        <time>2021-06-13T12:36:25Z</time>
      </trkpt>
      <trkpt lat="48.36174" lon="2.81388">
        <ele>53.1</ele>
        <time>2021-06-13T12:36:31Z</time>
      </trkpt>
      <trkpt lat="48.36179" lon="2.81399">
        <ele>53.2</ele>
        <time>2021-06-13T12:36:38Z</time>
      </trkpt>
      <trkpt lat="48.36186" lon="2.81416">
        <ele>53.2</ele>
        <time>2021-06-13T12:36:47Z</time>
      </trkpt>
      <trkpt lat="48.36191" lon="2.8143">
        <ele>53.1</ele>
        <time>2021-06-13T12:36:55Z</time>
      </trkpt>
      <trkpt lat="48.36198" lon="2.81448">
        <ele>53</ele>
        <time>2021-06-13T12:37:05Z</time>
      </trkpt>
      <trkpt lat="48.36203" lon="2.8146">
        <ele>52.9</ele>
        <time>2021-06-13T12:37:12Z</time>
      </trkpt>
      <trkpt lat="48.36208" lon="2.81471">
        <ele>52.8</ele>
        <time>2021-06-13T12:37:19Z</time>
      </trkpt>
      <trkpt lat="48.36208" lon="2.81476">
        <ele>52.7</ele>
        <time>2021-06-13T12:37:23Z</time>
      </trkpt>
      <trkpt lat="48.36215" lon="2.81484">
        <ele>52.8</ele>
        <time>2021-06-13T12:37:31Z</time>
      </trkpt>
      <trkpt lat="48.36217" lon="2.8149">
        <ele>52.7</ele>
        <time>2021-06-13T12:37:36Z</time>
      </trkpt>
      <trkpt lat="48.36221" lon="2.81497">
        <ele>52.7</ele>
        <time>2021-06-13T12:37:44Z</time>
      </trkpt>
      <trkpt lat="48.36222" lon="2.81499">
        <ele>52.7</ele>
        <time>2021-06-13T12:37:45Z</time>
      </trkpt>
      <trkpt lat="48.36225" lon="2.81507">
        <ele>52.8</ele>
        <time>2021-06-13T12:37:49Z</time>
      </trkpt>
      <trkpt lat="48.36228" lon="2.81514">
        <ele>53</ele>
        <time>2021-06-13T12:37:55Z</time>
      </trkpt>
      <trkpt lat="48.36233" lon="2.81526">
        <ele>53.3</ele>
        <time>2021-06-13T12:38:02Z</time>
      </trkpt>
      <trkpt lat="48.36235" lon="2.81534">
        <ele>53.4</ele>
        <time>2021-06-13T12:38:08Z</time>
      </trkpt>
      <trkpt lat="48.3624" lon="2.81543">
        <ele>53.6</ele>
        <time>2021-06-13T12:38:12Z</time>
      </trkpt>
      <trkpt lat="48.36242" lon="2.81548">
        <ele>53.7</ele>
        <time>2021-06-13T12:38:17Z</time>
      </trkpt>
      <trkpt lat="48.36243" lon="2.81554">
        <ele>53.7</ele>
        <time>2021-06-13T12:38:20Z</time>
      </trkpt>
      <trkpt lat="48.36245" lon="2.8156">
        <ele>53.8</ele>
        <time>2021-06-13T12:38:27Z</time>
      </trkpt>
      <trkpt lat="48.36251" lon="2.81576">
        <ele>54.2</ele>
        <time>2021-06-13T12:38:35Z</time>
      </trkpt>
      <trkpt lat="48.36253" lon="2.81582">
        <ele>54.3</ele>
        <time>2021-06-13T12:38:40Z</time>
      </trkpt>
      <trkpt lat="48.36254" lon="2.81584">
        <ele>54.4</ele>
        <time>2021-06-13T12:38:42Z</time>
      </trkpt>
      <trkpt lat="48.36257" lon="2.81596">
        <ele>54.5</ele>
        <time>2021-06-13T12:38:50Z</time>
      </trkpt>
      <trkpt lat="48.36263" lon="2.81614">
        <ele>54.8</ele>
        <time>2021-06-13T12:38:57Z</time>
      </trkpt>
      <trkpt lat="48.36271" lon="2.81631">
        <ele>55.2</ele>
        <time>2021-06-13T12:39:05Z</time>
      </trkpt>
      <trkpt lat="48.36271" lon="2.81633">
        <ele>55.2</ele>
        <time>2021-06-13T12:39:06Z</time>
      </trkpt>
      <trkpt lat="48.36275" lon="2.81647">
        <ele>55.3</ele>
        <time>2021-06-13T12:39:12Z</time>
      </trkpt>
      <trkpt lat="48.36281" lon="2.81663">
        <ele>55.5</ele>
        <time>2021-06-13T12:39:19Z</time>
      </trkpt>
      <trkpt lat="48.36283" lon="2.81668">
        <ele>55.5</ele>
        <time>2021-06-13T12:39:23Z</time>
      </trkpt>
      <trkpt lat="48.36284" lon="2.81671">
        <ele>55.6</ele>
        <time>2021-06-13T12:39:25Z</time>
      </trkpt>
      <trkpt lat="48.36291" lon="2.81694">
        <ele>55.6</ele>
        <time>2021-06-13T12:39:34Z</time>
      </trkpt>
      <trkpt lat="48.36294" lon="2.81707">
        <ele>55.5</ele>
        <time>2021-06-13T12:39:41Z</time>
      </trkpt>
      <trkpt lat="48.36295" lon="2.81716">
        <ele>55.2</ele>
        <time>2021-06-13T12:39:46Z</time>
      </trkpt>
      <trkpt lat="48.36299" lon="2.8173">
        <ele>55.1</ele>
        <time>2021-06-13T12:39:53Z</time>
      </trkpt>
      <trkpt lat="48.36301" lon="2.81735">
        <ele>55</ele>
        <time>2021-06-13T12:39:56Z</time>
      </trkpt>
      <trkpt lat="48.36307" lon="2.81749">
        <ele>54.8</ele>
        <time>2021-06-13T12:40:03Z</time>
      </trkpt>
      <trkpt lat="48.36308" lon="2.81751">
        <ele>54.8</ele>
        <time>2021-06-13T12:40:04Z</time>
      </trkpt>
      <trkpt lat="48.36315" lon="2.81765">
        <ele>54.8</ele>
        <time>2021-06-13T12:40:12Z</time>
      </trkpt>
      <trkpt lat="48.36321" lon="2.8178">
        <ele>54.8</ele>
        <time>2021-06-13T12:40:20Z</time>
      </trkpt>
      <trkpt lat="48.36324" lon="2.81791">
        <ele>54.7</ele>
        <time>2021-06-13T12:40:28Z</time>
      </trkpt>
      <trkpt lat="48.36327" lon="2.81798">
        <ele>54.6</ele>
        <time>2021-06-13T12:40:35Z</time>
      </trkpt>
      <trkpt lat="48.36329" lon="2.81802">
        <ele>54.6</ele>
        <time>2021-06-13T12:40:40Z</time>
      </trkpt>
      <trkpt lat="48.36333" lon="2.81812">
        <ele>54.5</ele>
        <time>2021-06-13T12:40:48Z</time>
      </trkpt>
      <trkpt lat="48.36335" lon="2.81817">
        <ele>54.5</ele>
        <time>2021-06-13T12:40:54Z</time>
      </trkpt>
      <trkpt lat="48.36337" lon="2.8182">
        <ele>54.5</ele>
        <time>2021-06-13T12:40:59Z</time>
      </trkpt>
      <trkpt lat="48.36339" lon="2.81823">
        <ele>54.5</ele>
        <time>2021-06-13T12:41:02Z</time>
      </trkpt>
      <trkpt lat="48.36346" lon="2.81836">
        <ele>54.5</ele>
        <time>2021-06-13T12:41:08Z</time>
      </trkpt>
      <trkpt lat="48.36348" lon="2.81843">
        <ele>54.4</ele>
        <time>2021-06-13T12:41:11Z</time>
      </trkpt>
      <trkpt lat="48.36356" lon="2.81864">
        <ele>53.9</ele>
        <time>2021-06-13T12:41:18Z</time>
      </trkpt>
      <trkpt lat="48.36359" lon="2.81869">
        <ele>53.9</ele>
        <time>2021-06-13T12:41:21Z</time>
      </trkpt>
      <trkpt lat="48.36364" lon="2.81875">
        <ele>53.7</ele>
        <time>2021-06-13T12:41:24Z</time>
      </trkpt>
      <trkpt lat="48.3637" lon="2.81885">
        <ele>53.4</ele>
        <time>2021-06-13T12:41:30Z</time>
      </trkpt>
      <trkpt lat="48.36378" lon="2.81892">
        <ele>53.2</ele>
        <time>2021-06-13T12:41:37Z</time>
      </trkpt>
      <trkpt lat="48.36387" lon="2.81901">
        <ele>52.9</ele>
        <time>2021-06-13T12:41:44Z</time>
      </trkpt>
      <trkpt lat="48.36388" lon="2.81902">
        <ele>52.8</ele>
        <time>2021-06-13T12:41:46Z</time>
      </trkpt>
      <trkpt lat="48.36391" lon="2.81904">
        <ele>52.7</ele>
        <time>2021-06-13T12:41:48Z</time>
      </trkpt>
      <trkpt lat="48.36394" lon="2.81904">
        <ele>52.7</ele>
        <time>2021-06-13T12:41:50Z</time>
      </trkpt>
      <trkpt lat="48.36404" lon="2.81908">
        <ele>52.6</ele>
        <time>2021-06-13T12:41:58Z</time>
      </trkpt>
      <trkpt lat="48.36411" lon="2.81909">
        <ele>52.5</ele>
        <time>2021-06-13T12:42:05Z</time>
      </trkpt>
      <trkpt lat="48.36411" lon="2.81909">
        <ele>52.5</ele>
        <time>2021-06-13T12:42:21Z</time>
      </trkpt>
      <trkpt lat="48.36412" lon="2.81909">
        <ele>52.5</ele>
        <time>2021-06-13T12:42:31Z</time>
      </trkpt>
      <trkpt lat="48.36413" lon="2.81909">
        <ele>52.5</ele>
        <time>2021-06-13T12:42:33Z</time>
      </trkpt>
      <trkpt lat="48.36422" lon="2.8191">
        <ele>52.8</ele>
        <time>2021-06-13T12:42:40Z</time>
      </trkpt>
      <trkpt lat="48.36432" lon="2.81921">
        <ele>52.7</ele>
        <time>2021-06-13T12:42:47Z</time>
      </trkpt>
      <trkpt lat="48.36445" lon="2.81932">
        <ele>52.9</ele>
        <time>2021-06-13T12:42:55Z</time>
      </trkpt>
      <trkpt lat="48.36456" lon="2.81941">
        <ele>53.1</ele>
        <time>2021-06-13T12:43:03Z</time>
      </trkpt>
      <trkpt lat="48.36461" lon="2.81943">
        <ele>53.2</ele>
        <time>2021-06-13T12:43:06Z</time>
      </trkpt>
      <trkpt lat="48.36468" lon="2.81946">
        <ele>53.4</ele>
        <time>2021-06-13T12:43:12Z</time>
      </trkpt>
      <trkpt lat="48.3648" lon="2.81953">
        <ele>53.5</ele>
        <time>2021-06-13T12:43:21Z</time>
      </trkpt>
      <trkpt lat="48.36491" lon="2.81958">
        <ele>53.7</ele>
        <time>2021-06-13T12:43:29Z</time>
      </trkpt>
      <trkpt lat="48.36492" lon="2.81958">
        <ele>53.7</ele>
        <time>2021-06-13T12:43:30Z</time>
      </trkpt>
      <trkpt lat="48.36502" lon="2.81963">
        <ele>53.7</ele>
        <time>2021-06-13T12:43:37Z</time>
      </trkpt>
      <trkpt lat="48.36514" lon="2.81968">
        <ele>53.9</ele>
        <time>2021-06-13T12:43:46Z</time>
      </trkpt>
      <trkpt lat="48.36524" lon="2.81972">
        <ele>54</ele>
        <time>2021-06-13T12:43:53Z</time>
      </trkpt>
      <trkpt lat="48.36531" lon="2.81977">
        <ele>53.9</ele>
        <time>2021-06-13T12:44:00Z</time>
      </trkpt>
      <trkpt lat="48.36542" lon="2.8198">
        <ele>54.1</ele>
        <time>2021-06-13T12:44:08Z</time>
      </trkpt>
      <trkpt lat="48.36554" lon="2.81985">
        <ele>54.1</ele>
        <time>2021-06-13T12:44:16Z</time>
      </trkpt>
      <trkpt lat="48.36561" lon="2.81987">
        <ele>54.2</ele>
        <time>2021-06-13T12:44:21Z</time>
      </trkpt>
      <trkpt lat="48.36571" lon="2.81992">
        <ele>54.2</ele>
        <time>2021-06-13T12:44:29Z</time>
      </trkpt>
      <trkpt lat="48.3658" lon="2.81992">
        <ele>54.6</ele>
        <time>2021-06-13T12:44:36Z</time>
      </trkpt>
      <trkpt lat="48.36581" lon="2.81992">
        <ele>54.6</ele>
        <time>2021-06-13T12:44:37Z</time>
      </trkpt>
      <trkpt lat="48.36585" lon="2.81991">
        <ele>54.8</ele>
        <time>2021-06-13T12:44:44Z</time>
      </trkpt>
      <trkpt lat="48.36586" lon="2.81991">
        <ele>54.8</ele>
        <time>2021-06-13T12:44:47Z</time>
      </trkpt>
      <trkpt lat="48.36592" lon="2.81993">
        <ele>54.7</ele>
        <time>2021-06-13T12:44:50Z</time>
      </trkpt>
      <trkpt lat="48.36609" lon="2.81997">
        <ele>54.5</ele>
        <time>2021-06-13T12:44:58Z</time>
      </trkpt>
      <trkpt lat="48.3661" lon="2.81997">
        <ele>54.5</ele>
        <time>2021-06-13T12:44:59Z</time>
      </trkpt>
      <trkpt lat="48.36616" lon="2.81996">
        <ele>54.7</ele>
        <time>2021-06-13T12:45:03Z</time>
      </trkpt>
      <trkpt lat="48.36622" lon="2.81996">
        <ele>54.7</ele>
        <time>2021-06-13T12:45:07Z</time>
      </trkpt>
      <trkpt lat="48.3663" lon="2.81996">
        <ele>54.8</ele>
        <time>2021-06-13T12:45:13Z</time>
      </trkpt>
      <trkpt lat="48.3664" lon="2.81993">
        <ele>55.1</ele>
        <time>2021-06-13T12:45:20Z</time>
      </trkpt>
      <trkpt lat="48.36647" lon="2.8199">
        <ele>55.4</ele>
        <time>2021-06-13T12:45:25Z</time>
      </trkpt>
      <trkpt lat="48.36655" lon="2.81988">
        <ele>55.6</ele>
        <time>2021-06-13T12:45:30Z</time>
      </trkpt>
      <trkpt lat="48.36662" lon="2.81986">
        <ele>55.8</ele>
        <time>2021-06-13T12:45:35Z</time>
      </trkpt>
      <trkpt lat="48.36674" lon="2.81985">
        <ele>55.9</ele>
        <time>2021-06-13T12:45:44Z</time>
      </trkpt>
      <trkpt lat="48.36681" lon="2.81984">
        <ele>56</ele>
        <time>2021-06-13T12:45:50Z</time>
      </trkpt>
      <trkpt lat="48.36687" lon="2.81981">
        <ele>56.1</ele>
        <time>2021-06-13T12:45:54Z</time>
      </trkpt>
      <trkpt lat="48.36694" lon="2.81979">
        <ele>56.2</ele>
        <time>2021-06-13T12:45:59Z</time>
      </trkpt>
      <trkpt lat="48.36697" lon="2.81977">
        <ele>56.3</ele>
        <time>2021-06-13T12:46:01Z</time>
      </trkpt>
      <trkpt lat="48.3671" lon="2.81974">
        <ele>56.4</ele>
        <time>2021-06-13T12:46:09Z</time>
      </trkpt>
      <trkpt lat="48.36715" lon="2.81974">
        <ele>56.4</ele>
        <time>2021-06-13T12:46:13Z</time>
      </trkpt>
      <trkpt lat="48.36723" lon="2.81971">
        <ele>56.5</ele>
        <time>2021-06-13T12:46:19Z</time>
      </trkpt>
      <trkpt lat="48.36726" lon="2.8197">
        <ele>56.5</ele>
        <time>2021-06-13T12:46:21Z</time>
      </trkpt>
      <trkpt lat="48.36736" lon="2.81967">
        <ele>56.6</ele>
        <time>2021-06-13T12:46:29Z</time>
      </trkpt>
      <trkpt lat="48.36743" lon="2.81965">
        <ele>56.7</ele>
        <time>2021-06-13T12:46:34Z</time>
      </trkpt>
      <trkpt lat="48.36751" lon="2.81962">
        <ele>56.9</ele>
        <time>2021-06-13T12:46:40Z</time>
      </trkpt>
      <trkpt lat="48.36763" lon="2.81959">
        <ele>57.1</ele>
        <time>2021-06-13T12:46:49Z</time>
      </trkpt>
      <trkpt lat="48.36769" lon="2.81956">
        <ele>57.2</ele>
        <time>2021-06-13T12:46:53Z</time>
      </trkpt>
      <trkpt lat="48.36777" lon="2.81954">
        <ele>57.4</ele>
        <time>2021-06-13T12:46:59Z</time>
      </trkpt>
      <trkpt lat="48.3678" lon="2.81954">
        <ele>57.4</ele>
        <time>2021-06-13T12:47:01Z</time>
      </trkpt>
      <trkpt lat="48.36788" lon="2.81953">
        <ele>57.5</ele>
        <time>2021-06-13T12:47:07Z</time>
      </trkpt>
      <trkpt lat="48.36796" lon="2.81949">
        <ele>57.8</ele>
        <time>2021-06-13T12:47:13Z</time>
      </trkpt>
      <trkpt lat="48.36804" lon="2.81946">
        <ele>58</ele>
        <time>2021-06-13T12:47:19Z</time>
      </trkpt>
      <trkpt lat="48.3681" lon="2.81945">
        <ele>58.1</ele>
        <time>2021-06-13T12:47:24Z</time>
      </trkpt>
      <trkpt lat="48.36821" lon="2.81944">
        <ele>58.3</ele>
        <time>2021-06-13T12:47:32Z</time>
      </trkpt>
      <trkpt lat="48.36824" lon="2.81944">
        <ele>58.3</ele>
        <time>2021-06-13T12:47:34Z</time>
      </trkpt>
      <trkpt lat="48.36832" lon="2.8194">
        <ele>58.6</ele>
        <time>2021-06-13T12:47:40Z</time>
      </trkpt>
      <trkpt lat="48.36838" lon="2.81937">
        <ele>58.7</ele>
        <time>2021-06-13T12:47:45Z</time>
      </trkpt>
      <trkpt lat="48.36848" lon="2.81931">
        <ele>58.8</ele>
        <time>2021-06-13T12:47:52Z</time>
      </trkpt>
      <trkpt lat="48.36857" lon="2.81925">
        <ele>59</ele>
        <time>2021-06-13T12:47:59Z</time>
      </trkpt>
      <trkpt lat="48.36868" lon="2.81916">
        <ele>59.2</ele>
        <time>2021-06-13T12:48:07Z</time>
      </trkpt>
      <trkpt lat="48.36875" lon="2.81912">
        <ele>59.2</ele>
        <time>2021-06-13T12:48:13Z</time>
      </trkpt>
      <trkpt lat="48.36881" lon="2.81905">
        <ele>59.4</ele>
        <time>2021-06-13T12:48:18Z</time>
      </trkpt>
      <trkpt lat="48.36889" lon="2.81897">
        <ele>59.5</ele>
        <time>2021-06-13T12:48:24Z</time>
      </trkpt>
      <trkpt lat="48.36897" lon="2.81891">
        <ele>59.6</ele>
        <time>2021-06-13T12:48:31Z</time>
      </trkpt>
      <trkpt lat="48.36904" lon="2.81886">
        <ele>59.7</ele>
        <time>2021-06-13T12:48:37Z</time>
      </trkpt>
      <trkpt lat="48.36911" lon="2.8188">
        <ele>59.9</ele>
        <time>2021-06-13T12:48:42Z</time>
      </trkpt>
      <trkpt lat="48.36917" lon="2.81874">
        <ele>60</ele>
        <time>2021-06-13T12:48:48Z</time>
      </trkpt>
      <trkpt lat="48.36917" lon="2.81874">
        <ele>60</ele>
        <time>2021-06-13T12:48:51Z</time>
      </trkpt>
      <trkpt lat="48.36917" lon="2.81876">
        <ele>60</ele>
        <time>2021-06-13T12:48:57Z</time>
      </trkpt>
      <trkpt lat="48.36918" lon="2.81876">
        <ele>60</ele>
        <time>2021-06-13T12:49:07Z</time>
      </trkpt>
      <trkpt lat="48.36918" lon="2.81876">
        <ele>59.9</ele>
        <time>2021-06-13T12:49:15Z</time>
      </trkpt>
      <trkpt lat="48.36923" lon="2.81872">
        <ele>60.1</ele>
        <time>2021-06-13T12:49:20Z</time>
      </trkpt>
      <trkpt lat="48.36929" lon="2.81865">
        <ele>60.3</ele>
        <time>2021-06-13T12:49:26Z</time>
      </trkpt>
      <trkpt lat="48.36937" lon="2.81857">
        <ele>60.4</ele>
        <time>2021-06-13T12:49:34Z</time>
      </trkpt>
      <trkpt lat="48.36944" lon="2.81848">
        <ele>60.6</ele>
        <time>2021-06-13T12:49:41Z</time>
      </trkpt>
      <trkpt lat="48.36949" lon="2.81839">
        <ele>60.7</ele>
        <time>2021-06-13T12:49:46Z</time>
      </trkpt>
      <trkpt lat="48.36958" lon="2.81827">
        <ele>60.6</ele>
        <time>2021-06-13T12:49:53Z</time>
      </trkpt>
      <trkpt lat="48.36962" lon="2.8182">
        <ele>60.4</ele>
        <time>2021-06-13T12:49:57Z</time>
      </trkpt>
      <trkpt lat="48.36969" lon="2.81811">
        <ele>60.3</ele>
        <time>2021-06-13T12:50:03Z</time>
      </trkpt>
      <trkpt lat="48.36973" lon="2.81803">
        <ele>60.2</ele>
        <time>2021-06-13T12:50:08Z</time>
      </trkpt>
      <trkpt lat="48.36978" lon="2.81799">
        <ele>60.1</ele>
        <time>2021-06-13T12:50:13Z</time>
      </trkpt>
      <trkpt lat="48.36984" lon="2.8179">
        <ele>60</ele>
        <time>2021-06-13T12:50:19Z</time>
      </trkpt>
      <trkpt lat="48.36991" lon="2.8178">
        <ele>59.9</ele>
        <time>2021-06-13T12:50:26Z</time>
      </trkpt>
      <trkpt lat="48.36995" lon="2.81775">
        <ele>59.9</ele>
        <time>2021-06-13T12:50:30Z</time>
      </trkpt>
      <trkpt lat="48.37" lon="2.81768">
        <ele>59.8</ele>
        <time>2021-06-13T12:50:36Z</time>
      </trkpt>
      <trkpt lat="48.37004" lon="2.81762">
        <ele>59.9</ele>
        <time>2021-06-13T12:50:40Z</time>
      </trkpt>
      <trkpt lat="48.3701" lon="2.81755">
        <ele>60</ele>
        <time>2021-06-13T12:50:45Z</time>
      </trkpt>
      <trkpt lat="48.37014" lon="2.8175">
        <ele>60.2</ele>
        <time>2021-06-13T12:50:49Z</time>
      </trkpt>
      <trkpt lat="48.37021" lon="2.81739">
        <ele>60.6</ele>
        <time>2021-06-13T12:50:56Z</time>
      </trkpt>
      <trkpt lat="48.37028" lon="2.8173">
        <ele>60.8</ele>
        <time>2021-06-13T12:51:03Z</time>
      </trkpt>
      <trkpt lat="48.37033" lon="2.8172">
        <ele>61.1</ele>
        <time>2021-06-13T12:51:09Z</time>
      </trkpt>
      <trkpt lat="48.3704" lon="2.81708">
        <ele>61.3</ele>
        <time>2021-06-13T12:51:16Z</time>
      </trkpt>
      <trkpt lat="48.37045" lon="2.81696">
        <ele>61.4</ele>
        <time>2021-06-13T12:51:23Z</time>
      </trkpt>
      <trkpt lat="48.3705" lon="2.81685">
        <ele>61.5</ele>
        <time>2021-06-13T12:51:30Z</time>
      </trkpt>
      <trkpt lat="48.37053" lon="2.81678">
        <ele>61.6</ele>
        <time>2021-06-13T12:51:36Z</time>
      </trkpt>
      <trkpt lat="48.37059" lon="2.81668">
        <ele>61.6</ele>
        <time>2021-06-13T12:51:45Z</time>
      </trkpt>
      <trkpt lat="48.37061" lon="2.81669">
        <ele>61.5</ele>
        <time>2021-06-13T12:51:48Z</time>
      </trkpt>
      <trkpt lat="48.37067" lon="2.81678">
        <ele>61.3</ele>
        <time>2021-06-13T12:51:56Z</time>
      </trkpt>
      <trkpt lat="48.37071" lon="2.81681">
        <ele>61.2</ele>
        <time>2021-06-13T12:52:02Z</time>
      </trkpt>
      <trkpt lat="48.37077" lon="2.81685">
        <ele>61.1</ele>
        <time>2021-06-13T12:52:08Z</time>
      </trkpt>
      <trkpt lat="48.37082" lon="2.81691">
        <ele>61</ele>
        <time>2021-06-13T12:52:14Z</time>
      </trkpt>
      <trkpt lat="48.37083" lon="2.81695">
        <ele>61</ele>
        <time>2021-06-13T12:52:16Z</time>
      </trkpt>
      <trkpt lat="48.37091" lon="2.81705">
        <ele>60.8</ele>
        <time>2021-06-13T12:52:23Z</time>
      </trkpt>
      <trkpt lat="48.37093" lon="2.81707">
        <ele>60.8</ele>
        <time>2021-06-13T12:52:25Z</time>
      </trkpt>
      <trkpt lat="48.37103" lon="2.81712">
        <ele>60.5</ele>
        <time>2021-06-13T12:52:33Z</time>
      </trkpt>
      <trkpt lat="48.37104" lon="2.81713">
        <ele>60.5</ele>
        <time>2021-06-13T12:52:34Z</time>
      </trkpt>
      <trkpt lat="48.37107" lon="2.81715">
        <ele>60.4</ele>
        <time>2021-06-13T12:52:37Z</time>
      </trkpt>
      <trkpt lat="48.37109" lon="2.81718">
        <ele>60.4</ele>
        <time>2021-06-13T12:52:39Z</time>
      </trkpt>
      <trkpt lat="48.37112" lon="2.81725">
        <ele>60.3</ele>
        <time>2021-06-13T12:52:42Z</time>
      </trkpt>
      <trkpt lat="48.37116" lon="2.81732">
        <ele>60.2</ele>
        <time>2021-06-13T12:52:47Z</time>
      </trkpt>
      <trkpt lat="48.37117" lon="2.81736">
        <ele>60.2</ele>
        <time>2021-06-13T12:52:49Z</time>
      </trkpt>
      <trkpt lat="48.37124" lon="2.81742">
        <ele>60</ele>
        <time>2021-06-13T12:52:55Z</time>
      </trkpt>
      <trkpt lat="48.3713" lon="2.81744">
        <ele>59.9</ele>
        <time>2021-06-13T12:52:59Z</time>
      </trkpt>
      <trkpt lat="48.37134" lon="2.81747">
        <ele>59.8</ele>
        <time>2021-06-13T12:53:02Z</time>
      </trkpt>
      <trkpt lat="48.37144" lon="2.81754">
        <ele>59.4</ele>
        <time>2021-06-13T12:53:11Z</time>
      </trkpt>
      <trkpt lat="48.37151" lon="2.81755">
        <ele>59.2</ele>
        <time>2021-06-13T12:53:17Z</time>
      </trkpt>
      <trkpt lat="48.37163" lon="2.81763">
        <ele>58.6</ele>
        <time>2021-06-13T12:53:24Z</time>
      </trkpt>
      <trkpt lat="48.37171" lon="2.81765">
        <ele>58.2</ele>
        <time>2021-06-13T12:53:29Z</time>
      </trkpt>
      <trkpt lat="48.37172" lon="2.81767">
        <ele>58.1</ele>
        <time>2021-06-13T12:53:37Z</time>
      </trkpt>
      <trkpt lat="48.37174" lon="2.81767">
        <ele>58</ele>
        <time>2021-06-13T12:53:47Z</time>
      </trkpt>
      <trkpt lat="48.37183" lon="2.81772">
        <ele>57.4</ele>
        <time>2021-06-13T12:53:53Z</time>
      </trkpt>
      <trkpt lat="48.37192" lon="2.81778">
        <ele>56.8</ele>
        <time>2021-06-13T12:54:01Z</time>
      </trkpt>
      <trkpt lat="48.37201" lon="2.81781">
        <ele>56.2</ele>
        <time>2021-06-13T12:54:10Z</time>
      </trkpt>
      <trkpt lat="48.3721" lon="2.81785">
        <ele>55.7</ele>
        <time>2021-06-13T12:54:16Z</time>
      </trkpt>
      <trkpt lat="48.3721" lon="2.81785">
        <ele>55.7</ele>
        <time>2021-06-13T12:54:21Z</time>
      </trkpt>
      <trkpt lat="48.37215" lon="2.81787">
        <ele>55.4</ele>
        <time>2021-06-13T12:54:29Z</time>
      </trkpt>
      <trkpt lat="48.37219" lon="2.81786">
        <ele>55.2</ele>
        <time>2021-06-13T12:54:32Z</time>
      </trkpt>
      <trkpt lat="48.37226" lon="2.81785">
        <ele>54.9</ele>
        <time>2021-06-13T12:54:40Z</time>
      </trkpt>
      <trkpt lat="48.37228" lon="2.81784">
        <ele>54.8</ele>
        <time>2021-06-13T12:54:46Z</time>
      </trkpt>
      <trkpt lat="48.37231" lon="2.81783">
        <ele>54.8</ele>
        <time>2021-06-13T12:54:57Z</time>
      </trkpt>
      <trkpt lat="48.37232" lon="2.81782">
        <ele>54.7</ele>
        <time>2021-06-13T12:55:08Z</time>
      </trkpt>
      <trkpt lat="48.37233" lon="2.81782">
        <ele>54.6</ele>
        <time>2021-06-13T12:55:21Z</time>
      </trkpt>
      <trkpt lat="48.37234" lon="2.81781">
        <ele>54.6</ele>
        <time>2021-06-13T12:55:30Z</time>
      </trkpt>
      <trkpt lat="48.37232" lon="2.8178">
        <ele>54.8</ele>
        <time>2021-06-13T12:55:35Z</time>
      </trkpt>
      <trkpt lat="48.37232" lon="2.81781">
        <ele>54.7</ele>
        <time>2021-06-13T12:55:46Z</time>
      </trkpt>
      <trkpt lat="48.37247" lon="2.81793">
        <ele>53.6</ele>
        <time>2021-06-13T12:55:56Z</time>
      </trkpt>
      <trkpt lat="48.37249" lon="2.81794">
        <ele>53.5</ele>
        <time>2021-06-13T12:56:06Z</time>
      </trkpt>
      <trkpt lat="48.37249" lon="2.81792">
        <ele>53.5</ele>
        <time>2021-06-13T12:56:22Z</time>
      </trkpt>
      <trkpt lat="48.37247" lon="2.81791">
        <ele>53.7</ele>
        <time>2021-06-13T12:56:37Z</time>
      </trkpt>
      <trkpt lat="48.37245" lon="2.8179">
        <ele>53.8</ele>
        <time>2021-06-13T12:56:51Z</time>
      </trkpt>
      <trkpt lat="48.37244" lon="2.8179">
        <ele>53.8</ele>
        <time>2021-06-13T12:57:06Z</time>
      </trkpt>
      <trkpt lat="48.37244" lon="2.8179">
        <ele>53.9</ele>
        <time>2021-06-13T12:57:18Z</time>
      </trkpt>
      <trkpt lat="48.37244" lon="2.8179">
        <ele>53.9</ele>
        <time>2021-06-13T12:57:31Z</time>
      </trkpt>
      <trkpt lat="48.37244" lon="2.8179">
        <ele>53.9</ele>
        <time>2021-06-13T12:57:46Z</time>
      </trkpt>
      <trkpt lat="48.37243" lon="2.81791">
        <ele>53.9</ele>
        <time>2021-06-13T12:57:59Z</time>
      </trkpt>
      <trkpt lat="48.37244" lon="2.81791">
        <ele>53.8</ele>
        <time>2021-06-13T12:58:12Z</time>
      </trkpt>
      <trkpt lat="48.37244" lon="2.8179">
        <ele>53.9</ele>
        <time>2021-06-13T12:58:21Z</time>
      </trkpt>
      <trkpt lat="48.37243" lon="2.8179">
        <ele>53.9</ele>
        <time>2021-06-13T12:58:34Z</time>
      </trkpt>
      <trkpt lat="48.37243" lon="2.81789">
        <ele>53.9</ele>
        <time>2021-06-13T12:58:49Z</time>
      </trkpt>
      <trkpt lat="48.37243" lon="2.81788">
        <ele>54</ele>
        <time>2021-06-13T12:59:04Z</time>
      </trkpt>
      <trkpt lat="48.37243" lon="2.81788">
        <ele>54</ele>
        <time>2021-06-13T12:59:18Z</time>
      </trkpt>
      <trkpt lat="48.37244" lon="2.81789">
        <ele>53.9</ele>
        <time>2021-06-13T12:59:31Z</time>
      </trkpt>
      <trkpt lat="48.37244" lon="2.81789">
        <ele>53.9</ele>
        <time>2021-06-13T12:59:44Z</time>
      </trkpt>
      <trkpt lat="48.37244" lon="2.81789">
        <ele>53.9</ele>
        <time>2021-06-13T12:59:58Z</time>
      </trkpt>
      <trkpt lat="48.37244" lon="2.81789">
        <ele>53.9</ele>
        <time>2021-06-13T13:00:15Z</time>
      </trkpt>
      <trkpt lat="48.37245" lon="2.81789">
        <ele>53.8</ele>
        <time>2021-06-13T13:00:33Z</time>
      </trkpt>
      <trkpt lat="48.37246" lon="2.81789">
        <ele>53.8</ele>
        <time>2021-06-13T13:00:47Z</time>
      </trkpt>
      <trkpt lat="48.37246" lon="2.81788">
        <ele>53.8</ele>
        <time>2021-06-13T13:00:59Z</time>
      </trkpt>
      <trkpt lat="48.37246" lon="2.81789">
        <ele>53.8</ele>
        <time>2021-06-13T13:01:14Z</time>
      </trkpt>
      <trkpt lat="48.37246" lon="2.8179">
        <ele>53.7</ele>
        <time>2021-06-13T13:01:25Z</time>
      </trkpt>
      <trkpt lat="48.37246" lon="2.8179">
        <ele>53.8</ele>
        <time>2021-06-13T13:01:40Z</time>
      </trkpt>
      <trkpt lat="48.37245" lon="2.8179">
        <ele>53.8</ele>
        <time>2021-06-13T13:01:55Z</time>
      </trkpt>
      <trkpt lat="48.37245" lon="2.81789">
        <ele>53.8</ele>
        <time>2021-06-13T13:02:09Z</time>
      </trkpt>
      <trkpt lat="48.37245" lon="2.81788">
        <ele>53.9</ele>
        <time>2021-06-13T13:02:24Z</time>
      </trkpt>
      <trkpt lat="48.37245" lon="2.81788">
        <ele>53.8</ele>
        <time>2021-06-13T13:02:36Z</time>
      </trkpt>
      <trkpt lat="48.37246" lon="2.81789">
        <ele>53.8</ele>
        <time>2021-06-13T13:02:44Z</time>
      </trkpt>
      <trkpt lat="48.37246" lon="2.81789">
        <ele>53.8</ele>
        <time>2021-06-13T13:02:55Z</time>
      </trkpt>
      <trkpt lat="48.37246" lon="2.8179">
        <ele>53.8</ele>
        <time>2021-06-13T13:03:09Z</time>
      </trkpt>
      <trkpt lat="48.37248" lon="2.81791">
        <ele>53.6</ele>
        <time>2021-06-13T13:03:18Z</time>
      </trkpt>
      <trkpt lat="48.37248" lon="2.81791">
        <ele>53.6</ele>
        <time>2021-06-13T13:03:29Z</time>
      </trkpt>
      <trkpt lat="48.37249" lon="2.81791">
        <ele>53.6</ele>
        <time>2021-06-13T13:03:42Z</time>
      </trkpt>
      <trkpt lat="48.37249" lon="2.81792">
        <ele>53.5</ele>
        <time>2021-06-13T13:03:54Z</time>
      </trkpt>
      <trkpt lat="48.37249" lon="2.81792">
        <ele>53.5</ele>
        <time>2021-06-13T13:04:04Z</time>
      </trkpt>
      <trkpt lat="48.3725" lon="2.81792">
        <ele>53.5</ele>
        <time>2021-06-13T13:04:12Z</time>
      </trkpt>
      <trkpt lat="48.37253" lon="2.81793">
        <ele>53.4</ele>
        <time>2021-06-13T13:04:19Z</time>
      </trkpt>
      <trkpt lat="48.37257" lon="2.81795">
        <ele>53.3</ele>
        <time>2021-06-13T13:04:26Z</time>
      </trkpt>
      <trkpt lat="48.37264" lon="2.81804">
        <ele>53</ele>
        <time>2021-06-13T13:04:33Z</time>
      </trkpt>
      <trkpt lat="48.3727" lon="2.8181">
        <ele>52.8</ele>
        <time>2021-06-13T13:04:39Z</time>
      </trkpt>
      <trkpt lat="48.37272" lon="2.81814">
        <ele>52.6</ele>
        <time>2021-06-13T13:04:42Z</time>
      </trkpt>
      <trkpt lat="48.37271" lon="2.81818">
        <ele>52.5</ele>
        <time>2021-06-13T13:04:44Z</time>
      </trkpt>
      <trkpt lat="48.3727" lon="2.81824">
        <ele>52.3</ele>
        <time>2021-06-13T13:04:47Z</time>
      </trkpt>
      <trkpt lat="48.37274" lon="2.81828">
        <ele>52.2</ele>
        <time>2021-06-13T13:04:54Z</time>
      </trkpt>
      <trkpt lat="48.37278" lon="2.81834">
        <ele>52</ele>
        <time>2021-06-13T13:04:58Z</time>
      </trkpt>
      <trkpt lat="48.3728" lon="2.81839">
        <ele>51.7</ele>
        <time>2021-06-13T13:05:01Z</time>
      </trkpt>
      <trkpt lat="48.3728" lon="2.81844">
        <ele>51.5</ele>
        <time>2021-06-13T13:05:03Z</time>
      </trkpt>
      <trkpt lat="48.37285" lon="2.81862">
        <ele>50.6</ele>
        <time>2021-06-13T13:05:12Z</time>
      </trkpt>
      <trkpt lat="48.37286" lon="2.81875">
        <ele>50</ele>
        <time>2021-06-13T13:05:17Z</time>
      </trkpt>
      <trkpt lat="48.37294" lon="2.81887">
        <ele>49.4</ele>
        <time>2021-06-13T13:05:22Z</time>
      </trkpt>
      <trkpt lat="48.3729" lon="2.81893">
        <ele>49.1</ele>
        <time>2021-06-13T13:05:31Z</time>
      </trkpt>
      <trkpt lat="48.3729" lon="2.81894">
        <ele>49.1</ele>
        <time>2021-06-13T13:05:32Z</time>
      </trkpt>
      <trkpt lat="48.37291" lon="2.81902">
        <ele>48.7</ele>
        <time>2021-06-13T13:05:39Z</time>
      </trkpt>
      <trkpt lat="48.37297" lon="2.81911">
        <ele>48.3</ele>
        <time>2021-06-13T13:05:47Z</time>
      </trkpt>
      <trkpt lat="48.373" lon="2.81914">
        <ele>48.1</ele>
        <time>2021-06-13T13:06:01Z</time>
      </trkpt>
      <trkpt lat="48.37302" lon="2.81916">
        <ele>48</ele>
        <time>2021-06-13T13:06:14Z</time>
      </trkpt>
      <trkpt lat="48.37303" lon="2.81916">
        <ele>48</ele>
        <time>2021-06-13T13:06:25Z</time>
      </trkpt>
      <trkpt lat="48.37303" lon="2.81915">
        <ele>48.1</ele>
        <time>2021-06-13T13:06:37Z</time>
      </trkpt>
      <trkpt lat="48.37303" lon="2.81915">
        <ele>48.1</ele>
        <time>2021-06-13T13:06:45Z</time>
      </trkpt>
      <trkpt lat="48.37303" lon="2.81914">
        <ele>48.1</ele>
        <time>2021-06-13T13:06:56Z</time>
      </trkpt>
      <trkpt lat="48.37303" lon="2.81914">
        <ele>48.1</ele>
        <time>2021-06-13T13:07:08Z</time>
      </trkpt>
      <trkpt lat="48.37303" lon="2.81914">
        <ele>48.1</ele>
        <time>2021-06-13T13:07:20Z</time>
      </trkpt>
      <trkpt lat="48.37304" lon="2.81913">
        <ele>48.2</ele>
        <time>2021-06-13T13:07:37Z</time>
      </trkpt>
      <trkpt lat="48.37304" lon="2.81913">
        <ele>48.2</ele>
        <time>2021-06-13T13:07:46Z</time>
      </trkpt>
      <trkpt lat="48.37305" lon="2.81914">
        <ele>48.1</ele>
        <time>2021-06-13T13:07:59Z</time>
      </trkpt>
      <trkpt lat="48.37304" lon="2.81914">
        <ele>48.1</ele>
        <time>2021-06-13T13:08:14Z</time>
      </trkpt>
      <trkpt lat="48.37304" lon="2.81913">
        <ele>48.2</ele>
        <time>2021-06-13T13:08:24Z</time>
      </trkpt>
      <trkpt lat="48.37305" lon="2.81914">
        <ele>48.1</ele>
        <time>2021-06-13T13:08:37Z</time>
      </trkpt>
      <trkpt lat="48.37305" lon="2.81914">
        <ele>48.1</ele>
        <time>2021-06-13T13:08:50Z</time>
      </trkpt>
      <trkpt lat="48.37305" lon="2.81913">
        <ele>48.2</ele>
        <time>2021-06-13T13:09:03Z</time>
      </trkpt>
      <trkpt lat="48.37305" lon="2.81913">
        <ele>48.2</ele>
        <time>2021-06-13T13:09:14Z</time>
      </trkpt>
      <trkpt lat="48.37305" lon="2.81914">
        <ele>48.1</ele>
        <time>2021-06-13T13:09:26Z</time>
      </trkpt>
      <trkpt lat="48.37305" lon="2.81914">
        <ele>48.1</ele>
        <time>2021-06-13T13:09:37Z</time>
      </trkpt>
      <trkpt lat="48.37305" lon="2.81914">
        <ele>48.2</ele>
        <time>2021-06-13T13:09:51Z</time>
      </trkpt>
      <trkpt lat="48.37305" lon="2.81913">
        <ele>48.2</ele>
        <time>2021-06-13T13:10:01Z</time>
      </trkpt>
      <trkpt lat="48.37305" lon="2.81914">
        <ele>48.1</ele>
        <time>2021-06-13T13:10:14Z</time>
      </trkpt>
      <trkpt lat="48.37305" lon="2.81914">
        <ele>48.1</ele>
        <time>2021-06-13T13:10:28Z</time>
      </trkpt>
      <trkpt lat="48.37306" lon="2.81914">
        <ele>48.1</ele>
        <time>2021-06-13T13:10:40Z</time>
      </trkpt>
      <trkpt lat="48.37306" lon="2.81914">
        <ele>48.1</ele>
        <time>2021-06-13T13:10:50Z</time>
      </trkpt>
      <trkpt lat="48.37306" lon="2.81914">
        <ele>48.1</ele>
        <time>2021-06-13T13:11:03Z</time>
      </trkpt>
      <trkpt lat="48.37307" lon="2.81915">
        <ele>48.1</ele>
        <time>2021-06-13T13:11:16Z</time>
      </trkpt>
      <trkpt lat="48.37307" lon="2.81916">
        <ele>48</ele>
        <time>2021-06-13T13:11:23Z</time>
      </trkpt>
      <trkpt lat="48.37307" lon="2.81916">
        <ele>48</ele>
        <time>2021-06-13T13:11:36Z</time>
      </trkpt>
      <trkpt lat="48.37307" lon="2.81916">
        <ele>48</ele>
        <time>2021-06-13T13:11:50Z</time>
      </trkpt>
      <trkpt lat="48.37307" lon="2.81915">
        <ele>48.1</ele>
        <time>2021-06-13T13:12:04Z</time>
      </trkpt>
      <trkpt lat="48.37307" lon="2.81915">
        <ele>48.1</ele>
        <time>2021-06-13T13:12:12Z</time>
      </trkpt>
      <trkpt lat="48.37307" lon="2.81915">
        <ele>48.1</ele>
        <time>2021-06-13T13:12:26Z</time>
      </trkpt>
      <trkpt lat="48.37307" lon="2.81915">
        <ele>48.1</ele>
        <time>2021-06-13T13:12:39Z</time>
      </trkpt>
      <trkpt lat="48.37306" lon="2.81915">
        <ele>48.1</ele>
        <time>2021-06-13T13:12:54Z</time>
      </trkpt>
      <trkpt lat="48.37306" lon="2.81915">
        <ele>48.1</ele>
        <time>2021-06-13T13:13:07Z</time>
      </trkpt>
      <trkpt lat="48.37306" lon="2.81915">
        <ele>48.1</ele>
        <time>2021-06-13T13:13:19Z</time>
      </trkpt>
      <trkpt lat="48.37306" lon="2.81916">
        <ele>48</ele>
        <time>2021-06-13T13:13:25Z</time>
      </trkpt>
      <trkpt lat="48.37306" lon="2.81915">
        <ele>48.1</ele>
        <time>2021-06-13T13:13:32Z</time>
      </trkpt>
      <trkpt lat="48.37306" lon="2.81914">
        <ele>48.1</ele>
        <time>2021-06-13T13:13:50Z</time>
      </trkpt>
      <trkpt lat="48.37306" lon="2.81913">
        <ele>48.2</ele>
        <time>2021-06-13T13:14:04Z</time>
      </trkpt>
      <trkpt lat="48.37307" lon="2.81914">
        <ele>48.1</ele>
        <time>2021-06-13T13:14:20Z</time>
      </trkpt>
      <trkpt lat="48.37307" lon="2.81914">
        <ele>48.1</ele>
        <time>2021-06-13T13:14:32Z</time>
      </trkpt>
      <trkpt lat="48.37307" lon="2.81915">
        <ele>48.1</ele>
        <time>2021-06-13T13:14:43Z</time>
      </trkpt>
      <trkpt lat="48.37307" lon="2.81914">
        <ele>48.1</ele>
        <time>2021-06-13T13:15:01Z</time>
      </trkpt>
      <trkpt lat="48.37307" lon="2.81914">
        <ele>48.1</ele>
        <time>2021-06-13T13:15:13Z</time>
      </trkpt>
      <trkpt lat="48.37307" lon="2.81915">
        <ele>48.1</ele>
        <time>2021-06-13T13:15:25Z</time>
      </trkpt>
      <trkpt lat="48.37307" lon="2.81915">
        <ele>48.1</ele>
        <time>2021-06-13T13:15:39Z</time>
      </trkpt>
      <trkpt lat="48.37307" lon="2.81915">
        <ele>48.1</ele>
        <time>2021-06-13T13:15:53Z</time>
      </trkpt>
      <trkpt lat="48.37308" lon="2.81914">
        <ele>48.1</ele>
        <time>2021-06-13T13:15:59Z</time>
      </trkpt>
      <trkpt lat="48.3731" lon="2.81913">
        <ele>48.2</ele>
        <time>2021-06-13T13:16:06Z</time>
      </trkpt>
      <trkpt lat="48.37309" lon="2.81913">
        <ele>48.2</ele>
        <time>2021-06-13T13:16:13Z</time>
      </trkpt>
      <trkpt lat="48.37309" lon="2.81914">
        <ele>48.1</ele>
        <time>2021-06-13T13:16:26Z</time>
      </trkpt>
      <trkpt lat="48.37309" lon="2.81914">
        <ele>48.1</ele>
        <time>2021-06-13T13:16:39Z</time>
      </trkpt>
      <trkpt lat="48.37309" lon="2.81914">
        <ele>48.1</ele>
        <time>2021-06-13T13:16:50Z</time>
      </trkpt>
      <trkpt lat="48.37308" lon="2.81914">
        <ele>48.1</ele>
        <time>2021-06-13T13:17:02Z</time>
      </trkpt>
      <trkpt lat="48.37308" lon="2.81914">
        <ele>48.1</ele>
        <time>2021-06-13T13:17:18Z</time>
      </trkpt>
      <trkpt lat="48.37307" lon="2.81914">
        <ele>48.1</ele>
        <time>2021-06-13T13:17:32Z</time>
      </trkpt>
      <trkpt lat="48.37307" lon="2.81913">
        <ele>48.2</ele>
        <time>2021-06-13T13:17:46Z</time>
      </trkpt>
      <trkpt lat="48.37307" lon="2.81913">
        <ele>48.2</ele>
        <time>2021-06-13T13:17:59Z</time>
      </trkpt>
      <trkpt lat="48.37308" lon="2.81913">
        <ele>48.2</ele>
        <time>2021-06-13T13:18:08Z</time>
      </trkpt>
      <trkpt lat="48.37307" lon="2.81914">
        <ele>48.1</ele>
        <time>2021-06-13T13:18:19Z</time>
      </trkpt>
      <trkpt lat="48.37306" lon="2.81914">
        <ele>48.1</ele>
        <time>2021-06-13T13:18:25Z</time>
      </trkpt>
      <trkpt lat="48.37306" lon="2.81914">
        <ele>48.1</ele>
        <time>2021-06-13T13:18:33Z</time>
      </trkpt>
      <trkpt lat="48.37306" lon="2.81914">
        <ele>48.1</ele>
        <time>2021-06-13T13:18:43Z</time>
      </trkpt>
      <trkpt lat="48.37305" lon="2.81914">
        <ele>48.1</ele>
        <time>2021-06-13T13:18:51Z</time>
      </trkpt>
      <trkpt lat="48.37305" lon="2.81916">
        <ele>48</ele>
        <time>2021-06-13T13:18:58Z</time>
      </trkpt>
      <trkpt lat="48.37304" lon="2.81916">
        <ele>48</ele>
        <time>2021-06-13T13:18:59Z</time>
      </trkpt>
      <trkpt lat="48.37304" lon="2.81918">
        <ele>48</ele>
        <time>2021-06-13T13:19:04Z</time>
      </trkpt>
      <trkpt lat="48.37303" lon="2.81917">
        <ele>48</ele>
        <time>2021-06-13T13:19:10Z</time>
      </trkpt>
      <trkpt lat="48.37304" lon="2.81917">
        <ele>48</ele>
        <time>2021-06-13T13:19:26Z</time>
      </trkpt>
      <trkpt lat="48.37304" lon="2.81918">
        <ele>48</ele>
        <time>2021-06-13T13:19:39Z</time>
      </trkpt>
      <trkpt lat="48.37304" lon="2.81918">
        <ele>48</ele>
        <time>2021-06-13T13:19:51Z</time>
      </trkpt>
      <trkpt lat="48.37304" lon="2.81918">
        <ele>48</ele>
        <time>2021-06-13T13:20:08Z</time>
      </trkpt>
      <trkpt lat="48.37304" lon="2.81918">
        <ele>48</ele>
        <time>2021-06-13T13:20:19Z</time>
      </trkpt>
      <trkpt lat="48.37304" lon="2.81918">
        <ele>48</ele>
        <time>2021-06-13T13:20:38Z</time>
      </trkpt>
      <trkpt lat="48.37304" lon="2.81918">
        <ele>48</ele>
        <time>2021-06-13T13:20:51Z</time>
      </trkpt>
      <trkpt lat="48.37304" lon="2.81918">
        <ele>48</ele>
        <time>2021-06-13T13:21:05Z</time>
      </trkpt>
      <trkpt lat="48.37304" lon="2.81919">
        <ele>48</ele>
        <time>2021-06-13T13:21:13Z</time>
      </trkpt>
      <trkpt lat="48.37304" lon="2.81918">
        <ele>48</ele>
        <time>2021-06-13T13:21:26Z</time>
      </trkpt>
      <trkpt lat="48.37304" lon="2.81918">
        <ele>48</ele>
        <time>2021-06-13T13:21:38Z</time>
      </trkpt>
      <trkpt lat="48.37304" lon="2.81918">
        <ele>48</ele>
        <time>2021-06-13T13:21:47Z</time>
      </trkpt>
      <trkpt lat="48.37304" lon="2.81918">
        <ele>48</ele>
        <time>2021-06-13T13:22:04Z</time>
      </trkpt>
      <trkpt lat="48.37304" lon="2.81918">
        <ele>48</ele>
        <time>2021-06-13T13:22:22Z</time>
      </trkpt>
      <trkpt lat="48.37304" lon="2.81917">
        <ele>48</ele>
        <time>2021-06-13T13:22:39Z</time>
      </trkpt>
      <trkpt lat="48.37304" lon="2.81917">
        <ele>48</ele>
        <time>2021-06-13T13:22:58Z</time>
      </trkpt>
      <trkpt lat="48.37304" lon="2.81918">
        <ele>48</ele>
        <time>2021-06-13T13:23:15Z</time>
      </trkpt>
      <trkpt lat="48.37304" lon="2.81918">
        <ele>48</ele>
        <time>2021-06-13T13:23:28Z</time>
      </trkpt>
      <trkpt lat="48.37304" lon="2.81919">
        <ele>48</ele>
        <time>2021-06-13T13:23:42Z</time>
      </trkpt>
      <trkpt lat="48.37304" lon="2.81919">
        <ele>48</ele>
        <time>2021-06-13T13:23:57Z</time>
      </trkpt>
      <trkpt lat="48.37304" lon="2.81919">
        <ele>48</ele>
        <time>2021-06-13T13:24:11Z</time>
      </trkpt>
      <trkpt lat="48.37304" lon="2.81918">
        <ele>48</ele>
        <time>2021-06-13T13:24:26Z</time>
      </trkpt>
      <trkpt lat="48.37305" lon="2.81918">
        <ele>48</ele>
        <time>2021-06-13T13:24:46Z</time>
      </trkpt>
      <trkpt lat="48.37304" lon="2.81918">
        <ele>48</ele>
        <time>2021-06-13T13:25:00Z</time>
      </trkpt>
      <trkpt lat="48.37304" lon="2.81918">
        <ele>48</ele>
        <time>2021-06-13T13:25:15Z</time>
      </trkpt>
      <trkpt lat="48.37304" lon="2.81918">
        <ele>48</ele>
        <time>2021-06-13T13:25:29Z</time>
      </trkpt>
      <trkpt lat="48.37304" lon="2.81918">
        <ele>48</ele>
        <time>2021-06-13T13:25:44Z</time>
      </trkpt>
      <trkpt lat="48.37303" lon="2.81917">
        <ele>48</ele>
        <time>2021-06-13T13:25:59Z</time>
      </trkpt>
      <trkpt lat="48.37303" lon="2.81918">
        <ele>48</ele>
        <time>2021-06-13T13:26:14Z</time>
      </trkpt>
      <trkpt lat="48.37304" lon="2.81918">
        <ele>48</ele>
        <time>2021-06-13T13:26:27Z</time>
      </trkpt>
      <trkpt lat="48.37304" lon="2.81918">
        <ele>48</ele>
        <time>2021-06-13T13:26:43Z</time>
      </trkpt>
      <trkpt lat="48.37304" lon="2.81918">
        <ele>48</ele>
        <time>2021-06-13T13:26:58Z</time>
      </trkpt>
      <trkpt lat="48.37303" lon="2.81919">
        <ele>48</ele>
        <time>2021-06-13T13:27:05Z</time>
      </trkpt>
      <trkpt lat="48.37304" lon="2.81919">
        <ele>48</ele>
        <time>2021-06-13T13:27:18Z</time>
      </trkpt>
      <trkpt lat="48.37304" lon="2.81919">
        <ele>48</ele>
        <time>2021-06-13T13:27:33Z</time>
      </trkpt>
      <trkpt lat="48.37304" lon="2.81919">
        <ele>48</ele>
        <time>2021-06-13T13:27:48Z</time>
      </trkpt>
      <trkpt lat="48.37304" lon="2.81918">
        <ele>48</ele>
        <time>2021-06-13T13:28:00Z</time>
      </trkpt>
      <trkpt lat="48.37305" lon="2.81919">
        <ele>48</ele>
        <time>2021-06-13T13:28:06Z</time>
      </trkpt>
      <trkpt lat="48.37307" lon="2.81915">
        <ele>48.1</ele>
        <time>2021-06-13T13:28:09Z</time>
      </trkpt>
      <trkpt lat="48.37309" lon="2.81906">
        <ele>48.5</ele>
        <time>2021-06-13T13:28:17Z</time>
      </trkpt>
      <trkpt lat="48.37309" lon="2.81905">
        <ele>48.6</ele>
        <time>2021-06-13T13:28:26Z</time>
      </trkpt>
      <trkpt lat="48.37311" lon="2.81903">
        <ele>48.6</ele>
        <time>2021-06-13T13:28:38Z</time>
      </trkpt>
      <trkpt lat="48.37312" lon="2.81902">
        <ele>48.7</ele>
        <time>2021-06-13T13:28:53Z</time>
      </trkpt>
      <trkpt lat="48.37312" lon="2.81901">
        <ele>48.7</ele>
        <time>2021-06-13T13:29:05Z</time>
      </trkpt>
      <trkpt lat="48.37312" lon="2.81901">
        <ele>48.7</ele>
        <time>2021-06-13T13:29:20Z</time>
      </trkpt>
      <trkpt lat="48.37312" lon="2.81902">
        <ele>48.7</ele>
        <time>2021-06-13T13:29:29Z</time>
      </trkpt>
      <trkpt lat="48.37311" lon="2.81902">
        <ele>48.7</ele>
        <time>2021-06-13T13:29:34Z</time>
      </trkpt>
      <trkpt lat="48.3731" lon="2.81903">
        <ele>48.7</ele>
        <time>2021-06-13T13:29:36Z</time>
      </trkpt>
      <trkpt lat="48.37311" lon="2.81903">
        <ele>48.7</ele>
        <time>2021-06-13T13:29:41Z</time>
      </trkpt>
      <trkpt lat="48.37311" lon="2.81903">
        <ele>48.6</ele>
        <time>2021-06-13T13:29:49Z</time>
      </trkpt>
      <trkpt lat="48.37311" lon="2.81904">
        <ele>48.6</ele>
        <time>2021-06-13T13:30:00Z</time>
      </trkpt>
      <trkpt lat="48.3731" lon="2.81903">
        <ele>48.6</ele>
        <time>2021-06-13T13:30:13Z</time>
      </trkpt>
      <trkpt lat="48.37311" lon="2.81904">
        <ele>48.6</ele>
        <time>2021-06-13T13:30:30Z</time>
      </trkpt>
      <trkpt lat="48.37313" lon="2.81907">
        <ele>48.5</ele>
        <time>2021-06-13T13:30:37Z</time>
      </trkpt>
      <trkpt lat="48.37316" lon="2.81905">
        <ele>48.6</ele>
        <time>2021-06-13T13:30:42Z</time>
      </trkpt>
      <trkpt lat="48.37319" lon="2.81906">
        <ele>48.5</ele>
        <time>2021-06-13T13:30:48Z</time>
      </trkpt>
      <trkpt lat="48.3732" lon="2.81906">
        <ele>48.5</ele>
        <time>2021-06-13T13:31:01Z</time>
      </trkpt>
      <trkpt lat="48.37321" lon="2.81906">
        <ele>48.5</ele>
        <time>2021-06-13T13:31:13Z</time>
      </trkpt>
      <trkpt lat="48.37321" lon="2.81906">
        <ele>48.5</ele>
        <time>2021-06-13T13:31:29Z</time>
      </trkpt>
      <trkpt lat="48.37321" lon="2.81906">
        <ele>48.5</ele>
        <time>2021-06-13T13:31:45Z</time>
      </trkpt>
      <trkpt lat="48.37324" lon="2.81906">
        <ele>48.5</ele>
        <time>2021-06-13T13:31:49Z</time>
      </trkpt>
      <trkpt lat="48.37329" lon="2.81907">
        <ele>48.5</ele>
        <time>2021-06-13T13:31:54Z</time>
      </trkpt>
      <trkpt lat="48.37337" lon="2.81907">
        <ele>48.5</ele>
        <time>2021-06-13T13:32:01Z</time>
      </trkpt>
      <trkpt lat="48.37345" lon="2.81905">
        <ele>48.6</ele>
        <time>2021-06-13T13:32:09Z</time>
      </trkpt>
      <trkpt lat="48.37353" lon="2.81902">
        <ele>48.9</ele>
        <time>2021-06-13T13:32:17Z</time>
      </trkpt>
      <trkpt lat="48.37359" lon="2.81901">
        <ele>48.9</ele>
        <time>2021-06-13T13:32:24Z</time>
      </trkpt>
      <trkpt lat="48.37358" lon="2.81899">
        <ele>49</ele>
        <time>2021-06-13T13:32:26Z</time>
      </trkpt>
      <trkpt lat="48.37358" lon="2.81891">
        <ele>49.3</ele>
        <time>2021-06-13T13:32:31Z</time>
      </trkpt>
      <trkpt lat="48.37358" lon="2.81889">
        <ele>49.4</ele>
        <time>2021-06-13T13:32:37Z</time>
      </trkpt>
      <trkpt lat="48.37359" lon="2.81885">
        <ele>49.6</ele>
        <time>2021-06-13T13:32:41Z</time>
      </trkpt>
      <trkpt lat="48.37359" lon="2.8188">
        <ele>49.8</ele>
        <time>2021-06-13T13:32:48Z</time>
      </trkpt>
      <trkpt lat="48.3736" lon="2.81876">
        <ele>49.9</ele>
        <time>2021-06-13T13:32:51Z</time>
      </trkpt>
      <trkpt lat="48.3736" lon="2.81868">
        <ele>50.3</ele>
        <time>2021-06-13T13:32:56Z</time>
      </trkpt>
      <trkpt lat="48.37361" lon="2.81858">
        <ele>50.7</ele>
        <time>2021-06-13T13:33:03Z</time>
      </trkpt>
      <trkpt lat="48.37361" lon="2.81855">
        <ele>50.8</ele>
        <time>2021-06-13T13:33:10Z</time>
      </trkpt>
      <trkpt lat="48.3736" lon="2.81854">
        <ele>50.8</ele>
        <time>2021-06-13T13:33:16Z</time>
      </trkpt>
      <trkpt lat="48.37356" lon="2.81856">
        <ele>50.8</ele>
        <time>2021-06-13T13:33:21Z</time>
      </trkpt>
      <trkpt lat="48.3735" lon="2.8186">
        <ele>50.7</ele>
        <time>2021-06-13T13:33:29Z</time>
      </trkpt>
      <trkpt lat="48.37349" lon="2.81857">
        <ele>50.8</ele>
        <time>2021-06-13T13:33:31Z</time>
      </trkpt>
      <trkpt lat="48.37351" lon="2.81845">
        <ele>51.3</ele>
        <time>2021-06-13T13:33:35Z</time>
      </trkpt>
      <trkpt lat="48.37352" lon="2.81833">
        <ele>51.8</ele>
        <time>2021-06-13T13:33:41Z</time>
      </trkpt>
      <trkpt lat="48.37351" lon="2.81824">
        <ele>52</ele>
        <time>2021-06-13T13:33:46Z</time>
      </trkpt>
      <trkpt lat="48.3735" lon="2.81815">
        <ele>52.1</ele>
        <time>2021-06-13T13:33:53Z</time>
      </trkpt>
      <trkpt lat="48.3735" lon="2.81806">
        <ele>52.3</ele>
        <time>2021-06-13T13:33:58Z</time>
      </trkpt>
      <trkpt lat="48.37351" lon="2.81799">
        <ele>52.4</ele>
        <time>2021-06-13T13:34:02Z</time>
      </trkpt>
      <trkpt lat="48.37352" lon="2.81794">
        <ele>52.5</ele>
        <time>2021-06-13T13:34:05Z</time>
      </trkpt>
      <trkpt lat="48.37355" lon="2.81779">
        <ele>52.7</ele>
        <time>2021-06-13T13:34:13Z</time>
      </trkpt>
      <trkpt lat="48.37354" lon="2.81767">
        <ele>52.9</ele>
        <time>2021-06-13T13:34:19Z</time>
      </trkpt>
      <trkpt lat="48.37355" lon="2.81765">
        <ele>53</ele>
        <time>2021-06-13T13:34:20Z</time>
      </trkpt>
      <trkpt lat="48.37357" lon="2.81752">
        <ele>53.1</ele>
        <time>2021-06-13T13:34:28Z</time>
      </trkpt>
      <trkpt lat="48.37358" lon="2.8175">
        <ele>53.1</ele>
        <time>2021-06-13T13:34:29Z</time>
      </trkpt>
      <trkpt lat="48.37357" lon="2.81741">
        <ele>53.3</ele>
        <time>2021-06-13T13:34:33Z</time>
      </trkpt>
      <trkpt lat="48.37359" lon="2.81731">
        <ele>53.4</ele>
        <time>2021-06-13T13:34:39Z</time>
      </trkpt>
      <trkpt lat="48.37359" lon="2.81717">
        <ele>53.6</ele>
        <time>2021-06-13T13:34:46Z</time>
      </trkpt>
      <trkpt lat="48.37361" lon="2.81707">
        <ele>53.7</ele>
        <time>2021-06-13T13:34:52Z</time>
      </trkpt>
      <trkpt lat="48.37361" lon="2.81706">
        <ele>53.7</ele>
        <time>2021-06-13T13:34:53Z</time>
      </trkpt>
      <trkpt lat="48.37363" lon="2.81693">
        <ele>53.8</ele>
        <time>2021-06-13T13:35:02Z</time>
      </trkpt>
      <trkpt lat="48.37366" lon="2.81684">
        <ele>53.8</ele>
        <time>2021-06-13T13:35:07Z</time>
      </trkpt>
      <trkpt lat="48.37365" lon="2.81678">
        <ele>53.9</ele>
        <time>2021-06-13T13:35:10Z</time>
      </trkpt>
      <trkpt lat="48.37365" lon="2.81669">
        <ele>54</ele>
        <time>2021-06-13T13:35:15Z</time>
      </trkpt>
      <trkpt lat="48.3736" lon="2.81667">
        <ele>54.4</ele>
        <time>2021-06-13T13:35:16Z</time>
      </trkpt>
      <trkpt lat="48.37355" lon="2.81652">
        <ele>54.6</ele>
        <time>2021-06-13T13:35:25Z</time>
      </trkpt>
      <trkpt lat="48.37355" lon="2.81651">
        <ele>54.6</ele>
        <time>2021-06-13T13:35:26Z</time>
      </trkpt>
      <trkpt lat="48.37355" lon="2.8164">
        <ele>54.6</ele>
        <time>2021-06-13T13:35:32Z</time>
      </trkpt>
      <trkpt lat="48.37355" lon="2.81634">
        <ele>54.5</ele>
        <time>2021-06-13T13:35:35Z</time>
      </trkpt>
      <trkpt lat="48.37355" lon="2.81618">
        <ele>54.4</ele>
        <time>2021-06-13T13:35:43Z</time>
      </trkpt>
      <trkpt lat="48.37355" lon="2.81609">
        <ele>54.4</ele>
        <time>2021-06-13T13:35:48Z</time>
      </trkpt>
      <trkpt lat="48.37356" lon="2.81599">
        <ele>54.3</ele>
        <time>2021-06-13T13:35:54Z</time>
      </trkpt>
      <trkpt lat="48.37358" lon="2.81586">
        <ele>54.1</ele>
        <time>2021-06-13T13:36:01Z</time>
      </trkpt>
      <trkpt lat="48.37358" lon="2.81575">
        <ele>54.2</ele>
        <time>2021-06-13T13:36:07Z</time>
      </trkpt>
      <trkpt lat="48.37361" lon="2.81567">
        <ele>54.1</ele>
        <time>2021-06-13T13:36:13Z</time>
      </trkpt>
      <trkpt lat="48.3736" lon="2.81556">
        <ele>54.3</ele>
        <time>2021-06-13T13:36:20Z</time>
      </trkpt>
      <trkpt lat="48.37359" lon="2.81551">
        <ele>54.4</ele>
        <time>2021-06-13T13:36:23Z</time>
      </trkpt>
      <trkpt lat="48.37358" lon="2.81544">
        <ele>54.5</ele>
        <time>2021-06-13T13:36:27Z</time>
      </trkpt>
      <trkpt lat="48.37359" lon="2.81538">
        <ele>54.5</ele>
        <time>2021-06-13T13:36:30Z</time>
      </trkpt>
      <trkpt lat="48.37359" lon="2.81533">
        <ele>54.5</ele>
        <time>2021-06-13T13:36:33Z</time>
      </trkpt>
      <trkpt lat="48.37356" lon="2.81526">
        <ele>54.7</ele>
        <time>2021-06-13T13:36:37Z</time>
      </trkpt>
      <trkpt lat="48.37357" lon="2.81521">
        <ele>54.7</ele>
        <time>2021-06-13T13:36:40Z</time>
      </trkpt>
      <trkpt lat="48.37359" lon="2.81513">
        <ele>54.7</ele>
        <time>2021-06-13T13:36:44Z</time>
      </trkpt>
      <trkpt lat="48.37366" lon="2.81506">
        <ele>54.4</ele>
        <time>2021-06-13T13:36:49Z</time>
      </trkpt>
      <trkpt lat="48.37367" lon="2.81493">
        <ele>54.4</ele>
        <time>2021-06-13T13:36:56Z</time>
      </trkpt>
      <trkpt lat="48.3737" lon="2.81483">
        <ele>54.3</ele>
        <time>2021-06-13T13:37:02Z</time>
      </trkpt>
      <trkpt lat="48.37374" lon="2.81473">
        <ele>54.2</ele>
        <time>2021-06-13T13:37:08Z</time>
      </trkpt>
      <trkpt lat="48.37375" lon="2.81471">
        <ele>54.2</ele>
        <time>2021-06-13T13:37:09Z</time>
      </trkpt>
      <trkpt lat="48.37378" lon="2.81463">
        <ele>54.1</ele>
        <time>2021-06-13T13:37:14Z</time>
      </trkpt>
      <trkpt lat="48.37381" lon="2.8145">
        <ele>54</ele>
        <time>2021-06-13T13:37:21Z</time>
      </trkpt>
      <trkpt lat="48.37382" lon="2.81448">
        <ele>54</ele>
        <time>2021-06-13T13:37:22Z</time>
      </trkpt>
      <trkpt lat="48.37385" lon="2.81434">
        <ele>54</ele>
        <time>2021-06-13T13:37:30Z</time>
      </trkpt>
      <trkpt lat="48.37388" lon="2.81428">
        <ele>53.9</ele>
        <time>2021-06-13T13:37:34Z</time>
      </trkpt>
      <trkpt lat="48.37392" lon="2.81416">
        <ele>53.9</ele>
        <time>2021-06-13T13:37:41Z</time>
      </trkpt>
      <trkpt lat="48.37396" lon="2.81408">
        <ele>53.7</ele>
        <time>2021-06-13T13:37:46Z</time>
      </trkpt>
      <trkpt lat="48.37396" lon="2.81404">
        <ele>53.7</ele>
        <time>2021-06-13T13:37:49Z</time>
      </trkpt>
      <trkpt lat="48.37399" lon="2.8139">
        <ele>53.6</ele>
        <time>2021-06-13T13:37:56Z</time>
      </trkpt>
      <trkpt lat="48.37402" lon="2.81378">
        <ele>53.5</ele>
        <time>2021-06-13T13:38:04Z</time>
      </trkpt>
      <trkpt lat="48.37403" lon="2.81365">
        <ele>53.4</ele>
        <time>2021-06-13T13:38:10Z</time>
      </trkpt>
      <trkpt lat="48.37406" lon="2.81356">
        <ele>53.3</ele>
        <time>2021-06-13T13:38:16Z</time>
      </trkpt>
      <trkpt lat="48.37409" lon="2.81345">
        <ele>53.2</ele>
        <time>2021-06-13T13:38:22Z</time>
      </trkpt>
      <trkpt lat="48.37412" lon="2.81337">
        <ele>53.1</ele>
        <time>2021-06-13T13:38:27Z</time>
      </trkpt>
      <trkpt lat="48.37417" lon="2.81324">
        <ele>53</ele>
        <time>2021-06-13T13:38:34Z</time>
      </trkpt>
      <trkpt lat="48.37421" lon="2.81313">
        <ele>52.9</ele>
        <time>2021-06-13T13:38:40Z</time>
      </trkpt>
      <trkpt lat="48.37423" lon="2.81302">
        <ele>52.9</ele>
        <time>2021-06-13T13:38:46Z</time>
      </trkpt>
      <trkpt lat="48.37427" lon="2.8129">
        <ele>52.9</ele>
        <time>2021-06-13T13:38:53Z</time>
      </trkpt>
      <trkpt lat="48.37429" lon="2.81279">
        <ele>52.9</ele>
        <time>2021-06-13T13:38:59Z</time>
      </trkpt>
      <trkpt lat="48.3743" lon="2.81277">
        <ele>52.9</ele>
        <time>2021-06-13T13:39:00Z</time>
      </trkpt>
      <trkpt lat="48.37433" lon="2.81263">
        <ele>52.9</ele>
        <time>2021-06-13T13:39:07Z</time>
      </trkpt>
      <trkpt lat="48.37436" lon="2.81254">
        <ele>53</ele>
        <time>2021-06-13T13:39:12Z</time>
      </trkpt>
      <trkpt lat="48.37437" lon="2.81246">
        <ele>53</ele>
        <time>2021-06-13T13:39:17Z</time>
      </trkpt>
      <trkpt lat="48.37443" lon="2.81228">
        <ele>53.1</ele>
        <time>2021-06-13T13:39:27Z</time>
      </trkpt>
      <trkpt lat="48.37446" lon="2.81224">
        <ele>53.1</ele>
        <time>2021-06-13T13:39:30Z</time>
      </trkpt>
      <trkpt lat="48.37447" lon="2.81215">
        <ele>53.1</ele>
        <time>2021-06-13T13:39:34Z</time>
      </trkpt>
      <trkpt lat="48.37447" lon="2.8121">
        <ele>53.1</ele>
        <time>2021-06-13T13:39:37Z</time>
      </trkpt>
      <trkpt lat="48.37449" lon="2.81197">
        <ele>53.1</ele>
        <time>2021-06-13T13:39:44Z</time>
      </trkpt>
      <trkpt lat="48.37454" lon="2.81192">
        <ele>53.1</ele>
        <time>2021-06-13T13:39:48Z</time>
      </trkpt>
      <trkpt lat="48.37458" lon="2.81181">
        <ele>53</ele>
        <time>2021-06-13T13:39:54Z</time>
      </trkpt>
      <trkpt lat="48.37459" lon="2.8117">
        <ele>53</ele>
        <time>2021-06-13T13:40:01Z</time>
      </trkpt>
      <trkpt lat="48.37461" lon="2.81162">
        <ele>52.9</ele>
        <time>2021-06-13T13:40:05Z</time>
      </trkpt>
      <trkpt lat="48.37463" lon="2.8115">
        <ele>52.8</ele>
        <time>2021-06-13T13:40:12Z</time>
      </trkpt>
      <trkpt lat="48.37462" lon="2.81147">
        <ele>52.8</ele>
        <time>2021-06-13T13:40:14Z</time>
      </trkpt>
      <trkpt lat="48.37463" lon="2.81146">
        <ele>52.7</ele>
        <time>2021-06-13T13:40:15Z</time>
      </trkpt>
      <trkpt lat="48.37464" lon="2.81137">
        <ele>52.6</ele>
        <time>2021-06-13T13:40:20Z</time>
      </trkpt>
      <trkpt lat="48.37466" lon="2.81132">
        <ele>52.6</ele>
        <time>2021-06-13T13:40:23Z</time>
      </trkpt>
      <trkpt lat="48.37467" lon="2.81122">
        <ele>52.5</ele>
        <time>2021-06-13T13:40:28Z</time>
      </trkpt>
      <trkpt lat="48.37466" lon="2.81116">
        <ele>52.5</ele>
        <time>2021-06-13T13:40:32Z</time>
      </trkpt>
      <trkpt lat="48.37466" lon="2.81111">
        <ele>52.4</ele>
        <time>2021-06-13T13:40:35Z</time>
      </trkpt>
      <trkpt lat="48.37463" lon="2.81106">
        <ele>52.5</ele>
        <time>2021-06-13T13:40:38Z</time>
      </trkpt>
      <trkpt lat="48.37464" lon="2.81103">
        <ele>52.4</ele>
        <time>2021-06-13T13:40:40Z</time>
      </trkpt>
      <trkpt lat="48.37464" lon="2.811">
        <ele>52.4</ele>
        <time>2021-06-13T13:40:42Z</time>
      </trkpt>
      <trkpt lat="48.37465" lon="2.81096">
        <ele>52.3</ele>
        <time>2021-06-13T13:40:45Z</time>
      </trkpt>
      <trkpt lat="48.37467" lon="2.81086">
        <ele>52.2</ele>
        <time>2021-06-13T13:40:51Z</time>
      </trkpt>
      <trkpt lat="48.3747" lon="2.81074">
        <ele>52.3</ele>
        <time>2021-06-13T13:40:58Z</time>
      </trkpt>
      <trkpt lat="48.37471" lon="2.8107">
        <ele>52.4</ele>
        <time>2021-06-13T13:41:00Z</time>
      </trkpt>
      <trkpt lat="48.37469" lon="2.81066">
        <ele>52.5</ele>
        <time>2021-06-13T13:41:02Z</time>
      </trkpt>
      <trkpt lat="48.37468" lon="2.81062">
        <ele>52.7</ele>
        <time>2021-06-13T13:41:04Z</time>
      </trkpt>
      <trkpt lat="48.37463" lon="2.81055">
        <ele>53</ele>
        <time>2021-06-13T13:41:08Z</time>
      </trkpt>
      <trkpt lat="48.37461" lon="2.81051">
        <ele>53.2</ele>
        <time>2021-06-13T13:41:10Z</time>
      </trkpt>
      <trkpt lat="48.3746" lon="2.81039">
        <ele>53.5</ele>
        <time>2021-06-13T13:41:16Z</time>
      </trkpt>
      <trkpt lat="48.37459" lon="2.81037">
        <ele>53.6</ele>
        <time>2021-06-13T13:41:17Z</time>
      </trkpt>
      <trkpt lat="48.37457" lon="2.81033">
        <ele>53.7</ele>
        <time>2021-06-13T13:41:19Z</time>
      </trkpt>
      <trkpt lat="48.37456" lon="2.81025">
        <ele>54</ele>
        <time>2021-06-13T13:41:23Z</time>
      </trkpt>
      <trkpt lat="48.37452" lon="2.81014">
        <ele>54.4</ele>
        <time>2021-06-13T13:41:29Z</time>
      </trkpt>
      <trkpt lat="48.3745" lon="2.81006">
        <ele>54.6</ele>
        <time>2021-06-13T13:41:33Z</time>
      </trkpt>
      <trkpt lat="48.37449" lon="2.81">
        <ele>54.8</ele>
        <time>2021-06-13T13:41:36Z</time>
      </trkpt>
      <trkpt lat="48.37451" lon="2.80992">
        <ele>54.8</ele>
        <time>2021-06-13T13:41:41Z</time>
      </trkpt>
      <trkpt lat="48.37451" lon="2.80988">
        <ele>54.8</ele>
        <time>2021-06-13T13:41:43Z</time>
      </trkpt>
      <trkpt lat="48.37445" lon="2.80973">
        <ele>55.1</ele>
        <time>2021-06-13T13:41:51Z</time>
      </trkpt>
      <trkpt lat="48.37443" lon="2.8096">
        <ele>55.2</ele>
        <time>2021-06-13T13:41:57Z</time>
      </trkpt>
      <trkpt lat="48.3744" lon="2.8095">
        <ele>55.3</ele>
        <time>2021-06-13T13:42:02Z</time>
      </trkpt>
      <trkpt lat="48.3744" lon="2.80945">
        <ele>55.4</ele>
        <time>2021-06-13T13:42:05Z</time>
      </trkpt>
      <trkpt lat="48.37438" lon="2.80934">
        <ele>55.4</ele>
        <time>2021-06-13T13:42:11Z</time>
      </trkpt>
      <trkpt lat="48.37437" lon="2.80931">
        <ele>55.5</ele>
        <time>2021-06-13T13:42:13Z</time>
      </trkpt>
      <trkpt lat="48.37434" lon="2.80922">
        <ele>55.6</ele>
        <time>2021-06-13T13:42:18Z</time>
      </trkpt>
      <trkpt lat="48.37434" lon="2.80909">
        <ele>55.9</ele>
        <time>2021-06-13T13:42:25Z</time>
      </trkpt>
      <trkpt lat="48.37433" lon="2.80906">
        <ele>56.1</ele>
        <time>2021-06-13T13:42:27Z</time>
      </trkpt>
      <trkpt lat="48.37432" lon="2.80902">
        <ele>56.3</ele>
        <time>2021-06-13T13:42:29Z</time>
      </trkpt>
      <trkpt lat="48.37433" lon="2.8089">
        <ele>56.8</ele>
        <time>2021-06-13T13:42:35Z</time>
      </trkpt>
      <trkpt lat="48.37432" lon="2.80886">
        <ele>57</ele>
        <time>2021-06-13T13:42:37Z</time>
      </trkpt>
      <trkpt lat="48.37432" lon="2.80881">
        <ele>57.3</ele>
        <time>2021-06-13T13:42:40Z</time>
      </trkpt>
      <trkpt lat="48.37427" lon="2.80874">
        <ele>57.7</ele>
        <time>2021-06-13T13:42:44Z</time>
      </trkpt>
      <trkpt lat="48.37425" lon="2.80859">
        <ele>58.5</ele>
        <time>2021-06-13T13:42:52Z</time>
      </trkpt>
      <trkpt lat="48.37426" lon="2.8085">
        <ele>58.9</ele>
        <time>2021-06-13T13:42:57Z</time>
      </trkpt>
      <trkpt lat="48.37424" lon="2.80839">
        <ele>59.5</ele>
        <time>2021-06-13T13:43:03Z</time>
      </trkpt>
      <trkpt lat="48.37423" lon="2.80831">
        <ele>59.9</ele>
        <time>2021-06-13T13:43:07Z</time>
      </trkpt>
      <trkpt lat="48.37419" lon="2.80821">
        <ele>60.3</ele>
        <time>2021-06-13T13:43:13Z</time>
      </trkpt>
      <trkpt lat="48.37419" lon="2.80809">
        <ele>60.8</ele>
        <time>2021-06-13T13:43:19Z</time>
      </trkpt>
      <trkpt lat="48.37418" lon="2.80806">
        <ele>60.9</ele>
        <time>2021-06-13T13:43:21Z</time>
      </trkpt>
      <trkpt lat="48.37408" lon="2.80795">
        <ele>61.6</ele>
        <time>2021-06-13T13:43:28Z</time>
      </trkpt>
      <trkpt lat="48.37399" lon="2.8078">
        <ele>62.4</ele>
        <time>2021-06-13T13:43:37Z</time>
      </trkpt>
      <trkpt lat="48.37399" lon="2.80777">
        <ele>62.4</ele>
        <time>2021-06-13T13:43:38Z</time>
      </trkpt>
      <trkpt lat="48.37399" lon="2.80774">
        <ele>62.5</ele>
        <time>2021-06-13T13:43:40Z</time>
      </trkpt>
      <trkpt lat="48.37398" lon="2.8077">
        <ele>62.7</ele>
        <time>2021-06-13T13:43:42Z</time>
      </trkpt>
      <trkpt lat="48.37397" lon="2.80765">
        <ele>62.8</ele>
        <time>2021-06-13T13:43:45Z</time>
      </trkpt>
      <trkpt lat="48.37396" lon="2.80762">
        <ele>62.9</ele>
        <time>2021-06-13T13:43:47Z</time>
      </trkpt>
      <trkpt lat="48.37398" lon="2.80748">
        <ele>63.3</ele>
        <time>2021-06-13T13:43:55Z</time>
      </trkpt>
      <trkpt lat="48.374" lon="2.80739">
        <ele>63.7</ele>
        <time>2021-06-13T13:44:03Z</time>
      </trkpt>
      <trkpt lat="48.37403" lon="2.80732">
        <ele>63.9</ele>
        <time>2021-06-13T13:44:09Z</time>
      </trkpt>
      <trkpt lat="48.37402" lon="2.80731">
        <ele>64</ele>
        <time>2021-06-13T13:44:11Z</time>
      </trkpt>
      <trkpt lat="48.37401" lon="2.80726">
        <ele>64.2</ele>
        <time>2021-06-13T13:44:16Z</time>
      </trkpt>
      <trkpt lat="48.37401" lon="2.80718">
        <ele>64.5</ele>
        <time>2021-06-13T13:44:21Z</time>
      </trkpt>
      <trkpt lat="48.37401" lon="2.80709">
        <ele>64.9</ele>
        <time>2021-06-13T13:44:27Z</time>
      </trkpt>
      <trkpt lat="48.37401" lon="2.80706">
        <ele>65</ele>
        <time>2021-06-13T13:44:28Z</time>
      </trkpt>
      <trkpt lat="48.37401" lon="2.80692">
        <ele>65.6</ele>
        <time>2021-06-13T13:44:36Z</time>
      </trkpt>
      <trkpt lat="48.37401" lon="2.80691">
        <ele>65.6</ele>
        <time>2021-06-13T13:44:37Z</time>
      </trkpt>
      <trkpt lat="48.37402" lon="2.80676">
        <ele>66.2</ele>
        <time>2021-06-13T13:44:45Z</time>
      </trkpt>
      <trkpt lat="48.37401" lon="2.80673">
        <ele>66.4</ele>
        <time>2021-06-13T13:44:47Z</time>
      </trkpt>
      <trkpt lat="48.37402" lon="2.80667">
        <ele>66.7</ele>
        <time>2021-06-13T13:44:50Z</time>
      </trkpt>
      <trkpt lat="48.37402" lon="2.80652">
        <ele>67</ele>
        <time>2021-06-13T13:44:58Z</time>
      </trkpt>
      <trkpt lat="48.37403" lon="2.80639">
        <ele>67.4</ele>
        <time>2021-06-13T13:45:04Z</time>
      </trkpt>
      <trkpt lat="48.37403" lon="2.80637">
        <ele>67.4</ele>
        <time>2021-06-13T13:45:05Z</time>
      </trkpt>
      <trkpt lat="48.37402" lon="2.80636">
        <ele>67.5</ele>
        <time>2021-06-13T13:45:06Z</time>
      </trkpt>
      <trkpt lat="48.37401" lon="2.80634">
        <ele>67.5</ele>
        <time>2021-06-13T13:45:07Z</time>
      </trkpt>
      <trkpt lat="48.37401" lon="2.8063">
        <ele>67.6</ele>
        <time>2021-06-13T13:45:10Z</time>
      </trkpt>
      <trkpt lat="48.37403" lon="2.80615">
        <ele>68</ele>
        <time>2021-06-13T13:45:17Z</time>
      </trkpt>
      <trkpt lat="48.37392" lon="2.80604">
        <ele>68.1</ele>
        <time>2021-06-13T13:45:23Z</time>
      </trkpt>
      <trkpt lat="48.37394" lon="2.80598">
        <ele>68.3</ele>
        <time>2021-06-13T13:45:27Z</time>
      </trkpt>
      <trkpt lat="48.374" lon="2.80587">
        <ele>68.7</ele>
        <time>2021-06-13T13:45:34Z</time>
      </trkpt>
      <trkpt lat="48.37401" lon="2.80579">
        <ele>69</ele>
        <time>2021-06-13T13:45:38Z</time>
      </trkpt>
      <trkpt lat="48.37403" lon="2.80576">
        <ele>69.2</ele>
        <time>2021-06-13T13:45:40Z</time>
      </trkpt>
      <trkpt lat="48.37407" lon="2.80564">
        <ele>69.8</ele>
        <time>2021-06-13T13:45:48Z</time>
      </trkpt>
      <trkpt lat="48.37409" lon="2.80561">
        <ele>69.9</ele>
        <time>2021-06-13T13:45:54Z</time>
      </trkpt>
      <trkpt lat="48.37416" lon="2.80557">
        <ele>70.2</ele>
        <time>2021-06-13T13:46:03Z</time>
      </trkpt>
      <trkpt lat="48.37419" lon="2.80552">
        <ele>70.4</ele>
        <time>2021-06-13T13:46:09Z</time>
      </trkpt>
      <trkpt lat="48.37421" lon="2.80546">
        <ele>70.6</ele>
        <time>2021-06-13T13:46:13Z</time>
      </trkpt>
      <trkpt lat="48.37427" lon="2.8054">
        <ele>70.7</ele>
        <time>2021-06-13T13:46:19Z</time>
      </trkpt>
      <trkpt lat="48.37428" lon="2.80537">
        <ele>70.8</ele>
        <time>2021-06-13T13:46:21Z</time>
      </trkpt>
      <trkpt lat="48.3743" lon="2.80529">
        <ele>71</ele>
        <time>2021-06-13T13:46:25Z</time>
      </trkpt>
      <trkpt lat="48.37434" lon="2.80523">
        <ele>71.1</ele>
        <time>2021-06-13T13:46:29Z</time>
      </trkpt>
      <trkpt lat="48.37436" lon="2.80518">
        <ele>71.2</ele>
        <time>2021-06-13T13:46:32Z</time>
      </trkpt>
      <trkpt lat="48.37442" lon="2.80508">
        <ele>71.2</ele>
        <time>2021-06-13T13:46:39Z</time>
      </trkpt>
      <trkpt lat="48.37447" lon="2.80497">
        <ele>71.3</ele>
        <time>2021-06-13T13:46:45Z</time>
      </trkpt>
      <trkpt lat="48.37451" lon="2.80487">
        <ele>71.4</ele>
        <time>2021-06-13T13:46:51Z</time>
      </trkpt>
      <trkpt lat="48.37455" lon="2.80479">
        <ele>71.5</ele>
        <time>2021-06-13T13:46:56Z</time>
      </trkpt>
      <trkpt lat="48.37458" lon="2.80473">
        <ele>71.5</ele>
        <time>2021-06-13T13:47:00Z</time>
      </trkpt>
      <trkpt lat="48.37463" lon="2.80462">
        <ele>71.6</ele>
        <time>2021-06-13T13:47:08Z</time>
      </trkpt>
      <trkpt lat="48.37465" lon="2.80455">
        <ele>71.7</ele>
        <time>2021-06-13T13:47:12Z</time>
      </trkpt>
      <trkpt lat="48.3747" lon="2.8044">
        <ele>72</ele>
        <time>2021-06-13T13:47:20Z</time>
      </trkpt>
      <trkpt lat="48.37474" lon="2.80428">
        <ele>72.1</ele>
        <time>2021-06-13T13:47:26Z</time>
      </trkpt>
      <trkpt lat="48.37478" lon="2.80416">
        <ele>72.4</ele>
        <time>2021-06-13T13:47:34Z</time>
      </trkpt>
      <trkpt lat="48.37479" lon="2.80409">
        <ele>72.5</ele>
        <time>2021-06-13T13:47:37Z</time>
      </trkpt>
      <trkpt lat="48.37482" lon="2.80399">
        <ele>72.6</ele>
        <time>2021-06-13T13:47:43Z</time>
      </trkpt>
      <trkpt lat="48.37483" lon="2.80389">
        <ele>72.9</ele>
        <time>2021-06-13T13:47:48Z</time>
      </trkpt>
      <trkpt lat="48.37487" lon="2.80375">
        <ele>73.2</ele>
        <time>2021-06-13T13:47:56Z</time>
      </trkpt>
      <trkpt lat="48.37487" lon="2.80372">
        <ele>73.2</ele>
        <time>2021-06-13T13:47:58Z</time>
      </trkpt>
      <trkpt lat="48.37489" lon="2.80361">
        <ele>73.5</ele>
        <time>2021-06-13T13:48:04Z</time>
      </trkpt>
      <trkpt lat="48.3749" lon="2.80356">
        <ele>73.6</ele>
        <time>2021-06-13T13:48:07Z</time>
      </trkpt>
      <trkpt lat="48.37491" lon="2.8035">
        <ele>73.8</ele>
        <time>2021-06-13T13:48:10Z</time>
      </trkpt>
      <trkpt lat="48.37493" lon="2.80342">
        <ele>74</ele>
        <time>2021-06-13T13:48:15Z</time>
      </trkpt>
      <trkpt lat="48.37494" lon="2.80334">
        <ele>74.2</ele>
        <time>2021-06-13T13:48:20Z</time>
      </trkpt>
      <trkpt lat="48.37494" lon="2.8033">
        <ele>74.3</ele>
        <time>2021-06-13T13:48:22Z</time>
      </trkpt>
      <trkpt lat="48.37496" lon="2.80326">
        <ele>74.2</ele>
        <time>2021-06-13T13:48:25Z</time>
      </trkpt>
      <trkpt lat="48.37504" lon="2.80317">
        <ele>74</ele>
        <time>2021-06-13T13:48:33Z</time>
      </trkpt>
      <trkpt lat="48.37506" lon="2.8031">
        <ele>74</ele>
        <time>2021-06-13T13:48:38Z</time>
      </trkpt>
      <trkpt lat="48.37508" lon="2.80298">
        <ele>74</ele>
        <time>2021-06-13T13:48:45Z</time>
      </trkpt>
      <trkpt lat="48.3751" lon="2.80294">
        <ele>74</ele>
        <time>2021-06-13T13:48:49Z</time>
      </trkpt>
      <trkpt lat="48.37511" lon="2.80289">
        <ele>74</ele>
        <time>2021-06-13T13:48:52Z</time>
      </trkpt>
      <trkpt lat="48.37515" lon="2.80279">
        <ele>73.9</ele>
        <time>2021-06-13T13:48:59Z</time>
      </trkpt>
      <trkpt lat="48.37516" lon="2.80274">
        <ele>73.9</ele>
        <time>2021-06-13T13:49:02Z</time>
      </trkpt>
      <trkpt lat="48.37519" lon="2.80265">
        <ele>73.9</ele>
        <time>2021-06-13T13:49:07Z</time>
      </trkpt>
      <trkpt lat="48.3752" lon="2.80259">
        <ele>73.9</ele>
        <time>2021-06-13T13:49:10Z</time>
      </trkpt>
      <trkpt lat="48.37524" lon="2.8025">
        <ele>73.9</ele>
        <time>2021-06-13T13:49:16Z</time>
      </trkpt>
      <trkpt lat="48.37526" lon="2.80245">
        <ele>73.9</ele>
        <time>2021-06-13T13:49:19Z</time>
      </trkpt>
      <trkpt lat="48.37531" lon="2.80228">
        <ele>74.4</ele>
        <time>2021-06-13T13:49:28Z</time>
      </trkpt>
      <trkpt lat="48.37533" lon="2.80223">
        <ele>74.5</ele>
        <time>2021-06-13T13:49:31Z</time>
      </trkpt>
      <trkpt lat="48.37537" lon="2.80213">
        <ele>74.6</ele>
        <time>2021-06-13T13:49:38Z</time>
      </trkpt>
      <trkpt lat="48.37541" lon="2.802">
        <ele>74.8</ele>
        <time>2021-06-13T13:49:46Z</time>
      </trkpt>
      <trkpt lat="48.37546" lon="2.80188">
        <ele>74.9</ele>
        <time>2021-06-13T13:49:53Z</time>
      </trkpt>
      <trkpt lat="48.37548" lon="2.80182">
        <ele>75</ele>
        <time>2021-06-13T13:49:56Z</time>
      </trkpt>
      <trkpt lat="48.37553" lon="2.80172">
        <ele>75</ele>
        <time>2021-06-13T13:50:02Z</time>
      </trkpt>
      <trkpt lat="48.37556" lon="2.80165">
        <ele>75</ele>
        <time>2021-06-13T13:50:06Z</time>
      </trkpt>
      <trkpt lat="48.37559" lon="2.80155">
        <ele>74.9</ele>
        <time>2021-06-13T13:50:12Z</time>
      </trkpt>
      <trkpt lat="48.37562" lon="2.80144">
        <ele>74.9</ele>
        <time>2021-06-13T13:50:18Z</time>
      </trkpt>
      <trkpt lat="48.37564" lon="2.8014">
        <ele>74.8</ele>
        <time>2021-06-13T13:50:20Z</time>
      </trkpt>
      <trkpt lat="48.37569" lon="2.80132">
        <ele>74.5</ele>
        <time>2021-06-13T13:50:25Z</time>
      </trkpt>
      <trkpt lat="48.37572" lon="2.80124">
        <ele>74.4</ele>
        <time>2021-06-13T13:50:29Z</time>
      </trkpt>
      <trkpt lat="48.37577" lon="2.80106">
        <ele>74.2</ele>
        <time>2021-06-13T13:50:39Z</time>
      </trkpt>
      <trkpt lat="48.37582" lon="2.80093">
        <ele>74</ele>
        <time>2021-06-13T13:50:46Z</time>
      </trkpt>
      <trkpt lat="48.37584" lon="2.80085">
        <ele>73.9</ele>
        <time>2021-06-13T13:50:51Z</time>
      </trkpt>
      <trkpt lat="48.37588" lon="2.80076">
        <ele>73.8</ele>
        <time>2021-06-13T13:50:57Z</time>
      </trkpt>
      <trkpt lat="48.37589" lon="2.80073">
        <ele>73.8</ele>
        <time>2021-06-13T13:50:59Z</time>
      </trkpt>
      <trkpt lat="48.37593" lon="2.80066">
        <ele>73.7</ele>
        <time>2021-06-13T13:51:04Z</time>
      </trkpt>
      <trkpt lat="48.37595" lon="2.80058">
        <ele>73.7</ele>
        <time>2021-06-13T13:51:09Z</time>
      </trkpt>
      <trkpt lat="48.37601" lon="2.80043">
        <ele>73.7</ele>
        <time>2021-06-13T13:51:18Z</time>
      </trkpt>
      <trkpt lat="48.37603" lon="2.80027">
        <ele>73.8</ele>
        <time>2021-06-13T13:51:26Z</time>
      </trkpt>
      <trkpt lat="48.37609" lon="2.80014">
        <ele>73.9</ele>
        <time>2021-06-13T13:51:34Z</time>
      </trkpt>
      <trkpt lat="48.3761" lon="2.80008">
        <ele>73.9</ele>
        <time>2021-06-13T13:51:37Z</time>
      </trkpt>
      <trkpt lat="48.37614" lon="2.79995">
        <ele>74.1</ele>
        <time>2021-06-13T13:51:44Z</time>
      </trkpt>
      <trkpt lat="48.37618" lon="2.79982">
        <ele>74.2</ele>
        <time>2021-06-13T13:51:51Z</time>
      </trkpt>
      <trkpt lat="48.37621" lon="2.79973">
        <ele>74.3</ele>
        <time>2021-06-13T13:51:56Z</time>
      </trkpt>
      <trkpt lat="48.37625" lon="2.79961">
        <ele>74.5</ele>
        <time>2021-06-13T13:52:04Z</time>
      </trkpt>
      <trkpt lat="48.37628" lon="2.79953">
        <ele>74.6</ele>
        <time>2021-06-13T13:52:09Z</time>
      </trkpt>
      <trkpt lat="48.37631" lon="2.7994">
        <ele>74.7</ele>
        <time>2021-06-13T13:52:16Z</time>
      </trkpt>
      <trkpt lat="48.37631" lon="2.79937">
        <ele>74.8</ele>
        <time>2021-06-13T13:52:17Z</time>
      </trkpt>
      <trkpt lat="48.37634" lon="2.7993">
        <ele>74.8</ele>
        <time>2021-06-13T13:52:22Z</time>
      </trkpt>
      <trkpt lat="48.37637" lon="2.79921">
        <ele>74.9</ele>
        <time>2021-06-13T13:52:27Z</time>
      </trkpt>
      <trkpt lat="48.3764" lon="2.7991">
        <ele>75.2</ele>
        <time>2021-06-13T13:52:33Z</time>
      </trkpt>
      <trkpt lat="48.37644" lon="2.79897">
        <ele>75.6</ele>
        <time>2021-06-13T13:52:40Z</time>
      </trkpt>
      <trkpt lat="48.37646" lon="2.79892">
        <ele>75.8</ele>
        <time>2021-06-13T13:52:43Z</time>
      </trkpt>
      <trkpt lat="48.3765" lon="2.79877">
        <ele>76.3</ele>
        <time>2021-06-13T13:52:51Z</time>
      </trkpt>
      <trkpt lat="48.37652" lon="2.79867">
        <ele>76.7</ele>
        <time>2021-06-13T13:52:57Z</time>
      </trkpt>
      <trkpt lat="48.37653" lon="2.79863">
        <ele>76.8</ele>
        <time>2021-06-13T13:52:59Z</time>
      </trkpt>
      <trkpt lat="48.37656" lon="2.79853">
        <ele>77.2</ele>
        <time>2021-06-13T13:53:05Z</time>
      </trkpt>
      <trkpt lat="48.37657" lon="2.79851">
        <ele>77.3</ele>
        <time>2021-06-13T13:53:06Z</time>
      </trkpt>
      <trkpt lat="48.37659" lon="2.79841">
        <ele>77.6</ele>
        <time>2021-06-13T13:53:11Z</time>
      </trkpt>
      <trkpt lat="48.37661" lon="2.79839">
        <ele>77.7</ele>
        <time>2021-06-13T13:53:13Z</time>
      </trkpt>
      <trkpt lat="48.37664" lon="2.79828">
        <ele>78.2</ele>
        <time>2021-06-13T13:53:20Z</time>
      </trkpt>
      <trkpt lat="48.37664" lon="2.79826">
        <ele>78.3</ele>
        <time>2021-06-13T13:53:21Z</time>
      </trkpt>
      <trkpt lat="48.37666" lon="2.79824">
        <ele>78.5</ele>
        <time>2021-06-13T13:53:23Z</time>
      </trkpt>
      <trkpt lat="48.37669" lon="2.79821">
        <ele>78.5</ele>
        <time>2021-06-13T13:53:26Z</time>
      </trkpt>
      <trkpt lat="48.37673" lon="2.7981">
        <ele>78.8</ele>
        <time>2021-06-13T13:53:33Z</time>
      </trkpt>
      <trkpt lat="48.37675" lon="2.79803">
        <ele>79</ele>
        <time>2021-06-13T13:53:37Z</time>
      </trkpt>
      <trkpt lat="48.37678" lon="2.79798">
        <ele>79.2</ele>
        <time>2021-06-13T13:53:41Z</time>
      </trkpt>
      <trkpt lat="48.37679" lon="2.79795">
        <ele>79.3</ele>
        <time>2021-06-13T13:53:43Z</time>
      </trkpt>
      <trkpt lat="48.3768" lon="2.79791">
        <ele>79.4</ele>
        <time>2021-06-13T13:53:45Z</time>
      </trkpt>
      <trkpt lat="48.37683" lon="2.79783">
        <ele>79.6</ele>
        <time>2021-06-13T13:53:49Z</time>
      </trkpt>
      <trkpt lat="48.37685" lon="2.79772">
        <ele>80</ele>
        <time>2021-06-13T13:53:56Z</time>
      </trkpt>
      <trkpt lat="48.37687" lon="2.79771">
        <ele>80</ele>
        <time>2021-06-13T13:54:05Z</time>
      </trkpt>
      <trkpt lat="48.37687" lon="2.79773">
        <ele>79.9</ele>
        <time>2021-06-13T13:54:21Z</time>
      </trkpt>
      <trkpt lat="48.37687" lon="2.79771">
        <ele>80</ele>
        <time>2021-06-13T13:54:25Z</time>
      </trkpt>
      <trkpt lat="48.37689" lon="2.79764">
        <ele>80.2</ele>
        <time>2021-06-13T13:54:29Z</time>
      </trkpt>
      <trkpt lat="48.37689" lon="2.79753">
        <ele>80.8</ele>
        <time>2021-06-13T13:54:34Z</time>
      </trkpt>
      <trkpt lat="48.37688" lon="2.79739">
        <ele>81.3</ele>
        <time>2021-06-13T13:54:42Z</time>
      </trkpt>
      <trkpt lat="48.37688" lon="2.79729">
        <ele>81.6</ele>
        <time>2021-06-13T13:54:48Z</time>
      </trkpt>
      <trkpt lat="48.3769" lon="2.79715">
        <ele>82</ele>
        <time>2021-06-13T13:54:54Z</time>
      </trkpt>
      <trkpt lat="48.3769" lon="2.79708">
        <ele>82.2</ele>
        <time>2021-06-13T13:54:58Z</time>
      </trkpt>
      <trkpt lat="48.3769" lon="2.79701">
        <ele>82.4</ele>
        <time>2021-06-13T13:55:02Z</time>
      </trkpt>
      <trkpt lat="48.37692" lon="2.79691">
        <ele>82.6</ele>
        <time>2021-06-13T13:55:08Z</time>
      </trkpt>
      <trkpt lat="48.37693" lon="2.79677">
        <ele>83</ele>
        <time>2021-06-13T13:55:16Z</time>
      </trkpt>
      <trkpt lat="48.37694" lon="2.79664">
        <ele>83.4</ele>
        <time>2021-06-13T13:55:23Z</time>
      </trkpt>
      <trkpt lat="48.37694" lon="2.79659">
        <ele>83.5</ele>
        <time>2021-06-13T13:55:26Z</time>
      </trkpt>
      <trkpt lat="48.37695" lon="2.79645">
        <ele>83.7</ele>
        <time>2021-06-13T13:55:33Z</time>
      </trkpt>
      <trkpt lat="48.37695" lon="2.79641">
        <ele>83.7</ele>
        <time>2021-06-13T13:55:35Z</time>
      </trkpt>
      <trkpt lat="48.37697" lon="2.79626">
        <ele>83.9</ele>
        <time>2021-06-13T13:55:42Z</time>
      </trkpt>
      <trkpt lat="48.37697" lon="2.79617">
        <ele>84</ele>
        <time>2021-06-13T13:55:49Z</time>
      </trkpt>
      <trkpt lat="48.37697" lon="2.79604">
        <ele>84.2</ele>
        <time>2021-06-13T13:55:56Z</time>
      </trkpt>
      <trkpt lat="48.37697" lon="2.79603">
        <ele>84.2</ele>
        <time>2021-06-13T13:55:57Z</time>
      </trkpt>
      <trkpt lat="48.37699" lon="2.79596">
        <ele>84.3</ele>
        <time>2021-06-13T13:56:01Z</time>
      </trkpt>
      <trkpt lat="48.37699" lon="2.79582">
        <ele>84.5</ele>
        <time>2021-06-13T13:56:09Z</time>
      </trkpt>
      <trkpt lat="48.37699" lon="2.79574">
        <ele>84.6</ele>
        <time>2021-06-13T13:56:14Z</time>
      </trkpt>
      <trkpt lat="48.37699" lon="2.79554">
        <ele>85</ele>
        <time>2021-06-13T13:56:25Z</time>
      </trkpt>
      <trkpt lat="48.37699" lon="2.79553">
        <ele>85.1</ele>
        <time>2021-06-13T13:56:30Z</time>
      </trkpt>
      <trkpt lat="48.37699" lon="2.79552">
        <ele>85.1</ele>
        <time>2021-06-13T13:56:31Z</time>
      </trkpt>
      <trkpt lat="48.37698" lon="2.79548">
        <ele>85.2</ele>
        <time>2021-06-13T13:56:34Z</time>
      </trkpt>
      <trkpt lat="48.37699" lon="2.7954">
        <ele>85.3</ele>
        <time>2021-06-13T13:56:38Z</time>
      </trkpt>
      <trkpt lat="48.37703" lon="2.79524">
        <ele>85.4</ele>
        <time>2021-06-13T13:56:46Z</time>
      </trkpt>
      <trkpt lat="48.37705" lon="2.79513">
        <ele>85.4</ele>
        <time>2021-06-13T13:56:51Z</time>
      </trkpt>
      <trkpt lat="48.37706" lon="2.7951">
        <ele>85.5</ele>
        <time>2021-06-13T13:56:53Z</time>
      </trkpt>
      <trkpt lat="48.37706" lon="2.79503">
        <ele>85.6</ele>
        <time>2021-06-13T13:56:56Z</time>
      </trkpt>
      <trkpt lat="48.37708" lon="2.7949">
        <ele>85.5</ele>
        <time>2021-06-13T13:57:01Z</time>
      </trkpt>
      <trkpt lat="48.37712" lon="2.79482">
        <ele>85.3</ele>
        <time>2021-06-13T13:57:06Z</time>
      </trkpt>
      <trkpt lat="48.37712" lon="2.79479">
        <ele>85.3</ele>
        <time>2021-06-13T13:57:08Z</time>
      </trkpt>
      <trkpt lat="48.37718" lon="2.79461">
        <ele>85.1</ele>
        <time>2021-06-13T13:57:16Z</time>
      </trkpt>
      <trkpt lat="48.37722" lon="2.79451">
        <ele>84.9</ele>
        <time>2021-06-13T13:57:21Z</time>
      </trkpt>
      <trkpt lat="48.37724" lon="2.79441">
        <ele>84.8</ele>
        <time>2021-06-13T13:57:26Z</time>
      </trkpt>
      <trkpt lat="48.37724" lon="2.79438">
        <ele>84.8</ele>
        <time>2021-06-13T13:57:28Z</time>
      </trkpt>
      <trkpt lat="48.37724" lon="2.79434">
        <ele>84.9</ele>
        <time>2021-06-13T13:57:30Z</time>
      </trkpt>
      <trkpt lat="48.37728" lon="2.79425">
        <ele>84.7</ele>
        <time>2021-06-13T13:57:35Z</time>
      </trkpt>
      <trkpt lat="48.37729" lon="2.7942">
        <ele>84.7</ele>
        <time>2021-06-13T13:57:37Z</time>
      </trkpt>
      <trkpt lat="48.37731" lon="2.79411">
        <ele>84.6</ele>
        <time>2021-06-13T13:57:42Z</time>
      </trkpt>
      <trkpt lat="48.37731" lon="2.79408">
        <ele>84.6</ele>
        <time>2021-06-13T13:57:44Z</time>
      </trkpt>
      <trkpt lat="48.37736" lon="2.794">
        <ele>84.3</ele>
        <time>2021-06-13T13:57:49Z</time>
      </trkpt>
      <trkpt lat="48.37738" lon="2.79391">
        <ele>84.2</ele>
        <time>2021-06-13T13:57:54Z</time>
      </trkpt>
      <trkpt lat="48.37739" lon="2.79381">
        <ele>84</ele>
        <time>2021-06-13T13:57:59Z</time>
      </trkpt>
      <trkpt lat="48.37738" lon="2.79369">
        <ele>83.9</ele>
        <time>2021-06-13T13:58:05Z</time>
      </trkpt>
      <trkpt lat="48.3774" lon="2.79362">
        <ele>83.8</ele>
        <time>2021-06-13T13:58:09Z</time>
      </trkpt>
      <trkpt lat="48.37739" lon="2.79352">
        <ele>83.7</ele>
        <time>2021-06-13T13:58:16Z</time>
      </trkpt>
      <trkpt lat="48.37741" lon="2.7934">
        <ele>83.5</ele>
        <time>2021-06-13T13:58:22Z</time>
      </trkpt>
      <trkpt lat="48.37743" lon="2.79331">
        <ele>83.3</ele>
        <time>2021-06-13T13:58:27Z</time>
      </trkpt>
      <trkpt lat="48.37749" lon="2.7932">
        <ele>82.5</ele>
        <time>2021-06-13T13:58:32Z</time>
      </trkpt>
      <trkpt lat="48.37755" lon="2.79305">
        <ele>81.8</ele>
        <time>2021-06-13T13:58:39Z</time>
      </trkpt>
      <trkpt lat="48.37758" lon="2.79295">
        <ele>81.3</ele>
        <time>2021-06-13T13:58:43Z</time>
      </trkpt>
      <trkpt lat="48.37758" lon="2.79285">
        <ele>81</ele>
        <time>2021-06-13T13:58:50Z</time>
      </trkpt>
      <trkpt lat="48.37752" lon="2.79274">
        <ele>80.8</ele>
        <time>2021-06-13T13:58:57Z</time>
      </trkpt>
      <trkpt lat="48.37747" lon="2.79272">
        <ele>80.9</ele>
        <time>2021-06-13T13:58:59Z</time>
      </trkpt>
      <trkpt lat="48.37743" lon="2.79267">
        <ele>80.9</ele>
        <time>2021-06-13T13:59:02Z</time>
      </trkpt>
      <trkpt lat="48.37741" lon="2.79256">
        <ele>80.6</ele>
        <time>2021-06-13T13:59:08Z</time>
      </trkpt>
      <trkpt lat="48.37741" lon="2.79241">
        <ele>80.4</ele>
        <time>2021-06-13T13:59:15Z</time>
      </trkpt>
      <trkpt lat="48.37739" lon="2.79231">
        <ele>80.4</ele>
        <time>2021-06-13T13:59:21Z</time>
      </trkpt>
      <trkpt lat="48.37739" lon="2.79215">
        <ele>80.2</ele>
        <time>2021-06-13T13:59:29Z</time>
      </trkpt>
      <trkpt lat="48.37737" lon="2.79207">
        <ele>80.2</ele>
        <time>2021-06-13T13:59:34Z</time>
      </trkpt>
      <trkpt lat="48.37736" lon="2.792">
        <ele>80.3</ele>
        <time>2021-06-13T13:59:38Z</time>
      </trkpt>
      <trkpt lat="48.37737" lon="2.79195">
        <ele>80.2</ele>
        <time>2021-06-13T13:59:41Z</time>
      </trkpt>
      <trkpt lat="48.37738" lon="2.79179">
        <ele>80</ele>
        <time>2021-06-13T13:59:49Z</time>
      </trkpt>
      <trkpt lat="48.37738" lon="2.7917">
        <ele>79.9</ele>
        <time>2021-06-13T13:59:53Z</time>
      </trkpt>
      <trkpt lat="48.37736" lon="2.79155">
        <ele>80.1</ele>
        <time>2021-06-13T14:00:01Z</time>
      </trkpt>
      <trkpt lat="48.37734" lon="2.7914">
        <ele>80.4</ele>
        <time>2021-06-13T14:00:09Z</time>
      </trkpt>
      <trkpt lat="48.37733" lon="2.79125">
        <ele>80.5</ele>
        <time>2021-06-13T14:00:15Z</time>
      </trkpt>
      <trkpt lat="48.37734" lon="2.79116">
        <ele>80.5</ele>
        <time>2021-06-13T14:00:20Z</time>
      </trkpt>
      <trkpt lat="48.37736" lon="2.79105">
        <ele>80.5</ele>
        <time>2021-06-13T14:00:25Z</time>
      </trkpt>
      <trkpt lat="48.37738" lon="2.79089">
        <ele>80.5</ele>
        <time>2021-06-13T14:00:33Z</time>
      </trkpt>
      <trkpt lat="48.3774" lon="2.79078">
        <ele>80.5</ele>
        <time>2021-06-13T14:00:39Z</time>
      </trkpt>
      <trkpt lat="48.37741" lon="2.79072">
        <ele>80.4</ele>
        <time>2021-06-13T14:00:43Z</time>
      </trkpt>
      <trkpt lat="48.37742" lon="2.79071">
        <ele>80.4</ele>
        <time>2021-06-13T14:00:50Z</time>
      </trkpt>
      <trkpt lat="48.37742" lon="2.79071">
        <ele>80.4</ele>
        <time>2021-06-13T14:00:51Z</time>
      </trkpt>
      <trkpt lat="48.37741" lon="2.79066">
        <ele>80.4</ele>
        <time>2021-06-13T14:00:54Z</time>
      </trkpt>
      <trkpt lat="48.37739" lon="2.79051">
        <ele>80.5</ele>
        <time>2021-06-13T14:01:02Z</time>
      </trkpt>
      <trkpt lat="48.37741" lon="2.79032">
        <ele>80.4</ele>
        <time>2021-06-13T14:01:10Z</time>
      </trkpt>
      <trkpt lat="48.37741" lon="2.79026">
        <ele>80.4</ele>
        <time>2021-06-13T14:01:13Z</time>
      </trkpt>
      <trkpt lat="48.37745" lon="2.7901">
        <ele>80.3</ele>
        <time>2021-06-13T14:01:21Z</time>
      </trkpt>
      <trkpt lat="48.37745" lon="2.79003">
        <ele>80.2</ele>
        <time>2021-06-13T14:01:24Z</time>
      </trkpt>
      <trkpt lat="48.37746" lon="2.78988">
        <ele>80</ele>
        <time>2021-06-13T14:01:32Z</time>
      </trkpt>
      <trkpt lat="48.37747" lon="2.78977">
        <ele>79.9</ele>
        <time>2021-06-13T14:01:38Z</time>
      </trkpt>
      <trkpt lat="48.37747" lon="2.78965">
        <ele>79.8</ele>
        <time>2021-06-13T14:01:45Z</time>
      </trkpt>
      <trkpt lat="48.37745" lon="2.78955">
        <ele>79.8</ele>
        <time>2021-06-13T14:01:50Z</time>
      </trkpt>
      <trkpt lat="48.37746" lon="2.78941">
        <ele>79.5</ele>
        <time>2021-06-13T14:01:57Z</time>
      </trkpt>
      <trkpt lat="48.37746" lon="2.78934">
        <ele>79.4</ele>
        <time>2021-06-13T14:02:01Z</time>
      </trkpt>
      <trkpt lat="48.37745" lon="2.7892">
        <ele>79.3</ele>
        <time>2021-06-13T14:02:08Z</time>
      </trkpt>
      <trkpt lat="48.37745" lon="2.78917">
        <ele>79.3</ele>
        <time>2021-06-13T14:02:09Z</time>
      </trkpt>
      <trkpt lat="48.37746" lon="2.789">
        <ele>79.4</ele>
        <time>2021-06-13T14:02:18Z</time>
      </trkpt>
      <trkpt lat="48.37747" lon="2.78893">
        <ele>79.4</ele>
        <time>2021-06-13T14:02:24Z</time>
      </trkpt>
      <trkpt lat="48.37748" lon="2.78891">
        <ele>79.4</ele>
        <time>2021-06-13T14:02:26Z</time>
      </trkpt>
      <trkpt lat="48.37749" lon="2.78881">
        <ele>79.5</ele>
        <time>2021-06-13T14:02:32Z</time>
      </trkpt>
      <trkpt lat="48.37754" lon="2.78871">
        <ele>79.5</ele>
        <time>2021-06-13T14:02:38Z</time>
      </trkpt>
      <trkpt lat="48.3776" lon="2.78861">
        <ele>79.5</ele>
        <time>2021-06-13T14:02:45Z</time>
      </trkpt>
      <trkpt lat="48.37763" lon="2.78856">
        <ele>79.5</ele>
        <time>2021-06-13T14:02:49Z</time>
      </trkpt>
      <trkpt lat="48.37768" lon="2.78843">
        <ele>79.5</ele>
        <time>2021-06-13T14:02:57Z</time>
      </trkpt>
      <trkpt lat="48.37768" lon="2.78843">
        <ele>79.5</ele>
        <time>2021-06-13T14:02:59Z</time>
      </trkpt>
      <trkpt lat="48.37773" lon="2.7883">
        <ele>79.5</ele>
        <time>2021-06-13T14:03:06Z</time>
      </trkpt>
      <trkpt lat="48.37774" lon="2.78828">
        <ele>79.6</ele>
        <time>2021-06-13T14:03:07Z</time>
      </trkpt>
      <trkpt lat="48.37779" lon="2.78817">
        <ele>79.7</ele>
        <time>2021-06-13T14:03:14Z</time>
      </trkpt>
      <trkpt lat="48.37786" lon="2.78803">
        <ele>79.8</ele>
        <time>2021-06-13T14:03:23Z</time>
      </trkpt>
      <trkpt lat="48.37791" lon="2.7879">
        <ele>79.8</ele>
        <time>2021-06-13T14:03:31Z</time>
      </trkpt>
      <trkpt lat="48.37796" lon="2.7878">
        <ele>79.8</ele>
        <time>2021-06-13T14:03:38Z</time>
      </trkpt>
      <trkpt lat="48.37801" lon="2.78769">
        <ele>79.7</ele>
        <time>2021-06-13T14:03:45Z</time>
      </trkpt>
      <trkpt lat="48.37806" lon="2.78752">
        <ele>79.6</ele>
        <time>2021-06-13T14:03:53Z</time>
      </trkpt>
      <trkpt lat="48.37809" lon="2.78743">
        <ele>79.6</ele>
        <time>2021-06-13T14:03:58Z</time>
      </trkpt>
      <trkpt lat="48.37815" lon="2.7873">
        <ele>79.5</ele>
        <time>2021-06-13T14:04:06Z</time>
      </trkpt>
      <trkpt lat="48.3782" lon="2.78718">
        <ele>79.5</ele>
        <time>2021-06-13T14:04:13Z</time>
      </trkpt>
      <trkpt lat="48.37825" lon="2.78708">
        <ele>79.4</ele>
        <time>2021-06-13T14:04:19Z</time>
      </trkpt>
      <trkpt lat="48.37831" lon="2.787">
        <ele>79.3</ele>
        <time>2021-06-13T14:04:26Z</time>
      </trkpt>
      <trkpt lat="48.37831" lon="2.78699">
        <ele>79.3</ele>
        <time>2021-06-13T14:04:27Z</time>
      </trkpt>
      <trkpt lat="48.37835" lon="2.78689">
        <ele>79.4</ele>
        <time>2021-06-13T14:04:32Z</time>
      </trkpt>
      <trkpt lat="48.37837" lon="2.78685">
        <ele>79.4</ele>
        <time>2021-06-13T14:04:35Z</time>
      </trkpt>
      <trkpt lat="48.3784" lon="2.7868">
        <ele>79.4</ele>
        <time>2021-06-13T14:04:39Z</time>
      </trkpt>
      <trkpt lat="48.37847" lon="2.78663">
        <ele>79.4</ele>
        <time>2021-06-13T14:04:49Z</time>
      </trkpt>
      <trkpt lat="48.37853" lon="2.78654">
        <ele>79.1</ele>
        <time>2021-06-13T14:04:56Z</time>
      </trkpt>
      <trkpt lat="48.3786" lon="2.78643">
        <ele>78.8</ele>
        <time>2021-06-13T14:05:03Z</time>
      </trkpt>
      <trkpt lat="48.37865" lon="2.7863">
        <ele>78.6</ele>
        <time>2021-06-13T14:05:10Z</time>
      </trkpt>
      <trkpt lat="48.37871" lon="2.7862">
        <ele>78.3</ele>
        <time>2021-06-13T14:05:17Z</time>
      </trkpt>
      <trkpt lat="48.37878" lon="2.7861">
        <ele>77.8</ele>
        <time>2021-06-13T14:05:24Z</time>
      </trkpt>
      <trkpt lat="48.37879" lon="2.78608">
        <ele>77.8</ele>
        <time>2021-06-13T14:05:25Z</time>
      </trkpt>
      <trkpt lat="48.37884" lon="2.78602">
        <ele>77.4</ele>
        <time>2021-06-13T14:05:30Z</time>
      </trkpt>
      <trkpt lat="48.37886" lon="2.78595">
        <ele>77.2</ele>
        <time>2021-06-13T14:05:34Z</time>
      </trkpt>
      <trkpt lat="48.3789" lon="2.7859">
        <ele>77</ele>
        <time>2021-06-13T14:05:38Z</time>
      </trkpt>
      <trkpt lat="48.37897" lon="2.78579">
        <ele>76.5</ele>
        <time>2021-06-13T14:05:46Z</time>
      </trkpt>
      <trkpt lat="48.37903" lon="2.78573">
        <ele>76.2</ele>
        <time>2021-06-13T14:05:52Z</time>
      </trkpt>
      <trkpt lat="48.37912" lon="2.7856">
        <ele>75.9</ele>
        <time>2021-06-13T14:06:01Z</time>
      </trkpt>
      <trkpt lat="48.37918" lon="2.78552">
        <ele>75.8</ele>
        <time>2021-06-13T14:06:07Z</time>
      </trkpt>
      <trkpt lat="48.37924" lon="2.78545">
        <ele>76</ele>
        <time>2021-06-13T14:06:13Z</time>
      </trkpt>
      <trkpt lat="48.37925" lon="2.78544">
        <ele>76.1</ele>
        <time>2021-06-13T14:06:14Z</time>
      </trkpt>
      <trkpt lat="48.37931" lon="2.78535">
        <ele>76.4</ele>
        <time>2021-06-13T14:06:21Z</time>
      </trkpt>
      <trkpt lat="48.3794" lon="2.78533">
        <ele>76.6</ele>
        <time>2021-06-13T14:06:28Z</time>
      </trkpt>
      <trkpt lat="48.37949" lon="2.78541">
        <ele>76.6</ele>
        <time>2021-06-13T14:06:37Z</time>
      </trkpt>
      <trkpt lat="48.37956" lon="2.7853">
        <ele>76.9</ele>
        <time>2021-06-13T14:06:45Z</time>
      </trkpt>
      <trkpt lat="48.37963" lon="2.78517">
        <ele>77.2</ele>
        <time>2021-06-13T14:06:53Z</time>
      </trkpt>
      <trkpt lat="48.37967" lon="2.78507">
        <ele>77.5</ele>
        <time>2021-06-13T14:06:59Z</time>
      </trkpt>
      <trkpt lat="48.37972" lon="2.78498">
        <ele>77.7</ele>
        <time>2021-06-13T14:07:05Z</time>
      </trkpt>
      <trkpt lat="48.37973" lon="2.78494">
        <ele>77.8</ele>
        <time>2021-06-13T14:07:07Z</time>
      </trkpt>
      <trkpt lat="48.37976" lon="2.78483">
        <ele>78.1</ele>
        <time>2021-06-13T14:07:14Z</time>
      </trkpt>
      <trkpt lat="48.37981" lon="2.78472">
        <ele>78.4</ele>
        <time>2021-06-13T14:07:21Z</time>
      </trkpt>
      <trkpt lat="48.37982" lon="2.78471">
        <ele>78.5</ele>
        <time>2021-06-13T14:07:22Z</time>
      </trkpt>
      <trkpt lat="48.37985" lon="2.78467">
        <ele>78.6</ele>
        <time>2021-06-13T14:07:25Z</time>
      </trkpt>
      <trkpt lat="48.37986" lon="2.78464">
        <ele>78.7</ele>
        <time>2021-06-13T14:07:27Z</time>
      </trkpt>
      <trkpt lat="48.37991" lon="2.78456">
        <ele>78.9</ele>
        <time>2021-06-13T14:07:33Z</time>
      </trkpt>
      <trkpt lat="48.37996" lon="2.78449">
        <ele>79.2</ele>
        <time>2021-06-13T14:07:39Z</time>
      </trkpt>
      <trkpt lat="48.37997" lon="2.78444">
        <ele>79.3</ele>
        <time>2021-06-13T14:07:42Z</time>
      </trkpt>
      <trkpt lat="48.38" lon="2.78434">
        <ele>79.6</ele>
        <time>2021-06-13T14:07:48Z</time>
      </trkpt>
      <trkpt lat="48.38006" lon="2.78422">
        <ele>80.1</ele>
        <time>2021-06-13T14:07:56Z</time>
      </trkpt>
      <trkpt lat="48.38012" lon="2.78413">
        <ele>80.6</ele>
        <time>2021-06-13T14:08:04Z</time>
      </trkpt>
      <trkpt lat="48.38012" lon="2.78411">
        <ele>80.7</ele>
        <time>2021-06-13T14:08:05Z</time>
      </trkpt>
      <trkpt lat="48.38013" lon="2.78409">
        <ele>80.8</ele>
        <time>2021-06-13T14:08:07Z</time>
      </trkpt>
      <trkpt lat="48.38016" lon="2.78404">
        <ele>81.1</ele>
        <time>2021-06-13T14:08:12Z</time>
      </trkpt>
      <trkpt lat="48.38017" lon="2.78397">
        <ele>81.4</ele>
        <time>2021-06-13T14:08:16Z</time>
      </trkpt>
      <trkpt lat="48.38019" lon="2.78394">
        <ele>81.6</ele>
        <time>2021-06-13T14:08:19Z</time>
      </trkpt>
      <trkpt lat="48.38019" lon="2.78391">
        <ele>81.8</ele>
        <time>2021-06-13T14:08:21Z</time>
      </trkpt>
      <trkpt lat="48.38023" lon="2.78383">
        <ele>82.2</ele>
        <time>2021-06-13T14:08:28Z</time>
      </trkpt>
      <trkpt lat="48.38026" lon="2.78378">
        <ele>82.5</ele>
        <time>2021-06-13T14:08:35Z</time>
      </trkpt>
      <trkpt lat="48.38029" lon="2.78371">
        <ele>82.9</ele>
        <time>2021-06-13T14:08:41Z</time>
      </trkpt>
      <trkpt lat="48.38032" lon="2.78365">
        <ele>83.1</ele>
        <time>2021-06-13T14:08:45Z</time>
      </trkpt>
      <trkpt lat="48.38035" lon="2.78357">
        <ele>83.5</ele>
        <time>2021-06-13T14:08:51Z</time>
      </trkpt>
      <trkpt lat="48.38038" lon="2.78352">
        <ele>83.8</ele>
        <time>2021-06-13T14:08:56Z</time>
      </trkpt>
      <trkpt lat="48.38042" lon="2.78342">
        <ele>84.2</ele>
        <time>2021-06-13T14:09:02Z</time>
      </trkpt>
      <trkpt lat="48.38048" lon="2.78337">
        <ele>84.5</ele>
        <time>2021-06-13T14:09:09Z</time>
      </trkpt>
      <trkpt lat="48.38047" lon="2.78335">
        <ele>84.5</ele>
        <time>2021-06-13T14:09:18Z</time>
      </trkpt>
      <trkpt lat="48.38049" lon="2.78331">
        <ele>84.7</ele>
        <time>2021-06-13T14:09:24Z</time>
      </trkpt>
      <trkpt lat="48.38051" lon="2.78326">
        <ele>85</ele>
        <time>2021-06-13T14:09:28Z</time>
      </trkpt>
      <trkpt lat="48.38056" lon="2.78317">
        <ele>85.5</ele>
        <time>2021-06-13T14:09:36Z</time>
      </trkpt>
      <trkpt lat="48.38058" lon="2.78314">
        <ele>85.7</ele>
        <time>2021-06-13T14:09:39Z</time>
      </trkpt>
      <trkpt lat="48.38062" lon="2.78308">
        <ele>86.1</ele>
        <time>2021-06-13T14:09:44Z</time>
      </trkpt>
      <trkpt lat="48.38067" lon="2.78297">
        <ele>86.6</ele>
        <time>2021-06-13T14:09:50Z</time>
      </trkpt>
      <trkpt lat="48.38069" lon="2.78291">
        <ele>86.9</ele>
        <time>2021-06-13T14:09:56Z</time>
      </trkpt>
      <trkpt lat="48.38069" lon="2.78289">
        <ele>87</ele>
        <time>2021-06-13T14:09:57Z</time>
      </trkpt>
      <trkpt lat="48.38073" lon="2.78284">
        <ele>87.3</ele>
        <time>2021-06-13T14:10:01Z</time>
      </trkpt>
      <trkpt lat="48.3808" lon="2.78273">
        <ele>87.9</ele>
        <time>2021-06-13T14:10:09Z</time>
      </trkpt>
      <trkpt lat="48.38083" lon="2.78263">
        <ele>88.4</ele>
        <time>2021-06-13T14:10:15Z</time>
      </trkpt>
      <trkpt lat="48.38084" lon="2.78261">
        <ele>88.5</ele>
        <time>2021-06-13T14:10:16Z</time>
      </trkpt>
      <trkpt lat="48.38087" lon="2.7825">
        <ele>89.1</ele>
        <time>2021-06-13T14:10:23Z</time>
      </trkpt>
      <trkpt lat="48.3809" lon="2.78243">
        <ele>89.3</ele>
        <time>2021-06-13T14:10:27Z</time>
      </trkpt>
      <trkpt lat="48.38092" lon="2.78241">
        <ele>89.4</ele>
        <time>2021-06-13T14:10:29Z</time>
      </trkpt>
      <trkpt lat="48.38097" lon="2.78229">
        <ele>89.9</ele>
        <time>2021-06-13T14:10:38Z</time>
      </trkpt>
      <trkpt lat="48.38101" lon="2.78218">
        <ele>90.4</ele>
        <time>2021-06-13T14:10:45Z</time>
      </trkpt>
      <trkpt lat="48.38107" lon="2.78209">
        <ele>90.8</ele>
        <time>2021-06-13T14:10:51Z</time>
      </trkpt>
      <trkpt lat="48.3811" lon="2.782">
        <ele>91.1</ele>
        <time>2021-06-13T14:10:57Z</time>
      </trkpt>
      <trkpt lat="48.38118" lon="2.78186">
        <ele>91.7</ele>
        <time>2021-06-13T14:11:07Z</time>
      </trkpt>
      <trkpt lat="48.38123" lon="2.78178">
        <ele>92.1</ele>
        <time>2021-06-13T14:11:13Z</time>
      </trkpt>
      <trkpt lat="48.38126" lon="2.7817">
        <ele>92.4</ele>
        <time>2021-06-13T14:11:18Z</time>
      </trkpt>
      <trkpt lat="48.38131" lon="2.78158">
        <ele>92.7</ele>
        <time>2021-06-13T14:11:26Z</time>
      </trkpt>
      <trkpt lat="48.38134" lon="2.7815">
        <ele>92.8</ele>
        <time>2021-06-13T14:11:31Z</time>
      </trkpt>
      <trkpt lat="48.38135" lon="2.78149">
        <ele>92.8</ele>
        <time>2021-06-13T14:11:32Z</time>
      </trkpt>
      <trkpt lat="48.38137" lon="2.78139">
        <ele>93</ele>
        <time>2021-06-13T14:11:38Z</time>
      </trkpt>
      <trkpt lat="48.38141" lon="2.78134">
        <ele>93.1</ele>
        <time>2021-06-13T14:11:42Z</time>
      </trkpt>
      <trkpt lat="48.38145" lon="2.78123">
        <ele>93.3</ele>
        <time>2021-06-13T14:11:49Z</time>
      </trkpt>
      <trkpt lat="48.38149" lon="2.78118">
        <ele>93.4</ele>
        <time>2021-06-13T14:11:52Z</time>
      </trkpt>
      <trkpt lat="48.3815" lon="2.78113">
        <ele>93.4</ele>
        <time>2021-06-13T14:11:55Z</time>
      </trkpt>
      <trkpt lat="48.38155" lon="2.78105">
        <ele>93.6</ele>
        <time>2021-06-13T14:12:01Z</time>
      </trkpt>
      <trkpt lat="48.38156" lon="2.78102">
        <ele>93.6</ele>
        <time>2021-06-13T14:12:03Z</time>
      </trkpt>
      <trkpt lat="48.38161" lon="2.78091">
        <ele>93.8</ele>
        <time>2021-06-13T14:12:10Z</time>
      </trkpt>
      <trkpt lat="48.38161" lon="2.7809">
        <ele>93.9</ele>
        <time>2021-06-13T14:12:11Z</time>
      </trkpt>
      <trkpt lat="48.38166" lon="2.78079">
        <ele>94.1</ele>
        <time>2021-06-13T14:12:19Z</time>
      </trkpt>
      <trkpt lat="48.38168" lon="2.78077">
        <ele>94.1</ele>
        <time>2021-06-13T14:12:21Z</time>
      </trkpt>
      <trkpt lat="48.3817" lon="2.78069">
        <ele>94.2</ele>
        <time>2021-06-13T14:12:26Z</time>
      </trkpt>
      <trkpt lat="48.38172" lon="2.78064">
        <ele>94.2</ele>
        <time>2021-06-13T14:12:29Z</time>
      </trkpt>
      <trkpt lat="48.38178" lon="2.78054">
        <ele>94.3</ele>
        <time>2021-06-13T14:12:36Z</time>
      </trkpt>
      <trkpt lat="48.38181" lon="2.78048">
        <ele>94.3</ele>
        <time>2021-06-13T14:12:40Z</time>
      </trkpt>
      <trkpt lat="48.38185" lon="2.7804">
        <ele>94.2</ele>
        <time>2021-06-13T14:12:45Z</time>
      </trkpt>
      <trkpt lat="48.38187" lon="2.78034">
        <ele>94.3</ele>
        <time>2021-06-13T14:12:49Z</time>
      </trkpt>
      <trkpt lat="48.38192" lon="2.78022">
        <ele>94.3</ele>
        <time>2021-06-13T14:12:57Z</time>
      </trkpt>
      <trkpt lat="48.38197" lon="2.78012">
        <ele>94.3</ele>
        <time>2021-06-13T14:13:04Z</time>
      </trkpt>
      <trkpt lat="48.382" lon="2.78005">
        <ele>94.3</ele>
        <time>2021-06-13T14:13:10Z</time>
      </trkpt>
      <trkpt lat="48.38201" lon="2.78004">
        <ele>94.3</ele>
        <time>2021-06-13T14:13:11Z</time>
      </trkpt>
      <trkpt lat="48.38204" lon="2.77994">
        <ele>94.2</ele>
        <time>2021-06-13T14:13:19Z</time>
      </trkpt>
      <trkpt lat="48.38211" lon="2.7798">
        <ele>94</ele>
        <time>2021-06-13T14:13:29Z</time>
      </trkpt>
      <trkpt lat="48.38211" lon="2.77977">
        <ele>94</ele>
        <time>2021-06-13T14:13:35Z</time>
      </trkpt>
      <trkpt lat="48.38211" lon="2.77976">
        <ele>94</ele>
        <time>2021-06-13T14:13:45Z</time>
      </trkpt>
      <trkpt lat="48.38211" lon="2.77977">
        <ele>94</ele>
        <time>2021-06-13T14:13:53Z</time>
      </trkpt>
      <trkpt lat="48.38212" lon="2.77977">
        <ele>94</ele>
        <time>2021-06-13T14:14:00Z</time>
      </trkpt>
      <trkpt lat="48.38212" lon="2.77977">
        <ele>94</ele>
        <time>2021-06-13T14:14:12Z</time>
      </trkpt>
      <trkpt lat="48.38212" lon="2.77976">
        <ele>94</ele>
        <time>2021-06-13T14:14:27Z</time>
      </trkpt>
      <trkpt lat="48.38213" lon="2.77976">
        <ele>94</ele>
        <time>2021-06-13T14:14:38Z</time>
      </trkpt>
      <trkpt lat="48.38212" lon="2.77976">
        <ele>94</ele>
        <time>2021-06-13T14:14:44Z</time>
      </trkpt>
      <trkpt lat="48.38213" lon="2.77974">
        <ele>94</ele>
        <time>2021-06-13T14:14:50Z</time>
      </trkpt>
      <trkpt lat="48.38212" lon="2.77973">
        <ele>94</ele>
        <time>2021-06-13T14:15:03Z</time>
      </trkpt>
      <trkpt lat="48.38212" lon="2.77973">
        <ele>94</ele>
        <time>2021-06-13T14:15:16Z</time>
      </trkpt>
      <trkpt lat="48.38214" lon="2.77976">
        <ele>93.9</ele>
        <time>2021-06-13T14:15:25Z</time>
      </trkpt>
      <trkpt lat="48.38216" lon="2.77976">
        <ele>93.8</ele>
        <time>2021-06-13T14:15:32Z</time>
      </trkpt>
      <trkpt lat="48.38216" lon="2.77976">
        <ele>93.8</ele>
        <time>2021-06-13T14:15:47Z</time>
      </trkpt>
      <trkpt lat="48.38216" lon="2.77975">
        <ele>93.8</ele>
        <time>2021-06-13T14:16:05Z</time>
      </trkpt>
      <trkpt lat="48.38216" lon="2.77975">
        <ele>93.8</ele>
        <time>2021-06-13T14:16:21Z</time>
      </trkpt>
      <trkpt lat="48.38216" lon="2.77975">
        <ele>93.8</ele>
        <time>2021-06-13T14:16:36Z</time>
      </trkpt>
      <trkpt lat="48.38216" lon="2.77975">
        <ele>93.8</ele>
        <time>2021-06-13T14:16:53Z</time>
      </trkpt>
      <trkpt lat="48.38215" lon="2.77975">
        <ele>93.8</ele>
        <time>2021-06-13T14:17:07Z</time>
      </trkpt>
      <trkpt lat="48.38215" lon="2.77975">
        <ele>93.9</ele>
        <time>2021-06-13T14:17:24Z</time>
      </trkpt>
      <trkpt lat="48.38216" lon="2.77975">
        <ele>93.8</ele>
        <time>2021-06-13T14:17:31Z</time>
      </trkpt>
      <trkpt lat="48.38215" lon="2.77974">
        <ele>93.9</ele>
        <time>2021-06-13T14:17:46Z</time>
      </trkpt>
      <trkpt lat="48.38215" lon="2.77974">
        <ele>93.9</ele>
        <time>2021-06-13T14:18:01Z</time>
      </trkpt>
      <trkpt lat="48.38215" lon="2.77975">
        <ele>93.9</ele>
        <time>2021-06-13T14:18:19Z</time>
      </trkpt>
      <trkpt lat="48.38215" lon="2.77975">
        <ele>93.9</ele>
        <time>2021-06-13T14:18:36Z</time>
      </trkpt>
      <trkpt lat="48.38215" lon="2.77974">
        <ele>93.9</ele>
        <time>2021-06-13T14:18:49Z</time>
      </trkpt>
      <trkpt lat="48.38215" lon="2.77971">
        <ele>93.9</ele>
        <time>2021-06-13T14:18:55Z</time>
      </trkpt>
      <trkpt lat="48.38218" lon="2.77967">
        <ele>93.8</ele>
        <time>2021-06-13T14:19:00Z</time>
      </trkpt>
      <trkpt lat="48.38223" lon="2.77958">
        <ele>93.6</ele>
        <time>2021-06-13T14:19:07Z</time>
      </trkpt>
      <trkpt lat="48.38226" lon="2.7795">
        <ele>93.6</ele>
        <time>2021-06-13T14:19:13Z</time>
      </trkpt>
      <trkpt lat="48.3823" lon="2.77944">
        <ele>93.5</ele>
        <time>2021-06-13T14:19:18Z</time>
      </trkpt>
      <trkpt lat="48.38231" lon="2.77939">
        <ele>93.5</ele>
        <time>2021-06-13T14:19:22Z</time>
      </trkpt>
      <trkpt lat="48.38238" lon="2.77925">
        <ele>93.3</ele>
        <time>2021-06-13T14:19:32Z</time>
      </trkpt>
      <trkpt lat="48.38239" lon="2.77922">
        <ele>93.4</ele>
        <time>2021-06-13T14:19:34Z</time>
      </trkpt>
      <trkpt lat="48.38244" lon="2.77909">
        <ele>93.8</ele>
        <time>2021-06-13T14:19:43Z</time>
      </trkpt>
      <trkpt lat="48.38249" lon="2.779">
        <ele>94.4</ele>
        <time>2021-06-13T14:19:49Z</time>
      </trkpt>
      <trkpt lat="48.38252" lon="2.77891">
        <ele>95.2</ele>
        <time>2021-06-13T14:19:55Z</time>
      </trkpt>
      <trkpt lat="48.38256" lon="2.77883">
        <ele>96</ele>
        <time>2021-06-13T14:20:00Z</time>
      </trkpt>
      <trkpt lat="48.38262" lon="2.77874">
        <ele>97.1</ele>
        <time>2021-06-13T14:20:07Z</time>
      </trkpt>
      <trkpt lat="48.38267" lon="2.77862">
        <ele>98.3</ele>
        <time>2021-06-13T14:20:15Z</time>
      </trkpt>
      <trkpt lat="48.38268" lon="2.7786">
        <ele>98.6</ele>
        <time>2021-06-13T14:20:18Z</time>
      </trkpt>
      <trkpt lat="48.38275" lon="2.77852">
        <ele>99.6</ele>
        <time>2021-06-13T14:20:25Z</time>
      </trkpt>
      <trkpt lat="48.38279" lon="2.77843">
        <ele>100.6</ele>
        <time>2021-06-13T14:20:31Z</time>
      </trkpt>
      <trkpt lat="48.38286" lon="2.77831">
        <ele>101.9</ele>
        <time>2021-06-13T14:20:41Z</time>
      </trkpt>
      <trkpt lat="48.38288" lon="2.77826">
        <ele>102.2</ele>
        <time>2021-06-13T14:20:45Z</time>
      </trkpt>
      <trkpt lat="48.38292" lon="2.77817">
        <ele>102.8</ele>
        <time>2021-06-13T14:20:51Z</time>
      </trkpt>
      <trkpt lat="48.38298" lon="2.77805">
        <ele>103.6</ele>
        <time>2021-06-13T14:21:00Z</time>
      </trkpt>
      <trkpt lat="48.38305" lon="2.77794">
        <ele>104.4</ele>
        <time>2021-06-13T14:21:07Z</time>
      </trkpt>
      <trkpt lat="48.38307" lon="2.7779">
        <ele>104.6</ele>
        <time>2021-06-13T14:21:11Z</time>
      </trkpt>
      <trkpt lat="48.3831" lon="2.77787">
        <ele>104.9</ele>
        <time>2021-06-13T14:21:18Z</time>
      </trkpt>
      <trkpt lat="48.38315" lon="2.77778">
        <ele>105.4</ele>
        <time>2021-06-13T14:21:25Z</time>
      </trkpt>
      <trkpt lat="48.38319" lon="2.77773">
        <ele>105.7</ele>
        <time>2021-06-13T14:21:29Z</time>
      </trkpt>
      <trkpt lat="48.38325" lon="2.77763">
        <ele>106.3</ele>
        <time>2021-06-13T14:21:36Z</time>
      </trkpt>
      <trkpt lat="48.38331" lon="2.77752">
        <ele>106.9</ele>
        <time>2021-06-13T14:21:42Z</time>
      </trkpt>
      <trkpt lat="48.38335" lon="2.77747">
        <ele>106.9</ele>
        <time>2021-06-13T14:21:49Z</time>
      </trkpt>
      <trkpt lat="48.38337" lon="2.77743">
        <ele>106.9</ele>
        <time>2021-06-13T14:21:52Z</time>
      </trkpt>
      <trkpt lat="48.38345" lon="2.77728">
        <ele>106.7</ele>
        <time>2021-06-13T14:22:01Z</time>
      </trkpt>
      <trkpt lat="48.38351" lon="2.77719">
        <ele>106.6</ele>
        <time>2021-06-13T14:22:08Z</time>
      </trkpt>
      <trkpt lat="48.38353" lon="2.77713">
        <ele>106.6</ele>
        <time>2021-06-13T14:22:12Z</time>
      </trkpt>
      <trkpt lat="48.38357" lon="2.77703">
        <ele>106.5</ele>
        <time>2021-06-13T14:22:19Z</time>
      </trkpt>
      <trkpt lat="48.38362" lon="2.77694">
        <ele>106.5</ele>
        <time>2021-06-13T14:22:26Z</time>
      </trkpt>
      <trkpt lat="48.38364" lon="2.77692">
        <ele>106.5</ele>
        <time>2021-06-13T14:22:28Z</time>
      </trkpt>
      <trkpt lat="48.3837" lon="2.77681">
        <ele>106.5</ele>
        <time>2021-06-13T14:22:37Z</time>
      </trkpt>
      <trkpt lat="48.38374" lon="2.77677">
        <ele>106.6</ele>
        <time>2021-06-13T14:22:43Z</time>
      </trkpt>
      <trkpt lat="48.38375" lon="2.77675">
        <ele>106.6</ele>
        <time>2021-06-13T14:22:44Z</time>
      </trkpt>
      <trkpt lat="48.3838" lon="2.77666">
        <ele>106.7</ele>
        <time>2021-06-13T14:22:49Z</time>
      </trkpt>
      <trkpt lat="48.38385" lon="2.77659">
        <ele>106.9</ele>
        <time>2021-06-13T14:22:55Z</time>
      </trkpt>
      <trkpt lat="48.38389" lon="2.77651">
        <ele>107.2</ele>
        <time>2021-06-13T14:23:00Z</time>
      </trkpt>
      <trkpt lat="48.38397" lon="2.77639">
        <ele>107.8</ele>
        <time>2021-06-13T14:23:09Z</time>
      </trkpt>
      <trkpt lat="48.38403" lon="2.77625">
        <ele>108.3</ele>
        <time>2021-06-13T14:23:18Z</time>
      </trkpt>
      <trkpt lat="48.38411" lon="2.77608">
        <ele>109.1</ele>
        <time>2021-06-13T14:23:28Z</time>
      </trkpt>
      <trkpt lat="48.38418" lon="2.77596">
        <ele>109.7</ele>
        <time>2021-06-13T14:23:36Z</time>
      </trkpt>
      <trkpt lat="48.38422" lon="2.77593">
        <ele>109.7</ele>
        <time>2021-06-13T14:23:42Z</time>
      </trkpt>
      <trkpt lat="48.38425" lon="2.77588">
        <ele>109.8</ele>
        <time>2021-06-13T14:23:47Z</time>
      </trkpt>
      <trkpt lat="48.38427" lon="2.77584">
        <ele>109.9</ele>
        <time>2021-06-13T14:23:49Z</time>
      </trkpt>
      <trkpt lat="48.38431" lon="2.77573">
        <ele>109.9</ele>
        <time>2021-06-13T14:23:55Z</time>
      </trkpt>
      <trkpt lat="48.38433" lon="2.77569">
        <ele>109.9</ele>
        <time>2021-06-13T14:23:57Z</time>
      </trkpt>
      <trkpt lat="48.38439" lon="2.77558">
        <ele>109.8</ele>
        <time>2021-06-13T14:24:04Z</time>
      </trkpt>
      <trkpt lat="48.38444" lon="2.77549">
        <ele>109.7</ele>
        <time>2021-06-13T14:24:12Z</time>
      </trkpt>
      <trkpt lat="48.38451" lon="2.77542">
        <ele>109.5</ele>
        <time>2021-06-13T14:24:19Z</time>
      </trkpt>
      <trkpt lat="48.38457" lon="2.7753">
        <ele>109.2</ele>
        <time>2021-06-13T14:24:27Z</time>
      </trkpt>
      <trkpt lat="48.38462" lon="2.77521">
        <ele>109</ele>
        <time>2021-06-13T14:24:33Z</time>
      </trkpt>
      <trkpt lat="48.38469" lon="2.7751">
        <ele>108.6</ele>
        <time>2021-06-13T14:24:40Z</time>
      </trkpt>
      <trkpt lat="48.38471" lon="2.77506">
        <ele>108.4</ele>
        <time>2021-06-13T14:24:45Z</time>
      </trkpt>
      <trkpt lat="48.38477" lon="2.77498">
        <ele>108</ele>
        <time>2021-06-13T14:24:52Z</time>
      </trkpt>
      <trkpt lat="48.38481" lon="2.77489">
        <ele>107.6</ele>
        <time>2021-06-13T14:24:58Z</time>
      </trkpt>
      <trkpt lat="48.38483" lon="2.77485">
        <ele>107.3</ele>
        <time>2021-06-13T14:25:01Z</time>
      </trkpt>
      <trkpt lat="48.38487" lon="2.77479">
        <ele>106.8</ele>
        <time>2021-06-13T14:25:07Z</time>
      </trkpt>
      <trkpt lat="48.38495" lon="2.77463">
        <ele>105.6</ele>
        <time>2021-06-13T14:25:15Z</time>
      </trkpt>
      <trkpt lat="48.38496" lon="2.77461">
        <ele>105.4</ele>
        <time>2021-06-13T14:25:16Z</time>
      </trkpt>
      <trkpt lat="48.38499" lon="2.77455">
        <ele>104.9</ele>
        <time>2021-06-13T14:25:19Z</time>
      </trkpt>
      <trkpt lat="48.38502" lon="2.7745">
        <ele>104.6</ele>
        <time>2021-06-13T14:25:23Z</time>
      </trkpt>
      <trkpt lat="48.38509" lon="2.77436">
        <ele>104</ele>
        <time>2021-06-13T14:25:31Z</time>
      </trkpt>
      <trkpt lat="48.38515" lon="2.77429">
        <ele>103.8</ele>
        <time>2021-06-13T14:25:38Z</time>
      </trkpt>
      <trkpt lat="48.38521" lon="2.77417">
        <ele>103.5</ele>
        <time>2021-06-13T14:25:45Z</time>
      </trkpt>
      <trkpt lat="48.38524" lon="2.77409">
        <ele>103.6</ele>
        <time>2021-06-13T14:25:49Z</time>
      </trkpt>
      <trkpt lat="48.38528" lon="2.77397">
        <ele>103.8</ele>
        <time>2021-06-13T14:25:55Z</time>
      </trkpt>
      <trkpt lat="48.38535" lon="2.77387">
        <ele>103.9</ele>
        <time>2021-06-13T14:26:02Z</time>
      </trkpt>
      <trkpt lat="48.38537" lon="2.77381">
        <ele>103.9</ele>
        <time>2021-06-13T14:26:07Z</time>
      </trkpt>
      <trkpt lat="48.38539" lon="2.77378">
        <ele>104</ele>
        <time>2021-06-13T14:26:09Z</time>
      </trkpt>
      <trkpt lat="48.38543" lon="2.77369">
        <ele>104</ele>
        <time>2021-06-13T14:26:16Z</time>
      </trkpt>
      <trkpt lat="48.38544" lon="2.77367">
        <ele>104</ele>
        <time>2021-06-13T14:26:19Z</time>
      </trkpt>
      <trkpt lat="48.38553" lon="2.77353">
        <ele>104.1</ele>
        <time>2021-06-13T14:26:26Z</time>
      </trkpt>
      <trkpt lat="48.3856" lon="2.7734">
        <ele>104</ele>
        <time>2021-06-13T14:26:34Z</time>
      </trkpt>
      <trkpt lat="48.38567" lon="2.77327">
        <ele>103.9</ele>
        <time>2021-06-13T14:26:41Z</time>
      </trkpt>
      <trkpt lat="48.38572" lon="2.77317">
        <ele>103.8</ele>
        <time>2021-06-13T14:26:48Z</time>
      </trkpt>
      <trkpt lat="48.38575" lon="2.77311">
        <ele>103.7</ele>
        <time>2021-06-13T14:26:54Z</time>
      </trkpt>
      <trkpt lat="48.38584" lon="2.77298">
        <ele>103.6</ele>
        <time>2021-06-13T14:27:02Z</time>
      </trkpt>
      <trkpt lat="48.38587" lon="2.77295">
        <ele>103.6</ele>
        <time>2021-06-13T14:27:04Z</time>
      </trkpt>
      <trkpt lat="48.38591" lon="2.77291">
        <ele>103.6</ele>
        <time>2021-06-13T14:27:08Z</time>
      </trkpt>
      <trkpt lat="48.38594" lon="2.77282">
        <ele>103.5</ele>
        <time>2021-06-13T14:27:14Z</time>
      </trkpt>
      <trkpt lat="48.38599" lon="2.77272">
        <ele>103.5</ele>
        <time>2021-06-13T14:27:21Z</time>
      </trkpt>
      <trkpt lat="48.38603" lon="2.77266">
        <ele>103.6</ele>
        <time>2021-06-13T14:27:27Z</time>
      </trkpt>
      <trkpt lat="48.38608" lon="2.77254">
        <ele>103.6</ele>
        <time>2021-06-13T14:27:33Z</time>
      </trkpt>
      <trkpt lat="48.38611" lon="2.77248">
        <ele>103.6</ele>
        <time>2021-06-13T14:27:41Z</time>
      </trkpt>
      <trkpt lat="48.38614" lon="2.77243">
        <ele>103.7</ele>
        <time>2021-06-13T14:27:45Z</time>
      </trkpt>
      <trkpt lat="48.38621" lon="2.77233">
        <ele>103.7</ele>
        <time>2021-06-13T14:27:52Z</time>
      </trkpt>
      <trkpt lat="48.38626" lon="2.77216">
        <ele>103.6</ele>
        <time>2021-06-13T14:27:59Z</time>
      </trkpt>
      <trkpt lat="48.38633" lon="2.77205">
        <ele>103.7</ele>
        <time>2021-06-13T14:28:07Z</time>
      </trkpt>
      <trkpt lat="48.38638" lon="2.772">
        <ele>103.7</ele>
        <time>2021-06-13T14:28:10Z</time>
      </trkpt>
      <trkpt lat="48.38642" lon="2.7719">
        <ele>103.7</ele>
        <time>2021-06-13T14:28:16Z</time>
      </trkpt>
      <trkpt lat="48.38642" lon="2.77189">
        <ele>103.7</ele>
        <time>2021-06-13T14:28:17Z</time>
      </trkpt>
      <trkpt lat="48.38647" lon="2.77177">
        <ele>103.7</ele>
        <time>2021-06-13T14:28:24Z</time>
      </trkpt>
      <trkpt lat="48.38654" lon="2.77164">
        <ele>103.7</ele>
        <time>2021-06-13T14:28:32Z</time>
      </trkpt>
      <trkpt lat="48.38656" lon="2.77159">
        <ele>103.7</ele>
        <time>2021-06-13T14:28:36Z</time>
      </trkpt>
      <trkpt lat="48.3866" lon="2.77148">
        <ele>103.7</ele>
        <time>2021-06-13T14:28:42Z</time>
      </trkpt>
      <trkpt lat="48.38669" lon="2.77134">
        <ele>103.6</ele>
        <time>2021-06-13T14:28:50Z</time>
      </trkpt>
      <trkpt lat="48.38675" lon="2.77123">
        <ele>103.6</ele>
        <time>2021-06-13T14:28:57Z</time>
      </trkpt>
      <trkpt lat="48.3868" lon="2.77115">
        <ele>103.5</ele>
        <time>2021-06-13T14:29:02Z</time>
      </trkpt>
      <trkpt lat="48.38683" lon="2.77112">
        <ele>103.5</ele>
        <time>2021-06-13T14:29:06Z</time>
      </trkpt>
      <trkpt lat="48.3869" lon="2.77101">
        <ele>103.5</ele>
        <time>2021-06-13T14:29:14Z</time>
      </trkpt>
      <trkpt lat="48.38698" lon="2.77086">
        <ele>103.4</ele>
        <time>2021-06-13T14:29:22Z</time>
      </trkpt>
      <trkpt lat="48.38705" lon="2.77074">
        <ele>103.3</ele>
        <time>2021-06-13T14:29:29Z</time>
      </trkpt>
      <trkpt lat="48.38708" lon="2.77067">
        <ele>103.2</ele>
        <time>2021-06-13T14:29:35Z</time>
      </trkpt>
      <trkpt lat="48.38709" lon="2.77066">
        <ele>103.2</ele>
        <time>2021-06-13T14:29:37Z</time>
      </trkpt>
      <trkpt lat="48.38714" lon="2.77056">
        <ele>103</ele>
        <time>2021-06-13T14:29:44Z</time>
      </trkpt>
      <trkpt lat="48.38715" lon="2.77055">
        <ele>102.9</ele>
        <time>2021-06-13T14:29:45Z</time>
      </trkpt>
      <trkpt lat="48.38719" lon="2.7705">
        <ele>102.8</ele>
        <time>2021-06-13T14:29:49Z</time>
      </trkpt>
      <trkpt lat="48.38721" lon="2.77048">
        <ele>102.7</ele>
        <time>2021-06-13T14:29:54Z</time>
      </trkpt>
      <trkpt lat="48.38724" lon="2.7704">
        <ele>102.4</ele>
        <time>2021-06-13T14:29:59Z</time>
      </trkpt>
      <trkpt lat="48.38728" lon="2.77032">
        <ele>102.1</ele>
        <time>2021-06-13T14:30:03Z</time>
      </trkpt>
      <trkpt lat="48.38735" lon="2.77018">
        <ele>101.4</ele>
        <time>2021-06-13T14:30:11Z</time>
      </trkpt>
      <trkpt lat="48.38742" lon="2.77006">
        <ele>100.6</ele>
        <time>2021-06-13T14:30:18Z</time>
      </trkpt>
      <trkpt lat="48.38745" lon="2.77001">
        <ele>100.3</ele>
        <time>2021-06-13T14:30:21Z</time>
      </trkpt>
      <trkpt lat="48.38751" lon="2.76991">
        <ele>99.8</ele>
        <time>2021-06-13T14:30:27Z</time>
      </trkpt>
      <trkpt lat="48.38757" lon="2.76981">
        <ele>99.8</ele>
        <time>2021-06-13T14:30:34Z</time>
      </trkpt>
      <trkpt lat="48.38759" lon="2.76979">
        <ele>99.8</ele>
        <time>2021-06-13T14:30:36Z</time>
      </trkpt>
      <trkpt lat="48.38764" lon="2.76968">
        <ele>99.7</ele>
        <time>2021-06-13T14:30:41Z</time>
      </trkpt>
      <trkpt lat="48.3877" lon="2.76954">
        <ele>99.6</ele>
        <time>2021-06-13T14:30:48Z</time>
      </trkpt>
      <trkpt lat="48.38776" lon="2.76947">
        <ele>99.6</ele>
        <time>2021-06-13T14:30:55Z</time>
      </trkpt>
      <trkpt lat="48.38779" lon="2.76939">
        <ele>99.6</ele>
        <time>2021-06-13T14:30:59Z</time>
      </trkpt>
      <trkpt lat="48.38784" lon="2.76926">
        <ele>99.5</ele>
        <time>2021-06-13T14:31:06Z</time>
      </trkpt>
      <trkpt lat="48.38785" lon="2.76924">
        <ele>99.5</ele>
        <time>2021-06-13T14:31:07Z</time>
      </trkpt>
      <trkpt lat="48.38791" lon="2.7691">
        <ele>99.4</ele>
        <time>2021-06-13T14:31:15Z</time>
      </trkpt>
      <trkpt lat="48.38793" lon="2.76906">
        <ele>99.3</ele>
        <time>2021-06-13T14:31:25Z</time>
      </trkpt>
      <trkpt lat="48.38799" lon="2.76893">
        <ele>99.3</ele>
        <time>2021-06-13T14:31:33Z</time>
      </trkpt>
      <trkpt lat="48.38805" lon="2.76882">
        <ele>99.3</ele>
        <time>2021-06-13T14:31:41Z</time>
      </trkpt>
      <trkpt lat="48.38811" lon="2.7687">
        <ele>99.2</ele>
        <time>2021-06-13T14:31:49Z</time>
      </trkpt>
      <trkpt lat="48.38816" lon="2.76862">
        <ele>99.2</ele>
        <time>2021-06-13T14:31:53Z</time>
      </trkpt>
      <trkpt lat="48.38822" lon="2.76853">
        <ele>99.2</ele>
        <time>2021-06-13T14:31:59Z</time>
      </trkpt>
      <trkpt lat="48.38827" lon="2.76842">
        <ele>99</ele>
        <time>2021-06-13T14:32:06Z</time>
      </trkpt>
      <trkpt lat="48.38829" lon="2.76841">
        <ele>99.1</ele>
        <time>2021-06-13T14:32:08Z</time>
      </trkpt>
      <trkpt lat="48.38831" lon="2.76838">
        <ele>99</ele>
        <time>2021-06-13T14:32:10Z</time>
      </trkpt>
      <trkpt lat="48.38839" lon="2.76829">
        <ele>99.3</ele>
        <time>2021-06-13T14:32:17Z</time>
      </trkpt>
      <trkpt lat="48.38844" lon="2.76822">
        <ele>99.5</ele>
        <time>2021-06-13T14:32:23Z</time>
      </trkpt>
      <trkpt lat="48.38849" lon="2.76813">
        <ele>99.7</ele>
        <time>2021-06-13T14:32:30Z</time>
      </trkpt>
      <trkpt lat="48.3885" lon="2.76812">
        <ele>99.7</ele>
        <time>2021-06-13T14:32:31Z</time>
      </trkpt>
      <trkpt lat="48.38854" lon="2.76802">
        <ele>99.8</ele>
        <time>2021-06-13T14:32:38Z</time>
      </trkpt>
      <trkpt lat="48.38857" lon="2.76794">
        <ele>99.9</ele>
        <time>2021-06-13T14:32:44Z</time>
      </trkpt>
      <trkpt lat="48.38859" lon="2.76789">
        <ele>99.9</ele>
        <time>2021-06-13T14:32:47Z</time>
      </trkpt>
      <trkpt lat="48.38862" lon="2.7678">
        <ele>99.9</ele>
        <time>2021-06-13T14:32:53Z</time>
      </trkpt>
      <trkpt lat="48.38869" lon="2.76771">
        <ele>100.1</ele>
        <time>2021-06-13T14:33:01Z</time>
      </trkpt>
      <trkpt lat="48.38877" lon="2.76756">
        <ele>100.1</ele>
        <time>2021-06-13T14:33:10Z</time>
      </trkpt>
      <trkpt lat="48.38879" lon="2.76754">
        <ele>100.2</ele>
        <time>2021-06-13T14:33:12Z</time>
      </trkpt>
      <trkpt lat="48.38887" lon="2.7674">
        <ele>100.1</ele>
        <time>2021-06-13T14:33:21Z</time>
      </trkpt>
      <trkpt lat="48.38891" lon="2.76732">
        <ele>99.9</ele>
        <time>2021-06-13T14:33:28Z</time>
      </trkpt>
      <trkpt lat="48.38897" lon="2.76723">
        <ele>99.8</ele>
        <time>2021-06-13T14:33:33Z</time>
      </trkpt>
      <trkpt lat="48.38903" lon="2.76712">
        <ele>99.5</ele>
        <time>2021-06-13T14:33:40Z</time>
      </trkpt>
      <trkpt lat="48.38906" lon="2.76708">
        <ele>99.4</ele>
        <time>2021-06-13T14:33:43Z</time>
      </trkpt>
      <trkpt lat="48.38912" lon="2.76697">
        <ele>99.1</ele>
        <time>2021-06-13T14:33:50Z</time>
      </trkpt>
      <trkpt lat="48.38914" lon="2.76693">
        <ele>99</ele>
        <time>2021-06-13T14:33:54Z</time>
      </trkpt>
      <trkpt lat="48.38918" lon="2.76686">
        <ele>98.6</ele>
        <time>2021-06-13T14:33:59Z</time>
      </trkpt>
      <trkpt lat="48.38924" lon="2.76672">
        <ele>98</ele>
        <time>2021-06-13T14:34:08Z</time>
      </trkpt>
      <trkpt lat="48.38929" lon="2.76663">
        <ele>97.7</ele>
        <time>2021-06-13T14:34:15Z</time>
      </trkpt>
      <trkpt lat="48.38934" lon="2.76657">
        <ele>97.6</ele>
        <time>2021-06-13T14:34:18Z</time>
      </trkpt>
      <trkpt lat="48.3894" lon="2.76645">
        <ele>97.5</ele>
        <time>2021-06-13T14:34:24Z</time>
      </trkpt>
      <trkpt lat="48.38947" lon="2.76628">
        <ele>97.4</ele>
        <time>2021-06-13T14:34:32Z</time>
      </trkpt>
      <trkpt lat="48.38956" lon="2.76616">
        <ele>97.4</ele>
        <time>2021-06-13T14:34:39Z</time>
      </trkpt>
      <trkpt lat="48.3896" lon="2.76609">
        <ele>97.3</ele>
        <time>2021-06-13T14:34:44Z</time>
      </trkpt>
      <trkpt lat="48.38966" lon="2.76597">
        <ele>97.3</ele>
        <time>2021-06-13T14:34:52Z</time>
      </trkpt>
      <trkpt lat="48.38971" lon="2.76586">
        <ele>97.3</ele>
        <time>2021-06-13T14:35:00Z</time>
      </trkpt>
      <trkpt lat="48.38977" lon="2.76575">
        <ele>97.3</ele>
        <time>2021-06-13T14:35:08Z</time>
      </trkpt>
      <trkpt lat="48.38983" lon="2.76565">
        <ele>97.3</ele>
        <time>2021-06-13T14:35:15Z</time>
      </trkpt>
      <trkpt lat="48.38991" lon="2.76554">
        <ele>97.3</ele>
        <time>2021-06-13T14:35:24Z</time>
      </trkpt>
      <trkpt lat="48.38999" lon="2.76544">
        <ele>97.5</ele>
        <time>2021-06-13T14:35:31Z</time>
      </trkpt>
      <trkpt lat="48.39003" lon="2.76534">
        <ele>97.6</ele>
        <time>2021-06-13T14:35:36Z</time>
      </trkpt>
      <trkpt lat="48.39007" lon="2.76526">
        <ele>97.8</ele>
        <time>2021-06-13T14:35:41Z</time>
      </trkpt>
      <trkpt lat="48.39012" lon="2.76519">
        <ele>98</ele>
        <time>2021-06-13T14:35:45Z</time>
      </trkpt>
      <trkpt lat="48.39017" lon="2.76506">
        <ele>98.3</ele>
        <time>2021-06-13T14:35:52Z</time>
      </trkpt>
      <trkpt lat="48.3902" lon="2.76502">
        <ele>98.4</ele>
        <time>2021-06-13T14:35:55Z</time>
      </trkpt>
      <trkpt lat="48.39022" lon="2.76498">
        <ele>98.5</ele>
        <time>2021-06-13T14:35:58Z</time>
      </trkpt>
      <trkpt lat="48.39027" lon="2.76491">
        <ele>98.5</ele>
        <time>2021-06-13T14:36:05Z</time>
      </trkpt>
      <trkpt lat="48.39033" lon="2.76479">
        <ele>98.5</ele>
        <time>2021-06-13T14:36:13Z</time>
      </trkpt>
      <trkpt lat="48.39039" lon="2.76472">
        <ele>98.6</ele>
        <time>2021-06-13T14:36:19Z</time>
      </trkpt>
      <trkpt lat="48.39044" lon="2.76462">
        <ele>98.6</ele>
        <time>2021-06-13T14:36:25Z</time>
      </trkpt>
      <trkpt lat="48.39051" lon="2.76452">
        <ele>98.6</ele>
        <time>2021-06-13T14:36:31Z</time>
      </trkpt>
      <trkpt lat="48.39052" lon="2.76451">
        <ele>98.7</ele>
        <time>2021-06-13T14:36:32Z</time>
      </trkpt>
      <trkpt lat="48.39054" lon="2.76446">
        <ele>98.7</ele>
        <time>2021-06-13T14:36:35Z</time>
      </trkpt>
      <trkpt lat="48.3906" lon="2.76437">
        <ele>98.7</ele>
        <time>2021-06-13T14:36:41Z</time>
      </trkpt>
      <trkpt lat="48.39067" lon="2.76429">
        <ele>98.7</ele>
        <time>2021-06-13T14:36:48Z</time>
      </trkpt>
      <trkpt lat="48.39072" lon="2.76422">
        <ele>98.8</ele>
        <time>2021-06-13T14:36:56Z</time>
      </trkpt>
      <trkpt lat="48.39077" lon="2.7642">
        <ele>98.9</ele>
        <time>2021-06-13T14:37:04Z</time>
      </trkpt>
      <trkpt lat="48.39083" lon="2.76418">
        <ele>99</ele>
        <time>2021-06-13T14:37:12Z</time>
      </trkpt>
      <trkpt lat="48.39085" lon="2.76418">
        <ele>98.9</ele>
        <time>2021-06-13T14:37:26Z</time>
      </trkpt>
      <trkpt lat="48.39086" lon="2.76418">
        <ele>98.9</ele>
        <time>2021-06-13T14:37:39Z</time>
      </trkpt>
      <trkpt lat="48.39088" lon="2.76416">
        <ele>98.8</ele>
        <time>2021-06-13T14:37:47Z</time>
      </trkpt>
      <trkpt lat="48.39092" lon="2.76415">
        <ele>98.6</ele>
        <time>2021-06-13T14:37:53Z</time>
      </trkpt>
      <trkpt lat="48.39096" lon="2.76412">
        <ele>98.4</ele>
        <time>2021-06-13T14:38:01Z</time>
      </trkpt>
      <trkpt lat="48.39102" lon="2.7641">
        <ele>98.1</ele>
        <time>2021-06-13T14:38:09Z</time>
      </trkpt>
      <trkpt lat="48.39108" lon="2.76408">
        <ele>97.8</ele>
        <time>2021-06-13T14:38:16Z</time>
      </trkpt>
      <trkpt lat="48.39115" lon="2.76407">
        <ele>97.4</ele>
        <time>2021-06-13T14:38:23Z</time>
      </trkpt>
      <trkpt lat="48.39124" lon="2.76407">
        <ele>97</ele>
        <time>2021-06-13T14:38:30Z</time>
      </trkpt>
      <trkpt lat="48.39129" lon="2.76407">
        <ele>96.7</ele>
        <time>2021-06-13T14:38:36Z</time>
      </trkpt>
      <trkpt lat="48.39132" lon="2.76406">
        <ele>96.6</ele>
        <time>2021-06-13T14:38:38Z</time>
      </trkpt>
      <trkpt lat="48.39138" lon="2.76405">
        <ele>96.3</ele>
        <time>2021-06-13T14:38:43Z</time>
      </trkpt>
      <trkpt lat="48.39148" lon="2.76404">
        <ele>95.8</ele>
        <time>2021-06-13T14:38:50Z</time>
      </trkpt>
      <trkpt lat="48.39158" lon="2.76405">
        <ele>95.3</ele>
        <time>2021-06-13T14:38:57Z</time>
      </trkpt>
      <trkpt lat="48.39168" lon="2.76407">
        <ele>94.9</ele>
        <time>2021-06-13T14:39:04Z</time>
      </trkpt>
      <trkpt lat="48.39176" lon="2.76408">
        <ele>95.1</ele>
        <time>2021-06-13T14:39:09Z</time>
      </trkpt>
      <trkpt lat="48.39188" lon="2.76409">
        <ele>95.4</ele>
        <time>2021-06-13T14:39:17Z</time>
      </trkpt>
      <trkpt lat="48.39191" lon="2.7641">
        <ele>95.4</ele>
        <time>2021-06-13T14:39:19Z</time>
      </trkpt>
      <trkpt lat="48.39203" lon="2.76407">
        <ele>95.6</ele>
        <time>2021-06-13T14:39:27Z</time>
      </trkpt>
      <trkpt lat="48.39211" lon="2.76405">
        <ele>95.7</ele>
        <time>2021-06-13T14:39:33Z</time>
      </trkpt>
      <trkpt lat="48.39222" lon="2.76407">
        <ele>96</ele>
        <time>2021-06-13T14:39:41Z</time>
      </trkpt>
      <trkpt lat="48.39229" lon="2.76407">
        <ele>96.1</ele>
        <time>2021-06-13T14:39:46Z</time>
      </trkpt>
      <trkpt lat="48.39238" lon="2.76408">
        <ele>96.4</ele>
        <time>2021-06-13T14:39:54Z</time>
      </trkpt>
      <trkpt lat="48.39247" lon="2.76407">
        <ele>96.5</ele>
        <time>2021-06-13T14:40:02Z</time>
      </trkpt>
      <trkpt lat="48.39251" lon="2.76406">
        <ele>96.5</ele>
        <time>2021-06-13T14:40:08Z</time>
      </trkpt>
      <trkpt lat="48.39258" lon="2.76407">
        <ele>96.3</ele>
        <time>2021-06-13T14:40:15Z</time>
      </trkpt>
      <trkpt lat="48.39264" lon="2.76404">
        <ele>96</ele>
        <time>2021-06-13T14:40:19Z</time>
      </trkpt>
      <trkpt lat="48.3927" lon="2.76404">
        <ele>95.8</ele>
        <time>2021-06-13T14:40:23Z</time>
      </trkpt>
      <trkpt lat="48.3928" lon="2.76403">
        <ele>95.4</ele>
        <time>2021-06-13T14:40:30Z</time>
      </trkpt>
      <trkpt lat="48.39291" lon="2.76402">
        <ele>95.1</ele>
        <time>2021-06-13T14:40:38Z</time>
      </trkpt>
      <trkpt lat="48.39301" lon="2.76405">
        <ele>94.9</ele>
        <time>2021-06-13T14:40:46Z</time>
      </trkpt>
      <trkpt lat="48.39309" lon="2.76405">
        <ele>94.6</ele>
        <time>2021-06-13T14:40:52Z</time>
      </trkpt>
      <trkpt lat="48.39311" lon="2.76404">
        <ele>94.5</ele>
        <time>2021-06-13T14:40:54Z</time>
      </trkpt>
      <trkpt lat="48.3932" lon="2.76402">
        <ele>94.2</ele>
        <time>2021-06-13T14:41:01Z</time>
      </trkpt>
      <trkpt lat="48.39325" lon="2.76401">
        <ele>94.1</ele>
        <time>2021-06-13T14:41:05Z</time>
      </trkpt>
      <trkpt lat="48.39339" lon="2.76405">
        <ele>93.5</ele>
        <time>2021-06-13T14:41:15Z</time>
      </trkpt>
      <trkpt lat="48.3935" lon="2.76405">
        <ele>92.9</ele>
        <time>2021-06-13T14:41:23Z</time>
      </trkpt>
      <trkpt lat="48.39358" lon="2.76406">
        <ele>92.5</ele>
        <time>2021-06-13T14:41:30Z</time>
      </trkpt>
      <trkpt lat="48.39368" lon="2.76407">
        <ele>92</ele>
        <time>2021-06-13T14:41:38Z</time>
      </trkpt>
      <trkpt lat="48.3937" lon="2.76407">
        <ele>91.9</ele>
        <time>2021-06-13T14:41:48Z</time>
      </trkpt>
      <trkpt lat="48.39371" lon="2.76411">
        <ele>91.8</ele>
        <time>2021-06-13T14:42:06Z</time>
      </trkpt>
      <trkpt lat="48.39373" lon="2.7641">
        <ele>91.7</ele>
        <time>2021-06-13T14:42:13Z</time>
      </trkpt>
      <trkpt lat="48.3938" lon="2.76404">
        <ele>91.3</ele>
        <time>2021-06-13T14:42:20Z</time>
      </trkpt>
      <trkpt lat="48.39385" lon="2.76405">
        <ele>91</ele>
        <time>2021-06-13T14:42:27Z</time>
      </trkpt>
      <trkpt lat="48.39388" lon="2.76405">
        <ele>90.8</ele>
        <time>2021-06-13T14:42:33Z</time>
      </trkpt>
      <trkpt lat="48.39389" lon="2.76404">
        <ele>90.8</ele>
        <time>2021-06-13T14:42:34Z</time>
      </trkpt>
      <trkpt lat="48.39396" lon="2.764">
        <ele>90.5</ele>
        <time>2021-06-13T14:42:41Z</time>
      </trkpt>
      <trkpt lat="48.39404" lon="2.764">
        <ele>90.1</ele>
        <time>2021-06-13T14:42:48Z</time>
      </trkpt>
      <trkpt lat="48.39407" lon="2.76399">
        <ele>89.9</ele>
        <time>2021-06-13T14:42:51Z</time>
      </trkpt>
      <trkpt lat="48.39415" lon="2.76395">
        <ele>89.6</ele>
        <time>2021-06-13T14:42:59Z</time>
      </trkpt>
      <trkpt lat="48.3942" lon="2.76391">
        <ele>89.5</ele>
        <time>2021-06-13T14:43:06Z</time>
      </trkpt>
      <trkpt lat="48.3942" lon="2.76388">
        <ele>89.6</ele>
        <time>2021-06-13T14:43:14Z</time>
      </trkpt>
      <trkpt lat="48.3942" lon="2.76385">
        <ele>89.6</ele>
        <time>2021-06-13T14:43:23Z</time>
      </trkpt>
      <trkpt lat="48.39431" lon="2.76389">
        <ele>89.2</ele>
        <time>2021-06-13T14:43:44Z</time>
      </trkpt>
      <trkpt lat="48.39437" lon="2.76389">
        <ele>89</ele>
        <time>2021-06-13T14:43:47Z</time>
      </trkpt>
      <trkpt lat="48.39443" lon="2.76386">
        <ele>88.9</ele>
        <time>2021-06-13T14:43:50Z</time>
      </trkpt>
      <trkpt lat="48.3945" lon="2.76379">
        <ele>88.8</ele>
        <time>2021-06-13T14:43:56Z</time>
      </trkpt>
      <trkpt lat="48.39453" lon="2.76376">
        <ele>88.7</ele>
        <time>2021-06-13T14:44:03Z</time>
      </trkpt>
      <trkpt lat="48.39456" lon="2.76372">
        <ele>88.6</ele>
        <time>2021-06-13T14:44:14Z</time>
      </trkpt>
    </trkseg>
  </trk>
</gpx>